<?xml version='1.0' encoding='UTF-8'?><gpx version="1.1" creator="JPX - https://github.com/jenetics/jpx" xmlns="http://www.topografix.com/GPX/1/1"><trk><trkseg><trkpt lat="41.878891592789756" lon="12.484528141688356"><ele>41.833333333333336</ele><time>2026-03-27T09:30:56.001Z</time></trkpt><trkpt lat="41.87893747548813" lon="12.484643338283906"><ele>41.666666666666664</ele><time>2026-03-27T09:30:57.001Z</time></trkpt><trkpt lat="41.87897962237878" lon="12.484744984208712"><ele>41.5</ele><time>2026-03-27T09:30:58.001Z</time></trkpt><trkpt lat="41.879025990872414" lon="12.48485236454538"><ele>41.33333333333333</ele><time>2026-03-27T09:30:59.001Z</time></trkpt><trkpt lat="41.879061367372444" lon="12.484942132110026"><ele>41.166666666666664</ele><time>2026-03-27T09:31:00.001Z</time></trkpt><trkpt lat="41.879096998276545" lon="12.485055955908091"><ele>41.0</ele><time>2026-03-27T09:31:02.001Z</time></trkpt><trkpt lat="41.879143991350034" lon="12.485156065001737"><ele>41.0</ele><time>2026-03-27T09:31:15.001Z</time></trkpt><trkpt lat="41.87922798854044" lon="12.485121466846431"><ele>41.0</ele><time>2026-03-27T09:31:16.001Z</time></trkpt><trkpt lat="41.87930648610961" lon="12.485075978576152"><ele>41.0</ele><time>2026-03-27T09:31:17.001Z</time></trkpt><trkpt lat="41.879404157750045" lon="12.485020116956008"><ele>41.0</ele><time>2026-03-27T09:31:18.001Z</time></trkpt><trkpt lat="41.87948568289062" lon="12.484973295105828"><ele>41.0</ele><time>2026-03-27T09:31:19.001Z</time></trkpt><trkpt lat="41.87956145836269" lon="12.48494320010385"><ele>41.0</ele><time>2026-03-27T09:31:20.001Z</time></trkpt><trkpt lat="41.87963175993971" lon="12.484908522876195"><ele>41.0</ele><time>2026-03-27T09:31:21.001Z</time></trkpt><trkpt lat="41.87970417415798" lon="12.484870895671559"><ele>41.0</ele><time>2026-03-27T09:31:22.001Z</time></trkpt><trkpt lat="41.87979218132776" lon="12.484827158547299"><ele>41.0</ele><time>2026-03-27T09:31:23.001Z</time></trkpt><trkpt lat="41.87987413812625" lon="12.484790175561212"><ele>41.0</ele><time>2026-03-27T09:31:24.001Z</time></trkpt><trkpt lat="41.879945231368964" lon="12.484756816053565"><ele>41.0</ele><time>2026-03-27T09:31:25.001Z</time></trkpt><trkpt lat="41.88001454661193" lon="12.484725822262881"><ele>41.0</ele><time>2026-03-27T09:31:26.001Z</time></trkpt><trkpt lat="41.880106173229194" lon="12.484683977641227"><ele>40.4</ele><time>2026-03-27T09:31:27.001Z</time></trkpt><trkpt lat="41.88018480321081" lon="12.48464094751213"><ele>39.8</ele><time>2026-03-27T09:31:28.001Z</time></trkpt><trkpt lat="41.88027955171367" lon="12.484591081970269"><ele>39.199999999999996</ele><time>2026-03-27T09:31:29.001Z</time></trkpt><trkpt lat="41.88039816987341" lon="12.484530246386754"><ele>38.599999999999994</ele><time>2026-03-27T09:31:31.001Z</time></trkpt><trkpt lat="41.88046162952927" lon="12.484498831402108"><ele>38.0</ele><time>2026-03-27T09:31:32.001Z</time></trkpt><trkpt lat="41.88058291389344" lon="12.484470924145056"><ele>38.0</ele><time>2026-03-27T09:31:34.001Z</time></trkpt><trkpt lat="41.88066630115095" lon="12.48459283093175"><ele>38.0</ele><time>2026-03-27T09:31:36.001Z</time></trkpt><trkpt lat="41.880713826987574" lon="12.48466067505452"><ele>38.0</ele><time>2026-03-27T09:31:37.001Z</time></trkpt><trkpt lat="41.880807196363385" lon="12.484779368321071"><ele>38.0</ele><time>2026-03-27T09:31:39.001Z</time></trkpt><trkpt lat="41.88086706184639" lon="12.48485139356212"><ele>38.0</ele><time>2026-03-27T09:31:40.001Z</time></trkpt><trkpt lat="41.880940702841386" lon="12.484945992354024"><ele>37.4</ele><time>2026-03-27T09:31:41.001Z</time></trkpt><trkpt lat="41.88101759150719" lon="12.485045974963485"><ele>36.8</ele><time>2026-03-27T09:31:42.001Z</time></trkpt><trkpt lat="41.881091781601754" lon="12.485143544520483"><ele>36.2</ele><time>2026-03-27T09:31:43.001Z</time></trkpt><trkpt lat="41.88116812403632" lon="12.485238516715862"><ele>35.6</ele><time>2026-03-27T09:31:44.001Z</time></trkpt><trkpt lat="41.881235044118796" lon="12.485322822112861"><ele>35.0</ele><time>2026-03-27T09:31:45.001Z</time></trkpt><trkpt lat="41.881293563323716" lon="12.485395742458971"><ele>34.5</ele><time>2026-03-27T09:31:46.001Z</time></trkpt><trkpt lat="41.88135467706397" lon="12.48546771138664"><ele>34.0</ele><time>2026-03-27T09:31:47.001Z</time></trkpt><trkpt lat="41.88142712152714" lon="12.485555732260957"><ele>33.5</ele><time>2026-03-27T09:31:48.001Z</time></trkpt><trkpt lat="41.88148686838167" lon="12.485639094221648"><ele>33.0</ele><time>2026-03-27T09:31:49.001Z</time></trkpt><trkpt lat="41.88155112508729" lon="12.485723522948314"><ele>32.5</ele><time>2026-03-27T09:31:50.001Z</time></trkpt><trkpt lat="41.881617409934805" lon="12.485812334954927"><ele>32.0</ele><time>2026-03-27T09:31:51.001Z</time></trkpt><trkpt lat="41.88169959026573" lon="12.485919345993258"><ele>31.666666666666664</ele><time>2026-03-27T09:31:52.002Z</time></trkpt><trkpt lat="41.881775122765426" lon="12.486009401548694"><ele>31.333333333333332</ele><time>2026-03-27T09:31:53.002Z</time></trkpt><trkpt lat="41.8818354728057" lon="12.486088979521554"><ele>31.0</ele><time>2026-03-27T09:31:54.002Z</time></trkpt><trkpt lat="41.88189059859393" lon="12.48615882397635"><ele>30.666666666666664</ele><time>2026-03-27T09:31:55.002Z</time></trkpt><trkpt lat="41.88195213945322" lon="12.486231741011457"><ele>30.333333333333332</ele><time>2026-03-27T09:31:56.002Z</time></trkpt><trkpt lat="41.88200662635629" lon="12.48630212392118"><ele>30.0</ele><time>2026-03-27T09:31:57.002Z</time></trkpt><trkpt lat="41.882063484911924" lon="12.486372912663516"><ele>30.0</ele><time>2026-03-27T09:31:58.002Z</time></trkpt><trkpt lat="41.88213494141535" lon="12.48646019505455"><ele>30.0</ele><time>2026-03-27T09:31:59.002Z</time></trkpt><trkpt lat="41.882224858816755" lon="12.48658057709934"><ele>30.0</ele><time>2026-03-27T09:32:00.002Z</time></trkpt><trkpt lat="41.882327349515045" lon="12.486734573338222"><ele>30.0</ele><time>2026-03-27T09:32:01.002Z</time></trkpt><trkpt lat="41.88242441151681" lon="12.486853826339031"><ele>30.0</ele><time>2026-03-27T09:32:02.002Z</time></trkpt><trkpt lat="41.882535044354114" lon="12.486986154854938"><ele>30.0</ele><time>2026-03-27T09:32:03.001Z</time></trkpt><trkpt lat="41.882653670194664" lon="12.487130539020042"><ele>30.0</ele><time>2026-03-27T09:32:04.001Z</time></trkpt><trkpt lat="41.882758118396815" lon="12.487259512129954"><ele>29.8</ele><time>2026-03-27T09:32:05.001Z</time></trkpt><trkpt lat="41.882847072535945" lon="12.487370102945528"><ele>29.6</ele><time>2026-03-27T09:32:06.001Z</time></trkpt><trkpt lat="41.88292815386164" lon="12.487466517308665"><ele>29.4</ele><time>2026-03-27T09:32:07.001Z</time></trkpt><trkpt lat="41.8829974387632" lon="12.487558901336131"><ele>29.2</ele><time>2026-03-27T09:32:08.001Z</time></trkpt><trkpt lat="41.883061032056766" lon="12.487639340647886"><ele>29.0</ele><time>2026-03-27T09:32:09.001Z</time></trkpt><trkpt lat="41.88311737749254" lon="12.48771070908969"><ele>28.999999999999996</ele><time>2026-03-27T09:32:10.001Z</time></trkpt><trkpt lat="41.883196296195955" lon="12.487812166222362"><ele>29.0</ele><time>2026-03-27T09:32:12.001Z</time></trkpt><trkpt lat="41.88325703259999" lon="12.487877994556776"><ele>29.0</ele><time>2026-03-27T09:32:14.001Z</time></trkpt><trkpt lat="41.883306557314846" lon="12.487941041836999"><ele>29.0</ele><time>2026-03-27T09:32:16.001Z</time></trkpt><trkpt lat="41.88336346087764" lon="12.488000139645441"><ele>28.999999999999996</ele><time>2026-03-27T09:32:21.001Z</time></trkpt><trkpt lat="41.8834140932571" lon="12.488081328308715"><ele>29.0</ele><time>2026-03-27T09:32:56.001Z</time></trkpt><trkpt lat="41.88352764091074" lon="12.488224506652093"><ele>27.799999999999997</ele><time>2026-03-27T09:32:57.001Z</time></trkpt><trkpt lat="41.88360763787328" lon="12.48833717007626"><ele>26.599999999999998</ele><time>2026-03-27T09:32:58.001Z</time></trkpt><trkpt lat="41.88368155486278" lon="12.488424133343234"><ele>25.4</ele><time>2026-03-27T09:32:59.001Z</time></trkpt><trkpt lat="41.88374544827676" lon="12.488501046694738"><ele>24.2</ele><time>2026-03-27T09:33:00.001Z</time></trkpt><trkpt lat="41.88380000659666" lon="12.488570623029485"><ele>23.0</ele><time>2026-03-27T09:33:01.001Z</time></trkpt><trkpt lat="41.883873309575335" lon="12.488662802775503"><ele>23.0</ele><time>2026-03-27T09:33:03.001Z</time></trkpt><trkpt lat="41.88392760658457" lon="12.488733875302561"><ele>23.0</ele><time>2026-03-27T09:33:07.001Z</time></trkpt><trkpt lat="41.88399323656925" lon="12.488759620735232"><ele>23.0</ele><time>2026-03-27T09:33:12.001Z</time></trkpt><trkpt lat="41.88404182476443" lon="12.488819333286978"><ele>23.0</ele><time>2026-03-27T09:33:35.001Z</time></trkpt><trkpt lat="41.88411898243106" lon="12.488899872771734"><ele>23.0</ele><time>2026-03-27T09:33:36.001Z</time></trkpt><trkpt lat="41.884205226030794" lon="12.488986539182271"><ele>23.0</ele><time>2026-03-27T09:33:37.001Z</time></trkpt><trkpt lat="41.88427052796285" lon="12.48905720811878"><ele>23.333333333333336</ele><time>2026-03-27T09:33:38.001Z</time></trkpt><trkpt lat="41.884368740197395" lon="12.489136183464943"><ele>23.666666666666668</ele><time>2026-03-27T09:33:40.001Z</time></trkpt><trkpt lat="41.88445629411132" lon="12.489187832081443"><ele>24.0</ele><time>2026-03-27T09:33:42.001Z</time></trkpt><trkpt lat="41.88451946159515" lon="12.489219818871389"><ele>24.333333333333336</ele><time>2026-03-27T09:33:44.001Z</time></trkpt><trkpt lat="41.88458042885517" lon="12.489252187963992"><ele>24.666666666666668</ele><time>2026-03-27T09:33:54.001Z</time></trkpt><trkpt lat="41.884668454286285" lon="12.489282345785238"><ele>25.0</ele><time>2026-03-27T09:34:06.001Z</time></trkpt><trkpt lat="41.88476549906739" lon="12.48929596786852"><ele>25.0</ele><time>2026-03-27T09:34:08.001Z</time></trkpt><trkpt lat="41.88478515289418" lon="12.489395327141654"><ele>25.0</ele><time>2026-03-27T09:34:09.001Z</time></trkpt><trkpt lat="41.884847725350404" lon="12.489411033289752"><ele>25.0</ele><time>2026-03-27T09:34:14.001Z</time></trkpt><trkpt lat="41.88486617659081" lon="12.48928688961176"><ele>25.0</ele><time>2026-03-27T09:34:15.001Z</time></trkpt><trkpt lat="41.88494770004534" lon="12.489153709569313"><ele>25.0</ele><time>2026-03-27T09:34:27Z</time></trkpt><trkpt lat="41.884998195934784" lon="12.489036898172111"><ele>25.000000000000004</ele><time>2026-03-27T09:34:28Z</time></trkpt><trkpt lat="41.88503601436882" lon="12.488954659215596"><ele>25.0</ele><time>2026-03-27T09:34:29Z</time></trkpt><trkpt lat="41.8850778236921" lon="12.488855851152204"><ele>25.0</ele><time>2026-03-27T09:34:31Z</time></trkpt><trkpt lat="41.88511856701657" lon="12.488779036530715"><ele>25.0</ele><time>2026-03-27T09:34:33Z</time></trkpt><trkpt lat="41.88515953365272" lon="12.48871254276091"><ele>25.000000000000004</ele><time>2026-03-27T09:34:39Z</time></trkpt><trkpt lat="41.885209623159206" lon="12.488647545998413"><ele>25.0</ele><time>2026-03-27T09:34:40Z</time></trkpt><trkpt lat="41.88527052195282" lon="12.488503546373847"><ele>25.4</ele><time>2026-03-27T09:34:42Z</time></trkpt><trkpt lat="41.885334679735095" lon="12.488391000585397"><ele>25.8</ele><time>2026-03-27T09:34:44Z</time></trkpt><trkpt lat="41.885371890032104" lon="12.488319698825284"><ele>26.200000000000003</ele><time>2026-03-27T09:34:45Z</time></trkpt><trkpt lat="41.885430639963566" lon="12.48820712318202"><ele>26.6</ele><time>2026-03-27T09:34:46Z</time></trkpt><trkpt lat="41.88549380714042" lon="12.488084577780644"><ele>27.0</ele><time>2026-03-27T09:34:47Z</time></trkpt><trkpt lat="41.88556952996365" lon="12.487941082690943"><ele>26.0</ele><time>2026-03-27T09:34:48Z</time></trkpt><trkpt lat="41.88564980020366" lon="12.487779990476056"><ele>25.0</ele><time>2026-03-27T09:34:49Z</time></trkpt><trkpt lat="41.885702065211966" lon="12.487695389039892"><ele>24.0</ele><time>2026-03-27T09:34:50Z</time></trkpt><trkpt lat="41.88577868119454" lon="12.487553899316591"><ele>23.0</ele><time>2026-03-27T09:34:51Z</time></trkpt><trkpt lat="41.885839529518435" lon="12.487406792238367"><ele>25.5</ele><time>2026-03-27T09:34:52Z</time></trkpt><trkpt lat="41.885930321679325" lon="12.487279723589635"><ele>28.0</ele><time>2026-03-27T09:34:53.001Z</time></trkpt><trkpt lat="41.886004019296365" lon="12.487149750125742"><ele>30.5</ele><time>2026-03-27T09:34:54.001Z</time></trkpt><trkpt lat="41.886072784744535" lon="12.48702847506125"><ele>33.0</ele><time>2026-03-27T09:34:55.001Z</time></trkpt><trkpt lat="41.88613842661806" lon="12.48691270873874"><ele>33.0</ele><time>2026-03-27T09:34:56.001Z</time></trkpt><trkpt lat="41.88619426715171" lon="12.48681241809365"><ele>33.0</ele><time>2026-03-27T09:34:57.001Z</time></trkpt><trkpt lat="41.88625153228158" lon="12.486709361348153"><ele>33.0</ele><time>2026-03-27T09:34:58.001Z</time></trkpt><trkpt lat="41.88631289648257" lon="12.486596656342853"><ele>33.0</ele><time>2026-03-27T09:34:59.001Z</time></trkpt><trkpt lat="41.886363745150554" lon="12.4865031243929"><ele>33.0</ele><time>2026-03-27T09:35:00.001Z</time></trkpt><trkpt lat="41.886423457735184" lon="12.486393288004303"><ele>33.0</ele><time>2026-03-27T09:35:01.001Z</time></trkpt><trkpt lat="41.886478542551714" lon="12.486291964006387"><ele>33.0</ele><time>2026-03-27T09:35:02.001Z</time></trkpt><trkpt lat="41.88653529891526" lon="12.486187565337728"><ele>33.0</ele><time>2026-03-27T09:35:03.001Z</time></trkpt><trkpt lat="41.88658495063082" lon="12.486096235085162"><ele>33.0</ele><time>2026-03-27T09:35:04.001Z</time></trkpt><trkpt lat="41.886628007508456" lon="12.486017035495735"><ele>33.0</ele><time>2026-03-27T09:35:05.001Z</time></trkpt><trkpt lat="41.88668271053243" lon="12.485915335223025"><ele>33.0</ele><time>2026-03-27T09:35:06.001Z</time></trkpt><trkpt lat="41.88674887226842" lon="12.48579032882953"><ele>33.199999999999996</ele><time>2026-03-27T09:35:07.001Z</time></trkpt><trkpt lat="41.886811633675954" lon="12.485676643052688"><ele>33.4</ele><time>2026-03-27T09:35:08.001Z</time></trkpt><trkpt lat="41.88687234104101" lon="12.485566544384598"><ele>33.599999999999994</ele><time>2026-03-27T09:35:09.001Z</time></trkpt><trkpt lat="41.88691785135684" lon="12.485482777586785"><ele>33.8</ele><time>2026-03-27T09:35:10.001Z</time></trkpt><trkpt lat="41.886969999916815" lon="12.485386314110196"><ele>34.0</ele><time>2026-03-27T09:35:11.001Z</time></trkpt><trkpt lat="41.88702381431714" lon="12.485286766354879"><ele>32.6</ele><time>2026-03-27T09:35:12.001Z</time></trkpt><trkpt lat="41.88708684328691" lon="12.485170093986884"><ele>31.2</ele><time>2026-03-27T09:35:13.001Z</time></trkpt><trkpt lat="41.8871265839632" lon="12.485096530374781"><ele>29.800000000000004</ele><time>2026-03-27T09:35:14.001Z</time></trkpt><trkpt lat="41.88716392836866" lon="12.485027402478224"><ele>28.400000000000002</ele><time>2026-03-27T09:35:15.001Z</time></trkpt><trkpt lat="41.887233113472156" lon="12.484897389029877"><ele>27.0</ele><time>2026-03-27T09:35:17.001Z</time></trkpt><trkpt lat="41.88729492043066" lon="12.48478120972875"><ele>27.0</ele><time>2026-03-27T09:35:19.001Z</time></trkpt><trkpt lat="41.8873471809131" lon="12.484684994347539"><ele>27.0</ele><time>2026-03-27T09:35:20.001Z</time></trkpt><trkpt lat="41.88742312968039" lon="12.484547953453424"><ele>27.0</ele><time>2026-03-27T09:35:21.001Z</time></trkpt><trkpt lat="41.88748594305284" lon="12.484436693601499"><ele>27.0</ele><time>2026-03-27T09:35:22.001Z</time></trkpt><trkpt lat="41.88756494349904" lon="12.484298102431634"><ele>28.25</ele><time>2026-03-27T09:35:23.001Z</time></trkpt><trkpt lat="41.887640645416" lon="12.484168057323007"><ele>29.5</ele><time>2026-03-27T09:35:24.001Z</time></trkpt><trkpt lat="41.887724813140615" lon="12.484023471520757"><ele>30.75</ele><time>2026-03-27T09:35:25.001Z</time></trkpt><trkpt lat="41.88779382891677" lon="12.483904913753602"><ele>32.0</ele><time>2026-03-27T09:35:26.001Z</time></trkpt><trkpt lat="41.887857369513" lon="12.483795761706483"><ele>30.6</ele><time>2026-03-27T09:35:27.001Z</time></trkpt><trkpt lat="41.887926800603886" lon="12.483676248342256"><ele>29.200000000000003</ele><time>2026-03-27T09:35:28.001Z</time></trkpt><trkpt lat="41.887983055971" lon="12.483560146423358"><ele>27.8</ele><time>2026-03-27T09:35:29.001Z</time></trkpt><trkpt lat="41.88804744167959" lon="12.483467015811993"><ele>26.4</ele><time>2026-03-27T09:35:30.001Z</time></trkpt><trkpt lat="41.8881037763044" lon="12.48337096410017"><ele>25.0</ele><time>2026-03-27T09:35:31.001Z</time></trkpt><trkpt lat="41.88816563789484" lon="12.483259857780219"><ele>25.0</ele><time>2026-03-27T09:35:32.001Z</time></trkpt><trkpt lat="41.88823651960281" lon="12.48313954495321"><ele>25.0</ele><time>2026-03-27T09:35:33.001Z</time></trkpt><trkpt lat="41.88831977722521" lon="12.48302544640245"><ele>25.0</ele><time>2026-03-27T09:35:34.001Z</time></trkpt><trkpt lat="41.88840332221478" lon="12.482893928422065"><ele>25.0</ele><time>2026-03-27T09:35:35.001Z</time></trkpt><trkpt lat="41.88848633823709" lon="12.482769319833068"><ele>25.2</ele><time>2026-03-27T09:35:36.001Z</time></trkpt><trkpt lat="41.8885681466805" lon="12.482645085910933"><ele>25.4</ele><time>2026-03-27T09:35:37.001Z</time></trkpt><trkpt lat="41.88864337609207" lon="12.482540485606142"><ele>25.6</ele><time>2026-03-27T09:35:38.001Z</time></trkpt><trkpt lat="41.88870137760323" lon="12.482448773270225"><ele>25.8</ele><time>2026-03-27T09:35:39.001Z</time></trkpt><trkpt lat="41.88876565777489" lon="12.482361413240909"><ele>26.0</ele><time>2026-03-27T09:35:40.001Z</time></trkpt><trkpt lat="41.88881408057187" lon="12.482287231329114"><ele>25.999999999999996</ele><time>2026-03-27T09:35:41.001Z</time></trkpt><trkpt lat="41.88890295590205" lon="12.482157849067619"><ele>26.0</ele><time>2026-03-27T09:35:43.001Z</time></trkpt><trkpt lat="41.8889460924428" lon="12.482086391579603"><ele>26.0</ele><time>2026-03-27T09:35:44.001Z</time></trkpt><trkpt lat="41.88897965099807" lon="12.482001495018629"><ele>26.0</ele><time>2026-03-27T09:35:45.001Z</time></trkpt><trkpt lat="41.88900603221039" lon="12.48190243556412"><ele>25.999999999999996</ele><time>2026-03-27T09:35:46.001Z</time></trkpt><trkpt lat="41.88904784383463" lon="12.481784977704256"><ele>26.0</ele><time>2026-03-27T09:35:47.001Z</time></trkpt><trkpt lat="41.889100811561754" lon="12.481695707242995"><ele>25.333333333333332</ele><time>2026-03-27T09:35:48.001Z</time></trkpt><trkpt lat="41.88913106196598" lon="12.48161141860213"><ele>24.666666666666664</ele><time>2026-03-27T09:35:50.001Z</time></trkpt><trkpt lat="41.88916320269527" lon="12.481526017043631"><ele>24.0</ele><time>2026-03-27T09:35:54.001Z</time></trkpt><trkpt lat="41.889200965885074" lon="12.481427348841702"><ele>23.333333333333332</ele><time>2026-03-27T09:35:56.001Z</time></trkpt><trkpt lat="41.88925417699536" lon="12.481302916282578"><ele>22.666666666666664</ele><time>2026-03-27T09:35:58.001Z</time></trkpt><trkpt lat="41.889326549398746" lon="12.481246637455863"><ele>22.0</ele><time>2026-03-27T09:35:59.001Z</time></trkpt><trkpt lat="41.88939405856381" lon="12.481209372881912"><ele>21.8</ele><time>2026-03-27T09:36:00.001Z</time></trkpt><trkpt lat="41.88946090623416" lon="12.481176460450557"><ele>21.6</ele><time>2026-03-27T09:36:01.001Z</time></trkpt><trkpt lat="41.88958163048859" lon="12.48112997150122"><ele>21.400000000000002</ele><time>2026-03-27T09:36:03.001Z</time></trkpt><trkpt lat="41.88968700706551" lon="12.481074205265914"><ele>21.200000000000003</ele><time>2026-03-27T09:36:05.001Z</time></trkpt><trkpt lat="41.88976653633591" lon="12.481037314311179"><ele>21.0</ele><time>2026-03-27T09:36:06.001Z</time></trkpt><trkpt lat="41.88985657983459" lon="12.48099598126049"><ele>21.0</ele><time>2026-03-27T09:36:07.001Z</time></trkpt><trkpt lat="41.88999096541648" lon="12.480948280530326"><ele>21.0</ele><time>2026-03-27T09:36:08.001Z</time></trkpt><trkpt lat="41.89014006576858" lon="12.480885741592179"><ele>21.0</ele><time>2026-03-27T09:36:09.001Z</time></trkpt><trkpt lat="41.89027188973616" lon="12.48085244701349"><ele>21.0</ele><time>2026-03-27T09:36:10.001Z</time></trkpt><trkpt lat="41.890376827261726" lon="12.480819442396335"><ele>20.666666666666668</ele><time>2026-03-27T09:36:11.001Z</time></trkpt><trkpt lat="41.89047132608332" lon="12.480781660382673"><ele>20.333333333333332</ele><time>2026-03-27T09:36:12.001Z</time></trkpt><trkpt lat="41.890544932277415" lon="12.480738190348225"><ele>20.0</ele><time>2026-03-27T09:36:13.001Z</time></trkpt><trkpt lat="41.89061104279958" lon="12.480712571031196"><ele>19.666666666666664</ele><time>2026-03-27T09:36:14.001Z</time></trkpt><trkpt lat="41.89068078884155" lon="12.480683252709285"><ele>19.333333333333332</ele><time>2026-03-27T09:36:16Z</time></trkpt><trkpt lat="41.89078121013408" lon="12.480637479212133"><ele>19.0</ele><time>2026-03-27T09:36:51Z</time></trkpt><trkpt lat="41.89085075706009" lon="12.480606590433265"><ele>19.0</ele><time>2026-03-27T09:36:52Z</time></trkpt><trkpt lat="41.890919201989526" lon="12.480579503526013"><ele>19.0</ele><time>2026-03-27T09:36:53Z</time></trkpt><trkpt lat="41.89105241823243" lon="12.480528105755143"><ele>19.0</ele><time>2026-03-27T09:36:55Z</time></trkpt><trkpt lat="41.89112628698432" lon="12.480507749257312"><ele>19.0</ele><time>2026-03-27T09:36:56Z</time></trkpt><trkpt lat="41.8912079909865" lon="12.480482117200935"><ele>19.0</ele><time>2026-03-27T09:36:57Z</time></trkpt><trkpt lat="41.8912863174808" lon="12.480455287650138"><ele>20.0</ele><time>2026-03-27T09:36:58Z</time></trkpt><trkpt lat="41.89136402808456" lon="12.480423640180577"><ele>21.0</ele><time>2026-03-27T09:36:59Z</time></trkpt><trkpt lat="41.89144049159183" lon="12.480396504576081"><ele>22.0</ele><time>2026-03-27T09:37:00Z</time></trkpt><trkpt lat="41.89151713211093" lon="12.480375154167659"><ele>23.0</ele><time>2026-03-27T09:37:01Z</time></trkpt><trkpt lat="41.89158503104994" lon="12.480341376587804"><ele>24.000000000000004</ele><time>2026-03-27T09:37:02Z</time></trkpt><trkpt lat="41.89165639687492" lon="12.48032981224601"><ele>25.0</ele><time>2026-03-27T09:37:03Z</time></trkpt><trkpt lat="41.89173093159572" lon="12.480324958791982"><ele>24.857142857142858</ele><time>2026-03-27T09:37:04Z</time></trkpt><trkpt lat="41.89179849969015" lon="12.480325954897047"><ele>24.714285714285715</ele><time>2026-03-27T09:37:05Z</time></trkpt><trkpt lat="41.89187541588964" lon="12.480347219535552"><ele>24.57142857142857</ele><time>2026-03-27T09:37:06Z</time></trkpt><trkpt lat="41.891953016409445" lon="12.480374731558896"><ele>24.42857142857143</ele><time>2026-03-27T09:37:07Z</time></trkpt><trkpt lat="41.89201430476498" lon="12.480399625316789"><ele>24.285714285714285</ele><time>2026-03-27T09:37:08Z</time></trkpt><trkpt lat="41.89207614429937" lon="12.4804259799683"><ele>24.142857142857142</ele><time>2026-03-27T09:37:09Z</time></trkpt><trkpt lat="41.89213974015477" lon="12.480453083123468"><ele>24.0</ele><time>2026-03-27T09:37:10Z</time></trkpt><trkpt lat="41.89221377180394" lon="12.48048463377494"><ele>24.857142857142854</ele><time>2026-03-27T09:37:11Z</time></trkpt><trkpt lat="41.892280473572114" lon="12.480513082037621"><ele>25.714285714285715</ele><time>2026-03-27T09:37:12Z</time></trkpt><trkpt lat="41.892343386101516" lon="12.48054035591064"><ele>26.57142857142857</ele><time>2026-03-27T09:37:13Z</time></trkpt><trkpt lat="41.892416868844116" lon="12.480574834254437"><ele>27.428571428571427</ele><time>2026-03-27T09:37:14Z</time></trkpt><trkpt lat="41.892474831564904" lon="12.480627514310111"><ele>28.285714285714285</ele><time>2026-03-27T09:37:15Z</time></trkpt><trkpt lat="41.89254514911842" lon="12.480660606592368"><ele>29.142857142857142</ele><time>2026-03-27T09:37:16Z</time></trkpt><trkpt lat="41.89261493299586" lon="12.480702744411232"><ele>30.0</ele><time>2026-03-27T09:37:17Z</time></trkpt><trkpt lat="41.892706444759966" lon="12.480776937678089"><ele>30.333333333333332</ele><time>2026-03-27T09:37:19Z</time></trkpt><trkpt lat="41.89276548047482" lon="12.480849349076998"><ele>30.666666666666664</ele><time>2026-03-27T09:37:21Z</time></trkpt><trkpt lat="41.89282146878789" lon="12.480934521131726"><ele>31.0</ele><time>2026-03-27T09:37:23.001Z</time></trkpt><trkpt lat="41.89289824457498" lon="12.481015790113474"><ele>31.333333333333332</ele><time>2026-03-27T09:37:24.001Z</time></trkpt><trkpt lat="41.89295650088986" lon="12.481099262601528"><ele>31.666666666666664</ele><time>2026-03-27T09:37:25.001Z</time></trkpt><trkpt lat="41.89299330869267" lon="12.481171721074222"><ele>32.0</ele><time>2026-03-27T09:37:27.001Z</time></trkpt><trkpt lat="41.893089728536864" lon="12.481249549529851"><ele>32.166666666666664</ele><time>2026-03-27T09:37:35.001Z</time></trkpt><trkpt lat="41.89314622513276" lon="12.481323780836751"><ele>32.33333333333333</ele><time>2026-03-27T09:37:36.001Z</time></trkpt><trkpt lat="41.89320103058626" lon="12.481393865561683"><ele>32.5</ele><time>2026-03-27T09:37:38.001Z</time></trkpt><trkpt lat="41.89326383950343" lon="12.481470880167599"><ele>32.666666666666664</ele><time>2026-03-27T09:37:40.001Z</time></trkpt><trkpt lat="41.89332716444812" lon="12.481541161088614"><ele>32.833333333333336</ele><time>2026-03-27T09:37:42.001Z</time></trkpt><trkpt lat="41.89340671732467" lon="12.481598616681202"><ele>33.0</ele><time>2026-03-27T09:37:45.001Z</time></trkpt><trkpt lat="41.8934966122955" lon="12.48172343987687"><ele>33.0</ele><time>2026-03-27T09:37:47.001Z</time></trkpt><trkpt lat="41.89356793152664" lon="12.481789153252237"><ele>33.0</ele><time>2026-03-27T09:37:49.001Z</time></trkpt><trkpt lat="41.893629005981516" lon="12.481834914058982"><ele>33.0</ele><time>2026-03-27T09:37:51.001Z</time></trkpt><trkpt lat="41.893727411840814" lon="12.481860270216435"><ele>33.0</ele><time>2026-03-27T09:37:54.001Z</time></trkpt><trkpt lat="41.893795537126444" lon="12.48186190378914"><ele>33.0</ele><time>2026-03-27T09:37:55.001Z</time></trkpt><trkpt lat="41.893868530221816" lon="12.481850757489207"><ele>33.0</ele><time>2026-03-27T09:37:57.001Z</time></trkpt><trkpt lat="41.8939413410372" lon="12.481875120463346"><ele>33.0</ele><time>2026-03-27T09:37:59.001Z</time></trkpt><trkpt lat="41.89401098805376" lon="12.481905156158378"><ele>33.0</ele><time>2026-03-27T09:38:03.001Z</time></trkpt><trkpt lat="41.89410999632384" lon="12.48194644980976"><ele>33.0</ele><time>2026-03-27T09:38:06.001Z</time></trkpt><trkpt lat="41.8942044652442" lon="12.481990191986124"><ele>33.0</ele><time>2026-03-27T09:38:08.001Z</time></trkpt><trkpt lat="41.894272064232034" lon="12.482035285220698"><ele>33.0</ele><time>2026-03-27T09:38:14.001Z</time></trkpt><trkpt lat="41.89437101481215" lon="12.48205975904764"><ele>32.285714285714285</ele><time>2026-03-27T09:38:17.001Z</time></trkpt><trkpt lat="41.894439188372395" lon="12.48208599449086"><ele>31.571428571428573</ele><time>2026-03-27T09:38:18.001Z</time></trkpt><trkpt lat="41.894531685118636" lon="12.482121590194836"><ele>30.857142857142858</ele><time>2026-03-27T09:38:20.001Z</time></trkpt><trkpt lat="41.89459707709638" lon="12.482117747699899"><ele>30.142857142857142</ele><time>2026-03-27T09:38:22Z</time></trkpt><trkpt lat="41.89466352851231" lon="12.482132765859316"><ele>29.42857142857143</ele><time>2026-03-27T09:38:26Z</time></trkpt><trkpt lat="41.894726753455906" lon="12.482128854679488"><ele>28.714285714285715</ele><time>2026-03-27T09:38:29Z</time></trkpt><trkpt lat="41.89479037021507" lon="12.482117859157785"><ele>28.0</ele><time>2026-03-27T09:38:35Z</time></trkpt><trkpt lat="41.89485664211997" lon="12.48210670885529"><ele>28.000000000000004</ele><time>2026-03-27T09:38:41Z</time></trkpt><trkpt lat="41.894926810868995" lon="12.482105548088374"><ele>28.0</ele><time>2026-03-27T09:38:46Z</time></trkpt><trkpt lat="41.89500547085603" lon="12.482096495448413"><ele>28.0</ele><time>2026-03-27T09:38:51Z</time></trkpt><trkpt lat="41.895087903155186" lon="12.482101322026805"><ele>28.0</ele><time>2026-03-27T09:38:54Z</time></trkpt><trkpt lat="41.89515063945156" lon="12.482112823073887"><ele>28.000000000000004</ele><time>2026-03-27T09:38:56Z</time></trkpt><trkpt lat="41.89526307620075" lon="12.482161071667026"><ele>28.0</ele><time>2026-03-27T09:38:58Z</time></trkpt><trkpt lat="41.89533071983227" lon="12.482215630419239"><ele>27.5</ele><time>2026-03-27T09:38:59Z</time></trkpt><trkpt lat="41.89539141007574" lon="12.48227316157178"><ele>27.0</ele><time>2026-03-27T09:39:00Z</time></trkpt><trkpt lat="41.89546858329934" lon="12.482346317671922"><ele>26.5</ele><time>2026-03-27T09:39:01Z</time></trkpt><trkpt lat="41.89553607680119" lon="12.482629654354845"><ele>26.0</ele><time>2026-03-27T09:39:02Z</time></trkpt><trkpt lat="41.8956096290851" lon="12.482731714512514"><ele>30.0</ele><time>2026-03-27T09:39:03Z</time></trkpt><trkpt lat="41.895953519324486" lon="12.48284079878355"><ele>34.0</ele><time>2026-03-27T09:39:04Z</time></trkpt><trkpt lat="41.89600427649028" lon="12.482219655318664"><ele>34.0</ele><time>2026-03-27T09:39:05Z</time></trkpt><trkpt lat="41.8960948913058" lon="12.482184598451976"><ele>34.0</ele><time>2026-03-27T09:39:06Z</time></trkpt><trkpt lat="41.89617477349336" lon="12.482154983569364"><ele>34.0</ele><time>2026-03-27T09:39:07Z</time></trkpt><trkpt lat="41.89624071449954" lon="12.482130537139147"><ele>34.0</ele><time>2026-03-27T09:39:08Z</time></trkpt><trkpt lat="41.896301905900565" lon="12.482107851564392"><ele>34.0</ele><time>2026-03-27T09:39:09Z</time></trkpt><trkpt lat="41.89637457435421" lon="12.482080911085534"><ele>34.0</ele><time>2026-03-27T09:39:10Z</time></trkpt><trkpt lat="41.89643841375865" lon="12.482057243759762"><ele>33.2</ele><time>2026-03-27T09:39:11Z</time></trkpt><trkpt lat="41.896465923253025" lon="12.4819129294433"><ele>32.4</ele><time>2026-03-27T09:39:12Z</time></trkpt><trkpt lat="41.89656310734002" lon="12.481839177801058"><ele>31.6</ele><time>2026-03-27T09:39:14Z</time></trkpt><trkpt lat="41.89656545143515" lon="12.481694027373527"><ele>30.8</ele><time>2026-03-27T09:39:16Z</time></trkpt><trkpt lat="41.89654902200442" lon="12.481603598872944"><ele>30.0</ele><time>2026-03-27T09:39:17Z</time></trkpt><trkpt lat="41.89651391851761" lon="12.481469651373231"><ele>30.0</ele><time>2026-03-27T09:39:18Z</time></trkpt><trkpt lat="41.89647817888047" lon="12.481310256458173"><ele>30.0</ele><time>2026-03-27T09:39:19Z</time></trkpt><trkpt lat="41.89644429765288" lon="12.481169544317583"><ele>30.0</ele><time>2026-03-27T09:39:20Z</time></trkpt><trkpt lat="41.89642365519052" lon="12.481058733670638"><ele>30.0</ele><time>2026-03-27T09:39:21Z</time></trkpt><trkpt lat="41.896403837962715" lon="12.480956542734912"><ele>30.0</ele><time>2026-03-27T09:39:22Z</time></trkpt><trkpt lat="41.89637123222017" lon="12.480805433711707"><ele>31.0</ele><time>2026-03-27T09:39:24Z</time></trkpt><trkpt lat="41.896347994082" lon="12.480687716835533"><ele>32.0</ele><time>2026-03-27T09:39:26Z</time></trkpt><trkpt lat="41.896330322675375" lon="12.480565458820228"><ele>33.0</ele><time>2026-03-27T09:39:28Z</time></trkpt><trkpt lat="41.89629433126469" lon="12.48042908437997"><ele>34.0</ele><time>2026-03-27T09:39:30Z</time></trkpt><trkpt lat="41.896247607392944" lon="12.4802454459709"><ele>35.0</ele><time>2026-03-27T09:39:32Z</time></trkpt><trkpt lat="41.89621320126315" lon="12.480102264576152"><ele>35.2</ele><time>2026-03-27T09:39:34Z</time></trkpt><trkpt lat="41.896185976052394" lon="12.47995613114713"><ele>35.4</ele><time>2026-03-27T09:39:36Z</time></trkpt><trkpt lat="41.89615056037195" lon="12.479826456798644"><ele>35.6</ele><time>2026-03-27T09:39:38Z</time></trkpt><trkpt lat="41.89613111304812" lon="12.479732244765389"><ele>35.8</ele><time>2026-03-27T09:39:40Z</time></trkpt><trkpt lat="41.89610815225142" lon="12.479624341260754"><ele>36.0</ele><time>2026-03-27T09:39:42Z</time></trkpt><trkpt lat="41.89608753478511" lon="12.479509094288224"><ele>36.0</ele><time>2026-03-27T09:39:44.001Z</time></trkpt><trkpt lat="41.896060629982" lon="12.479397698753875"><ele>36.0</ele><time>2026-03-27T09:40:02.001Z</time></trkpt><trkpt lat="41.896035693684226" lon="12.479297564259529"><ele>36.0</ele><time>2026-03-27T09:40:04.001Z</time></trkpt><trkpt lat="41.896004614771584" lon="12.479167765573484"><ele>36.0</ele><time>2026-03-27T09:40:06.001Z</time></trkpt><trkpt lat="41.89600381895966" lon="12.479072242182102"><ele>36.0</ele><time>2026-03-27T09:40:07.001Z</time></trkpt><trkpt lat="41.89599768515729" lon="12.478941050091494"><ele>36.0</ele><time>2026-03-27T09:40:08.001Z</time></trkpt><trkpt lat="41.89598956013328" lon="12.478803528092524"><ele>35.333333333333336</ele><time>2026-03-27T09:40:09.001Z</time></trkpt><trkpt lat="41.895982785991954" lon="12.478682582993637"><ele>34.666666666666664</ele><time>2026-03-27T09:40:10.001Z</time></trkpt><trkpt lat="41.89597435319553" lon="12.478565090071118"><ele>34.0</ele><time>2026-03-27T09:40:11.001Z</time></trkpt><trkpt lat="41.89596578431689" lon="12.478459569568841"><ele>33.33333333333333</ele><time>2026-03-27T09:40:12.001Z</time></trkpt><trkpt lat="41.89595677897049" lon="12.47835682737651"><ele>32.666666666666664</ele><time>2026-03-27T09:40:13.001Z</time></trkpt><trkpt lat="41.89597039218809" lon="12.478255635270889"><ele>32.0</ele><time>2026-03-27T09:40:14.001Z</time></trkpt><trkpt lat="41.89595502405677" lon="12.478149479591888"><ele>32.0</ele><time>2026-03-27T09:40:15.001Z</time></trkpt><trkpt lat="41.89596148445575" lon="12.478036492341442"><ele>32.0</ele><time>2026-03-27T09:40:16.001Z</time></trkpt><trkpt lat="41.89596590296119" lon="12.477914641555383"><ele>32.0</ele><time>2026-03-27T09:40:17.001Z</time></trkpt><trkpt lat="41.895967626959106" lon="12.47774328618793"><ele>32.0</ele><time>2026-03-27T09:40:18.001Z</time></trkpt><trkpt lat="41.895977636545524" lon="12.47754010943926"><ele>32.0</ele><time>2026-03-27T09:40:19.001Z</time></trkpt><trkpt lat="41.895987516043775" lon="12.477380552327054"><ele>32.0</ele><time>2026-03-27T09:40:20.001Z</time></trkpt><trkpt lat="41.89598885187159" lon="12.477225321816093"><ele>32.0</ele><time>2026-03-27T09:40:21.001Z</time></trkpt><trkpt lat="41.895985723909526" lon="12.47709023333459"><ele>32.0</ele><time>2026-03-27T09:40:22.001Z</time></trkpt><trkpt lat="41.89597540004089" lon="12.476967584641455"><ele>32.0</ele><time>2026-03-27T09:40:23.001Z</time></trkpt><trkpt lat="41.895985896162244" lon="12.476838032283672"><ele>32.0</ele><time>2026-03-27T09:40:24.001Z</time></trkpt><trkpt lat="41.89595097581704" lon="12.476702430541732"><ele>32.0</ele><time>2026-03-27T09:40:25.001Z</time></trkpt><trkpt lat="41.89593663733121" lon="12.476568550341643"><ele>32.0</ele><time>2026-03-27T09:40:26.001Z</time></trkpt><trkpt lat="41.89588861342719" lon="12.476466166921474"><ele>32.0</ele><time>2026-03-27T09:40:27Z</time></trkpt><trkpt lat="41.89585207139922" lon="12.476361791594938"><ele>32.0</ele><time>2026-03-27T09:40:28Z</time></trkpt><trkpt lat="41.89591396518613" lon="12.476260271518615"><ele>31.999999999999996</ele><time>2026-03-27T09:40:29Z</time></trkpt><trkpt lat="41.895909533722325" lon="12.476166405852851"><ele>32.0</ele><time>2026-03-27T09:40:30Z</time></trkpt><trkpt lat="41.895963353480255" lon="12.476107066427343"><ele>32.0</ele><time>2026-03-27T09:40:31Z</time></trkpt><trkpt lat="41.89596863566604" lon="12.475997530156075"><ele>32.0</ele><time>2026-03-27T09:40:33Z</time></trkpt><trkpt lat="41.89601330114909" lon="12.475891124836346"><ele>31.999999999999996</ele><time>2026-03-27T09:40:35Z</time></trkpt><trkpt lat="41.895959948654685" lon="12.475807782247987"><ele>32.0</ele><time>2026-03-27T09:40:36Z</time></trkpt><trkpt lat="41.8959661345937" lon="12.475717588324827"><ele>31.8</ele><time>2026-03-27T09:40:37Z</time></trkpt><trkpt lat="41.89597193608174" lon="12.475632999860332"><ele>31.6</ele><time>2026-03-27T09:40:38Z</time></trkpt><trkpt lat="41.896108278059266" lon="12.475554569655923"><ele>31.400000000000002</ele><time>2026-03-27T09:40:39Z</time></trkpt><trkpt lat="41.896125623857934" lon="12.475446561247434"><ele>31.200000000000003</ele><time>2026-03-27T09:40:40Z</time></trkpt><trkpt lat="41.896137606278444" lon="12.475340814318173"><ele>31.0</ele><time>2026-03-27T09:40:41Z</time></trkpt><trkpt lat="41.89615148194284" lon="12.475227097198712"><ele>31.0</ele><time>2026-03-27T09:40:42Z</time></trkpt><trkpt lat="41.89617084141087" lon="12.47510994861203"><ele>31.0</ele><time>2026-03-27T09:40:43Z</time></trkpt><trkpt lat="41.89619329918241" lon="12.474998387739186"><ele>31.0</ele><time>2026-03-27T09:40:44Z</time></trkpt><trkpt lat="41.896197358118656" lon="12.474894992723968"><ele>31.0</ele><time>2026-03-27T09:40:45Z</time></trkpt><trkpt lat="41.896474740184665" lon="12.474844718168532"><ele>31.0</ele><time>2026-03-27T09:40:46Z</time></trkpt><trkpt lat="41.89648591332775" lon="12.474739315824824"><ele>31.0</ele><time>2026-03-27T09:40:47Z</time></trkpt><trkpt lat="41.896496211896135" lon="12.47464216479839"><ele>31.0</ele><time>2026-03-27T09:40:48Z</time></trkpt><trkpt lat="41.896511425013166" lon="12.474490138358762"><ele>31.0</ele><time>2026-03-27T09:40:49Z</time></trkpt><trkpt lat="41.896527050341234" lon="12.474336318328525"><ele>31.0</ele><time>2026-03-27T09:40:50Z</time></trkpt><trkpt lat="41.896540089553376" lon="12.474207831958154"><ele>31.166666666666668</ele><time>2026-03-27T09:40:51Z</time></trkpt><trkpt lat="41.89655076129359" lon="12.474095817906777"><ele>31.333333333333336</ele><time>2026-03-27T09:40:52Z</time></trkpt><trkpt lat="41.8965600657489" lon="12.473995490649417"><ele>31.5</ele><time>2026-03-27T09:40:53Z</time></trkpt><trkpt lat="41.89657290171155" lon="12.473868111873827"><ele>31.666666666666664</ele><time>2026-03-27T09:40:54Z</time></trkpt><trkpt lat="41.89658626924254" lon="12.473747055779631"><ele>31.833333333333332</ele><time>2026-03-27T09:40:55Z</time></trkpt><trkpt lat="41.89660315744676" lon="12.473616122159969"><ele>32.0</ele><time>2026-03-27T09:40:56Z</time></trkpt><trkpt lat="41.896624211755075" lon="12.473490580875287"><ele>32.2</ele><time>2026-03-27T09:40:57Z</time></trkpt><trkpt lat="41.896651004737265" lon="12.473408593702867"><ele>32.400000000000006</ele><time>2026-03-27T09:40:58Z</time></trkpt><trkpt lat="41.89668065155113" lon="12.47332347110145"><ele>32.599999999999994</ele><time>2026-03-27T09:40:59Z</time></trkpt><trkpt lat="41.89672777673666" lon="12.473201239332436"><ele>32.8</ele><time>2026-03-27T09:41:01Z</time></trkpt><trkpt lat="41.89676229780518" lon="12.473114812428586"><ele>33.0</ele><time>2026-03-27T09:41:03Z</time></trkpt><trkpt lat="41.89692817902783" lon="12.472989970760816"><ele>33.199999999999996</ele><time>2026-03-27T09:41:33Z</time></trkpt><trkpt lat="41.89703778585666" lon="12.47295940210259"><ele>33.4</ele><time>2026-03-27T09:41:34Z</time></trkpt><trkpt lat="41.89714032909457" lon="12.472912348816033"><ele>33.599999999999994</ele><time>2026-03-27T09:41:35Z</time></trkpt><trkpt lat="41.897177733261316" lon="12.472757672773172"><ele>33.8</ele><time>2026-03-27T09:41:36Z</time></trkpt><trkpt lat="41.897248213853025" lon="12.472690802538889"><ele>34.0</ele><time>2026-03-27T09:41:37Z</time></trkpt><trkpt lat="41.89734715716969" lon="12.472602163184083"><ele>34.0</ele><time>2026-03-27T09:41:39Z</time></trkpt><trkpt lat="41.897043633389295" lon="12.472399900152734"><ele>34.0</ele><time>2026-03-27T09:41:40Z</time></trkpt><trkpt lat="41.89710123512641" lon="12.471846671901124"><ele>33.66666666666667</ele><time>2026-03-27T09:41:41Z</time></trkpt><trkpt lat="41.8971219189036" lon="12.471729033487856"><ele>33.333333333333336</ele><time>2026-03-27T09:41:42Z</time></trkpt><trkpt lat="41.89714560239139" lon="12.47161686639783"><ele>33.0</ele><time>2026-03-27T09:41:43Z</time></trkpt><trkpt lat="41.89717045999931" lon="12.47151505269433"><ele>32.666666666666664</ele><time>2026-03-27T09:41:44Z</time></trkpt><trkpt lat="41.89719451342446" lon="12.471429243605431"><ele>32.33333333333333</ele><time>2026-03-27T09:41:45Z</time></trkpt><trkpt lat="41.89722389722125" lon="12.471274081440361"><ele>32.0</ele><time>2026-03-27T09:41:47Z</time></trkpt><trkpt lat="41.89724338895203" lon="12.471186836160895"><ele>31.333333333333332</ele><time>2026-03-27T09:41:48Z</time></trkpt><trkpt lat="41.89727447154073" lon="12.471104048346172"><ele>30.666666666666664</ele><time>2026-03-27T09:41:49Z</time></trkpt><trkpt lat="41.897295039279705" lon="12.471009014391134"><ele>30.0</ele><time>2026-03-27T09:41:50Z</time></trkpt><trkpt lat="41.897318675803774" lon="12.470906977594682"><ele>29.333333333333336</ele><time>2026-03-27T09:41:51.001Z</time></trkpt><trkpt lat="41.897343413747635" lon="12.470800186053749"><ele>28.666666666666668</ele><time>2026-03-27T09:41:52.001Z</time></trkpt><trkpt lat="41.89736690710301" lon="12.47069935436387"><ele>28.0</ele><time>2026-03-27T09:41:53.001Z</time></trkpt><trkpt lat="41.89738667897732" lon="12.4706148482118"><ele>28.0</ele><time>2026-03-27T09:41:54.001Z</time></trkpt><trkpt lat="41.89742006985812" lon="12.47046918744957"><ele>27.999999999999996</ele><time>2026-03-27T09:41:56.001Z</time></trkpt><trkpt lat="41.897439112449455" lon="12.470384467041544"><ele>27.999999999999996</ele><time>2026-03-27T09:41:58.001Z</time></trkpt><trkpt lat="41.897468725396166" lon="12.470251734311342"><ele>28.0</ele><time>2026-03-27T09:42:01.001Z</time></trkpt><trkpt lat="41.89750335227477" lon="12.470101042769583"><ele>28.0</ele><time>2026-03-27T09:42:03.001Z</time></trkpt><trkpt lat="41.89752278559822" lon="12.470015817712826"><ele>28.42857142857143</ele><time>2026-03-27T09:42:04.001Z</time></trkpt><trkpt lat="41.897543062621594" lon="12.469926749963529"><ele>28.857142857142858</ele><time>2026-03-27T09:42:05.001Z</time></trkpt><trkpt lat="41.89756153583938" lon="12.469845605510372"><ele>29.285714285714285</ele><time>2026-03-27T09:42:06.001Z</time></trkpt><trkpt lat="41.89758094376522" lon="12.469760355392197"><ele>29.714285714285715</ele><time>2026-03-27T09:42:07.001Z</time></trkpt><trkpt lat="41.897604412784105" lon="12.469657266652336"><ele>30.142857142857146</ele><time>2026-03-27T09:42:09.001Z</time></trkpt><trkpt lat="41.897623296608906" lon="12.469574318592166"><ele>30.571428571428573</ele><time>2026-03-27T09:42:11.001Z</time></trkpt><trkpt lat="41.89764732655876" lon="12.469471214767278"><ele>31.0</ele><time>2026-03-27T09:42:14.001Z</time></trkpt><trkpt lat="41.89767073667778" lon="12.469378916720343"><ele>31.166666666666668</ele><time>2026-03-27T09:42:17.001Z</time></trkpt><trkpt lat="41.89770491077387" lon="12.469262292047507"><ele>31.333333333333336</ele><time>2026-03-27T09:42:20.001Z</time></trkpt><trkpt lat="41.8977312060706" lon="12.469177405928967"><ele>31.5</ele><time>2026-03-27T09:42:22.001Z</time></trkpt><trkpt lat="41.89776650050152" lon="12.469071078795428"><ele>31.666666666666664</ele><time>2026-03-27T09:42:24.001Z</time></trkpt><trkpt lat="41.89780683525726" lon="12.468965311558255"><ele>31.833333333333332</ele><time>2026-03-27T09:42:26.001Z</time></trkpt><trkpt lat="41.8978478975583" lon="12.468865703322187"><ele>32.0</ele><time>2026-03-27T09:42:28.001Z</time></trkpt><trkpt lat="41.89789766888854" lon="12.468767006779393"><ele>32.0</ele><time>2026-03-27T09:42:30.001Z</time></trkpt><trkpt lat="41.89797260834874" lon="12.46862617061731"><ele>32.0</ele><time>2026-03-27T09:42:32.001Z</time></trkpt><trkpt lat="41.89804597278794" lon="12.468505178845668"><ele>32.0</ele><time>2026-03-27T09:42:34Z</time></trkpt><trkpt lat="41.898112703730206" lon="12.468405979266727"><ele>32.0</ele><time>2026-03-27T09:42:36Z</time></trkpt><trkpt lat="41.89817754598682" lon="12.468313887936086"><ele>32.0</ele><time>2026-03-27T09:42:38Z</time></trkpt><trkpt lat="41.8982484387788" lon="12.468218513595373"><ele>32.0</ele><time>2026-03-27T09:42:40Z</time></trkpt><trkpt lat="41.89833703964012" lon="12.468101927751158"><ele>32.0</ele><time>2026-03-27T09:42:42Z</time></trkpt><trkpt lat="41.89840638315051" lon="12.468011260487787"><ele>32.0</ele><time>2026-03-27T09:42:43Z</time></trkpt><trkpt lat="41.89846778779528" lon="12.467929544218254"><ele>32.0</ele><time>2026-03-27T09:42:44Z</time></trkpt><trkpt lat="41.898522849319384" lon="12.467857463214061"><ele>32.0</ele><time>2026-03-27T09:42:45Z</time></trkpt><trkpt lat="41.89857898820834" lon="12.467784290226255"><ele>33.0</ele><time>2026-03-27T09:42:46Z</time></trkpt><trkpt lat="41.89864403383895" lon="12.467696432791474"><ele>34.0</ele><time>2026-03-27T09:42:47Z</time></trkpt><trkpt lat="41.89870740430135" lon="12.467611903548537"><ele>35.0</ele><time>2026-03-27T09:42:48Z</time></trkpt><trkpt lat="41.898772104170334" lon="12.467525601063047"><ele>36.0</ele><time>2026-03-27T09:42:49Z</time></trkpt><trkpt lat="41.89885101089218" lon="12.46742034819527"><ele>37.0</ele><time>2026-03-27T09:42:50Z</time></trkpt><trkpt lat="41.898934292876525" lon="12.46730925920355"><ele>37.0</ele><time>2026-03-27T09:42:51Z</time></trkpt><trkpt lat="41.8990213195396" lon="12.467193339078282"><ele>37.0</ele><time>2026-03-27T09:42:52Z</time></trkpt><trkpt lat="41.89908313106363" lon="12.467111061308037"><ele>37.0</ele><time>2026-03-27T09:42:53Z</time></trkpt><trkpt lat="41.8991559498207" lon="12.467014131748373"><ele>37.0</ele><time>2026-03-27T09:42:55Z</time></trkpt><trkpt lat="41.89921038980017" lon="12.466941186377216"><ele>37.0</ele><time>2026-03-27T09:42:57Z</time></trkpt><trkpt lat="41.89927188329745" lon="12.466858561654337"><ele>36.0</ele><time>2026-03-27T09:42:59Z</time></trkpt><trkpt lat="41.89931810365782" lon="12.466796835599318"><ele>35.0</ele><time>2026-03-27T09:43:02Z</time></trkpt><trkpt lat="41.899377945128954" lon="12.46671700590644"><ele>34.0</ele><time>2026-03-27T09:43:09Z</time></trkpt><trkpt lat="41.89942811969082" lon="12.46665024571859"><ele>33.0</ele><time>2026-03-27T09:43:10Z</time></trkpt><trkpt lat="41.899496847005295" lon="12.466561903401825"><ele>32.0</ele><time>2026-03-27T09:43:11Z</time></trkpt><trkpt lat="41.89957514998422" lon="12.466466227753145"><ele>31.0</ele><time>2026-03-27T09:43:12Z</time></trkpt><trkpt lat="41.89965481206586" lon="12.466384014476727"><ele>31.0</ele><time>2026-03-27T09:43:13Z</time></trkpt><trkpt lat="41.89971759631267" lon="12.466278636197027"><ele>31.0</ele><time>2026-03-27T09:43:14Z</time></trkpt><trkpt lat="41.89979040103909" lon="12.466183148008561"><ele>31.0</ele><time>2026-03-27T09:43:15Z</time></trkpt><trkpt lat="41.89986204280824" lon="12.466084232811635"><ele>31.0</ele><time>2026-03-27T09:43:16Z</time></trkpt><trkpt lat="41.899932368968294" lon="12.465995021226773"><ele>31.0</ele><time>2026-03-27T09:43:17Z</time></trkpt><trkpt lat="41.90001174990162" lon="12.465895186035777"><ele>30.833333333333336</ele><time>2026-03-27T09:43:18Z</time></trkpt><trkpt lat="41.9000869453289" lon="12.465798342487089"><ele>30.666666666666668</ele><time>2026-03-27T09:43:19Z</time></trkpt><trkpt lat="41.90015186187431" lon="12.465707725950436"><ele>30.5</ele><time>2026-03-27T09:43:20Z</time></trkpt><trkpt lat="41.900209174423175" lon="12.465614064484848"><ele>30.333333333333336</ele><time>2026-03-27T09:43:21Z</time></trkpt><trkpt lat="41.90025469902442" lon="12.465535593827095"><ele>30.166666666666668</ele><time>2026-03-27T09:43:22Z</time></trkpt><trkpt lat="41.90029666321171" lon="12.465433185534081"><ele>30.0</ele><time>2026-03-27T09:43:23Z</time></trkpt><trkpt lat="41.900377571886295" lon="12.465345338823097"><ele>28.0</ele><time>2026-03-27T09:43:24Z</time></trkpt><trkpt lat="41.900449424642844" lon="12.465248581393967"><ele>26.0</ele><time>2026-03-27T09:43:25Z</time></trkpt><trkpt lat="41.90050172944059" lon="12.465176448746563"><ele>24.0</ele><time>2026-03-27T09:43:26Z</time></trkpt><trkpt lat="41.90056644179803" lon="12.465075878582113"><ele>22.0</ele><time>2026-03-27T09:43:28Z</time></trkpt><trkpt lat="41.900613806184836" lon="12.46500976584134"><ele>20.0</ele><time>2026-03-27T09:43:30Z</time></trkpt><trkpt lat="41.900724052539275" lon="12.464898679726856"><ele>20.0</ele><time>2026-03-27T09:44:31.001Z</time></trkpt><trkpt lat="41.900803951132715" lon="12.464784540911758"><ele>20.0</ele><time>2026-03-27T09:44:32.001Z</time></trkpt><trkpt lat="41.90088882679516" lon="12.464662230308994"><ele>20.0</ele><time>2026-03-27T09:44:33.001Z</time></trkpt><trkpt lat="41.900996440014886" lon="12.464511113446397"><ele>20.0</ele><time>2026-03-27T09:44:34.001Z</time></trkpt><trkpt lat="41.901112682242356" lon="12.464348028407215"><ele>18.5</ele><time>2026-03-27T09:44:35.001Z</time></trkpt><trkpt lat="41.90123664586522" lon="12.464208710285682"><ele>17.0</ele><time>2026-03-27T09:44:36.001Z</time></trkpt><trkpt lat="41.90131351857593" lon="12.464079898219078"><ele>15.5</ele><time>2026-03-27T09:44:37.001Z</time></trkpt><trkpt lat="41.901408209522884" lon="12.463987069951614"><ele>14.0</ele><time>2026-03-27T09:44:38Z</time></trkpt><trkpt lat="41.90146365228636" lon="12.463917630068039"><ele>14.0</ele><time>2026-03-27T09:44:39Z</time></trkpt><trkpt lat="41.90152033013001" lon="12.463837832172548"><ele>13.999999999999998</ele><time>2026-03-27T09:45:36Z</time></trkpt><trkpt lat="41.90148382246113" lon="12.463687430372092"><ele>13.999999999999998</ele><time>2026-03-27T09:45:38Z</time></trkpt><trkpt lat="41.90142853025736" lon="12.46361770441573"><ele>14.0</ele><time>2026-03-27T09:45:39Z</time></trkpt><trkpt lat="41.90134943566717" lon="12.463539738448393"><ele>14.0</ele><time>2026-03-27T09:45:40Z</time></trkpt><trkpt lat="41.90128388095877" lon="12.463464718772919"><ele>15.5</ele><time>2026-03-27T09:45:41Z</time></trkpt><trkpt lat="41.901209406131635" lon="12.463382507117267"><ele>17.0</ele><time>2026-03-27T09:45:42Z</time></trkpt><trkpt lat="41.901085984734266" lon="12.463257995802586"><ele>18.5</ele><time>2026-03-27T09:45:43Z</time></trkpt><trkpt lat="41.90097539089195" lon="12.463135670759323"><ele>20.0</ele><time>2026-03-27T09:45:44Z</time></trkpt><trkpt lat="41.90086087626549" lon="12.463039898318389"><ele>20.0</ele><time>2026-03-27T09:45:45Z</time></trkpt><trkpt lat="41.90073627673895" lon="12.462957157716634"><ele>20.0</ele><time>2026-03-27T09:45:46Z</time></trkpt><trkpt lat="41.90060985912867" lon="12.462894845948416"><ele>20.0</ele><time>2026-03-27T09:45:47Z</time></trkpt><trkpt lat="41.900483069262506" lon="12.462847333948757"><ele>20.0</ele><time>2026-03-27T09:45:48.001Z</time></trkpt><trkpt lat="41.900351525108974" lon="12.462801421415074"><ele>20.5</ele><time>2026-03-27T09:45:49.001Z</time></trkpt><trkpt lat="41.90022484760927" lon="12.462759955808547"><ele>21.0</ele><time>2026-03-27T09:45:50.001Z</time></trkpt><trkpt lat="41.900104589002915" lon="12.46272647186258"><ele>21.5</ele><time>2026-03-27T09:45:51.001Z</time></trkpt><trkpt lat="41.900021389537955" lon="12.462705017119944"><ele>22.0</ele><time>2026-03-27T09:45:52.001Z</time></trkpt><trkpt lat="41.89991000647539" lon="12.46266586667866"><ele>22.0</ele><time>2026-03-27T09:45:58.001Z</time></trkpt><trkpt lat="41.89983617970083" lon="12.46266978530949"><ele>22.0</ele><time>2026-03-27T09:45:59.001Z</time></trkpt><trkpt lat="41.899782135808834" lon="12.46246088742592"><ele>22.0</ele><time>2026-03-27T09:46:01.001Z</time></trkpt><trkpt lat="41.89979393026181" lon="12.462356601385736"><ele>22.0</ele><time>2026-03-27T09:46:29.001Z</time></trkpt><trkpt lat="41.89977959268775" lon="12.462213568795267"><ele>22.0</ele><time>2026-03-27T09:46:30.001Z</time></trkpt><trkpt lat="41.89973948146364" lon="12.46210757377815"><ele>23.400000000000002</ele><time>2026-03-27T09:46:31.001Z</time></trkpt><trkpt lat="41.8997207355383" lon="12.461970975839527"><ele>24.8</ele><time>2026-03-27T09:46:32.001Z</time></trkpt><trkpt lat="41.89971189111178" lon="12.461821941692184"><ele>26.2</ele><time>2026-03-27T09:46:33.001Z</time></trkpt><trkpt lat="41.8996973488583" lon="12.46166794349003"><ele>27.6</ele><time>2026-03-27T09:46:34.001Z</time></trkpt><trkpt lat="41.89968985275586" lon="12.461552123690412"><ele>29.0</ele><time>2026-03-27T09:46:35.001Z</time></trkpt><trkpt lat="41.899679069950935" lon="12.461388648358737"><ele>32.0</ele><time>2026-03-27T09:46:36.001Z</time></trkpt><trkpt lat="41.8996676124174" lon="12.461224934401324"><ele>35.0</ele><time>2026-03-27T09:46:37.001Z</time></trkpt><trkpt lat="41.89965814086504" lon="12.461067654320669"><ele>38.0</ele><time>2026-03-27T09:46:38.001Z</time></trkpt><trkpt lat="41.89964027018419" lon="12.460913922815848"><ele>41.0</ele><time>2026-03-27T09:46:39.001Z</time></trkpt><trkpt lat="41.899633831618296" lon="12.460776411421492"><ele>41.0</ele><time>2026-03-27T09:46:40.001Z</time></trkpt><trkpt lat="41.89962396788845" lon="12.460649160824396"><ele>41.0</ele><time>2026-03-27T09:46:41.001Z</time></trkpt><trkpt lat="41.89959175854326" lon="12.460514113733709"><ele>41.0</ele><time>2026-03-27T09:46:42.001Z</time></trkpt><trkpt lat="41.90004208900888" lon="12.457703139563339"><ele>35.5</ele><time>2026-03-27T09:46:49.013Z</time></trkpt><trkpt lat="41.900140677274216" lon="12.457113970939401"><ele>30.0</ele><time>2026-03-27T09:46:50.015Z</time></trkpt><trkpt lat="41.90021100727489" lon="12.45651909490323"><ele>30.5</ele><time>2026-03-27T09:46:51.015Z</time></trkpt><trkpt lat="41.900235440457685" lon="12.455917560300554"><ele>31.0</ele><time>2026-03-27T09:46:52.015Z</time></trkpt><trkpt lat="41.9002368194852" lon="12.455315823232874"><ele>30.5</ele><time>2026-03-27T09:46:53.014Z</time></trkpt><trkpt lat="41.900125335333236" lon="12.454736845350475"><ele>30.0</ele><time>2026-03-27T09:46:54.013Z</time></trkpt><trkpt lat="41.899958485048366" lon="12.454176064049717"><ele>29.0</ele><time>2026-03-27T09:46:55.015Z</time></trkpt><trkpt lat="41.89977804137033" lon="12.453626520969161"><ele>28.0</ele><time>2026-03-27T09:46:56.011Z</time></trkpt><trkpt lat="41.899602242109474" lon="12.4530693306971"><ele>29.5</ele><time>2026-03-27T09:46:57.015Z</time></trkpt><trkpt lat="41.89940394563357" lon="12.452655765471803"><ele>31.0</ele><time>2026-03-27T09:47:12Z</time></trkpt><trkpt lat="41.89919025460307" lon="12.452121921145366"><ele>31.000000000000004</ele><time>2026-03-27T09:47:15Z</time></trkpt><trkpt lat="41.899182938403015" lon="12.452034206427042"><ele>31.0</ele><time>2026-03-27T09:47:16Z</time></trkpt><trkpt lat="41.89914197898037" lon="12.451930510049761"><ele>31.0</ele><time>2026-03-27T09:47:17Z</time></trkpt><trkpt lat="41.89909436927572" lon="12.451834016972631"><ele>31.0</ele><time>2026-03-27T09:47:18Z</time></trkpt><trkpt lat="41.89905970906878" lon="12.45175567340747"><ele>31.000000000000004</ele><time>2026-03-27T09:47:19Z</time></trkpt><trkpt lat="41.899014876237054" lon="12.45167368964134"><ele>31.0</ele><time>2026-03-27T09:47:20Z</time></trkpt><trkpt lat="41.89894637412615" lon="12.451553611373761"><ele>31.000000000000004</ele><time>2026-03-27T09:47:21Z</time></trkpt><trkpt lat="41.89886711891917" lon="12.451428251659156"><ele>31.0</ele><time>2026-03-27T09:47:22Z</time></trkpt><trkpt lat="41.89881528281592" lon="12.451321976280415"><ele>31.0</ele><time>2026-03-27T09:47:23Z</time></trkpt><trkpt lat="41.898770961687916" lon="12.451236842420661"><ele>31.0</ele><time>2026-03-27T09:47:24Z</time></trkpt><trkpt lat="41.898704260105966" lon="12.451172651866806"><ele>31.000000000000004</ele><time>2026-03-27T09:47:26.001Z</time></trkpt><trkpt lat="41.89866006764061" lon="12.451111388901818"><ele>31.0</ele><time>2026-03-27T09:47:28.001Z</time></trkpt><trkpt lat="41.89870794643113" lon="12.45100999753096"><ele>31.833333333333336</ele><time>2026-03-27T09:47:30.001Z</time></trkpt><trkpt lat="41.89873398055598" lon="12.450907326023975"><ele>32.66666666666667</ele><time>2026-03-27T09:47:33.001Z</time></trkpt><trkpt lat="41.89876946615262" lon="12.450800029919014"><ele>33.5</ele><time>2026-03-27T09:47:34.001Z</time></trkpt><trkpt lat="41.89879359407399" lon="12.450676292278807"><ele>34.333333333333336</ele><time>2026-03-27T09:47:35.001Z</time></trkpt><trkpt lat="41.898808333184604" lon="12.450581021703318"><ele>35.166666666666664</ele><time>2026-03-27T09:47:36.001Z</time></trkpt><trkpt lat="41.89885475430119" lon="12.45045396955043"><ele>36.0</ele><time>2026-03-27T09:47:38.001Z</time></trkpt><trkpt lat="41.898970071047934" lon="12.450479250232789"><ele>36.0</ele><time>2026-03-27T09:47:40.001Z</time></trkpt><trkpt lat="41.89905899311624" lon="12.450517445728849"><ele>36.0</ele><time>2026-03-27T09:47:41.001Z</time></trkpt><trkpt lat="41.89918639228054" lon="12.450555509292196"><ele>36.0</ele><time>2026-03-27T09:47:42.001Z</time></trkpt><trkpt lat="41.899291432573015" lon="12.450573536619036"><ele>36.0</ele><time>2026-03-27T09:47:43.001Z</time></trkpt><trkpt lat="41.899394310101655" lon="12.450574681218706"><ele>36.0</ele><time>2026-03-27T09:47:44.001Z</time></trkpt><trkpt lat="41.89949655347801" lon="12.45057177306644"><ele>36.6</ele><time>2026-03-27T09:47:45.001Z</time></trkpt><trkpt lat="41.899568577464635" lon="12.450555871932984"><ele>37.2</ele><time>2026-03-27T09:47:46.001Z</time></trkpt><trkpt lat="41.89966829325041" lon="12.450548705382321"><ele>37.8</ele><time>2026-03-27T09:47:48.001Z</time></trkpt><trkpt lat="41.899732269379825" lon="12.450530312772608"><ele>38.4</ele><time>2026-03-27T09:47:54.001Z</time></trkpt><trkpt lat="41.899781732711986" lon="12.450358814576177"><ele>39.0</ele><time>2026-03-27T09:47:56.001Z</time></trkpt><trkpt lat="41.899764262140266" lon="12.45022032024809"><ele>39.5</ele><time>2026-03-27T09:47:57.001Z</time></trkpt><trkpt lat="41.899749347036916" lon="12.450079380787802"><ele>40.0</ele><time>2026-03-27T09:47:58.001Z</time></trkpt><trkpt lat="41.899748611938136" lon="12.44996397208234"><ele>40.5</ele><time>2026-03-27T09:47:59.001Z</time></trkpt><trkpt lat="41.89974767052862" lon="12.449862909738641"><ele>41.0</ele><time>2026-03-27T09:48:00.001Z</time></trkpt><trkpt lat="41.89974596056574" lon="12.449770794978793"><ele>41.5</ele><time>2026-03-27T09:48:01.001Z</time></trkpt><trkpt lat="41.899751417925" lon="12.449654878601741"><ele>42.0</ele><time>2026-03-27T09:48:03.001Z</time></trkpt><trkpt lat="41.89983600061398" lon="12.449599035559006"><ele>42.0</ele><time>2026-03-27T09:48:05.001Z</time></trkpt><trkpt lat="41.89988438905253" lon="12.449665883512223"><ele>42.0</ele><time>2026-03-27T09:48:06.001Z</time></trkpt><trkpt lat="41.899980411273106" lon="12.449799408522393"><ele>42.0</ele><time>2026-03-27T09:48:08.001Z</time></trkpt><trkpt lat="41.90002042979642" lon="12.449891641385214"><ele>42.0</ele><time>2026-03-27T09:48:09.001Z</time></trkpt><trkpt lat="41.90004525015681" lon="12.450001464213278"><ele>42.0</ele><time>2026-03-27T09:48:10.001Z</time></trkpt><trkpt lat="41.9000577045188" lon="12.450143247748086"><ele>42.0</ele><time>2026-03-27T09:48:11.001Z</time></trkpt><trkpt lat="41.900060452381744" lon="12.450252725995778"><ele>42.0</ele><time>2026-03-27T09:48:12.001Z</time></trkpt><trkpt lat="41.900068865154594" lon="12.450354609386743"><ele>42.0</ele><time>2026-03-27T09:48:13.001Z</time></trkpt><trkpt lat="41.90007767572549" lon="12.450451753356806"><ele>42.0</ele><time>2026-03-27T09:48:14.001Z</time></trkpt><trkpt lat="41.900095780969906" lon="12.450553010343105"><ele>42.0</ele><time>2026-03-27T09:48:15.001Z</time></trkpt><trkpt lat="41.90013095830324" lon="12.450649425813394"><ele>42.0</ele><time>2026-03-27T09:48:16.001Z</time></trkpt><trkpt lat="41.90022774320469" lon="12.4507503596465"><ele>42.2</ele><time>2026-03-27T09:48:18.001Z</time></trkpt><trkpt lat="41.90032340857754" lon="12.45079083454105"><ele>42.400000000000006</ele><time>2026-03-27T09:48:20.001Z</time></trkpt><trkpt lat="41.900423767051954" lon="12.450782690397656"><ele>42.599999999999994</ele><time>2026-03-27T09:48:22.001Z</time></trkpt><trkpt lat="41.90052836933813" lon="12.450735601365116"><ele>42.8</ele><time>2026-03-27T09:48:24.001Z</time></trkpt><trkpt lat="41.90060802367782" lon="12.450621787477184"><ele>43.0</ele><time>2026-03-27T09:48:26.001Z</time></trkpt><trkpt lat="41.900635814574464" lon="12.450519681907915"><ele>44.599999999999994</ele><time>2026-03-27T09:48:27.001Z</time></trkpt><trkpt lat="41.90065325759826" lon="12.450411426620551"><ele>46.199999999999996</ele><time>2026-03-27T09:48:28.001Z</time></trkpt><trkpt lat="41.90068965636433" lon="12.450256591365997"><ele>47.8</ele><time>2026-03-27T09:48:30.001Z</time></trkpt><trkpt lat="41.90071457138333" lon="12.45017548984072"><ele>49.4</ele><time>2026-03-27T09:48:31.001Z</time></trkpt><trkpt lat="41.900748695560345" lon="12.45003702776066"><ele>51.0</ele><time>2026-03-27T09:48:33.001Z</time></trkpt><trkpt lat="41.9007718900442" lon="12.449874488489325"><ele>51.0</ele><time>2026-03-27T09:48:35.001Z</time></trkpt><trkpt lat="41.900785879231314" lon="12.4497719470118"><ele>51.0</ele><time>2026-03-27T09:48:36.001Z</time></trkpt><trkpt lat="41.900797205716394" lon="12.449653585640501"><ele>51.0</ele><time>2026-03-27T09:48:37.001Z</time></trkpt><trkpt lat="41.90079911727651" lon="12.449510517508957"><ele>51.0</ele><time>2026-03-27T09:48:39.001Z</time></trkpt><trkpt lat="41.900798501392565" lon="12.449407548485835"><ele>51.0</ele><time>2026-03-27T09:48:40.001Z</time></trkpt><trkpt lat="41.900791219015034" lon="12.449307455510056"><ele>51.0</ele><time>2026-03-27T09:48:41.001Z</time></trkpt><trkpt lat="41.90077895639944" lon="12.449177313043164"><ele>52.666666666666664</ele><time>2026-03-27T09:48:43.001Z</time></trkpt><trkpt lat="41.90076402170027" lon="12.449094221427828"><ele>54.33333333333333</ele><time>2026-03-27T09:48:44.001Z</time></trkpt><trkpt lat="41.90075288132031" lon="12.449008380099546"><ele>56.0</ele><time>2026-03-27T09:48:45.001Z</time></trkpt><trkpt lat="41.90074642440034" lon="12.448916145742173"><ele>57.666666666666664</ele><time>2026-03-27T09:48:46.001Z</time></trkpt><trkpt lat="41.900739574891425" lon="12.448826962225077"><ele>59.33333333333333</ele><time>2026-03-27T09:48:47.001Z</time></trkpt><trkpt lat="41.90072296096832" lon="12.448700644686635"><ele>61.0</ele><time>2026-03-27T09:48:49.001Z</time></trkpt><trkpt lat="41.90069536819449" lon="12.448542227261314"><ele>62.0</ele><time>2026-03-27T09:48:51Z</time></trkpt><trkpt lat="41.90067179239504" lon="12.448427294913836"><ele>62.99999999999999</ele><time>2026-03-27T09:48:52Z</time></trkpt><trkpt lat="41.90065100154089" lon="12.448284210705543"><ele>63.99999999999999</ele><time>2026-03-27T09:48:53Z</time></trkpt><trkpt lat="41.900635930824635" lon="12.448169636046185"><ele>65.0</ele><time>2026-03-27T09:48:54Z</time></trkpt><trkpt lat="41.90061942917116" lon="12.448038980330036"><ele>66.0</ele><time>2026-03-27T09:48:55Z</time></trkpt><trkpt lat="41.900615033122456" lon="12.447932951823617"><ele>66.25</ele><time>2026-03-27T09:48:56Z</time></trkpt><trkpt lat="41.90068503773435" lon="12.447798279762463"><ele>66.5</ele><time>2026-03-27T09:48:58Z</time></trkpt><trkpt lat="41.90080068346257" lon="12.447725694824834"><ele>66.75</ele><time>2026-03-27T09:48:59Z</time></trkpt><trkpt lat="41.900915355235014" lon="12.447618900362823"><ele>67.0</ele><time>2026-03-27T09:49:00Z</time></trkpt><trkpt lat="41.90104245776371" lon="12.447506697129407"><ele>68.0</ele><time>2026-03-27T09:49:01Z</time></trkpt><trkpt lat="41.90113021938176" lon="12.447397406209369"><ele>69.0</ele><time>2026-03-27T09:49:02Z</time></trkpt><trkpt lat="41.90119576228799" lon="12.447293042924166"><ele>70.0</ele><time>2026-03-27T09:49:03Z</time></trkpt><trkpt lat="41.90124920231175" lon="12.447192115443501"><ele>71.0</ele><time>2026-03-27T09:49:04Z</time></trkpt><trkpt lat="41.90129212726191" lon="12.447068725874185"><ele>72.0</ele><time>2026-03-27T09:49:05Z</time></trkpt><trkpt lat="41.90132240706226" lon="12.446933377392014"><ele>72.0</ele><time>2026-03-27T09:49:06Z</time></trkpt><trkpt lat="41.901349316769306" lon="12.446796697571227"><ele>72.0</ele><time>2026-03-27T09:49:07Z</time></trkpt><trkpt lat="41.901367271551614" lon="12.446666282959644"><ele>72.0</ele><time>2026-03-27T09:49:08Z</time></trkpt><trkpt lat="41.901375510610066" lon="12.446541565734481"><ele>72.0</ele><time>2026-03-27T09:49:09Z</time></trkpt><trkpt lat="41.901385703101845" lon="12.446428351510887"><ele>72.0</ele><time>2026-03-27T09:49:10Z</time></trkpt><trkpt lat="41.901400621973224" lon="12.446319880885993"><ele>71.83333333333333</ele><time>2026-03-27T09:49:11Z</time></trkpt><trkpt lat="41.90141835008746" lon="12.446220494283027"><ele>71.66666666666667</ele><time>2026-03-27T09:49:12Z</time></trkpt><trkpt lat="41.90143558529171" lon="12.446129134378616"><ele>71.5</ele><time>2026-03-27T09:49:13Z</time></trkpt><trkpt lat="41.90145531627103" lon="12.4460094849359"><ele>71.33333333333334</ele><time>2026-03-27T09:49:15Z</time></trkpt><trkpt lat="41.90146527542029" lon="12.44590877154255"><ele>71.16666666666667</ele><time>2026-03-27T09:49:25Z</time></trkpt><trkpt lat="41.901481882913956" lon="12.445811867129395"><ele>71.0</ele><time>2026-03-27T09:49:29Z</time></trkpt><trkpt lat="41.90140524968048" lon="12.44567621806856"><ele>71.0</ele><time>2026-03-27T09:49:30Z</time></trkpt><trkpt lat="41.901340818731754" lon="12.445553647945374"><ele>71.0</ele><time>2026-03-27T09:49:31Z</time></trkpt><trkpt lat="41.901272821474926" lon="12.44543282848817"><ele>71.0</ele><time>2026-03-27T09:49:32Z</time></trkpt><trkpt lat="41.90119124733831" lon="12.445309013147442"><ele>71.0</ele><time>2026-03-27T09:49:33Z</time></trkpt><trkpt lat="41.90106406546231" lon="12.445177410242529"><ele>71.33333333333334</ele><time>2026-03-27T09:49:34Z</time></trkpt><trkpt lat="41.900944432975336" lon="12.445035864607181"><ele>71.66666666666667</ele><time>2026-03-27T09:49:35Z</time></trkpt><trkpt lat="41.900825219077845" lon="12.444889941052418"><ele>72.0</ele><time>2026-03-27T09:49:36Z</time></trkpt><trkpt lat="41.90068839223503" lon="12.444778675588475"><ele>72.0</ele><time>2026-03-27T09:49:37Z</time></trkpt><trkpt lat="41.90057788150268" lon="12.444668199915908"><ele>72.0</ele><time>2026-03-27T09:49:38Z</time></trkpt><trkpt lat="41.90048065081304" lon="12.444579740669168"><ele>72.0</ele><time>2026-03-27T09:49:39Z</time></trkpt><trkpt lat="41.90039110766663" lon="12.444503676513497"><ele>72.0</ele><time>2026-03-27T09:49:40Z</time></trkpt><trkpt lat="41.90031598203771" lon="12.444416133938597"><ele>72.4</ele><time>2026-03-27T09:49:41Z</time></trkpt><trkpt lat="41.900217113548486" lon="12.444362911129469"><ele>72.80000000000001</ele><time>2026-03-27T09:49:42Z</time></trkpt><trkpt lat="41.90013164796645" lon="12.444290602607657"><ele>73.2</ele><time>2026-03-27T09:49:43Z</time></trkpt><trkpt lat="41.90004187643312" lon="12.444219331708064"><ele>73.60000000000001</ele><time>2026-03-27T09:49:44.001Z</time></trkpt><trkpt lat="41.89995083473088" lon="12.444147951774791"><ele>74.0</ele><time>2026-03-27T09:49:45.001Z</time></trkpt><trkpt lat="41.89986113309326" lon="12.444077060490278"><ele>73.8</ele><time>2026-03-27T09:49:46.001Z</time></trkpt><trkpt lat="41.89977479603342" lon="12.444008766762394"><ele>73.60000000000001</ele><time>2026-03-27T09:49:47.001Z</time></trkpt><trkpt lat="41.89968639050209" lon="12.443941453743737"><ele>73.4</ele><time>2026-03-27T09:49:48.001Z</time></trkpt><trkpt lat="41.89960349664704" lon="12.443871563322423"><ele>73.2</ele><time>2026-03-27T09:49:49.001Z</time></trkpt><trkpt lat="41.8995069616368" lon="12.443793218822384"><ele>73.0</ele><time>2026-03-27T09:49:50.001Z</time></trkpt><trkpt lat="41.89940671446639" lon="12.443720382359587"><ele>73.0</ele><time>2026-03-27T09:49:51.001Z</time></trkpt><trkpt lat="41.89931291891382" lon="12.443647424740572"><ele>73.0</ele><time>2026-03-27T09:49:52.001Z</time></trkpt><trkpt lat="41.89920096230223" lon="12.443542427418594"><ele>73.0</ele><time>2026-03-27T09:49:53.001Z</time></trkpt><trkpt lat="41.899097873198116" lon="12.443476291291764"><ele>73.0</ele><time>2026-03-27T09:49:54.001Z</time></trkpt><trkpt lat="41.89900676522907" lon="12.443396110298032"><ele>72.5</ele><time>2026-03-27T09:49:55.001Z</time></trkpt><trkpt lat="41.89892356795753" lon="12.443323403761074"><ele>72.0</ele><time>2026-03-27T09:49:56.001Z</time></trkpt><trkpt lat="41.898849677951986" lon="12.443258986972689"><ele>71.5</ele><time>2026-03-27T09:49:57.001Z</time></trkpt><trkpt lat="41.89879142701658" lon="12.44318251298956"><ele>71.0</ele><time>2026-03-27T09:49:58.001Z</time></trkpt><trkpt lat="41.89874287361277" lon="12.443096932610416"><ele>70.5</ele><time>2026-03-27T09:49:59.001Z</time></trkpt><trkpt lat="41.89869853514534" lon="12.442991075663363"><ele>70.0</ele><time>2026-03-27T09:50:00.001Z</time></trkpt><trkpt lat="41.8986629358891" lon="12.442873974849562"><ele>70.0</ele><time>2026-03-27T09:50:01.001Z</time></trkpt><trkpt lat="41.8986423800142" lon="12.442772996227294"><ele>70.0</ele><time>2026-03-27T09:50:02.001Z</time></trkpt><trkpt lat="41.89864428400015" lon="12.442661595479553"><ele>70.0</ele><time>2026-03-27T09:50:03.001Z</time></trkpt><trkpt lat="41.89862365233382" lon="12.44253958037566"><ele>70.0</ele><time>2026-03-27T09:50:04.001Z</time></trkpt><trkpt lat="41.8986180654294" lon="12.442416716666031"><ele>70.0</ele><time>2026-03-27T09:50:05.001Z</time></trkpt><trkpt lat="41.89862452010895" lon="12.442233763037645"><ele>73.0</ele><time>2026-03-27T09:50:06.001Z</time></trkpt><trkpt lat="41.89861472059812" lon="12.44199544025422"><ele>76.0</ele><time>2026-03-27T09:50:07.001Z</time></trkpt><trkpt lat="41.898593483283506" lon="12.441748901711202"><ele>79.0</ele><time>2026-03-27T09:50:08.001Z</time></trkpt><trkpt lat="41.89859351798237" lon="12.441489995454338"><ele>80.75</ele><time>2026-03-27T09:50:09.001Z</time></trkpt><trkpt lat="41.89858375255025" lon="12.4412711912675"><ele>82.5</ele><time>2026-03-27T09:50:10.001Z</time></trkpt><trkpt lat="41.898569440814704" lon="12.441082848078919"><ele>84.25</ele><time>2026-03-27T09:50:11.001Z</time></trkpt><trkpt lat="41.89855082527425" lon="12.440920597407835"><ele>86.0</ele><time>2026-03-27T09:50:12.001Z</time></trkpt><trkpt lat="41.89853566400273" lon="12.44078428032391"><ele>86.0</ele><time>2026-03-27T09:50:13.001Z</time></trkpt><trkpt lat="41.89852400762968" lon="12.440671674676638"><ele>86.0</ele><time>2026-03-27T09:50:14.001Z</time></trkpt><trkpt lat="41.898512676667835" lon="12.440571082869685"><ele>86.0</ele><time>2026-03-27T09:50:15.001Z</time></trkpt><trkpt lat="41.89849753303149" lon="12.440454114676559"><ele>86.0</ele><time>2026-03-27T09:50:16.001Z</time></trkpt><trkpt lat="41.89848777562176" lon="12.440322356846385"><ele>86.0</ele><time>2026-03-27T09:50:17.001Z</time></trkpt><trkpt lat="41.89847387046254" lon="12.440194104106588"><ele>86.0</ele><time>2026-03-27T09:50:18.001Z</time></trkpt><trkpt lat="41.898466196415676" lon="12.440074021457662"><ele>86.19999999999999</ele><time>2026-03-27T09:50:19.001Z</time></trkpt><trkpt lat="41.89845571311505" lon="12.439987468758122"><ele>86.39999999999999</ele><time>2026-03-27T09:50:20.001Z</time></trkpt><trkpt lat="41.89844420440534" lon="12.439892450088"><ele>86.6</ele><time>2026-03-27T09:50:22.001Z</time></trkpt><trkpt lat="41.89842584672798" lon="12.439749546912674"><ele>86.8</ele><time>2026-03-27T09:50:25.001Z</time></trkpt><trkpt lat="41.89841002743671" lon="12.439626062041478"><ele>87.0</ele><time>2026-03-27T09:50:26.001Z</time></trkpt><trkpt lat="41.898391718269764" lon="12.439450477158545"><ele>86.0</ele><time>2026-03-27T09:50:27.001Z</time></trkpt><trkpt lat="41.898343633148656" lon="12.439289073308057"><ele>85.0</ele><time>2026-03-27T09:50:28.001Z</time></trkpt><trkpt lat="41.898321832963774" lon="12.439090026382667"><ele>84.0</ele><time>2026-03-27T09:50:29.001Z</time></trkpt><trkpt lat="41.89829720424991" lon="12.43891047064618"><ele>83.0</ele><time>2026-03-27T09:50:30.001Z</time></trkpt><trkpt lat="41.898272859227404" lon="12.438763248725417"><ele>83.0</ele><time>2026-03-27T09:50:31.001Z</time></trkpt><trkpt lat="41.89823828948255" lon="12.438599425549292"><ele>83.0</ele><time>2026-03-27T09:50:32.001Z</time></trkpt><trkpt lat="41.89819292053656" lon="12.438435546927437"><ele>83.0</ele><time>2026-03-27T09:50:33.001Z</time></trkpt><trkpt lat="41.898189385050955" lon="12.438298481029534"><ele>83.0</ele><time>2026-03-27T09:50:34.001Z</time></trkpt><trkpt lat="41.89816269851602" lon="12.438205143389153"><ele>83.0</ele><time>2026-03-27T09:50:35.001Z</time></trkpt><trkpt lat="41.898122589198735" lon="12.438066648281179"><ele>83.0</ele><time>2026-03-27T09:50:37.001Z</time></trkpt><trkpt lat="41.89809787436108" lon="12.437984381715651"><ele>83.0</ele><time>2026-03-27T09:50:38.001Z</time></trkpt><trkpt lat="41.89805773138636" lon="12.437850761234"><ele>83.0</ele><time>2026-03-27T09:50:39.001Z</time></trkpt><trkpt lat="41.898020786408374" lon="12.43773728984211"><ele>83.0</ele><time>2026-03-27T09:50:40.001Z</time></trkpt><trkpt lat="41.897993400400914" lon="12.43765388577455"><ele>83.0</ele><time>2026-03-27T09:50:41.001Z</time></trkpt><trkpt lat="41.89796693142753" lon="12.437576859361066"><ele>83.0</ele><time>2026-03-27T09:50:42.001Z</time></trkpt><trkpt lat="41.89793894567992" lon="12.437495970487717"><ele>82.60000000000001</ele><time>2026-03-27T09:50:43.001Z</time></trkpt><trkpt lat="41.89790743773792" lon="12.4374029786711"><ele>82.2</ele><time>2026-03-27T09:50:44.001Z</time></trkpt><trkpt lat="41.8978736955855" lon="12.43730329693357"><ele>81.8</ele><time>2026-03-27T09:50:45.001Z</time></trkpt><trkpt lat="41.89784685270149" lon="12.437223702082761"><ele>81.4</ele><time>2026-03-27T09:50:46.001Z</time></trkpt><trkpt lat="41.8977989164218" lon="12.437081408599196"><ele>81.0</ele><time>2026-03-27T09:50:48.001Z</time></trkpt><trkpt lat="41.89774745151859" lon="12.436929396459949"><ele>80.39999999999999</ele><time>2026-03-27T09:50:50.001Z</time></trkpt><trkpt lat="41.89769623887569" lon="12.436778905886989"><ele>79.8</ele><time>2026-03-27T09:50:52.001Z</time></trkpt><trkpt lat="41.89765385159483" lon="12.436654348974635"><ele>79.19999999999999</ele><time>2026-03-27T09:50:54.001Z</time></trkpt><trkpt lat="41.89761358283327" lon="12.436536017802567"><ele>78.6</ele><time>2026-03-27T09:50:56Z</time></trkpt><trkpt lat="41.89758801748427" lon="12.43645749817422"><ele>78.0</ele><time>2026-03-27T09:50:57Z</time></trkpt><trkpt lat="41.89756206633363" lon="12.436376013849497"><ele>77.83333333333333</ele><time>2026-03-27T09:50:58Z</time></trkpt><trkpt lat="41.897524022534974" lon="12.436254987622528"><ele>77.66666666666667</ele><time>2026-03-27T09:50:59Z</time></trkpt><trkpt lat="41.897486483973736" lon="12.43613300439453"><ele>77.5</ele><time>2026-03-27T09:51:00Z</time></trkpt><trkpt lat="41.89745708855782" lon="12.436026798082112"><ele>77.33333333333334</ele><time>2026-03-27T09:51:01Z</time></trkpt><trkpt lat="41.89743092782687" lon="12.435931254538962"><ele>77.16666666666667</ele><time>2026-03-27T09:51:02Z</time></trkpt><trkpt lat="41.89740831929675" lon="12.435837608966288"><ele>77.0</ele><time>2026-03-27T09:51:03Z</time></trkpt><trkpt lat="41.897386466537334" lon="12.435734320028608"><ele>77.0</ele><time>2026-03-27T09:51:04Z</time></trkpt><trkpt lat="41.89737100329068" lon="12.435624638842315"><ele>77.0</ele><time>2026-03-27T09:51:05Z</time></trkpt><trkpt lat="41.89735909962506" lon="12.435510468892378"><ele>77.0</ele><time>2026-03-27T09:51:06Z</time></trkpt><trkpt lat="41.897355182901144" lon="12.435375421148837"><ele>77.0</ele><time>2026-03-27T09:51:07Z</time></trkpt><trkpt lat="41.89737280216038" lon="12.435240139052265"><ele>77.0</ele><time>2026-03-27T09:51:08Z</time></trkpt><trkpt lat="41.89739920949254" lon="12.435065819097947"><ele>77.8</ele><time>2026-03-27T09:51:09Z</time></trkpt><trkpt lat="41.89741934564521" lon="12.434900674832651"><ele>78.6</ele><time>2026-03-27T09:51:10Z</time></trkpt><trkpt lat="41.897437244583905" lon="12.434764073267164"><ele>79.39999999999999</ele><time>2026-03-27T09:51:11Z</time></trkpt><trkpt lat="41.89744593109533" lon="12.434673831988464"><ele>80.2</ele><time>2026-03-27T09:51:12Z</time></trkpt><trkpt lat="41.897453495443045" lon="12.434565137618353"><ele>81.0</ele><time>2026-03-27T09:51:21Z</time></trkpt><trkpt lat="41.897460906685424" lon="12.434381781164435"><ele>81.6</ele><time>2026-03-27T09:51:23Z</time></trkpt><trkpt lat="41.89746253202086" lon="12.434241138581182"><ele>82.19999999999999</ele><time>2026-03-27T09:51:24Z</time></trkpt><trkpt lat="41.897455921804756" lon="12.434109423750485"><ele>82.80000000000001</ele><time>2026-03-27T09:51:25Z</time></trkpt><trkpt lat="41.897462428096325" lon="12.433957525789"><ele>83.4</ele><time>2026-03-27T09:51:26Z</time></trkpt><trkpt lat="41.89745484889299" lon="12.433780117725044"><ele>84.0</ele><time>2026-03-27T09:51:27Z</time></trkpt><trkpt lat="41.89745551429349" lon="12.43366701286829"><ele>84.2</ele><time>2026-03-27T09:51:28Z</time></trkpt><trkpt lat="41.89744850624022" lon="12.433525529423703"><ele>84.4</ele><time>2026-03-27T09:51:29Z</time></trkpt><trkpt lat="41.897458119682405" lon="12.433389726451647"><ele>84.6</ele><time>2026-03-27T09:51:30Z</time></trkpt><trkpt lat="41.89745376485254" lon="12.433252498375792"><ele>84.8</ele><time>2026-03-27T09:51:31Z</time></trkpt><trkpt lat="41.89744807463775" lon="12.433125037571173"><ele>85.0</ele><time>2026-03-27T09:51:32Z</time></trkpt><trkpt lat="41.89744082563566" lon="12.432994466471108"><ele>85.2</ele><time>2026-03-27T09:51:33Z</time></trkpt><trkpt lat="41.89743070859233" lon="12.43285778297582"><ele>85.4</ele><time>2026-03-27T09:51:34Z</time></trkpt><trkpt lat="41.89741503663837" lon="12.432702160433156"><ele>85.6</ele><time>2026-03-27T09:51:35Z</time></trkpt><trkpt lat="41.89740021016087" lon="12.432555457966412"><ele>85.8</ele><time>2026-03-27T09:51:36Z</time></trkpt><trkpt lat="41.89738703049361" lon="12.432424917482628"><ele>86.0</ele><time>2026-03-27T09:51:37Z</time></trkpt><trkpt lat="41.89737148016976" lon="12.432285353400356"><ele>86.0</ele><time>2026-03-27T09:51:38Z</time></trkpt><trkpt lat="41.897360730861074" lon="12.432150354129483"><ele>86.0</ele><time>2026-03-27T09:51:39Z</time></trkpt><trkpt lat="41.89736139385636" lon="12.432015465009265"><ele>86.0</ele><time>2026-03-27T09:51:40Z</time></trkpt><trkpt lat="41.89737010113829" lon="12.431921617249703"><ele>86.0</ele><time>2026-03-27T09:51:41Z</time></trkpt><trkpt lat="41.89740110714395" lon="12.431808514383636"><ele>86.0</ele><time>2026-03-27T09:51:43Z</time></trkpt><trkpt lat="41.89745191629262" lon="12.431696476346497"><ele>86.16666666666667</ele><time>2026-03-27T09:51:47Z</time></trkpt><trkpt lat="41.8974945508193" lon="12.431607528960148"><ele>86.33333333333334</ele><time>2026-03-27T09:51:48.001Z</time></trkpt><trkpt lat="41.89755043253699" lon="12.43149758418963"><ele>86.5</ele><time>2026-03-27T09:51:49.001Z</time></trkpt><trkpt lat="41.89761544381188" lon="12.431369670415814"><ele>86.66666666666667</ele><time>2026-03-27T09:51:51.001Z</time></trkpt><trkpt lat="41.897653923142876" lon="12.43129405534563"><ele>86.83333333333333</ele><time>2026-03-27T09:51:53.001Z</time></trkpt><trkpt lat="41.8976923751876" lon="12.431218493871523"><ele>87.0</ele><time>2026-03-27T09:51:54.001Z</time></trkpt><trkpt lat="41.89774760145754" lon="12.431109969661302"><ele>87.5</ele><time>2026-03-27T09:51:55.001Z</time></trkpt><trkpt lat="41.897785505048205" lon="12.431035400408433"><ele>88.0</ele><time>2026-03-27T09:51:56.001Z</time></trkpt><trkpt lat="41.897852044866774" lon="12.430903714587435"><ele>88.5</ele><time>2026-03-27T09:51:57.001Z</time></trkpt><trkpt lat="41.8979361613249" lon="12.4307344904998"><ele>89.0</ele><time>2026-03-27T09:51:58.001Z</time></trkpt><trkpt lat="41.89801259853944" lon="12.430578699004851"><ele>89.5</ele><time>2026-03-27T09:51:59.001Z</time></trkpt><trkpt lat="41.89807016228237" lon="12.430461205378801"><ele>90.0</ele><time>2026-03-27T09:52:00.001Z</time></trkpt><trkpt lat="41.89813074890175" lon="12.430337541682114"><ele>90.5</ele><time>2026-03-27T09:52:01.001Z</time></trkpt><trkpt lat="41.898181857361465" lon="12.430232867459843"><ele>91.0</ele><time>2026-03-27T09:52:02.001Z</time></trkpt><trkpt lat="41.89822212769019" lon="12.43015261540754"><ele>91.5</ele><time>2026-03-27T09:52:03.001Z</time></trkpt><trkpt lat="41.898259372584725" lon="12.430078895524893"><ele>92.0</ele><time>2026-03-27T09:52:05.001Z</time></trkpt><trkpt lat="41.89836995128691" lon="12.430154157617086"><ele>92.5</ele><time>2026-03-27T09:52:46.001Z</time></trkpt><trkpt lat="41.898467957598115" lon="12.430166982277571"><ele>93.0</ele><time>2026-03-27T09:52:48.001Z</time></trkpt><trkpt lat="41.89850820435229" lon="12.429927314509484"><ele>93.5</ele><time>2026-03-27T09:52:50.001Z</time></trkpt><trkpt lat="41.89851413102712" lon="12.429768734790656"><ele>94.0</ele><time>2026-03-27T09:52:52.001Z</time></trkpt><trkpt lat="41.898522269336794" lon="12.429679941215797"><ele>93.2</ele><time>2026-03-27T09:52:54.001Z</time></trkpt><trkpt lat="41.89857664554379" lon="12.429623984213906"><ele>92.4</ele><time>2026-03-27T09:53:06Z</time></trkpt><trkpt lat="41.898613132641074" lon="12.42955504660978"><ele>91.6</ele><time>2026-03-27T09:53:08Z</time></trkpt><trkpt lat="41.898698128975255" lon="12.429447012872838"><ele>90.8</ele><time>2026-03-27T09:53:10Z</time></trkpt><trkpt lat="41.89878986102167" lon="12.429377653357188"><ele>90.0</ele><time>2026-03-27T09:53:11Z</time></trkpt><trkpt lat="41.89890523568178" lon="12.42932439761485"><ele>90.0</ele><time>2026-03-27T09:53:12Z</time></trkpt><trkpt lat="41.898998906657646" lon="12.429274885469829"><ele>90.0</ele><time>2026-03-27T09:53:13Z</time></trkpt><trkpt lat="41.899083264126816" lon="12.429221038093237"><ele>90.0</ele><time>2026-03-27T09:53:14Z</time></trkpt><trkpt lat="41.899166418766775" lon="12.429167962195189"><ele>90.0</ele><time>2026-03-27T09:53:15Z</time></trkpt><trkpt lat="41.899287544418776" lon="12.429110728911143"><ele>90.0</ele><time>2026-03-27T09:53:16Z</time></trkpt><trkpt lat="41.89939348261642" lon="12.429039618527858"><ele>90.2</ele><time>2026-03-27T09:53:17Z</time></trkpt><trkpt lat="41.89948455383071" lon="12.428977158686031"><ele>90.4</ele><time>2026-03-27T09:53:18Z</time></trkpt><trkpt lat="41.89959149234395" lon="12.428903047650342"><ele>90.6</ele><time>2026-03-27T09:53:19Z</time></trkpt><trkpt lat="41.89968487547022" lon="12.428837141858107"><ele>90.8</ele><time>2026-03-27T09:53:20Z</time></trkpt><trkpt lat="41.89978560668482" lon="12.428761597065337"><ele>91.0</ele><time>2026-03-27T09:53:21Z</time></trkpt><trkpt lat="41.89989815591245" lon="12.428655598498256"><ele>91.0</ele><time>2026-03-27T09:53:22Z</time></trkpt><trkpt lat="41.899996753279844" lon="12.428577466176515"><ele>91.0</ele><time>2026-03-27T09:53:23Z</time></trkpt><trkpt lat="41.90008500792003" lon="12.428502020830141"><ele>91.0</ele><time>2026-03-27T09:53:24Z</time></trkpt><trkpt lat="41.90016738890092" lon="12.42843087042584"><ele>91.0</ele><time>2026-03-27T09:53:25Z</time></trkpt><trkpt lat="41.9002435165161" lon="12.428366366517146"><ele>91.0</ele><time>2026-03-27T09:53:26Z</time></trkpt><trkpt lat="41.9003163653907" lon="12.428298788362433"><ele>92.16666666666666</ele><time>2026-03-27T09:53:27Z</time></trkpt><trkpt lat="41.90039251665504" lon="12.42823155788639"><ele>93.33333333333333</ele><time>2026-03-27T09:53:28Z</time></trkpt><trkpt lat="41.90045424675057" lon="12.42816786468736"><ele>94.5</ele><time>2026-03-27T09:53:30Z</time></trkpt><trkpt lat="41.900511687791706" lon="12.428098772287905"><ele>95.66666666666666</ele><time>2026-03-27T09:53:37Z</time></trkpt><trkpt lat="41.90056357189758" lon="12.428040356450285"><ele>96.83333333333333</ele><time>2026-03-27T09:53:38Z</time></trkpt><trkpt lat="41.900649080327845" lon="12.42795342062833"><ele>98.0</ele><time>2026-03-27T09:53:40Z</time></trkpt><trkpt lat="41.90070283136647" lon="12.42789067349919"><ele>98.0</ele><time>2026-03-27T09:53:41Z</time></trkpt><trkpt lat="41.90081020346117" lon="12.427770562231068"><ele>98.0</ele><time>2026-03-27T09:53:43Z</time></trkpt><trkpt lat="41.90087085721066" lon="12.427703921026499"><ele>98.0</ele><time>2026-03-27T09:53:44Z</time></trkpt><trkpt lat="41.90092367283749" lon="12.427643226336803"><ele>98.0</ele><time>2026-03-27T09:53:45Z</time></trkpt><trkpt lat="41.90098581472024" lon="12.427562558835001"><ele>98.0</ele><time>2026-03-27T09:53:46Z</time></trkpt><trkpt lat="41.90105271819477" lon="12.427498316492786"><ele>98.0</ele><time>2026-03-27T09:53:47Z</time></trkpt><trkpt lat="41.90111119041719" lon="12.42744632842087"><ele>98.0</ele><time>2026-03-27T09:53:48Z</time></trkpt><trkpt lat="41.90117127588132" lon="12.427388428794668"><ele>98.0</ele><time>2026-03-27T09:53:49Z</time></trkpt><trkpt lat="41.90121866675694" lon="12.427331832203306"><ele>98.0</ele><time>2026-03-27T09:53:50Z</time></trkpt><trkpt lat="41.901278442779066" lon="12.427277496289665"><ele>98.0</ele><time>2026-03-27T09:53:52Z</time></trkpt><trkpt lat="41.90135368546329" lon="12.427202768856"><ele>98.0</ele><time>2026-03-27T09:53:55Z</time></trkpt><trkpt lat="41.901406932911286" lon="12.427149090280581"><ele>98.0</ele><time>2026-03-27T09:53:57Z</time></trkpt><trkpt lat="41.901474096140866" lon="12.427080373894132"><ele>97.0</ele><time>2026-03-27T09:53:59.001Z</time></trkpt><trkpt lat="41.90157437035571" lon="12.426985084313074"><ele>96.0</ele><time>2026-03-27T09:54:01.001Z</time></trkpt><trkpt lat="41.901628966886605" lon="12.426913836361475"><ele>95.0</ele><time>2026-03-27T09:54:04.001Z</time></trkpt><trkpt lat="41.90170770321396" lon="12.426881650587251"><ele>94.0</ele><time>2026-03-27T09:54:08.001Z</time></trkpt><trkpt lat="41.901782305938504" lon="12.42679199898266"><ele>93.0</ele><time>2026-03-27T09:54:10.001Z</time></trkpt><trkpt lat="41.901850464708446" lon="12.42672665487329"><ele>92.80000000000001</ele><time>2026-03-27T09:54:12.001Z</time></trkpt><trkpt lat="41.90191317845207" lon="12.426661914437553"><ele>92.6</ele><time>2026-03-27T09:54:14.001Z</time></trkpt><trkpt lat="41.90199634321689" lon="12.42659515637485"><ele>92.4</ele><time>2026-03-27T09:54:16.001Z</time></trkpt><trkpt lat="41.90207433170634" lon="12.426518877851398"><ele>92.19999999999999</ele><time>2026-03-27T09:54:21.001Z</time></trkpt><trkpt lat="41.90217228888999" lon="12.426467034868411"><ele>92.0</ele><time>2026-03-27T09:54:22.001Z</time></trkpt><trkpt lat="41.90224980898682" lon="12.426390605360048"><ele>92.0</ele><time>2026-03-27T09:54:23.001Z</time></trkpt><trkpt lat="41.90232882606003" lon="12.4263338621399"><ele>92.0</ele><time>2026-03-27T09:54:24.001Z</time></trkpt><trkpt lat="41.9024110771932" lon="12.426269302244288"><ele>92.0</ele><time>2026-03-27T09:54:25.001Z</time></trkpt><trkpt lat="41.90249683149391" lon="12.426233719065404"><ele>92.0</ele><time>2026-03-27T09:54:26.001Z</time></trkpt><trkpt lat="41.90256222197693" lon="12.426188250047632"><ele>92.0</ele><time>2026-03-27T09:54:27.001Z</time></trkpt><trkpt lat="41.90262807320841" lon="12.426132567880614"><ele>92.0</ele><time>2026-03-27T09:54:28.001Z</time></trkpt><trkpt lat="41.90270424884491" lon="12.42608702152745"><ele>91.83333333333334</ele><time>2026-03-27T09:54:29.001Z</time></trkpt><trkpt lat="41.90277997718707" lon="12.426034898707215"><ele>91.66666666666667</ele><time>2026-03-27T09:54:30.001Z</time></trkpt><trkpt lat="41.90285698063811" lon="12.425988099666974"><ele>91.5</ele><time>2026-03-27T09:54:31.001Z</time></trkpt><trkpt lat="41.90293033428608" lon="12.425941686444013"><ele>91.33333333333333</ele><time>2026-03-27T09:54:32.001Z</time></trkpt><trkpt lat="41.903000090989615" lon="12.425886573556813"><ele>91.16666666666666</ele><time>2026-03-27T09:54:33.001Z</time></trkpt><trkpt lat="41.903096011461045" lon="12.425827150057431"><ele>91.0</ele><time>2026-03-27T09:54:34.001Z</time></trkpt><trkpt lat="41.903167976055165" lon="12.425771943143461"><ele>91.0</ele><time>2026-03-27T09:54:35.001Z</time></trkpt><trkpt lat="41.90323537444563" lon="12.425722796796803"><ele>91.0</ele><time>2026-03-27T09:54:36.001Z</time></trkpt><trkpt lat="41.903312416721484" lon="12.425683410007867"><ele>91.0</ele><time>2026-03-27T09:54:37.001Z</time></trkpt><trkpt lat="41.90337549623323" lon="12.42564463527328"><ele>91.0</ele><time>2026-03-27T09:54:38.001Z</time></trkpt><trkpt lat="41.90350803671179" lon="12.425556962066924"><ele>91.0</ele><time>2026-03-27T09:54:40.001Z</time></trkpt><trkpt lat="41.90360899714731" lon="12.425503811574266"><ele>90.0</ele><time>2026-03-27T09:54:41.001Z</time></trkpt><trkpt lat="41.903725263086486" lon="12.42546245256562"><ele>89.0</ele><time>2026-03-27T09:54:42.001Z</time></trkpt><trkpt lat="41.90387127693647" lon="12.425420415709555"><ele>88.0</ele><time>2026-03-27T09:54:43.001Z</time></trkpt><trkpt lat="41.90399914304126" lon="12.425393687350075"><ele>87.0</ele><time>2026-03-27T09:54:44.001Z</time></trkpt><trkpt lat="41.90410727671858" lon="12.425380641787726"><ele>87.0</ele><time>2026-03-27T09:54:45.001Z</time></trkpt><trkpt lat="41.9041941361806" lon="12.425373303016867"><ele>87.0</ele><time>2026-03-27T09:54:46.001Z</time></trkpt><trkpt lat="41.90426064285601" lon="12.425368994139449"><ele>87.0</ele><time>2026-03-27T09:54:47.001Z</time></trkpt><trkpt lat="41.90434940630082" lon="12.425362482737267"><ele>87.0</ele><time>2026-03-27T09:54:49.001Z</time></trkpt><trkpt lat="41.90443163277102" lon="12.425352738175391"><ele>87.0</ele><time>2026-03-27T09:54:51.001Z</time></trkpt><trkpt lat="41.90450510170134" lon="12.425351379111557"><ele>87.0</ele><time>2026-03-27T09:54:53.001Z</time></trkpt><trkpt lat="41.90457951170067" lon="12.425345914038175"><ele>87.66666666666667</ele><time>2026-03-27T09:54:55.001Z</time></trkpt><trkpt lat="41.904663736465785" lon="12.425341004364244"><ele>88.33333333333333</ele><time>2026-03-27T09:54:57.001Z</time></trkpt><trkpt lat="41.90475249157824" lon="12.425353039492624"><ele>89.0</ele><time>2026-03-27T09:55:00.001Z</time></trkpt><trkpt lat="41.904841162385424" lon="12.42535560697725"><ele>89.66666666666666</ele><time>2026-03-27T09:55:02.001Z</time></trkpt><trkpt lat="41.904920495177684" lon="12.425310935475379"><ele>90.33333333333333</ele><time>2026-03-27T09:55:04.001Z</time></trkpt><trkpt lat="41.90496512921538" lon="12.425208987214358"><ele>91.0</ele><time>2026-03-27T09:55:06.001Z</time></trkpt><trkpt lat="41.90496414628315" lon="12.425116796911611"><ele>91.0</ele><time>2026-03-27T09:55:09Z</time></trkpt><trkpt lat="41.9049434359263" lon="12.425017543866833"><ele>91.0</ele><time>2026-03-27T09:55:14Z</time></trkpt><trkpt lat="41.90486555694038" lon="12.424904002379549"><ele>91.0</ele><time>2026-03-27T09:55:16Z</time></trkpt><trkpt lat="41.904802964759895" lon="12.424866478531376"><ele>91.0</ele><time>2026-03-27T09:55:17Z</time></trkpt><trkpt lat="41.90470900583162" lon="12.4248482513818"><ele>91.0</ele><time>2026-03-27T09:55:18Z</time></trkpt><trkpt lat="41.904612039533866" lon="12.424842483407092"><ele>91.0</ele><time>2026-03-27T09:55:19Z</time></trkpt><trkpt lat="41.904524781762646" lon="12.424847368499307"><ele>91.0</ele><time>2026-03-27T09:55:20Z</time></trkpt><trkpt lat="41.90444375840397" lon="12.42485824035279"><ele>91.0</ele><time>2026-03-27T09:55:21Z</time></trkpt><trkpt lat="41.904371998510065" lon="12.424867253778341"><ele>91.0</ele><time>2026-03-27T09:55:22Z</time></trkpt><trkpt lat="41.90427912864184" lon="12.42488937243705"><ele>91.0</ele><time>2026-03-27T09:55:24Z</time></trkpt><trkpt lat="41.90421282722877" lon="12.424912681144523"><ele>91.0</ele><time>2026-03-27T09:55:27Z</time></trkpt><trkpt lat="41.90410026592797" lon="12.424915583629765"><ele>90.0</ele><time>2026-03-27T09:55:33Z</time></trkpt><trkpt lat="41.90399136536411" lon="12.424933498459477"><ele>89.0</ele><time>2026-03-27T09:55:34Z</time></trkpt><trkpt lat="41.90389401706902" lon="12.42494973071265"><ele>88.0</ele><time>2026-03-27T09:55:35Z</time></trkpt><trkpt lat="41.90375318823566" lon="12.424966522274323"><ele>87.0</ele><time>2026-03-27T09:55:36Z</time></trkpt><trkpt lat="41.903625873208966" lon="12.42498833418876"><ele>87.0</ele><time>2026-03-27T09:55:37Z</time></trkpt><trkpt lat="41.903508455182426" lon="12.425018995289898"><ele>87.0</ele><time>2026-03-27T09:55:38Z</time></trkpt><trkpt lat="41.90339398836078" lon="12.425033234244815"><ele>87.0</ele><time>2026-03-27T09:55:39Z</time></trkpt><trkpt lat="41.90328301155533" lon="12.425061272613913"><ele>87.0</ele><time>2026-03-27T09:55:40Z</time></trkpt><trkpt lat="41.90317514537444" lon="12.425092732994019"><ele>87.83333333333333</ele><time>2026-03-27T09:55:41Z</time></trkpt><trkpt lat="41.90307485146247" lon="12.425123024814981"><ele>88.66666666666667</ele><time>2026-03-27T09:55:42Z</time></trkpt><trkpt lat="41.90298519622183" lon="12.425152966219688"><ele>89.5</ele><time>2026-03-27T09:55:43Z</time></trkpt><trkpt lat="41.90290049963871" lon="12.425181925746319"><ele>90.33333333333334</ele><time>2026-03-27T09:55:44Z</time></trkpt><trkpt lat="41.902835346148464" lon="12.42519981363312"><ele>91.16666666666667</ele><time>2026-03-27T09:55:45Z</time></trkpt><trkpt lat="41.902767265008684" lon="12.425227700781841"><ele>92.0</ele><time>2026-03-27T09:55:47Z</time></trkpt><trkpt lat="41.90264218889218" lon="12.425290902366264"><ele>92.39999999999999</ele><time>2026-03-27T09:55:49Z</time></trkpt><trkpt lat="41.902530306549096" lon="12.425335311276475"><ele>92.8</ele><time>2026-03-27T09:55:50Z</time></trkpt><trkpt lat="41.90242966748624" lon="12.425375892347812"><ele>93.2</ele><time>2026-03-27T09:55:51Z</time></trkpt><trkpt lat="41.90235302906594" lon="12.425407621135095"><ele>93.6</ele><time>2026-03-27T09:55:52Z</time></trkpt><trkpt lat="41.90227768182362" lon="12.425418132155302"><ele>94.0</ele><time>2026-03-27T09:55:53Z</time></trkpt><trkpt lat="41.90220149949872" lon="12.425436587538353"><ele>94.0</ele><time>2026-03-27T09:55:55.001Z</time></trkpt><trkpt lat="41.90215989051029" lon="12.425286324545457"><ele>94.0</ele><time>2026-03-27T09:55:56.001Z</time></trkpt><trkpt lat="41.90215875833395" lon="12.425201598783659"><ele>94.0</ele><time>2026-03-27T09:55:57.001Z</time></trkpt><trkpt lat="41.902158121340385" lon="12.42510820418366"><ele>94.0</ele><time>2026-03-27T09:55:58.001Z</time></trkpt><trkpt lat="41.90213491188586" lon="12.42501812835695"><ele>94.0</ele><time>2026-03-27T09:55:59.001Z</time></trkpt><trkpt lat="41.90229562522445" lon="12.424840128249613"><ele>94.0</ele><time>2026-03-27T09:56:00.001Z</time></trkpt><trkpt lat="41.902342084927305" lon="12.424724602978538"><ele>94.0</ele><time>2026-03-27T09:56:01.001Z</time></trkpt><trkpt lat="41.902386576551926" lon="12.424620065962554"><ele>94.0</ele><time>2026-03-27T09:56:02.001Z</time></trkpt><trkpt lat="41.90242806445772" lon="12.42452076988889"><ele>94.0</ele><time>2026-03-27T09:56:03.001Z</time></trkpt><trkpt lat="41.90247974002158" lon="12.4243975971294"><ele>94.0</ele><time>2026-03-27T09:56:05.001Z</time></trkpt><trkpt lat="41.90252039539645" lon="12.424309929054996"><ele>93.66666666666666</ele><time>2026-03-27T09:56:07.001Z</time></trkpt><trkpt lat="41.90255840371744" lon="12.424198673716422"><ele>93.33333333333333</ele><time>2026-03-27T09:56:09.001Z</time></trkpt><trkpt lat="41.90258391732282" lon="12.424117315694579"><ele>93.0</ele><time>2026-03-27T09:56:11.001Z</time></trkpt><trkpt lat="41.90260802429182" lon="12.42399454605791"><ele>92.66666666666667</ele><time>2026-03-27T09:56:15.001Z</time></trkpt><trkpt lat="41.90264571337022" lon="12.42392252252685"><ele>92.33333333333334</ele><time>2026-03-27T09:56:17.001Z</time></trkpt><trkpt lat="41.90266657394327" lon="12.423834472825224"><ele>92.0</ele><time>2026-03-27T09:56:19.001Z</time></trkpt><trkpt lat="41.9026776207923" lon="12.423730636488147"><ele>91.66666666666667</ele><time>2026-03-27T09:56:22.001Z</time></trkpt><trkpt lat="41.90271811485576" lon="12.423632008638895"><ele>91.33333333333334</ele><time>2026-03-27T09:56:24.001Z</time></trkpt><trkpt lat="41.90273964009676" lon="12.423551213494697"><ele>91.0</ele><time>2026-03-27T09:56:30.001Z</time></trkpt><trkpt lat="41.902763900169944" lon="12.423460154177942"><ele>90.66666666666667</ele><time>2026-03-27T09:56:34.001Z</time></trkpt><trkpt lat="41.902793088561886" lon="12.423346390131046"><ele>90.33333333333333</ele><time>2026-03-27T09:56:35.001Z</time></trkpt><trkpt lat="41.90282508347009" lon="12.423224130616436"><ele>90.0</ele><time>2026-03-27T09:56:36.001Z</time></trkpt><trkpt lat="41.90284974524771" lon="12.423129892646436"><ele>90.0</ele><time>2026-03-27T09:56:37.001Z</time></trkpt><trkpt lat="41.90288721976914" lon="12.422986793691997"><ele>90.0</ele><time>2026-03-27T09:56:39.001Z</time></trkpt><trkpt lat="41.90291151625742" lon="12.422894640194597"><ele>90.0</ele><time>2026-03-27T09:56:45.001Z</time></trkpt><trkpt lat="41.902935994974435" lon="12.42280179594408"><ele>90.0</ele><time>2026-03-27T09:56:47.001Z</time></trkpt><trkpt lat="41.90296473993133" lon="12.422694272476784"><ele>90.0</ele><time>2026-03-27T09:56:49.001Z</time></trkpt><trkpt lat="41.90299597700716" lon="12.422577093191439"><ele>90.0</ele><time>2026-03-27T09:56:51.001Z</time></trkpt><trkpt lat="41.90302761732452" lon="12.422458597882304"><ele>89.4</ele><time>2026-03-27T09:56:53.001Z</time></trkpt><trkpt lat="41.903067119677694" lon="12.422314023299094"><ele>88.8</ele><time>2026-03-27T09:56:55.001Z</time></trkpt><trkpt lat="41.903091243559764" lon="12.422225732319005"><ele>88.19999999999999</ele><time>2026-03-27T09:56:57.001Z</time></trkpt><trkpt lat="41.903128759738706" lon="12.42208900407516"><ele>87.6</ele><time>2026-03-27T09:57:45Z</time></trkpt><trkpt lat="41.903151965317655" lon="12.42197877083939"><ele>87.0</ele><time>2026-03-27T09:57:46Z</time></trkpt><trkpt lat="41.903188020077174" lon="12.421854961062792"><ele>87.0</ele><time>2026-03-27T09:57:47Z</time></trkpt><trkpt lat="41.90322468650388" lon="12.421752611073249"><ele>87.0</ele><time>2026-03-27T09:57:48Z</time></trkpt><trkpt lat="41.9032512763638" lon="12.421634114787105"><ele>87.0</ele><time>2026-03-27T09:57:49Z</time></trkpt><trkpt lat="41.90328140642649" lon="12.42152685203147"><ele>87.0</ele><time>2026-03-27T09:57:50Z</time></trkpt><trkpt lat="41.903305855591974" lon="12.421443895221614"><ele>87.0</ele><time>2026-03-27T09:57:51Z</time></trkpt><trkpt lat="41.90333698631253" lon="12.421357471670735"><ele>87.0</ele><time>2026-03-27T09:57:53Z</time></trkpt><trkpt lat="41.90337009189347" lon="12.42122946880347"><ele>87.66666666666667</ele><time>2026-03-27T09:57:57Z</time></trkpt><trkpt lat="41.90338936767547" lon="12.421143591753184"><ele>88.33333333333333</ele><time>2026-03-27T09:57:58Z</time></trkpt><trkpt lat="41.90340631611291" lon="12.421029065123815"><ele>89.0</ele><time>2026-03-27T09:57:59Z</time></trkpt><trkpt lat="41.903416537372884" lon="12.420922589238595"><ele>89.66666666666666</ele><time>2026-03-27T09:58:00Z</time></trkpt><trkpt lat="41.90342921763928" lon="12.42082192274556"><ele>90.33333333333333</ele><time>2026-03-27T09:58:01Z</time></trkpt><trkpt lat="41.90345435669783" lon="12.420665465699695"><ele>91.0</ele><time>2026-03-27T09:58:03.001Z</time></trkpt><trkpt lat="41.90346720552963" lon="12.420573945686517"><ele>91.16666666666666</ele><time>2026-03-27T09:58:04.001Z</time></trkpt><trkpt lat="41.90348117552271" lon="12.420488512640915"><ele>91.33333333333333</ele><time>2026-03-27T09:58:05.001Z</time></trkpt><trkpt lat="41.90348802648947" lon="12.42038742545267"><ele>91.5</ele><time>2026-03-27T09:58:06.001Z</time></trkpt><trkpt lat="41.90350572228385" lon="12.42025629323562"><ele>91.66666666666667</ele><time>2026-03-27T09:58:08.001Z</time></trkpt><trkpt lat="41.90351693526419" lon="12.420149096426806"><ele>91.83333333333334</ele><time>2026-03-27T09:58:10.001Z</time></trkpt><trkpt lat="41.90353332170126" lon="12.420049276062006"><ele>92.0</ele><time>2026-03-27T09:58:13.001Z</time></trkpt><trkpt lat="41.90355123926264" lon="12.419926643590443"><ele>92.16666666666667</ele><time>2026-03-27T09:58:16.001Z</time></trkpt><trkpt lat="41.90356407110042" lon="12.419795734263824"><ele>92.33333333333334</ele><time>2026-03-27T09:58:18.001Z</time></trkpt><trkpt lat="41.90358569523389" lon="12.41964439459534"><ele>92.5</ele><time>2026-03-27T09:58:20.001Z</time></trkpt><trkpt lat="41.90359708551583" lon="12.419550399256533"><ele>92.66666666666667</ele><time>2026-03-27T09:58:21.001Z</time></trkpt><trkpt lat="41.903611663639126" lon="12.419449246237438"><ele>92.83333333333333</ele><time>2026-03-27T09:58:22.001Z</time></trkpt><trkpt lat="41.90361966981915" lon="12.419354314142323"><ele>93.0</ele><time>2026-03-27T09:58:23.001Z</time></trkpt><trkpt lat="41.903629546874875" lon="12.419252079312589"><ele>93.00000000000001</ele><time>2026-03-27T09:58:24.001Z</time></trkpt><trkpt lat="41.90363719329328" lon="12.419159474738242"><ele>93.0</ele><time>2026-03-27T09:58:25.001Z</time></trkpt><trkpt lat="41.90363917708867" lon="12.419066409694674"><ele>93.0</ele><time>2026-03-27T09:58:26.001Z</time></trkpt><trkpt lat="41.903644101320175" lon="12.418970050074927"><ele>93.0</ele><time>2026-03-27T09:58:27.001Z</time></trkpt><trkpt lat="41.90365434866717" lon="12.41887790268521"><ele>93.0</ele><time>2026-03-27T09:58:28.001Z</time></trkpt><trkpt lat="41.90365631008733" lon="12.418778469121467"><ele>93.00000000000001</ele><time>2026-03-27T09:58:29.001Z</time></trkpt><trkpt lat="41.90365621398436" lon="12.418663408690579"><ele>93.0</ele><time>2026-03-27T09:58:30.001Z</time></trkpt><trkpt lat="41.90365354128605" lon="12.418548380769023"><ele>92.5</ele><time>2026-03-27T09:58:31.001Z</time></trkpt><trkpt lat="41.90363601807532" lon="12.418427526410715"><ele>92.0</ele><time>2026-03-27T09:58:32.001Z</time></trkpt><trkpt lat="41.903628343293256" lon="12.418266214011775"><ele>91.5</ele><time>2026-03-27T09:58:33.001Z</time></trkpt><trkpt lat="41.90361456527358" lon="12.418076750826193"><ele>91.0</ele><time>2026-03-27T09:58:34.001Z</time></trkpt><trkpt lat="41.90359691436461" lon="12.417904591747064"><ele>91.0</ele><time>2026-03-27T09:58:35.001Z</time></trkpt><trkpt lat="41.90357862280662" lon="12.417776869513247"><ele>91.0</ele><time>2026-03-27T09:58:36.001Z</time></trkpt><trkpt lat="41.903574383406024" lon="12.417683703317993"><ele>91.0</ele><time>2026-03-27T09:58:37.001Z</time></trkpt><trkpt lat="41.90356189294037" lon="12.41755722623816"><ele>91.0</ele><time>2026-03-27T09:58:39.001Z</time></trkpt><trkpt lat="41.903551733217306" lon="12.417426573880956"><ele>91.0</ele><time>2026-03-27T09:58:41.001Z</time></trkpt><trkpt lat="41.90354094439726" lon="12.417304307847237"><ele>91.0</ele><time>2026-03-27T09:58:43.001Z</time></trkpt><trkpt lat="41.9035347048594" lon="12.417156646591394"><ele>91.0</ele><time>2026-03-27T09:58:45.001Z</time></trkpt><trkpt lat="41.90353221874013" lon="12.417067136126184"><ele>91.0</ele><time>2026-03-27T09:58:46.001Z</time></trkpt><trkpt lat="41.90353220121926" lon="12.416982448640772"><ele>91.0</ele><time>2026-03-27T09:58:47.001Z</time></trkpt><trkpt lat="41.903531879526824" lon="12.416877732322655"><ele>91.0</ele><time>2026-03-27T09:58:48.001Z</time></trkpt><trkpt lat="41.90352794920478" lon="12.41672110475573"><ele>91.0</ele><time>2026-03-27T09:58:49.001Z</time></trkpt><trkpt lat="41.903520942174175" lon="12.416583695368386"><ele>91.0</ele><time>2026-03-27T09:58:50.001Z</time></trkpt><trkpt lat="41.90351840042556" lon="12.416486806000966"><ele>91.0</ele><time>2026-03-27T09:58:51.001Z</time></trkpt><trkpt lat="41.90351261529513" lon="12.41633277544778"><ele>91.0</ele><time>2026-03-27T09:58:53.001Z</time></trkpt><trkpt lat="41.90351015470452" lon="12.416245125964075"><ele>91.0</ele><time>2026-03-27T09:58:54.001Z</time></trkpt><trkpt lat="41.903498288563114" lon="12.416135148683418"><ele>91.0</ele><time>2026-03-27T09:58:55.001Z</time></trkpt><trkpt lat="41.9034897416105" lon="12.416030000811217"><ele>91.0</ele><time>2026-03-27T09:58:56.001Z</time></trkpt><trkpt lat="41.903491298695315" lon="12.415924093970586"><ele>90.6</ele><time>2026-03-27T09:58:57.001Z</time></trkpt><trkpt lat="41.903482053337314" lon="12.415806677954585"><ele>90.19999999999999</ele><time>2026-03-27T09:58:58.001Z</time></trkpt><trkpt lat="41.90345838389092" lon="12.415693304457728"><ele>89.80000000000001</ele><time>2026-03-27T09:58:59.001Z</time></trkpt><trkpt lat="41.90345795033776" lon="12.41558675540904"><ele>89.4</ele><time>2026-03-27T09:59:00.001Z</time></trkpt><trkpt lat="41.90344283503564" lon="12.41545051942885"><ele>89.0</ele><time>2026-03-27T09:59:01.001Z</time></trkpt><trkpt lat="41.903421925814904" lon="12.415326148690363"><ele>88.83333333333334</ele><time>2026-03-27T09:59:02.001Z</time></trkpt><trkpt lat="41.90339166384988" lon="12.415181979486217"><ele>88.66666666666667</ele><time>2026-03-27T09:59:03.001Z</time></trkpt><trkpt lat="41.90337015371903" lon="12.415061828399427"><ele>88.5</ele><time>2026-03-27T09:59:04.001Z</time></trkpt><trkpt lat="41.903342911749974" lon="12.414961333754226"><ele>88.33333333333333</ele><time>2026-03-27T09:59:05.001Z</time></trkpt><trkpt lat="41.90331538992845" lon="12.414869040290787"><ele>88.16666666666666</ele><time>2026-03-27T09:59:06.001Z</time></trkpt><trkpt lat="41.90328196345008" lon="12.414783697841262"><ele>88.0</ele><time>2026-03-27T09:59:07.001Z</time></trkpt><trkpt lat="41.90325290604015" lon="12.414696321544639"><ele>87.66666666666666</ele><time>2026-03-27T09:59:08.001Z</time></trkpt><trkpt lat="41.90322337403465" lon="12.414613597734895"><ele>87.33333333333333</ele><time>2026-03-27T09:59:09.001Z</time></trkpt><trkpt lat="41.903184377366145" lon="12.414464118198186"><ele>87.0</ele><time>2026-03-27T09:59:11.001Z</time></trkpt><trkpt lat="41.9031579004403" lon="12.41437618115162"><ele>86.66666666666667</ele><time>2026-03-27T09:59:12.001Z</time></trkpt><trkpt lat="41.90311315169245" lon="12.414228214348903"><ele>86.33333333333334</ele><time>2026-03-27T09:59:14.001Z</time></trkpt><trkpt lat="41.903088491410784" lon="12.414139274109113"><ele>86.0</ele><time>2026-03-27T09:59:15.001Z</time></trkpt><trkpt lat="41.90306458656821" lon="12.414048677903908"><ele>86.0</ele><time>2026-03-27T09:59:16.001Z</time></trkpt><trkpt lat="41.90304328662585" lon="12.413955035161942"><ele>86.0</ele><time>2026-03-27T09:59:17.001Z</time></trkpt><trkpt lat="41.903022539111625" lon="12.413830869459613"><ele>86.0</ele><time>2026-03-27T09:59:18.001Z</time></trkpt><trkpt lat="41.90299637296379" lon="12.413697199633559"><ele>86.0</ele><time>2026-03-27T09:59:19.001Z</time></trkpt><trkpt lat="41.90299247852205" lon="12.413537188125085"><ele>86.0</ele><time>2026-03-27T09:59:20Z</time></trkpt><trkpt lat="41.90300112571659" lon="12.413368673426431"><ele>85.0</ele><time>2026-03-27T09:59:21Z</time></trkpt><trkpt lat="41.90301544197062" lon="12.413194623115992"><ele>84.0</ele><time>2026-03-27T09:59:22Z</time></trkpt><trkpt lat="41.90302893611891" lon="12.412999210098057"><ele>83.0</ele><time>2026-03-27T09:59:23Z</time></trkpt><trkpt lat="41.90303884711796" lon="12.412803921239885"><ele>82.0</ele><time>2026-03-27T09:59:24Z</time></trkpt><trkpt lat="41.90305909709001" lon="12.412618974253462"><ele>80.75</ele><time>2026-03-27T09:59:25Z</time></trkpt><trkpt lat="41.90308171593226" lon="12.41243634047707"><ele>79.5</ele><time>2026-03-27T09:59:26Z</time></trkpt><trkpt lat="41.903100958494" lon="12.41225655178507"><ele>78.25</ele><time>2026-03-27T09:59:27Z</time></trkpt><trkpt lat="41.903119998687444" lon="12.412055933075953"><ele>77.0</ele><time>2026-03-27T09:59:28Z</time></trkpt><trkpt lat="41.90314463447795" lon="12.411855800204272"><ele>75.5</ele><time>2026-03-27T09:59:29Z</time></trkpt><trkpt lat="41.903184017880626" lon="12.41167684205592"><ele>74.0</ele><time>2026-03-27T09:59:30Z</time></trkpt><trkpt lat="41.90323397930653" lon="12.41150512600458"><ele>72.5</ele><time>2026-03-27T09:59:31Z</time></trkpt><trkpt lat="41.90328893682969" lon="12.411340990735022"><ele>71.0</ele><time>2026-03-27T09:59:32Z</time></trkpt><trkpt lat="41.903350542143414" lon="12.411196036577422"><ele>68.25</ele><time>2026-03-27T09:59:33Z</time></trkpt><trkpt lat="41.90342253633611" lon="12.411057761036778"><ele>65.5</ele><time>2026-03-27T09:59:34Z</time></trkpt><trkpt lat="41.90349679693537" lon="12.41093435654779"><ele>62.75</ele><time>2026-03-27T09:59:35Z</time></trkpt><trkpt lat="41.90359906161506" lon="12.410816650088009"><ele>60.0</ele><time>2026-03-27T09:59:36Z</time></trkpt><trkpt lat="41.90372904916084" lon="12.410725036777038"><ele>60.0</ele><time>2026-03-27T09:59:37Z</time></trkpt><trkpt lat="41.90385331354722" lon="12.410652817010755"><ele>60.0</ele><time>2026-03-27T09:59:38Z</time></trkpt><trkpt lat="41.903968241972585" lon="12.410589410643787"><ele>60.0</ele><time>2026-03-27T09:59:39Z</time></trkpt><trkpt lat="41.90407211623641" lon="12.41051359793846"><ele>60.0</ele><time>2026-03-27T09:59:40Z</time></trkpt><trkpt lat="41.90416292656566" lon="12.410442744609659"><ele>60.4</ele><time>2026-03-27T09:59:41Z</time></trkpt><trkpt lat="41.90423965555723" lon="12.410388180404777"><ele>60.8</ele><time>2026-03-27T09:59:42Z</time></trkpt><trkpt lat="41.904306691234915" lon="12.410341067276077"><ele>61.2</ele><time>2026-03-27T09:59:43Z</time></trkpt><trkpt lat="41.90436561139218" lon="12.410247558784848"><ele>61.6</ele><time>2026-03-27T09:59:45Z</time></trkpt><trkpt lat="41.904465225758095" lon="12.410130196386492"><ele>62.0</ele><time>2026-03-27T10:00:26.001Z</time></trkpt><trkpt lat="41.904529742029126" lon="12.410012420644996"><ele>62.0</ele><time>2026-03-27T10:00:27.001Z</time></trkpt><trkpt lat="41.90460520193516" lon="12.409875354326001"><ele>62.0</ele><time>2026-03-27T10:00:28.001Z</time></trkpt><trkpt lat="41.904685525344426" lon="12.409731699136042"><ele>62.0</ele><time>2026-03-27T10:00:29.001Z</time></trkpt><trkpt lat="41.904773228648025" lon="12.40956959174327"><ele>62.0</ele><time>2026-03-27T10:00:30.001Z</time></trkpt><trkpt lat="41.904859636401184" lon="12.40941105038713"><ele>62.75</ele><time>2026-03-27T10:00:31.001Z</time></trkpt><trkpt lat="41.904948160929195" lon="12.409272195305364"><ele>63.5</ele><time>2026-03-27T10:00:32.001Z</time></trkpt><trkpt lat="41.90502736675958" lon="12.409150779153864"><ele>64.25</ele><time>2026-03-27T10:00:33.001Z</time></trkpt><trkpt lat="41.905116974954964" lon="12.409010271285306"><ele>65.0</ele><time>2026-03-27T10:00:34.001Z</time></trkpt><trkpt lat="41.90520027206262" lon="12.40887445032851"><ele>68.0</ele><time>2026-03-27T10:00:35.001Z</time></trkpt><trkpt lat="41.905287313171435" lon="12.408762264666054"><ele>71.0</ele><time>2026-03-27T10:00:36.001Z</time></trkpt><trkpt lat="41.90538834585526" lon="12.40869112596575"><ele>74.0</ele><time>2026-03-27T10:00:37.001Z</time></trkpt><trkpt lat="41.90550258968928" lon="12.408690961924057"><ele>77.0</ele><time>2026-03-27T10:00:38.001Z</time></trkpt><trkpt lat="41.905636354200055" lon="12.408666889504921"><ele>77.0</ele><time>2026-03-27T10:00:39.001Z</time></trkpt><trkpt lat="41.90580077949459" lon="12.408646201786912"><ele>77.0</ele><time>2026-03-27T10:00:40.001Z</time></trkpt><trkpt lat="41.905943065421134" lon="12.408612158303882"><ele>77.0</ele><time>2026-03-27T10:00:41.001Z</time></trkpt><trkpt lat="41.90607096690429" lon="12.408575805705064"><ele>77.0</ele><time>2026-03-27T10:00:42.001Z</time></trkpt><trkpt lat="41.90618820209706" lon="12.408530718191523"><ele>77.75</ele><time>2026-03-27T10:00:43.001Z</time></trkpt><trkpt lat="41.906301830434224" lon="12.408479434025228"><ele>78.5</ele><time>2026-03-27T10:00:44.001Z</time></trkpt><trkpt lat="41.906416255606274" lon="12.408422409750292"><ele>79.25</ele><time>2026-03-27T10:00:45.001Z</time></trkpt><trkpt lat="41.906534976743" lon="12.40836068940651"><ele>80.0</ele><time>2026-03-27T10:00:46.001Z</time></trkpt><trkpt lat="41.90665465978524" lon="12.408303915044407"><ele>81.25</ele><time>2026-03-27T10:00:47.001Z</time></trkpt><trkpt lat="41.90678057986554" lon="12.40823137950155"><ele>82.5</ele><time>2026-03-27T10:00:48.001Z</time></trkpt><trkpt lat="41.90690493141938" lon="12.408159306731863"><ele>83.75</ele><time>2026-03-27T10:00:49.001Z</time></trkpt><trkpt lat="41.90704843534307" lon="12.408087501168207"><ele>85.0</ele><time>2026-03-27T10:00:50.001Z</time></trkpt><trkpt lat="41.907212525309035" lon="12.407999335244046"><ele>84.5</ele><time>2026-03-27T10:00:51.001Z</time></trkpt><trkpt lat="41.90735079441119" lon="12.407909810624494"><ele>84.0</ele><time>2026-03-27T10:00:52.001Z</time></trkpt><trkpt lat="41.9074670299545" lon="12.407815925581382"><ele>83.5</ele><time>2026-03-27T10:00:53.001Z</time></trkpt><trkpt lat="41.90758307120552" lon="12.407698792262796"><ele>83.0</ele><time>2026-03-27T10:00:54.001Z</time></trkpt><trkpt lat="41.90769660159154" lon="12.407583654268468"><ele>83.0</ele><time>2026-03-27T10:00:55.001Z</time></trkpt><trkpt lat="41.90780813235552" lon="12.407476946175512"><ele>83.0</ele><time>2026-03-27T10:00:56.001Z</time></trkpt><trkpt lat="41.90792397834914" lon="12.407364480186251"><ele>83.0</ele><time>2026-03-27T10:00:57.001Z</time></trkpt><trkpt lat="41.90803396541792" lon="12.407251939357396"><ele>83.0</ele><time>2026-03-27T10:00:58.001Z</time></trkpt><trkpt lat="41.90813885399662" lon="12.407132375695662"><ele>80.25</ele><time>2026-03-27T10:00:59.001Z</time></trkpt><trkpt lat="41.90823885946683" lon="12.40699636541626"><ele>77.5</ele><time>2026-03-27T10:01:00.001Z</time></trkpt><trkpt lat="41.90833566341648" lon="12.406843883753025"><ele>74.75</ele><time>2026-03-27T10:01:01.001Z</time></trkpt><trkpt lat="41.90842354831119" lon="12.406684382923991"><ele>72.0</ele><time>2026-03-27T10:01:02.001Z</time></trkpt><trkpt lat="41.90850777852058" lon="12.406518789480675"><ele>69.66666666666667</ele><time>2026-03-27T10:01:03.001Z</time></trkpt><trkpt lat="41.90858261495086" lon="12.406353091823153"><ele>67.33333333333334</ele><time>2026-03-27T10:01:04.001Z</time></trkpt><trkpt lat="41.90863756727458" lon="12.406164954786668"><ele>65.0</ele><time>2026-03-27T10:01:05.001Z</time></trkpt><trkpt lat="41.908676114900324" lon="12.405948831005427"><ele>64.66666666666667</ele><time>2026-03-27T10:01:06.001Z</time></trkpt><trkpt lat="41.90871010587318" lon="12.40571405699336"><ele>64.33333333333333</ele><time>2026-03-27T10:01:07.001Z</time></trkpt><trkpt lat="41.908731535809686" lon="12.405467924280886"><ele>64.0</ele><time>2026-03-27T10:01:08.001Z</time></trkpt><trkpt lat="41.908727079132184" lon="12.405206473737183"><ele>66.0</ele><time>2026-03-27T10:01:09.001Z</time></trkpt><trkpt lat="41.90872027002235" lon="12.404978238804484"><ele>68.0</ele><time>2026-03-27T10:01:10.001Z</time></trkpt><trkpt lat="41.90872439663153" lon="12.40476231917966"><ele>70.0</ele><time>2026-03-27T10:01:11.001Z</time></trkpt><trkpt lat="41.90873330873876" lon="12.404541495176844"><ele>71.66666666666666</ele><time>2026-03-27T10:01:12.001Z</time></trkpt><trkpt lat="41.90875230850317" lon="12.404308142893612"><ele>73.33333333333333</ele><time>2026-03-27T10:01:13.001Z</time></trkpt><trkpt lat="41.90877647517866" lon="12.404098889411982"><ele>75.0</ele><time>2026-03-27T10:01:14.001Z</time></trkpt><trkpt lat="41.90880714017867" lon="12.403898921228583"><ele>73.5</ele><time>2026-03-27T10:01:15.001Z</time></trkpt><trkpt lat="41.90883398226093" lon="12.403716940457858"><ele>72.0</ele><time>2026-03-27T10:01:16.001Z</time></trkpt><trkpt lat="41.908869028477355" lon="12.40352839778129"><ele>70.5</ele><time>2026-03-27T10:01:17.001Z</time></trkpt><trkpt lat="41.90892677226836" lon="12.403333593270096"><ele>69.0</ele><time>2026-03-27T10:01:18.001Z</time></trkpt><trkpt lat="41.90895387237309" lon="12.40315250169005"><ele>69.0</ele><time>2026-03-27T10:01:19.001Z</time></trkpt><trkpt lat="41.90898391366844" lon="12.403041467985707"><ele>69.0</ele><time>2026-03-27T10:01:20.001Z</time></trkpt><trkpt lat="41.90901439556977" lon="12.402936020488049"><ele>69.0</ele><time>2026-03-27T10:01:22.001Z</time></trkpt><trkpt lat="41.90904625590499" lon="12.402808200581049"><ele>69.0</ele><time>2026-03-27T10:01:51Z</time></trkpt><trkpt lat="41.909080432769024" lon="12.402690450850168"><ele>69.0</ele><time>2026-03-27T10:01:52Z</time></trkpt><trkpt lat="41.90911257703837" lon="12.402575357180348"><ele>68.75</ele><time>2026-03-27T10:01:53Z</time></trkpt><trkpt lat="41.90915031100329" lon="12.402436815839428"><ele>68.5</ele><time>2026-03-27T10:01:54Z</time></trkpt><trkpt lat="41.90920251203921" lon="12.402276432164133"><ele>68.25</ele><time>2026-03-27T10:01:55Z</time></trkpt><trkpt lat="41.9092670558556" lon="12.40209689713811"><ele>68.0</ele><time>2026-03-27T10:01:56Z</time></trkpt><trkpt lat="41.90933262295348" lon="12.401936835935526"><ele>71.66666666666667</ele><time>2026-03-27T10:01:57Z</time></trkpt><trkpt lat="41.9094118409765" lon="12.401769750826976"><ele>75.33333333333333</ele><time>2026-03-27T10:01:58Z</time></trkpt><trkpt lat="41.909502781634984" lon="12.401598699268074"><ele>79.0</ele><time>2026-03-27T10:01:59Z</time></trkpt><trkpt lat="41.90959049048908" lon="12.40142870878995"><ele>80.5</ele><time>2026-03-27T10:02:00Z</time></trkpt><trkpt lat="41.9096712919985" lon="12.401267920375455"><ele>82.0</ele><time>2026-03-27T10:02:01Z</time></trkpt><trkpt lat="41.90974757744918" lon="12.401104393644378"><ele>83.5</ele><time>2026-03-27T10:02:02Z</time></trkpt><trkpt lat="41.9098233952335" lon="12.400930192863806"><ele>85.0</ele><time>2026-03-27T10:02:03Z</time></trkpt><trkpt lat="41.90990303730766" lon="12.400759121636248"><ele>85.0</ele><time>2026-03-27T10:02:04Z</time></trkpt><trkpt lat="41.90998056906128" lon="12.400596430781755"><ele>85.0</ele><time>2026-03-27T10:02:05Z</time></trkpt><trkpt lat="41.91005919134648" lon="12.400434739442415"><ele>85.0</ele><time>2026-03-27T10:02:06Z</time></trkpt><trkpt lat="41.91013965504192" lon="12.400274919814965"><ele>85.0</ele><time>2026-03-27T10:02:07Z</time></trkpt><trkpt lat="41.9102222564936" lon="12.400121966146047"><ele>85.0</ele><time>2026-03-27T10:02:08Z</time></trkpt><trkpt lat="41.91030424866045" lon="12.399977817379323"><ele>85.0</ele><time>2026-03-27T10:02:09Z</time></trkpt><trkpt lat="41.910380787385115" lon="12.399863564716494"><ele>85.0</ele><time>2026-03-27T10:02:10Z</time></trkpt><trkpt lat="41.91044520164495" lon="12.399762617387726"><ele>85.0</ele><time>2026-03-27T10:02:11Z</time></trkpt><trkpt lat="41.91049842647852" lon="12.399677626038889"><ele>85.0</ele><time>2026-03-27T10:02:12Z</time></trkpt><trkpt lat="41.910542375825365" lon="12.399608598363752"><ele>85.0</ele><time>2026-03-27T10:02:13Z</time></trkpt><trkpt lat="41.91061247234442" lon="12.399517521042215"><ele>85.0</ele><time>2026-03-27T10:02:15.001Z</time></trkpt><trkpt lat="41.91066514264647" lon="12.399441167029952"><ele>85.0</ele><time>2026-03-27T10:02:18.001Z</time></trkpt><trkpt lat="41.91077135055613" lon="12.399330895392234"><ele>85.0</ele><time>2026-03-27T10:02:57.001Z</time></trkpt><trkpt lat="41.910849719574884" lon="12.399228702214867"><ele>85.0</ele><time>2026-03-27T10:02:58.001Z</time></trkpt><trkpt lat="41.91093044224127" lon="12.399153914777248"><ele>85.25</ele><time>2026-03-27T10:02:59.001Z</time></trkpt><trkpt lat="41.91100113680015" lon="12.399026384801425"><ele>85.5</ele><time>2026-03-27T10:03:00.001Z</time></trkpt><trkpt lat="41.91108716867298" lon="12.398886176353505"><ele>85.75</ele><time>2026-03-27T10:03:01.001Z</time></trkpt><trkpt lat="41.911156226959434" lon="12.398740250736555"><ele>86.0</ele><time>2026-03-27T10:03:02.001Z</time></trkpt><trkpt lat="41.91122989769309" lon="12.398581414118679"><ele>85.33333333333334</ele><time>2026-03-27T10:03:03.001Z</time></trkpt><trkpt lat="41.911273581133" lon="12.398400084594574"><ele>84.66666666666667</ele><time>2026-03-27T10:03:04.001Z</time></trkpt><trkpt lat="41.911302188595435" lon="12.398195921473388"><ele>84.0</ele><time>2026-03-27T10:03:05.001Z</time></trkpt><trkpt lat="41.911300580005005" lon="12.397989862992448"><ele>84.0</ele><time>2026-03-27T10:03:06.001Z</time></trkpt><trkpt lat="41.911304330964455" lon="12.397782636959183"><ele>84.0</ele><time>2026-03-27T10:03:07.001Z</time></trkpt><trkpt lat="41.91131613822247" lon="12.397547737910784"><ele>84.0</ele><time>2026-03-27T10:03:08.001Z</time></trkpt><trkpt lat="41.911268036961225" lon="12.39730784016832"><ele>84.33333333333333</ele><time>2026-03-27T10:03:09.001Z</time></trkpt><trkpt lat="41.911227223201585" lon="12.39709265934646"><ele>84.66666666666666</ele><time>2026-03-27T10:03:10.001Z</time></trkpt><trkpt lat="41.91118216914493" lon="12.396874875622268"><ele>85.0</ele><time>2026-03-27T10:03:11.001Z</time></trkpt><trkpt lat="41.91112549262057" lon="12.396648798644819"><ele>85.0</ele><time>2026-03-27T10:03:12.001Z</time></trkpt><trkpt lat="41.9110593071494" lon="12.396415344370942"><ele>85.0</ele><time>2026-03-27T10:03:13.001Z</time></trkpt><trkpt lat="41.91099014570654" lon="12.396187489001958"><ele>85.0</ele><time>2026-03-27T10:03:14.001Z</time></trkpt><trkpt lat="41.910929291363466" lon="12.395975248227478"><ele>84.0</ele><time>2026-03-27T10:03:15.001Z</time></trkpt><trkpt lat="41.91087318895789" lon="12.395764119583559"><ele>83.0</ele><time>2026-03-27T10:03:16.001Z</time></trkpt><trkpt lat="41.910824273580474" lon="12.395559066029776"><ele>82.0</ele><time>2026-03-27T10:03:17.001Z</time></trkpt><trkpt lat="41.91078815509244" lon="12.395347604917813"><ele>80.66666666666666</ele><time>2026-03-27T10:03:18.001Z</time></trkpt><trkpt lat="41.910754588921854" lon="12.395127991759862"><ele>79.33333333333333</ele><time>2026-03-27T10:03:19.001Z</time></trkpt><trkpt lat="41.91072624363193" lon="12.3949144366698"><ele>78.0</ele><time>2026-03-27T10:03:20.001Z</time></trkpt><trkpt lat="41.91071439413799" lon="12.394708794647475"><ele>76.25</ele><time>2026-03-27T10:03:21.001Z</time></trkpt><trkpt lat="41.910709834762656" lon="12.394502516608897"><ele>74.5</ele><time>2026-03-27T10:03:22.001Z</time></trkpt><trkpt lat="41.91071199331206" lon="12.394301624641201"><ele>72.75</ele><time>2026-03-27T10:03:23.001Z</time></trkpt><trkpt lat="41.91071726540975" lon="12.394109720718221"><ele>71.0</ele><time>2026-03-27T10:03:24.001Z</time></trkpt><trkpt lat="41.91073300331918" lon="12.39392109541944"><ele>70.75</ele><time>2026-03-27T10:03:25.001Z</time></trkpt><trkpt lat="41.91075271910669" lon="12.393732491868196"><ele>70.5</ele><time>2026-03-27T10:03:26.001Z</time></trkpt><trkpt lat="41.910776006079864" lon="12.393557720324416"><ele>70.25</ele><time>2026-03-27T10:03:27.001Z</time></trkpt><trkpt lat="41.910799952439696" lon="12.393383622466128"><ele>70.0</ele><time>2026-03-27T10:03:28.001Z</time></trkpt><trkpt lat="41.91082282928568" lon="12.393221640285976"><ele>70.0</ele><time>2026-03-27T10:03:29.001Z</time></trkpt><trkpt lat="41.910852226510066" lon="12.39306144191568"><ele>70.0</ele><time>2026-03-27T10:03:30.001Z</time></trkpt><trkpt lat="41.910909546480994" lon="12.392919918068813"><ele>70.0</ele><time>2026-03-27T10:03:31.001Z</time></trkpt><trkpt lat="41.91095787575048" lon="12.392768301048289"><ele>70.0</ele><time>2026-03-27T10:03:32Z</time></trkpt><trkpt lat="41.91102462766528" lon="12.392618141057776"><ele>71.75</ele><time>2026-03-27T10:03:33Z</time></trkpt><trkpt lat="41.911125818313856" lon="12.392484088455866"><ele>73.5</ele><time>2026-03-27T10:03:34Z</time></trkpt><trkpt lat="41.91123804912878" lon="12.392362252773108"><ele>75.25</ele><time>2026-03-27T10:03:35Z</time></trkpt><trkpt lat="41.9113400930887" lon="12.392282663197468"><ele>77.0</ele><time>2026-03-27T10:03:36Z</time></trkpt><trkpt lat="41.91143422468919" lon="12.392199620476802"><ele>77.75</ele><time>2026-03-27T10:03:37Z</time></trkpt><trkpt lat="41.9115436810478" lon="12.392109711728"><ele>78.5</ele><time>2026-03-27T10:03:38Z</time></trkpt><trkpt lat="41.91165176926028" lon="12.392011306579771"><ele>79.25</ele><time>2026-03-27T10:03:39Z</time></trkpt><trkpt lat="41.911742867376645" lon="12.391917408973919"><ele>80.0</ele><time>2026-03-27T10:03:40Z</time></trkpt><trkpt lat="41.91184618576203" lon="12.391794916598089"><ele>80.25</ele><time>2026-03-27T10:03:41Z</time></trkpt><trkpt lat="41.911949348075915" lon="12.39166940949298"><ele>80.5</ele><time>2026-03-27T10:03:42Z</time></trkpt><trkpt lat="41.91204476339023" lon="12.391552692778408"><ele>80.75</ele><time>2026-03-27T10:03:43Z</time></trkpt><trkpt lat="41.91214047604754" lon="12.391438225277879"><ele>81.0</ele><time>2026-03-27T10:03:44Z</time></trkpt><trkpt lat="41.91224485125541" lon="12.391312194820765"><ele>81.0</ele><time>2026-03-27T10:03:45Z</time></trkpt><trkpt lat="41.912353776762004" lon="12.391180612622069"><ele>81.0</ele><time>2026-03-27T10:03:46Z</time></trkpt><trkpt lat="41.91246326232858" lon="12.391045610924216"><ele>81.0</ele><time>2026-03-27T10:03:47Z</time></trkpt><trkpt lat="41.91256421675886" lon="12.39092925957391"><ele>81.0</ele><time>2026-03-27T10:03:48Z</time></trkpt><trkpt lat="41.91265957063233" lon="12.3908035997223"><ele>80.5</ele><time>2026-03-27T10:03:49Z</time></trkpt><trkpt lat="41.912748808839936" lon="12.390677795238735"><ele>80.0</ele><time>2026-03-27T10:03:50Z</time></trkpt><trkpt lat="41.91283817489906" lon="12.390549889339075"><ele>79.5</ele><time>2026-03-27T10:03:51Z</time></trkpt><trkpt lat="41.91293073509336" lon="12.390435349091078"><ele>79.0</ele><time>2026-03-27T10:03:52Z</time></trkpt><trkpt lat="41.9130155262765" lon="12.39033189722888"><ele>77.5</ele><time>2026-03-27T10:03:53Z</time></trkpt><trkpt lat="41.91310940221238" lon="12.390228885481994"><ele>76.0</ele><time>2026-03-27T10:03:54Z</time></trkpt><trkpt lat="41.91318567989382" lon="12.390107119677094"><ele>74.5</ele><time>2026-03-27T10:03:55Z</time></trkpt><trkpt lat="41.913282600292774" lon="12.389983517884389"><ele>73.0</ele><time>2026-03-27T10:03:56Z</time></trkpt><trkpt lat="41.91338671576626" lon="12.389883379232243"><ele>71.8</ele><time>2026-03-27T10:03:57Z</time></trkpt><trkpt lat="41.9134738021441" lon="12.389761553539026"><ele>70.6</ele><time>2026-03-27T10:03:58Z</time></trkpt><trkpt lat="41.91355597671485" lon="12.389662475353157"><ele>69.4</ele><time>2026-03-27T10:03:59Z</time></trkpt><trkpt lat="41.91361589759616" lon="12.389567993081727"><ele>68.2</ele><time>2026-03-27T10:04:00Z</time></trkpt><trkpt lat="41.91367367795773" lon="12.389477351538055"><ele>67.0</ele><time>2026-03-27T10:04:01Z</time></trkpt><trkpt lat="41.91372336972112" lon="12.389388511962377"><ele>65.66666666666666</ele><time>2026-03-27T10:04:02Z</time></trkpt><trkpt lat="41.913766967132865" lon="12.38930089541467"><ele>64.33333333333333</ele><time>2026-03-27T10:04:03Z</time></trkpt><trkpt lat="41.913803995506946" lon="12.389202802007901"><ele>63.0</ele><time>2026-03-27T10:04:04Z</time></trkpt><trkpt lat="41.91384869712913" lon="12.38911039878491"><ele>61.66666666666667</ele><time>2026-03-27T10:04:05Z</time></trkpt><trkpt lat="41.91387760141902" lon="12.38901342181877"><ele>60.333333333333336</ele><time>2026-03-27T10:04:06Z</time></trkpt><trkpt lat="41.91390120449527" lon="12.388901216056613"><ele>59.0</ele><time>2026-03-27T10:04:07Z</time></trkpt><trkpt lat="41.91392965620896" lon="12.388807792472267"><ele>58.6</ele><time>2026-03-27T10:04:08Z</time></trkpt><trkpt lat="41.913960891377656" lon="12.388720637717064"><ele>58.2</ele><time>2026-03-27T10:04:09Z</time></trkpt><trkpt lat="41.913938267739965" lon="12.388570805586886"><ele>57.800000000000004</ele><time>2026-03-27T10:04:11Z</time></trkpt><trkpt lat="41.91395906237602" lon="12.388437407627627"><ele>57.400000000000006</ele><time>2026-03-27T10:04:12Z</time></trkpt><trkpt lat="41.913987274671896" lon="12.388300627104234"><ele>57.0</ele><time>2026-03-27T10:04:13.001Z</time></trkpt><trkpt lat="41.91400992724935" lon="12.388153499068155"><ele>57.0</ele><time>2026-03-27T10:04:14.001Z</time></trkpt><trkpt lat="41.914055338242285" lon="12.388021983550813"><ele>57.0</ele><time>2026-03-27T10:04:15.001Z</time></trkpt><trkpt lat="41.914083311814906" lon="12.387893576061968"><ele>57.0</ele><time>2026-03-27T10:04:16.001Z</time></trkpt><trkpt lat="41.91410243299109" lon="12.387772910889348"><ele>57.0</ele><time>2026-03-27T10:04:17.001Z</time></trkpt><trkpt lat="41.91412908193083" lon="12.38766686974293"><ele>57.0</ele><time>2026-03-27T10:04:18.001Z</time></trkpt><trkpt lat="41.91415553033043" lon="12.387553224724398"><ele>57.0</ele><time>2026-03-27T10:04:19.001Z</time></trkpt><trkpt lat="41.914175784786536" lon="12.38744327927705"><ele>57.0</ele><time>2026-03-27T10:04:20.001Z</time></trkpt><trkpt lat="41.91419446859779" lon="12.387353305295651"><ele>57.0</ele><time>2026-03-27T10:04:21.001Z</time></trkpt><trkpt lat="41.91423309956787" lon="12.387215233550707"><ele>57.0</ele><time>2026-03-27T10:04:23.001Z</time></trkpt><trkpt lat="41.914245688506554" lon="12.387125884096477"><ele>57.0</ele><time>2026-03-27T10:04:27.001Z</time></trkpt><trkpt lat="41.9142587067816" lon="12.387029001553866"><ele>57.0</ele><time>2026-03-27T10:04:29.001Z</time></trkpt><trkpt lat="41.91428978024972" lon="12.386852984630016"><ele>58.166666666666664</ele><time>2026-03-27T10:04:31.001Z</time></trkpt><trkpt lat="41.91431963968633" lon="12.386693721416773"><ele>59.33333333333333</ele><time>2026-03-27T10:04:33.001Z</time></trkpt><trkpt lat="41.914337742658255" lon="12.386596104688604"><ele>60.5</ele><time>2026-03-27T10:04:34.001Z</time></trkpt><trkpt lat="41.914354750118676" lon="12.38649174845646"><ele>61.666666666666664</ele><time>2026-03-27T10:04:35.001Z</time></trkpt><trkpt lat="41.914375029178" lon="12.38639549588399"><ele>62.83333333333333</ele><time>2026-03-27T10:04:36.001Z</time></trkpt><trkpt lat="41.91440272481577" lon="12.386302662890385"><ele>64.0</ele><time>2026-03-27T10:04:37.001Z</time></trkpt><trkpt lat="41.91444156195564" lon="12.386186050501532"><ele>64.0</ele><time>2026-03-27T10:04:38.001Z</time></trkpt><trkpt lat="41.914471817243076" lon="12.386081720243904"><ele>64.0</ele><time>2026-03-27T10:04:39.001Z</time></trkpt><trkpt lat="41.914501958937684" lon="12.385998749553426"><ele>64.0</ele><time>2026-03-27T10:04:40.001Z</time></trkpt><trkpt lat="41.91456284501459" lon="12.385825996752965"><ele>64.0</ele><time>2026-03-27T10:04:42.001Z</time></trkpt><trkpt lat="41.91459432658543" lon="12.38568905739848"><ele>64.0</ele><time>2026-03-27T10:04:43.001Z</time></trkpt><trkpt lat="41.9146333475835" lon="12.385518601558491"><ele>62.0</ele><time>2026-03-27T10:04:44.001Z</time></trkpt><trkpt lat="41.914694542582964" lon="12.385318470525029"><ele>60.0</ele><time>2026-03-27T10:04:45.001Z</time></trkpt><trkpt lat="41.91475757112333" lon="12.385128705133663"><ele>58.0</ele><time>2026-03-27T10:04:46.001Z</time></trkpt><trkpt lat="41.91482174691042" lon="12.38495747394554"><ele>58.0</ele><time>2026-03-27T10:04:47.001Z</time></trkpt><trkpt lat="41.914909622706986" lon="12.384751641158369"><ele>58.0</ele><time>2026-03-27T10:04:48.001Z</time></trkpt><trkpt lat="41.91496617413734" lon="12.384513551838486"><ele>58.0</ele><time>2026-03-27T10:04:49.001Z</time></trkpt><trkpt lat="41.915012513815455" lon="12.384278158989154"><ele>57.5</ele><time>2026-03-27T10:04:50.001Z</time></trkpt><trkpt lat="41.91505730778965" lon="12.38408462024971"><ele>57.0</ele><time>2026-03-27T10:04:51.001Z</time></trkpt><trkpt lat="41.915090781943235" lon="12.383902037461533"><ele>56.5</ele><time>2026-03-27T10:04:52.001Z</time></trkpt><trkpt lat="41.91511647701484" lon="12.383722187790383"><ele>56.0</ele><time>2026-03-27T10:04:53.001Z</time></trkpt><trkpt lat="41.91512755603452" lon="12.383538008473598"><ele>55.75</ele><time>2026-03-27T10:04:54.001Z</time></trkpt><trkpt lat="41.915147780766915" lon="12.383367470487407"><ele>55.5</ele><time>2026-03-27T10:04:55.001Z</time></trkpt><trkpt lat="41.9151647235858" lon="12.383206583040955"><ele>55.25</ele><time>2026-03-27T10:04:56.001Z</time></trkpt><trkpt lat="41.915204784611376" lon="12.383031964197956"><ele>55.0</ele><time>2026-03-27T10:04:57.001Z</time></trkpt><trkpt lat="41.91523904905101" lon="12.382847876517909"><ele>55.666666666666664</ele><time>2026-03-27T10:04:58.001Z</time></trkpt><trkpt lat="41.91527406742041" lon="12.382608747654995"><ele>56.33333333333333</ele><time>2026-03-27T10:04:59.001Z</time></trkpt><trkpt lat="41.91531829025133" lon="12.382366436052644"><ele>57.0</ele><time>2026-03-27T10:05:00.001Z</time></trkpt><trkpt lat="41.91535679771442" lon="12.382154417886639"><ele>58.75</ele><time>2026-03-27T10:05:01.001Z</time></trkpt><trkpt lat="41.91539276853494" lon="12.381974551127332"><ele>60.5</ele><time>2026-03-27T10:05:02.001Z</time></trkpt><trkpt lat="41.91542705166848" lon="12.381797508336962"><ele>62.25</ele><time>2026-03-27T10:05:03.001Z</time></trkpt><trkpt lat="41.91546309283462" lon="12.381615161277871"><ele>64.0</ele><time>2026-03-27T10:05:04.001Z</time></trkpt><trkpt lat="41.91549655216635" lon="12.381429600225639"><ele>66.0</ele><time>2026-03-27T10:05:05.001Z</time></trkpt><trkpt lat="41.915537165511495" lon="12.381220306522524"><ele>68.0</ele><time>2026-03-27T10:05:06.001Z</time></trkpt><trkpt lat="41.91558245678443" lon="12.380991590639281"><ele>70.0</ele><time>2026-03-27T10:05:07.001Z</time></trkpt><trkpt lat="41.915621734052046" lon="12.38073942459584"><ele>70.0</ele><time>2026-03-27T10:05:08.001Z</time></trkpt><trkpt lat="41.915658152254835" lon="12.380539642088932"><ele>70.0</ele><time>2026-03-27T10:05:09.001Z</time></trkpt><trkpt lat="41.91570001759505" lon="12.380374524106042"><ele>70.0</ele><time>2026-03-27T10:05:10.001Z</time></trkpt><trkpt lat="41.915735629211774" lon="12.380193871079229"><ele>70.0</ele><time>2026-03-27T10:05:11.001Z</time></trkpt><trkpt lat="41.91576654067625" lon="12.380038578029833"><ele>69.5</ele><time>2026-03-27T10:05:12.001Z</time></trkpt><trkpt lat="41.91579549052902" lon="12.379915402665528"><ele>69.0</ele><time>2026-03-27T10:05:13.001Z</time></trkpt><trkpt lat="41.91582632260842" lon="12.379817937010293"><ele>68.5</ele><time>2026-03-27T10:05:14.001Z</time></trkpt><trkpt lat="41.915865963080094" lon="12.379741672345952"><ele>68.0</ele><time>2026-03-27T10:05:15.001Z</time></trkpt><trkpt lat="41.91592268360956" lon="12.379666568006643"><ele>67.5</ele><time>2026-03-27T10:05:16.001Z</time></trkpt><trkpt lat="41.91599074603847" lon="12.37958220751827"><ele>67.0</ele><time>2026-03-27T10:05:17.001Z</time></trkpt><trkpt lat="41.91606215781999" lon="12.37948454148878"><ele>68.75</ele><time>2026-03-27T10:05:18.001Z</time></trkpt><trkpt lat="41.916161367683536" lon="12.37939083210828"><ele>70.5</ele><time>2026-03-27T10:05:19.001Z</time></trkpt><trkpt lat="41.916281256780096" lon="12.379284562031796"><ele>72.25</ele><time>2026-03-27T10:05:20.001Z</time></trkpt><trkpt lat="41.91639808789225" lon="12.379170293802076"><ele>74.0</ele><time>2026-03-27T10:05:21.001Z</time></trkpt><trkpt lat="41.9164991679324" lon="12.379060036360919"><ele>74.0</ele><time>2026-03-27T10:05:22.001Z</time></trkpt><trkpt lat="41.91661458840629" lon="12.378965575090504"><ele>74.0</ele><time>2026-03-27T10:05:23.001Z</time></trkpt><trkpt lat="41.91675208962573" lon="12.37887126752357"><ele>74.0</ele><time>2026-03-27T10:05:24.001Z</time></trkpt><trkpt lat="41.916892272181116" lon="12.37879942916781"><ele>74.0</ele><time>2026-03-27T10:05:25.001Z</time></trkpt><trkpt lat="41.917025543481294" lon="12.378738743320824"><ele>74.5</ele><time>2026-03-27T10:05:26.001Z</time></trkpt><trkpt lat="41.91714796214537" lon="12.378690664702566"><ele>75.0</ele><time>2026-03-27T10:05:27.001Z</time></trkpt><trkpt lat="41.91727543257083" lon="12.378627708179762"><ele>75.5</ele><time>2026-03-27T10:05:28.001Z</time></trkpt><trkpt lat="41.91739022586029" lon="12.378565935090972"><ele>76.0</ele><time>2026-03-27T10:05:29.001Z</time></trkpt><trkpt lat="41.917496951104546" lon="12.378514800885494"><ele>76.8</ele><time>2026-03-27T10:05:30.001Z</time></trkpt><trkpt lat="41.9175846691083" lon="12.378453670502708"><ele>77.6</ele><time>2026-03-27T10:05:31.001Z</time></trkpt><trkpt lat="41.917679710177005" lon="12.378406098139202"><ele>78.4</ele><time>2026-03-27T10:05:32.001Z</time></trkpt><trkpt lat="41.917770351008265" lon="12.378352261122307"><ele>79.2</ele><time>2026-03-27T10:05:33.001Z</time></trkpt><trkpt lat="41.917864703641705" lon="12.378297810322154"><ele>80.0</ele><time>2026-03-27T10:05:34.001Z</time></trkpt><trkpt lat="41.91794341095323" lon="12.378251433714075"><ele>80.0</ele><time>2026-03-27T10:05:35.001Z</time></trkpt><trkpt lat="41.91801994415288" lon="12.378203375731797"><ele>80.0</ele><time>2026-03-27T10:05:36.001Z</time></trkpt><trkpt lat="41.91811724118101" lon="12.378151265716799"><ele>80.0</ele><time>2026-03-27T10:05:37Z</time></trkpt><trkpt lat="41.91821899935152" lon="12.378105489398953"><ele>80.0</ele><time>2026-03-27T10:05:38Z</time></trkpt><trkpt lat="41.91829412217414" lon="12.378064428081743"><ele>80.0</ele><time>2026-03-27T10:05:39Z</time></trkpt><trkpt lat="41.91837028314117" lon="12.378019522362456"><ele>80.16666666666667</ele><time>2026-03-27T10:05:40Z</time></trkpt><trkpt lat="41.918437870794804" lon="12.3779708951001"><ele>80.33333333333334</ele><time>2026-03-27T10:05:41Z</time></trkpt><trkpt lat="41.918503202874426" lon="12.377944432949125"><ele>80.5</ele><time>2026-03-27T10:05:42Z</time></trkpt><trkpt lat="41.91855867967644" lon="12.3778813840406"><ele>80.66666666666667</ele><time>2026-03-27T10:05:43Z</time></trkpt><trkpt lat="41.91862780824313" lon="12.377813467526849"><ele>80.83333333333333</ele><time>2026-03-27T10:05:45Z</time></trkpt><trkpt lat="41.918675373935436" lon="12.377740959110188"><ele>81.0</ele><time>2026-03-27T10:05:47Z</time></trkpt><trkpt lat="41.91875086781873" lon="12.37767571533123"><ele>81.0</ele><time>2026-03-27T10:05:50Z</time></trkpt><trkpt lat="41.918856142166376" lon="12.37763854598466"><ele>81.0</ele><time>2026-03-27T10:05:52Z</time></trkpt><trkpt lat="41.91892902538835" lon="12.37760460340998"><ele>81.0</ele><time>2026-03-27T10:05:55Z</time></trkpt><trkpt lat="41.91904723918926" lon="12.37761836474554"><ele>81.0</ele><time>2026-03-27T10:05:57Z</time></trkpt><trkpt lat="41.9191158337601" lon="12.377633154841243"><ele>81.0</ele><time>2026-03-27T10:05:58Z</time></trkpt><trkpt lat="41.91918715751544" lon="12.37761535719461"><ele>81.0</ele><time>2026-03-27T10:05:59Z</time></trkpt><trkpt lat="41.91928038660165" lon="12.377589591889272"><ele>81.4</ele><time>2026-03-27T10:06:00Z</time></trkpt><trkpt lat="41.91934354713529" lon="12.377511532903178"><ele>81.8</ele><time>2026-03-27T10:06:01Z</time></trkpt><trkpt lat="41.91941351929466" lon="12.377477758739932"><ele>82.2</ele><time>2026-03-27T10:06:03Z</time></trkpt><trkpt lat="41.919479930167256" lon="12.377355736382274"><ele>82.60000000000001</ele><time>2026-03-27T10:06:05Z</time></trkpt><trkpt lat="41.91950878147215" lon="12.377234400668604"><ele>83.0</ele><time>2026-03-27T10:06:06Z</time></trkpt><trkpt lat="41.91956738156076" lon="12.37711971155318"><ele>83.0</ele><time>2026-03-27T10:06:07Z</time></trkpt><trkpt lat="41.91962771013834" lon="12.377003855072482"><ele>83.0</ele><time>2026-03-27T10:06:08.001Z</time></trkpt><trkpt lat="41.919729576851026" lon="12.376891371265158"><ele>83.0</ele><time>2026-03-27T10:06:09.001Z</time></trkpt><trkpt lat="41.91984082701199" lon="12.376798790655274"><ele>83.0</ele><time>2026-03-27T10:06:10.001Z</time></trkpt><trkpt lat="41.919948598698916" lon="12.376720961312868"><ele>83.0</ele><time>2026-03-27T10:06:11.001Z</time></trkpt><trkpt lat="41.92006103913134" lon="12.376642441456411"><ele>83.0</ele><time>2026-03-27T10:06:12.001Z</time></trkpt><trkpt lat="41.92017292147593" lon="12.376558834124108"><ele>83.0</ele><time>2026-03-27T10:06:13.001Z</time></trkpt><trkpt lat="41.92028691511348" lon="12.3764677039413"><ele>83.0</ele><time>2026-03-27T10:06:14.001Z</time></trkpt><trkpt lat="41.920404415329145" lon="12.376384074376544"><ele>81.75</ele><time>2026-03-27T10:06:15.001Z</time></trkpt><trkpt lat="41.92052003941708" lon="12.376307230857517"><ele>80.5</ele><time>2026-03-27T10:06:16.001Z</time></trkpt><trkpt lat="41.920639560040954" lon="12.376234366447527"><ele>79.25</ele><time>2026-03-27T10:06:17.001Z</time></trkpt><trkpt lat="41.920757073842914" lon="12.376161161953922"><ele>78.0</ele><time>2026-03-27T10:06:18.001Z</time></trkpt><trkpt lat="41.92086804800469" lon="12.376098955293042"><ele>78.4</ele><time>2026-03-27T10:06:19.001Z</time></trkpt><trkpt lat="41.920968574002956" lon="12.376043194593755"><ele>78.8</ele><time>2026-03-27T10:06:20.001Z</time></trkpt><trkpt lat="41.92107404179192" lon="12.37598060432867"><ele>79.2</ele><time>2026-03-27T10:06:21.001Z</time></trkpt><trkpt lat="41.92117290421962" lon="12.3759289238007"><ele>79.6</ele><time>2026-03-27T10:06:22.001Z</time></trkpt><trkpt lat="41.9212559136227" lon="12.375872715943338"><ele>80.0</ele><time>2026-03-27T10:06:23.001Z</time></trkpt><trkpt lat="41.92132888681195" lon="12.375810358530755"><ele>80.0</ele><time>2026-03-27T10:06:24.001Z</time></trkpt><trkpt lat="41.92141283150309" lon="12.375740048085655"><ele>80.0</ele><time>2026-03-27T10:06:25.001Z</time></trkpt><trkpt lat="41.92151092186387" lon="12.375679133267203"><ele>80.0</ele><time>2026-03-27T10:06:26.001Z</time></trkpt><trkpt lat="41.921573893874836" lon="12.375563449272288"><ele>80.0</ele><time>2026-03-27T10:06:27.001Z</time></trkpt><trkpt lat="41.921634825124755" lon="12.375471556275338"><ele>80.0</ele><time>2026-03-27T10:06:28.001Z</time></trkpt><trkpt lat="41.921685416780896" lon="12.375371757162831"><ele>81.0</ele><time>2026-03-27T10:06:29.001Z</time></trkpt><trkpt lat="41.9217445045918" lon="12.375251323689485"><ele>82.0</ele><time>2026-03-27T10:06:30.001Z</time></trkpt><trkpt lat="41.921803745188306" lon="12.375125558990218"><ele>83.0</ele><time>2026-03-27T10:06:31.001Z</time></trkpt><trkpt lat="41.921871257931" lon="12.375009241938745"><ele>84.0</ele><time>2026-03-27T10:06:32.001Z</time></trkpt><trkpt lat="41.921909700960924" lon="12.37488278350528"><ele>85.0</ele><time>2026-03-27T10:06:33.001Z</time></trkpt><trkpt lat="41.921981439973024" lon="12.374725222845617"><ele>85.2</ele><time>2026-03-27T10:06:34.001Z</time></trkpt><trkpt lat="41.92204669668773" lon="12.374563659565212"><ele>85.4</ele><time>2026-03-27T10:06:35.001Z</time></trkpt><trkpt lat="41.922092344659625" lon="12.374424475148269"><ele>85.6</ele><time>2026-03-27T10:06:36.001Z</time></trkpt><trkpt lat="41.92212439578527" lon="12.374301197918571"><ele>85.8</ele><time>2026-03-27T10:06:37.001Z</time></trkpt><trkpt lat="41.92214706166714" lon="12.374174485419163"><ele>86.0</ele><time>2026-03-27T10:06:38.001Z</time></trkpt><trkpt lat="41.9221633104728" lon="12.374039068662428"><ele>86.0</ele><time>2026-03-27T10:06:39.001Z</time></trkpt><trkpt lat="41.92217562143986" lon="12.373903442956985"><ele>86.0</ele><time>2026-03-27T10:06:40.001Z</time></trkpt><trkpt lat="41.92218850148449" lon="12.373754238401961"><ele>86.0</ele><time>2026-03-27T10:06:41.001Z</time></trkpt><trkpt lat="41.92219209811956" lon="12.373578895845295"><ele>86.0</ele><time>2026-03-27T10:06:42.001Z</time></trkpt><trkpt lat="41.92218106747718" lon="12.373415049592921"><ele>85.5</ele><time>2026-03-27T10:06:43.001Z</time></trkpt><trkpt lat="41.922156727925994" lon="12.37327412436241"><ele>85.0</ele><time>2026-03-27T10:06:44.001Z</time></trkpt><trkpt lat="41.92211806296542" lon="12.37313912780591"><ele>84.5</ele><time>2026-03-27T10:06:45.001Z</time></trkpt><trkpt lat="41.92205508022701" lon="12.37299693351646"><ele>84.0</ele><time>2026-03-27T10:06:46.001Z</time></trkpt><trkpt lat="41.921954660993364" lon="12.37281966912402"><ele>82.5</ele><time>2026-03-27T10:06:47.001Z</time></trkpt><trkpt lat="41.92186926749243" lon="12.372639069142691"><ele>81.0</ele><time>2026-03-27T10:06:48.001Z</time></trkpt><trkpt lat="41.92180454004396" lon="12.372479028305884"><ele>79.5</ele><time>2026-03-27T10:06:49.001Z</time></trkpt><trkpt lat="41.92176862034565" lon="12.372324004793384"><ele>78.0</ele><time>2026-03-27T10:06:50.001Z</time></trkpt><trkpt lat="41.92177925569903" lon="12.372181118392627"><ele>77.0</ele><time>2026-03-27T10:06:51.001Z</time></trkpt><trkpt lat="41.921825485824016" lon="12.37204668417856"><ele>76.0</ele><time>2026-03-27T10:06:52.001Z</time></trkpt><trkpt lat="41.92187458778021" lon="12.371925510923912"><ele>75.0</ele><time>2026-03-27T10:06:53.001Z</time></trkpt><trkpt lat="41.921922302777325" lon="12.371801956072078"><ele>74.0</ele><time>2026-03-27T10:06:54.001Z</time></trkpt><trkpt lat="41.92198313152031" lon="12.371690590066253"><ele>73.0</ele><time>2026-03-27T10:06:55.001Z</time></trkpt><trkpt lat="41.92203349986109" lon="12.371578095831524"><ele>73.0</ele><time>2026-03-27T10:06:56.001Z</time></trkpt><trkpt lat="41.922100851325226" lon="12.371472175666975"><ele>73.0</ele><time>2026-03-27T10:06:57.001Z</time></trkpt><trkpt lat="41.92214024279528" lon="12.37135353863601"><ele>73.0</ele><time>2026-03-27T10:06:58.001Z</time></trkpt><trkpt lat="41.92219624805616" lon="12.371244590603208"><ele>73.0</ele><time>2026-03-27T10:06:59.001Z</time></trkpt><trkpt lat="41.9222361846157" lon="12.371153860194973"><ele>73.0</ele><time>2026-03-27T10:07:00.001Z</time></trkpt><trkpt lat="41.922274235149686" lon="12.371062403209397"><ele>72.66666666666666</ele><time>2026-03-27T10:07:01.001Z</time></trkpt><trkpt lat="41.9223041757879" lon="12.370984652330835"><ele>72.33333333333333</ele><time>2026-03-27T10:07:02.001Z</time></trkpt><trkpt lat="41.92233992636603" lon="12.370866835544302"><ele>72.0</ele><time>2026-03-27T10:07:04.001Z</time></trkpt><trkpt lat="41.92235833414154" lon="12.370779687105989"><ele>71.66666666666667</ele><time>2026-03-27T10:07:05.001Z</time></trkpt><trkpt lat="41.92238381488709" lon="12.37064279975159"><ele>71.33333333333334</ele><time>2026-03-27T10:07:06.001Z</time></trkpt><trkpt lat="41.92240435312494" lon="12.370497833440165"><ele>71.0</ele><time>2026-03-27T10:07:07.001Z</time></trkpt><trkpt lat="41.9224289972659" lon="12.370316967578491"><ele>71.0</ele><time>2026-03-27T10:07:08.001Z</time></trkpt><trkpt lat="41.92245448255156" lon="12.370120547574562"><ele>71.0</ele><time>2026-03-27T10:07:09.001Z</time></trkpt><trkpt lat="41.92248867874654" lon="12.369902860137989"><ele>71.0</ele><time>2026-03-27T10:07:10.001Z</time></trkpt><trkpt lat="41.92255626178252" lon="12.369662655869941"><ele>69.66666666666667</ele><time>2026-03-27T10:07:11.001Z</time></trkpt><trkpt lat="41.92261819621927" lon="12.369449847554382"><ele>68.33333333333333</ele><time>2026-03-27T10:07:12.001Z</time></trkpt><trkpt lat="41.922682315273704" lon="12.369250872434376"><ele>67.0</ele><time>2026-03-27T10:07:13.001Z</time></trkpt><trkpt lat="41.922732982637484" lon="12.369059947483064"><ele>67.0</ele><time>2026-03-27T10:07:14.001Z</time></trkpt><trkpt lat="41.922798715558734" lon="12.368872983943735"><ele>67.0</ele><time>2026-03-27T10:07:15.001Z</time></trkpt><trkpt lat="41.922856620148636" lon="12.36870917509171"><ele>67.0</ele><time>2026-03-27T10:07:16.001Z</time></trkpt><trkpt lat="41.92291298197695" lon="12.368549123642186"><ele>67.0</ele><time>2026-03-27T10:07:17.001Z</time></trkpt><trkpt lat="41.92296484567988" lon="12.368406658334234"><ele>66.66666666666666</ele><time>2026-03-27T10:07:18.001Z</time></trkpt><trkpt lat="41.92301828755007" lon="12.368285584461885"><ele>66.33333333333333</ele><time>2026-03-27T10:07:19.001Z</time></trkpt><trkpt lat="41.92307291530981" lon="12.368196569674701"><ele>66.0</ele><time>2026-03-27T10:07:20.001Z</time></trkpt><trkpt lat="41.92312541597539" lon="12.36810508200605"><ele>65.66666666666667</ele><time>2026-03-27T10:07:21.001Z</time></trkpt><trkpt lat="41.923168899084736" lon="12.368026940318458"><ele>65.33333333333334</ele><time>2026-03-27T10:07:22.001Z</time></trkpt><trkpt lat="41.92320691739333" lon="12.367950997599634"><ele>65.0</ele><time>2026-03-27T10:07:23.001Z</time></trkpt><trkpt lat="41.92324098848873" lon="12.367879824722952"><ele>65.0</ele><time>2026-03-27T10:07:24.001Z</time></trkpt><trkpt lat="41.9232946964059" lon="12.367775074726618"><ele>65.0</ele><time>2026-03-27T10:07:26.001Z</time></trkpt><trkpt lat="41.92334415566823" lon="12.367667268986363"><ele>65.0</ele><time>2026-03-27T10:07:28.001Z</time></trkpt><trkpt lat="41.9233871113411" lon="12.367585179581896"><ele>65.0</ele><time>2026-03-27T10:07:29.001Z</time></trkpt><trkpt lat="41.92345014456488" lon="12.367481247273918"><ele>65.0</ele><time>2026-03-27T10:07:30.001Z</time></trkpt><trkpt lat="41.92350658169832" lon="12.367398069974682"><ele>65.0</ele><time>2026-03-27T10:07:31.001Z</time></trkpt><trkpt lat="41.92358582376789" lon="12.367328060471754"><ele>65.5</ele><time>2026-03-27T10:07:32.001Z</time></trkpt><trkpt lat="41.92366274522205" lon="12.367229190655383"><ele>66.0</ele><time>2026-03-27T10:07:33.001Z</time></trkpt><trkpt lat="41.92375794604514" lon="12.367105581446577"><ele>66.5</ele><time>2026-03-27T10:07:34.001Z</time></trkpt><trkpt lat="41.923826070327934" lon="12.366985817391459"><ele>67.0</ele><time>2026-03-27T10:07:35.001Z</time></trkpt><trkpt lat="41.923898002641785" lon="12.366886760788564"><ele>67.0</ele><time>2026-03-27T10:07:36.001Z</time></trkpt><trkpt lat="41.923976167487744" lon="12.366774313412854"><ele>67.0</ele><time>2026-03-27T10:07:37.001Z</time></trkpt><trkpt lat="41.924060413561435" lon="12.366632096813193"><ele>67.0</ele><time>2026-03-27T10:07:38.001Z</time></trkpt><trkpt lat="41.92415539245757" lon="12.36645802134409"><ele>67.0</ele><time>2026-03-27T10:07:39.001Z</time></trkpt><trkpt lat="41.924236480731984" lon="12.366299289765406"><ele>69.25</ele><time>2026-03-27T10:07:40.001Z</time></trkpt><trkpt lat="41.92430016231503" lon="12.366127195554583"><ele>71.5</ele><time>2026-03-27T10:07:41.001Z</time></trkpt><trkpt lat="41.92437047276951" lon="12.365967898918425"><ele>73.75</ele><time>2026-03-27T10:07:42.001Z</time></trkpt><trkpt lat="41.92440654514654" lon="12.36579462069314"><ele>76.0</ele><time>2026-03-27T10:07:43Z</time></trkpt><trkpt lat="41.92442782721881" lon="12.365626445571753"><ele>74.75</ele><time>2026-03-27T10:07:44Z</time></trkpt><trkpt lat="41.92443455166364" lon="12.365470250788633"><ele>73.5</ele><time>2026-03-27T10:07:45Z</time></trkpt><trkpt lat="41.92441688607835" lon="12.365313487484533"><ele>72.25</ele><time>2026-03-27T10:07:46Z</time></trkpt><trkpt lat="41.924416423490236" lon="12.36516115283869"><ele>71.0</ele><time>2026-03-27T10:07:47Z</time></trkpt><trkpt lat="41.92444342144051" lon="12.365021150541022"><ele>71.0</ele><time>2026-03-27T10:07:48Z</time></trkpt><trkpt lat="41.92451555216976" lon="12.36490085974962"><ele>71.0</ele><time>2026-03-27T10:07:49Z</time></trkpt><trkpt lat="41.92461835009471" lon="12.364796407249754"><ele>71.0</ele><time>2026-03-27T10:07:50Z</time></trkpt><trkpt lat="41.924733222021814" lon="12.364659410759913"><ele>71.0</ele><time>2026-03-27T10:07:51Z</time></trkpt><trkpt lat="41.924851389584994" lon="12.364519148760026"><ele>69.5</ele><time>2026-03-27T10:07:52Z</time></trkpt><trkpt lat="41.924923651265075" lon="12.36434387220853"><ele>68.0</ele><time>2026-03-27T10:07:54Z</time></trkpt><trkpt lat="41.92500557950267" lon="12.364227285445304"><ele>66.5</ele><time>2026-03-27T10:07:55Z</time></trkpt><trkpt lat="41.925087280779195" lon="12.364092929666619"><ele>65.0</ele><time>2026-03-27T10:07:56Z</time></trkpt><trkpt lat="41.925155345819" lon="12.363946417986224"><ele>62.5</ele><time>2026-03-27T10:07:57Z</time></trkpt><trkpt lat="41.925211268329136" lon="12.36377510198317"><ele>60.0</ele><time>2026-03-27T10:07:58Z</time></trkpt><trkpt lat="41.925248932050074" lon="12.36360218487373"><ele>57.5</ele><time>2026-03-27T10:07:59Z</time></trkpt><trkpt lat="41.925272895889826" lon="12.363404733728073"><ele>55.0</ele><time>2026-03-27T10:08:00Z</time></trkpt><trkpt lat="41.92529359320168" lon="12.363188188410186"><ele>54.5</ele><time>2026-03-27T10:08:01Z</time></trkpt><trkpt lat="41.925310861205716" lon="12.36297750449382"><ele>54.0</ele><time>2026-03-27T10:08:02Z</time></trkpt><trkpt lat="41.925328114467824" lon="12.362780630884908"><ele>53.5</ele><time>2026-03-27T10:08:03Z</time></trkpt><trkpt lat="41.92536873497305" lon="12.362605395630236"><ele>53.0</ele><time>2026-03-27T10:08:04Z</time></trkpt><trkpt lat="41.925418785267894" lon="12.362403333251288"><ele>53.66666666666667</ele><time>2026-03-27T10:08:05Z</time></trkpt><trkpt lat="41.92546896759839" lon="12.362157101906327"><ele>54.33333333333333</ele><time>2026-03-27T10:08:06Z</time></trkpt><trkpt lat="41.925530826334644" lon="12.361957824092245"><ele>55.0</ele><time>2026-03-27T10:08:07Z</time></trkpt><trkpt lat="41.92558364838663" lon="12.361773548434439"><ele>55.0</ele><time>2026-03-27T10:08:08Z</time></trkpt><trkpt lat="41.92563847277175" lon="12.361606644019334"><ele>55.0</ele><time>2026-03-27T10:08:09Z</time></trkpt><trkpt lat="41.92569203519065" lon="12.361420177697337"><ele>55.0</ele><time>2026-03-27T10:08:10Z</time></trkpt><trkpt lat="41.925739349346514" lon="12.361246970942585"><ele>55.0</ele><time>2026-03-27T10:08:11Z</time></trkpt><trkpt lat="41.92577577585482" lon="12.36108437444466"><ele>55.5</ele><time>2026-03-27T10:08:12Z</time></trkpt><trkpt lat="41.92580012951689" lon="12.360926902585804"><ele>56.0</ele><time>2026-03-27T10:08:13Z</time></trkpt><trkpt lat="41.92582241983999" lon="12.360781618775833"><ele>56.5</ele><time>2026-03-27T10:08:14.001Z</time></trkpt><trkpt lat="41.925844845026646" lon="12.360637505882305"><ele>57.0</ele><time>2026-03-27T10:08:15.001Z</time></trkpt><trkpt lat="41.925884278164105" lon="12.360486128323998"><ele>61.0</ele><time>2026-03-27T10:08:16.001Z</time></trkpt><trkpt lat="41.92593988241634" lon="12.360311844079536"><ele>65.0</ele><time>2026-03-27T10:08:17.001Z</time></trkpt><trkpt lat="41.926025977630204" lon="12.360095275426744"><ele>69.0</ele><time>2026-03-27T10:08:18.001Z</time></trkpt><trkpt lat="41.926110897850585" lon="12.359917195792377"><ele>69.0</ele><time>2026-03-27T10:08:19.001Z</time></trkpt><trkpt lat="41.92620148351186" lon="12.359742674415363"><ele>69.0</ele><time>2026-03-27T10:08:20.001Z</time></trkpt><trkpt lat="41.92631080167756" lon="12.359576788366384"><ele>69.0</ele><time>2026-03-27T10:08:21.001Z</time></trkpt><trkpt lat="41.926453118351816" lon="12.359454985900609"><ele>68.0</ele><time>2026-03-27T10:08:22.001Z</time></trkpt><trkpt lat="41.926581474426946" lon="12.359350872047209"><ele>67.0</ele><time>2026-03-27T10:08:23.001Z</time></trkpt><trkpt lat="41.92669280739519" lon="12.35925524618395"><ele>66.0</ele><time>2026-03-27T10:08:24.001Z</time></trkpt><trkpt lat="41.92679271381138" lon="12.35919479107293"><ele>65.0</ele><time>2026-03-27T10:08:25.001Z</time></trkpt><trkpt lat="41.92689390771668" lon="12.35910485173742"><ele>65.0</ele><time>2026-03-27T10:08:26.001Z</time></trkpt><trkpt lat="41.92698283138423" lon="12.359018728539494"><ele>65.0</ele><time>2026-03-27T10:08:27.001Z</time></trkpt><trkpt lat="41.927069724679946" lon="12.358944274649978"><ele>65.0</ele><time>2026-03-27T10:08:28.001Z</time></trkpt><trkpt lat="41.92715441393381" lon="12.358891991656055"><ele>65.0</ele><time>2026-03-27T10:08:29.001Z</time></trkpt><trkpt lat="41.927243446523256" lon="12.358858816302693"><ele>65.0</ele><time>2026-03-27T10:08:30.001Z</time></trkpt><trkpt lat="41.927337785712695" lon="12.358846767325055"><ele>64.0</ele><time>2026-03-27T10:08:31.001Z</time></trkpt><trkpt lat="41.92744450063642" lon="12.358850710336306"><ele>63.0</ele><time>2026-03-27T10:08:32.001Z</time></trkpt><trkpt lat="41.92755686934907" lon="12.35884718246609"><ele>62.0</ele><time>2026-03-27T10:08:33.001Z</time></trkpt><trkpt lat="41.92765824366631" lon="12.358807998200318"><ele>61.0</ele><time>2026-03-27T10:08:34.001Z</time></trkpt><trkpt lat="41.92775509815417" lon="12.3587155830836"><ele>60.0</ele><time>2026-03-27T10:08:35.001Z</time></trkpt><trkpt lat="41.92784240288621" lon="12.358576891491865"><ele>59.75</ele><time>2026-03-27T10:08:36.001Z</time></trkpt><trkpt lat="41.92790995694316" lon="12.358413189844914"><ele>59.5</ele><time>2026-03-27T10:08:37.001Z</time></trkpt><trkpt lat="41.92795892122505" lon="12.358248438563836"><ele>59.25</ele><time>2026-03-27T10:08:38.001Z</time></trkpt><trkpt lat="41.928014639715784" lon="12.358082131353186"><ele>59.0</ele><time>2026-03-27T10:08:39.001Z</time></trkpt><trkpt lat="41.92808228377014" lon="12.357904301992722"><ele>58.5</ele><time>2026-03-27T10:08:40.001Z</time></trkpt><trkpt lat="41.92816387864268" lon="12.357757085520161"><ele>58.0</ele><time>2026-03-27T10:08:41.001Z</time></trkpt><trkpt lat="41.928242286450725" lon="12.357614302075913"><ele>57.5</ele><time>2026-03-27T10:08:42.001Z</time></trkpt><trkpt lat="41.92832913980611" lon="12.357483949629328"><ele>57.0</ele><time>2026-03-27T10:08:43.001Z</time></trkpt><trkpt lat="41.92840331269943" lon="12.35734407404525"><ele>57.0</ele><time>2026-03-27T10:08:44.001Z</time></trkpt><trkpt lat="41.928481357762834" lon="12.357210470133507"><ele>57.0</ele><time>2026-03-27T10:08:45.001Z</time></trkpt><trkpt lat="41.92854827199934" lon="12.357069029303203"><ele>57.0</ele><time>2026-03-27T10:08:46.001Z</time></trkpt><trkpt lat="41.928581806086136" lon="12.356912714536811"><ele>57.0</ele><time>2026-03-27T10:08:47.001Z</time></trkpt><trkpt lat="41.92857659547015" lon="12.356759686292813"><ele>55.400000000000006</ele><time>2026-03-27T10:08:48.001Z</time></trkpt><trkpt lat="41.92852573413079" lon="12.356625673225519"><ele>53.800000000000004</ele><time>2026-03-27T10:08:49.001Z</time></trkpt><trkpt lat="41.92843786170971" lon="12.356521753743905"><ele>52.2</ele><time>2026-03-27T10:08:50.001Z</time></trkpt><trkpt lat="41.92837032109569" lon="12.356424057427581"><ele>50.6</ele><time>2026-03-27T10:08:51.001Z</time></trkpt><trkpt lat="41.92830991089455" lon="12.35631894274472"><ele>49.0</ele><time>2026-03-27T10:08:52.001Z</time></trkpt><trkpt lat="41.928264970772865" lon="12.356201165171662"><ele>48.25</ele><time>2026-03-27T10:08:53.001Z</time></trkpt><trkpt lat="41.92824587410955" lon="12.356053464626072"><ele>47.5</ele><time>2026-03-27T10:08:54.001Z</time></trkpt><trkpt lat="41.928242411854804" lon="12.355870450350661"><ele>46.75</ele><time>2026-03-27T10:08:55.001Z</time></trkpt><trkpt lat="41.928246095959025" lon="12.355644265322086"><ele>46.0</ele><time>2026-03-27T10:08:56.001Z</time></trkpt><trkpt lat="41.928249363160106" lon="12.355431202878188"><ele>46.0</ele><time>2026-03-27T10:08:57.001Z</time></trkpt><trkpt lat="41.928252247626666" lon="12.355243099550675"><ele>46.0</ele><time>2026-03-27T10:08:58.001Z</time></trkpt><trkpt lat="41.92823942044901" lon="12.355064331787695"><ele>46.0</ele><time>2026-03-27T10:08:59.001Z</time></trkpt><trkpt lat="41.9282438281849" lon="12.354895785187681"><ele>46.0</ele><time>2026-03-27T10:09:00.001Z</time></trkpt><trkpt lat="41.92824380811911" lon="12.35473610106289"><ele>46.25</ele><time>2026-03-27T10:09:01.001Z</time></trkpt><trkpt lat="41.928255477064084" lon="12.354564351022105"><ele>46.5</ele><time>2026-03-27T10:09:02.001Z</time></trkpt><trkpt lat="41.928240383817034" lon="12.354414903361615"><ele>46.75</ele><time>2026-03-27T10:09:03.001Z</time></trkpt><trkpt lat="41.928235711755704" lon="12.35426257801792"><ele>47.0</ele><time>2026-03-27T10:09:04.001Z</time></trkpt><trkpt lat="41.92821794192936" lon="12.354104358844475"><ele>47.0</ele><time>2026-03-27T10:09:05.001Z</time></trkpt><trkpt lat="41.9281929762699" lon="12.353953871048104"><ele>47.0</ele><time>2026-03-27T10:09:06.001Z</time></trkpt><trkpt lat="41.928153462869496" lon="12.353794785422014"><ele>47.0</ele><time>2026-03-27T10:09:07.001Z</time></trkpt><trkpt lat="41.92811607256193" lon="12.353658003964082"><ele>47.0</ele><time>2026-03-27T10:09:08.001Z</time></trkpt><trkpt lat="41.928090485799835" lon="12.3535754852187"><ele>47.0</ele><time>2026-03-27T10:09:09.001Z</time></trkpt><trkpt lat="41.928048114590275" lon="12.35343488339704"><ele>46.8</ele><time>2026-03-27T10:09:11.001Z</time></trkpt><trkpt lat="41.928004912685964" lon="12.353269745154254"><ele>46.6</ele><time>2026-03-27T10:09:13.001Z</time></trkpt><trkpt lat="41.927983223153475" lon="12.35315484577794"><ele>46.4</ele><time>2026-03-27T10:09:14.001Z</time></trkpt><trkpt lat="41.92796240746965" lon="12.353052246028035"><ele>46.199999999999996</ele><time>2026-03-27T10:09:15.001Z</time></trkpt><trkpt lat="41.92793494824145" lon="12.352919956861236"><ele>46.0</ele><time>2026-03-27T10:09:16.001Z</time></trkpt><trkpt lat="41.9279162448136" lon="12.352800307382413"><ele>46.0</ele><time>2026-03-27T10:09:17.001Z</time></trkpt><trkpt lat="41.92790286230744" lon="12.352672351631577"><ele>46.0</ele><time>2026-03-27T10:09:18.001Z</time></trkpt><trkpt lat="41.927892031900626" lon="12.352507731581762"><ele>46.0</ele><time>2026-03-27T10:09:19.001Z</time></trkpt><trkpt lat="41.92788301134329" lon="12.352350309806763"><ele>46.0</ele><time>2026-03-27T10:09:20.001Z</time></trkpt><trkpt lat="41.92787572000027" lon="12.352197702486544"><ele>45.75</ele><time>2026-03-27T10:09:21.001Z</time></trkpt><trkpt lat="41.927877708884104" lon="12.352017933665822"><ele>45.5</ele><time>2026-03-27T10:09:22.001Z</time></trkpt><trkpt lat="41.92788744563877" lon="12.351838030473226"><ele>45.25</ele><time>2026-03-27T10:09:23.001Z</time></trkpt><trkpt lat="41.92789975402003" lon="12.351673224497901"><ele>45.0</ele><time>2026-03-27T10:09:24.001Z</time></trkpt><trkpt lat="41.92791119988632" lon="12.351524157311593"><ele>46.5</ele><time>2026-03-27T10:09:25.001Z</time></trkpt><trkpt lat="41.927923573857875" lon="12.35136300264358"><ele>48.0</ele><time>2026-03-27T10:09:26.001Z</time></trkpt><trkpt lat="41.92793055575948" lon="12.351181690469055"><ele>49.5</ele><time>2026-03-27T10:09:27.001Z</time></trkpt><trkpt lat="41.92790442678836" lon="12.351013068205985"><ele>51.0</ele><time>2026-03-27T10:09:28.001Z</time></trkpt><trkpt lat="41.92787353289975" lon="12.35081619685075"><ele>51.0</ele><time>2026-03-27T10:09:29.001Z</time></trkpt><trkpt lat="41.927820446437345" lon="12.350613047984178"><ele>51.0</ele><time>2026-03-27T10:09:30.001Z</time></trkpt><trkpt lat="41.9277797772714" lon="12.350407824996763"><ele>51.0</ele><time>2026-03-27T10:09:31.001Z</time></trkpt><trkpt lat="41.927733074677704" lon="12.350224866603215"><ele>53.75</ele><time>2026-03-27T10:09:32.001Z</time></trkpt><trkpt lat="41.927688312446485" lon="12.350043013326868"><ele>56.5</ele><time>2026-03-27T10:09:33.001Z</time></trkpt><trkpt lat="41.927653387719815" lon="12.349872231543255"><ele>59.25</ele><time>2026-03-27T10:09:34.001Z</time></trkpt><trkpt lat="41.92761092243646" lon="12.349671227955135"><ele>62.0</ele><time>2026-03-27T10:09:35.001Z</time></trkpt><trkpt lat="41.927589031856854" lon="12.349435064638524"><ele>63.25</ele><time>2026-03-27T10:09:36.001Z</time></trkpt><trkpt lat="41.92757117301773" lon="12.349228825428003"><ele>64.5</ele><time>2026-03-27T10:09:37.001Z</time></trkpt><trkpt lat="41.92755743026914" lon="12.349041968944787"><ele>65.75</ele><time>2026-03-27T10:09:38.001Z</time></trkpt><trkpt lat="41.927561147452316" lon="12.348861429472308"><ele>67.0</ele><time>2026-03-27T10:09:39.001Z</time></trkpt><trkpt lat="41.92755969343635" lon="12.348652109600614"><ele>71.0</ele><time>2026-03-27T10:09:40.001Z</time></trkpt><trkpt lat="41.92757868479776" lon="12.34842479897899"><ele>75.0</ele><time>2026-03-27T10:09:41.001Z</time></trkpt><trkpt lat="41.92760850602855" lon="12.348229560605255"><ele>79.0</ele><time>2026-03-27T10:09:42.001Z</time></trkpt><trkpt lat="41.92765226393478" lon="12.348043993581923"><ele>78.66666666666666</ele><time>2026-03-27T10:09:43.001Z</time></trkpt><trkpt lat="41.92769657736054" lon="12.347849132481414"><ele>78.33333333333333</ele><time>2026-03-27T10:09:44.001Z</time></trkpt><trkpt lat="41.927743759733" lon="12.347664721106751"><ele>78.0</ele><time>2026-03-27T10:09:45.001Z</time></trkpt><trkpt lat="41.92780587741815" lon="12.347472241177732"><ele>78.0</ele><time>2026-03-27T10:09:46.001Z</time></trkpt><trkpt lat="41.9278985484623" lon="12.347267798143239"><ele>78.0</ele><time>2026-03-27T10:09:47.001Z</time></trkpt><trkpt lat="41.92800477567771" lon="12.34707921873471"><ele>78.0</ele><time>2026-03-27T10:09:48.001Z</time></trkpt><trkpt lat="41.92810063237133" lon="12.346923376525664"><ele>78.33333333333333</ele><time>2026-03-27T10:09:49.001Z</time></trkpt><trkpt lat="41.92819008339303" lon="12.346761927153045"><ele>78.66666666666666</ele><time>2026-03-27T10:09:50.001Z</time></trkpt><trkpt lat="41.92830696730025" lon="12.346634290283056"><ele>79.0</ele><time>2026-03-27T10:09:51.001Z</time></trkpt><trkpt lat="41.92843971569237" lon="12.346534743497132"><ele>79.0</ele><time>2026-03-27T10:09:52.001Z</time></trkpt><trkpt lat="41.92858699769868" lon="12.346454275701754"><ele>79.0</ele><time>2026-03-27T10:09:53.001Z</time></trkpt><trkpt lat="41.92873298740638" lon="12.346383416362263"><ele>79.0</ele><time>2026-03-27T10:09:54.001Z</time></trkpt><trkpt lat="41.928867232585745" lon="12.346322081637004"><ele>78.75</ele><time>2026-03-27T10:09:55.001Z</time></trkpt><trkpt lat="41.929013457876266" lon="12.346300439044262"><ele>78.5</ele><time>2026-03-27T10:09:56.001Z</time></trkpt><trkpt lat="41.92915269783294" lon="12.34625882357246"><ele>78.25</ele><time>2026-03-27T10:09:57.001Z</time></trkpt><trkpt lat="41.92929618782572" lon="12.346233933750002"><ele>78.0</ele><time>2026-03-27T10:09:58.001Z</time></trkpt><trkpt lat="41.929441283808345" lon="12.346178846347765"><ele>78.0</ele><time>2026-03-27T10:09:59.001Z</time></trkpt><trkpt lat="41.92957586831947" lon="12.346088410301057"><ele>78.0</ele><time>2026-03-27T10:10:00.001Z</time></trkpt><trkpt lat="41.92970657335064" lon="12.345970669730217"><ele>78.0</ele><time>2026-03-27T10:10:01.001Z</time></trkpt><trkpt lat="41.92983376207747" lon="12.3458272035843"><ele>78.0</ele><time>2026-03-27T10:10:02.001Z</time></trkpt><trkpt lat="41.92995323541147" lon="12.345659168687327"><ele>78.0</ele><time>2026-03-27T10:10:03.001Z</time></trkpt><trkpt lat="41.93007045046822" lon="12.345460508175272"><ele>78.0</ele><time>2026-03-27T10:10:04.001Z</time></trkpt><trkpt lat="41.930185007512165" lon="12.345259293915078"><ele>78.0</ele><time>2026-03-27T10:10:05.001Z</time></trkpt><trkpt lat="41.93030158972625" lon="12.345108313767616"><ele>78.0</ele><time>2026-03-27T10:10:06.001Z</time></trkpt><trkpt lat="41.930388155053755" lon="12.344951514071917"><ele>78.0</ele><time>2026-03-27T10:10:07.001Z</time></trkpt><trkpt lat="41.9304812445913" lon="12.344809860613974"><ele>78.0</ele><time>2026-03-27T10:10:08.001Z</time></trkpt><trkpt lat="41.930582741107926" lon="12.344657941973786"><ele>78.0</ele><time>2026-03-27T10:10:09.001Z</time></trkpt><trkpt lat="41.930691986613084" lon="12.344481744000932"><ele>78.0</ele><time>2026-03-27T10:10:10.001Z</time></trkpt><trkpt lat="41.9308064151567" lon="12.344299782002306"><ele>78.0</ele><time>2026-03-27T10:10:11.001Z</time></trkpt><trkpt lat="41.930924522684734" lon="12.344128760754032"><ele>78.0</ele><time>2026-03-27T10:10:12.001Z</time></trkpt><trkpt lat="41.93105723575884" lon="12.34394815293455"><ele>78.0</ele><time>2026-03-27T10:10:13.001Z</time></trkpt><trkpt lat="41.93119595183729" lon="12.343770431132432"><ele>78.0</ele><time>2026-03-27T10:10:14.001Z</time></trkpt><trkpt lat="41.931320330744356" lon="12.343622820887061"><ele>78.0</ele><time>2026-03-27T10:10:15.001Z</time></trkpt><trkpt lat="41.93144471802865" lon="12.343480070193602"><ele>78.0</ele><time>2026-03-27T10:10:16.001Z</time></trkpt><trkpt lat="41.93156667206565" lon="12.343336345338784"><ele>78.0</ele><time>2026-03-27T10:10:17.001Z</time></trkpt><trkpt lat="41.93169078928839" lon="12.343186782371605"><ele>79.33333333333333</ele><time>2026-03-27T10:10:18.001Z</time></trkpt><trkpt lat="41.93182414051397" lon="12.343031589623958"><ele>80.66666666666666</ele><time>2026-03-27T10:10:19.001Z</time></trkpt><trkpt lat="41.93198450972183" lon="12.342892538694517"><ele>82.0</ele><time>2026-03-27T10:10:20.001Z</time></trkpt><trkpt lat="41.93211299341204" lon="12.342744743314313"><ele>82.0</ele><time>2026-03-27T10:10:21.001Z</time></trkpt><trkpt lat="41.932247301616314" lon="12.342631157304998"><ele>82.0</ele><time>2026-03-27T10:10:22.001Z</time></trkpt><trkpt lat="41.932376087609" lon="12.342519167945476"><ele>82.0</ele><time>2026-03-27T10:10:23.001Z</time></trkpt><trkpt lat="41.93250102975298" lon="12.342397118022534"><ele>81.66666666666666</ele><time>2026-03-27T10:10:24.001Z</time></trkpt><trkpt lat="41.932618094738174" lon="12.342262902772879"><ele>81.33333333333333</ele><time>2026-03-27T10:10:25.001Z</time></trkpt><trkpt lat="41.93273175515328" lon="12.342102049847618"><ele>81.0</ele><time>2026-03-27T10:10:26.001Z</time></trkpt><trkpt lat="41.9328356864916" lon="12.34191119707001"><ele>81.0</ele><time>2026-03-27T10:10:27.001Z</time></trkpt><trkpt lat="41.93292973789789" lon="12.341685443919376"><ele>81.0</ele><time>2026-03-27T10:10:28.001Z</time></trkpt><trkpt lat="41.933048900773215" lon="12.341452017190317"><ele>81.0</ele><time>2026-03-27T10:10:29.001Z</time></trkpt><trkpt lat="41.933148079555195" lon="12.3412400787662"><ele>80.66666666666667</ele><time>2026-03-27T10:10:30.001Z</time></trkpt><trkpt lat="41.93324512290333" lon="12.341040975946218"><ele>80.33333333333334</ele><time>2026-03-27T10:10:31.001Z</time></trkpt><trkpt lat="41.93334677090986" lon="12.340844027850618"><ele>80.0</ele><time>2026-03-27T10:10:32.001Z</time></trkpt><trkpt lat="41.933478109421706" lon="12.340703052603976"><ele>80.33333333333334</ele><time>2026-03-27T10:10:33.001Z</time></trkpt><trkpt lat="41.933595393141246" lon="12.34053848448635"><ele>80.66666666666667</ele><time>2026-03-27T10:10:34.001Z</time></trkpt><trkpt lat="41.9337155025191" lon="12.340401912271423"><ele>81.0</ele><time>2026-03-27T10:10:35.001Z</time></trkpt><trkpt lat="41.933839836984994" lon="12.340260071487846"><ele>81.0</ele><time>2026-03-27T10:10:36.001Z</time></trkpt><trkpt lat="41.93395549972011" lon="12.34009277672484"><ele>81.0</ele><time>2026-03-27T10:10:37.001Z</time></trkpt><trkpt lat="41.93404081494352" lon="12.339898113689179"><ele>81.0</ele><time>2026-03-27T10:10:38.001Z</time></trkpt><trkpt lat="41.93409382665662" lon="12.339682536952441"><ele>81.0</ele><time>2026-03-27T10:10:39.001Z</time></trkpt><trkpt lat="41.93412198607428" lon="12.339436989815802"><ele>81.0</ele><time>2026-03-27T10:10:40.001Z</time></trkpt><trkpt lat="41.934127322287665" lon="12.339177702672112"><ele>81.0</ele><time>2026-03-27T10:10:41.001Z</time></trkpt><trkpt lat="41.934163030902205" lon="12.338906863671932"><ele>81.33333333333333</ele><time>2026-03-27T10:10:42.001Z</time></trkpt><trkpt lat="41.93417670991217" lon="12.33866930538104"><ele>81.66666666666666</ele><time>2026-03-27T10:10:43.001Z</time></trkpt><trkpt lat="41.934172898570644" lon="12.338457017237184"><ele>82.0</ele><time>2026-03-27T10:10:44.001Z</time></trkpt><trkpt lat="41.93416634664594" lon="12.338243973105708"><ele>81.5</ele><time>2026-03-27T10:10:45.001Z</time></trkpt><trkpt lat="41.93414438845451" lon="12.338038855082388"><ele>81.0</ele><time>2026-03-27T10:10:46.001Z</time></trkpt><trkpt lat="41.934135593071154" lon="12.337849514315419"><ele>80.5</ele><time>2026-03-27T10:10:47.001Z</time></trkpt><trkpt lat="41.93409612182212" lon="12.337679857755123"><ele>80.0</ele><time>2026-03-27T10:10:48.001Z</time></trkpt><trkpt lat="41.93407802096164" lon="12.337512752577767"><ele>80.0</ele><time>2026-03-27T10:10:49.001Z</time></trkpt><trkpt lat="41.9340540827532" lon="12.33735666428681"><ele>80.0</ele><time>2026-03-27T10:10:50.001Z</time></trkpt><trkpt lat="41.93404781837425" lon="12.337208673156121"><ele>80.0</ele><time>2026-03-27T10:10:51.001Z</time></trkpt><trkpt lat="41.9340308932994" lon="12.33708000897711"><ele>80.0</ele><time>2026-03-27T10:10:52.001Z</time></trkpt><trkpt lat="41.9339959135004" lon="12.336941538818975"><ele>80.0</ele><time>2026-03-27T10:10:53.001Z</time></trkpt><trkpt lat="41.93397967006428" lon="12.336803845652879"><ele>80.0</ele><time>2026-03-27T10:10:54.001Z</time></trkpt><trkpt lat="41.93397482062574" lon="12.33664985026048"><ele>80.0</ele><time>2026-03-27T10:10:55.001Z</time></trkpt><trkpt lat="41.93395716986328" lon="12.33651210496725"><ele>80.0</ele><time>2026-03-27T10:10:56.001Z</time></trkpt><trkpt lat="41.933940934524536" lon="12.336382276362377"><ele>80.0</ele><time>2026-03-27T10:10:57.001Z</time></trkpt><trkpt lat="41.93392459409901" lon="12.336247745724956"><ele>80.0</ele><time>2026-03-27T10:10:58.001Z</time></trkpt><trkpt lat="41.93390963729101" lon="12.336124606410946"><ele>80.33333333333334</ele><time>2026-03-27T10:10:59.001Z</time></trkpt><trkpt lat="41.93389717822582" lon="12.336022031251385"><ele>80.66666666666667</ele><time>2026-03-27T10:11:00.001Z</time></trkpt><trkpt lat="41.93388675378822" lon="12.335936309721154"><ele>81.0</ele><time>2026-03-27T10:11:01.001Z</time></trkpt><trkpt lat="41.933871549856576" lon="12.335811719733215"><ele>81.33333333333333</ele><time>2026-03-27T10:11:03.001Z</time></trkpt><trkpt lat="41.93384697052714" lon="12.335727736538898"><ele>81.66666666666666</ele><time>2026-03-27T10:11:04.001Z</time></trkpt><trkpt lat="41.93383028989272" lon="12.335607210360365"><ele>82.0</ele><time>2026-03-27T10:11:05.001Z</time></trkpt><trkpt lat="41.93382943943445" lon="12.335453031687635"><ele>82.5</ele><time>2026-03-27T10:11:06.001Z</time></trkpt><trkpt lat="41.933817250142724" lon="12.335317230222959"><ele>83.0</ele><time>2026-03-27T10:11:07.001Z</time></trkpt><trkpt lat="41.93380216646631" lon="12.335138332501025"><ele>83.5</ele><time>2026-03-27T10:11:08.001Z</time></trkpt><trkpt lat="41.93378820593505" lon="12.334958859501754"><ele>84.0</ele><time>2026-03-27T10:11:09.001Z</time></trkpt><trkpt lat="41.933774893772984" lon="12.334787721665203"><ele>83.25</ele><time>2026-03-27T10:11:10.001Z</time></trkpt><trkpt lat="41.93375882127606" lon="12.334586962730144"><ele>82.5</ele><time>2026-03-27T10:11:11.001Z</time></trkpt><trkpt lat="41.93374538708665" lon="12.334403742288295"><ele>81.75</ele><time>2026-03-27T10:11:12.001Z</time></trkpt><trkpt lat="41.93374295564811" lon="12.334231354181172"><ele>81.0</ele><time>2026-03-27T10:11:13.001Z</time></trkpt><trkpt lat="41.933747552410225" lon="12.334077665796874"><ele>81.0</ele><time>2026-03-27T10:11:14.001Z</time></trkpt><trkpt lat="41.93375642012135" lon="12.333943416911456"><ele>81.0</ele><time>2026-03-27T10:11:15.001Z</time></trkpt><trkpt lat="41.93376500699256" lon="12.33381247387417"><ele>81.0</ele><time>2026-03-27T10:11:16.001Z</time></trkpt><trkpt lat="41.93377184835591" lon="12.333684002750466"><ele>81.0</ele><time>2026-03-27T10:11:17.001Z</time></trkpt><trkpt lat="41.933778463749725" lon="12.333544640166071"><ele>81.0</ele><time>2026-03-27T10:11:18.001Z</time></trkpt><trkpt lat="41.93377961689239" lon="12.333388642280257"><ele>81.0</ele><time>2026-03-27T10:11:19.001Z</time></trkpt><trkpt lat="41.933772245721244" lon="12.333228946703713"><ele>81.0</ele><time>2026-03-27T10:11:20.001Z</time></trkpt><trkpt lat="41.933753198180106" lon="12.3330719793234"><ele>81.0</ele><time>2026-03-27T10:11:21.001Z</time></trkpt><trkpt lat="41.933720781443036" lon="12.33288651342321"><ele>81.0</ele><time>2026-03-27T10:11:22.001Z</time></trkpt><trkpt lat="41.93368860691879" lon="12.332730721245008"><ele>81.0</ele><time>2026-03-27T10:11:23.001Z</time></trkpt><trkpt lat="41.933659910152805" lon="12.33258492346616"><ele>81.0</ele><time>2026-03-27T10:11:24.001Z</time></trkpt><trkpt lat="41.933642787740354" lon="12.332433239825567"><ele>81.0</ele><time>2026-03-27T10:11:25.001Z</time></trkpt><trkpt lat="41.9336389108185" lon="12.332265750143401"><ele>81.0</ele><time>2026-03-27T10:11:26.001Z</time></trkpt><trkpt lat="41.933633241324834" lon="12.33210060680225"><ele>80.0</ele><time>2026-03-27T10:11:27.001Z</time></trkpt><trkpt lat="41.933673012664876" lon="12.331954460983473"><ele>79.0</ele><time>2026-03-27T10:11:28.001Z</time></trkpt><trkpt lat="41.933704458615196" lon="12.331804982890565"><ele>78.0</ele><time>2026-03-27T10:11:29.001Z</time></trkpt><trkpt lat="41.93374161959287" lon="12.331644824063103"><ele>77.0</ele><time>2026-03-27T10:11:30.001Z</time></trkpt><trkpt lat="41.93377982922884" lon="12.33148657088338"><ele>77.25</ele><time>2026-03-27T10:11:31.001Z</time></trkpt><trkpt lat="41.93381401341475" lon="12.331338378465492"><ele>77.5</ele><time>2026-03-27T10:11:32.001Z</time></trkpt><trkpt lat="41.93384440652328" lon="12.331187844956295"><ele>77.75</ele><time>2026-03-27T10:11:33.001Z</time></trkpt><trkpt lat="41.93387251223073" lon="12.331019318220548"><ele>78.0</ele><time>2026-03-27T10:11:34.001Z</time></trkpt><trkpt lat="41.933903013731744" lon="12.33080077768482"><ele>78.33333333333333</ele><time>2026-03-27T10:11:35.001Z</time></trkpt><trkpt lat="41.9339283169495" lon="12.33054276765222"><ele>78.66666666666666</ele><time>2026-03-27T10:11:36.001Z</time></trkpt><trkpt lat="41.93394886899815" lon="12.330253459380733"><ele>79.0</ele><time>2026-03-27T10:11:37.001Z</time></trkpt><trkpt lat="41.933970100056484" lon="12.329933193519816"><ele>79.66666666666666</ele><time>2026-03-27T10:11:38.001Z</time></trkpt><trkpt lat="41.93399042135116" lon="12.329626651482085"><ele>80.33333333333333</ele><time>2026-03-27T10:11:39.001Z</time></trkpt><trkpt lat="41.934009439165" lon="12.329348176075579"><ele>81.0</ele><time>2026-03-27T10:11:40.001Z</time></trkpt><trkpt lat="41.93402878225608" lon="12.329066455464858"><ele>82.0</ele><time>2026-03-27T10:11:41.001Z</time></trkpt><trkpt lat="41.93404756478915" lon="12.328781698458346"><ele>83.0</ele><time>2026-03-27T10:11:42.001Z</time></trkpt><trkpt lat="41.93406031685555" lon="12.328511409570487"><ele>84.0</ele><time>2026-03-27T10:11:43.001Z</time></trkpt><trkpt lat="41.93406794563391" lon="12.328249786024974"><ele>84.0</ele><time>2026-03-27T10:11:44.001Z</time></trkpt><trkpt lat="41.93407263090957" lon="12.327992545545793"><ele>84.0</ele><time>2026-03-27T10:11:45.001Z</time></trkpt><trkpt lat="41.934076654931424" lon="12.327724909769776"><ele>84.0</ele><time>2026-03-27T10:11:46.001Z</time></trkpt><trkpt lat="41.93406554562887" lon="12.327482360603305"><ele>84.0</ele><time>2026-03-27T10:11:47.001Z</time></trkpt><trkpt lat="41.93407327222828" lon="12.327265508208832"><ele>84.0</ele><time>2026-03-27T10:11:48.001Z</time></trkpt><trkpt lat="41.9340914135585" lon="12.327050041227977"><ele>84.0</ele><time>2026-03-27T10:11:49.001Z</time></trkpt><trkpt lat="41.93412701005334" lon="12.326821965278619"><ele>83.66666666666667</ele><time>2026-03-27T10:11:50.001Z</time></trkpt><trkpt lat="41.93417445974455" lon="12.326599866829035"><ele>83.33333333333334</ele><time>2026-03-27T10:11:51.001Z</time></trkpt><trkpt lat="41.93424953746444" lon="12.326373756964061"><ele>83.0</ele><time>2026-03-27T10:11:52.001Z</time></trkpt><trkpt lat="41.93430212352378" lon="12.326130761914321"><ele>83.66666666666667</ele><time>2026-03-27T10:11:53.001Z</time></trkpt><trkpt lat="41.93438405141306" lon="12.325909514100585"><ele>84.33333333333333</ele><time>2026-03-27T10:11:54.001Z</time></trkpt><trkpt lat="41.93443860190819" lon="12.325670683773774"><ele>85.0</ele><time>2026-03-27T10:11:55.001Z</time></trkpt><trkpt lat="41.934505439482365" lon="12.325436390754042"><ele>85.33333333333333</ele><time>2026-03-27T10:11:56.001Z</time></trkpt><trkpt lat="41.934571940239366" lon="12.32520191432671"><ele>85.66666666666667</ele><time>2026-03-27T10:11:57.001Z</time></trkpt><trkpt lat="41.93464135260488" lon="12.324961318399529"><ele>86.0</ele><time>2026-03-27T10:11:58.001Z</time></trkpt><trkpt lat="41.93470637610298" lon="12.324714746331148"><ele>86.66666666666667</ele><time>2026-03-27T10:11:59.001Z</time></trkpt><trkpt lat="41.93477284864737" lon="12.324462757414187"><ele>87.33333333333333</ele><time>2026-03-27T10:12:00.001Z</time></trkpt><trkpt lat="41.934834179558905" lon="12.324217718365665"><ele>88.0</ele><time>2026-03-27T10:12:01.001Z</time></trkpt><trkpt lat="41.93489273304837" lon="12.323959666627493"><ele>88.66666666666666</ele><time>2026-03-27T10:12:02.001Z</time></trkpt><trkpt lat="41.934949413113145" lon="12.323707315890868"><ele>89.33333333333333</ele><time>2026-03-27T10:12:03.001Z</time></trkpt><trkpt lat="41.93500331771948" lon="12.323454778287276"><ele>90.0</ele><time>2026-03-27T10:12:04.001Z</time></trkpt><trkpt lat="41.93504717122273" lon="12.323232768922205"><ele>90.0</ele><time>2026-03-27T10:12:05.001Z</time></trkpt><trkpt lat="41.93508871941558" lon="12.323002700782128"><ele>90.0</ele><time>2026-03-27T10:12:06.001Z</time></trkpt><trkpt lat="41.93513092110095" lon="12.322768445351441"><ele>90.0</ele><time>2026-03-27T10:12:07.001Z</time></trkpt><trkpt lat="41.935172085598715" lon="12.32252850693242"><ele>90.0</ele><time>2026-03-27T10:12:08.001Z</time></trkpt><trkpt lat="41.935207608838915" lon="12.322333910747364"><ele>90.0</ele><time>2026-03-27T10:12:09.001Z</time></trkpt><trkpt lat="41.935235628881685" lon="12.322167956063803"><ele>90.0</ele><time>2026-03-27T10:12:10.001Z</time></trkpt><trkpt lat="41.935271503485076" lon="12.32199342189065"><ele>90.0</ele><time>2026-03-27T10:12:11.001Z</time></trkpt><trkpt lat="41.935309702916925" lon="12.321792132752122"><ele>90.33333333333333</ele><time>2026-03-27T10:12:12.001Z</time></trkpt><trkpt lat="41.93534881622778" lon="12.32157812467169"><ele>90.66666666666666</ele><time>2026-03-27T10:12:13.001Z</time></trkpt><trkpt lat="41.93539170868082" lon="12.321362789760453"><ele>91.0</ele><time>2026-03-27T10:12:14.001Z</time></trkpt><trkpt lat="41.9354314223708" lon="12.321138246104164"><ele>90.66666666666666</ele><time>2026-03-27T10:12:15.001Z</time></trkpt><trkpt lat="41.93547406712061" lon="12.320916816903978"><ele>90.33333333333333</ele><time>2026-03-27T10:12:16.001Z</time></trkpt><trkpt lat="41.93551591530154" lon="12.32066961736432"><ele>90.0</ele><time>2026-03-27T10:12:17.001Z</time></trkpt><trkpt lat="41.935553678687356" lon="12.320408557889976"><ele>90.0</ele><time>2026-03-27T10:12:18.001Z</time></trkpt><trkpt lat="41.935586418981444" lon="12.320183240525408"><ele>90.0</ele><time>2026-03-27T10:12:19.001Z</time></trkpt><trkpt lat="41.935620788913035" lon="12.319957785155092"><ele>90.0</ele><time>2026-03-27T10:12:20.001Z</time></trkpt><trkpt lat="41.93565518559352" lon="12.319723942354456"><ele>90.33333333333333</ele><time>2026-03-27T10:12:21.001Z</time></trkpt><trkpt lat="41.93568081023628" lon="12.319479724575425"><ele>90.66666666666666</ele><time>2026-03-27T10:12:22.001Z</time></trkpt><trkpt lat="41.935710148734486" lon="12.319229086976984"><ele>91.0</ele><time>2026-03-27T10:12:23.001Z</time></trkpt><trkpt lat="41.93573165038483" lon="12.318974076341952"><ele>91.0</ele><time>2026-03-27T10:12:24.001Z</time></trkpt><trkpt lat="41.93574998323027" lon="12.318757894586255"><ele>91.0</ele><time>2026-03-27T10:12:25.001Z</time></trkpt><trkpt lat="41.93577217980117" lon="12.318547424363459"><ele>91.0</ele><time>2026-03-27T10:12:26.001Z</time></trkpt><trkpt lat="41.93579412675478" lon="12.318353093846756"><ele>91.0</ele><time>2026-03-27T10:12:27.001Z</time></trkpt><trkpt lat="41.93582491348662" lon="12.318156183920173"><ele>91.0</ele><time>2026-03-27T10:12:28.001Z</time></trkpt><trkpt lat="41.93587220919473" lon="12.317983700936711"><ele>91.0</ele><time>2026-03-27T10:12:29.001Z</time></trkpt><trkpt lat="41.935944476090434" lon="12.31785321915067"><ele>91.0</ele><time>2026-03-27T10:12:30.001Z</time></trkpt><trkpt lat="41.93605160755756" lon="12.317782684591188"><ele>90.0</ele><time>2026-03-27T10:12:31.001Z</time></trkpt><trkpt lat="41.93619584943329" lon="12.31774994144912"><ele>89.0</ele><time>2026-03-27T10:12:32.001Z</time></trkpt><trkpt lat="41.93636833129613" lon="12.317715802028014"><ele>88.0</ele><time>2026-03-27T10:12:33.001Z</time></trkpt><trkpt lat="41.93657955107743" lon="12.317692322937225"><ele>87.0</ele><time>2026-03-27T10:12:34.001Z</time></trkpt><trkpt lat="41.93678551786326" lon="12.317673996073811"><ele>86.0</ele><time>2026-03-27T10:12:35.001Z</time></trkpt><trkpt lat="41.93695509224878" lon="12.317655135751295"><ele>85.0</ele><time>2026-03-27T10:12:36.001Z</time></trkpt><trkpt lat="41.93711540452584" lon="12.317641138194523"><ele>85.0</ele><time>2026-03-27T10:12:37.001Z</time></trkpt><trkpt lat="41.937270245616986" lon="12.317627008403873"><ele>85.0</ele><time>2026-03-27T10:12:38.001Z</time></trkpt><trkpt lat="41.93741003705772" lon="12.317618186368946"><ele>85.0</ele><time>2026-03-27T10:12:39.001Z</time></trkpt><trkpt lat="41.937549066380086" lon="12.317618820059165"><ele>85.0</ele><time>2026-03-27T10:12:40.001Z</time></trkpt><trkpt lat="41.93769937327826" lon="12.31764208458765"><ele>85.33333333333333</ele><time>2026-03-27T10:12:41.001Z</time></trkpt><trkpt lat="41.93786102545374" lon="12.317691071257384"><ele>85.66666666666667</ele><time>2026-03-27T10:12:42.001Z</time></trkpt><trkpt lat="41.93802730601463" lon="12.31776242610524"><ele>86.0</ele><time>2026-03-27T10:12:43.001Z</time></trkpt><trkpt lat="41.938191180348724" lon="12.317821098552717"><ele>86.0</ele><time>2026-03-27T10:12:44.001Z</time></trkpt><trkpt lat="41.93836114861067" lon="12.317851143137196"><ele>86.0</ele><time>2026-03-27T10:12:45.001Z</time></trkpt><trkpt lat="41.938570840894805" lon="12.317863485168512"><ele>86.0</ele><time>2026-03-27T10:12:46.001Z</time></trkpt><trkpt lat="41.938766361744335" lon="12.317869134603356"><ele>86.66666666666667</ele><time>2026-03-27T10:12:47.001Z</time></trkpt><trkpt lat="41.938930643467344" lon="12.317877513416663"><ele>87.33333333333333</ele><time>2026-03-27T10:12:48.001Z</time></trkpt><trkpt lat="41.93908140892104" lon="12.317884666232777"><ele>88.0</ele><time>2026-03-27T10:12:49.001Z</time></trkpt><trkpt lat="41.9392177403879" lon="12.31788736979979"><ele>89.0</ele><time>2026-03-27T10:12:50.001Z</time></trkpt><trkpt lat="41.939353116305504" lon="12.317855805599343"><ele>90.0</ele><time>2026-03-27T10:12:51.001Z</time></trkpt><trkpt lat="41.93948091161239" lon="12.31776222526949"><ele>91.0</ele><time>2026-03-27T10:12:52.001Z</time></trkpt><trkpt lat="41.939597840897285" lon="12.317632530382884"><ele>92.0</ele><time>2026-03-27T10:12:53.001Z</time></trkpt><trkpt lat="41.93971753660819" lon="12.317476433885082"><ele>92.0</ele><time>2026-03-27T10:12:54.001Z</time></trkpt><trkpt lat="41.939836927640265" lon="12.317329715900442"><ele>92.0</ele><time>2026-03-27T10:12:55.001Z</time></trkpt><trkpt lat="41.93995961779282" lon="12.317208601866371"><ele>92.0</ele><time>2026-03-27T10:12:56.001Z</time></trkpt><trkpt lat="41.94009414848641" lon="12.317110193119808"><ele>89.5</ele><time>2026-03-27T10:12:57.001Z</time></trkpt><trkpt lat="41.94021777131303" lon="12.317029647582954"><ele>87.0</ele><time>2026-03-27T10:12:58.001Z</time></trkpt><trkpt lat="41.94034593872231" lon="12.316959715704442"><ele>84.5</ele><time>2026-03-27T10:12:59.001Z</time></trkpt><trkpt lat="41.940475787129174" lon="12.316921026993612"><ele>82.0</ele><time>2026-03-27T10:13:00.001Z</time></trkpt><trkpt lat="41.94060558537601" lon="12.316921301709685"><ele>82.0</ele><time>2026-03-27T10:13:01.001Z</time></trkpt><trkpt lat="41.94074083124715" lon="12.316955501250733"><ele>82.0</ele><time>2026-03-27T10:13:02.001Z</time></trkpt><trkpt lat="41.94088222664898" lon="12.317020941088515"><ele>82.0</ele><time>2026-03-27T10:13:03.001Z</time></trkpt><trkpt lat="41.941005314250056" lon="12.317092632274147"><ele>82.0</ele><time>2026-03-27T10:13:04.001Z</time></trkpt><trkpt lat="41.94114438273401" lon="12.317160235254207"><ele>81.66666666666666</ele><time>2026-03-27T10:13:05.001Z</time></trkpt><trkpt lat="41.94129368598292" lon="12.317183212562117"><ele>81.33333333333333</ele><time>2026-03-27T10:13:06.001Z</time></trkpt><trkpt lat="41.94144951217384" lon="12.317192125068058"><ele>81.0</ele><time>2026-03-27T10:13:07.001Z</time></trkpt><trkpt lat="41.941604909001335" lon="12.31719286815594"><ele>81.0</ele><time>2026-03-27T10:13:08.001Z</time></trkpt><trkpt lat="41.941736597998485" lon="12.317190562238464"><ele>81.0</ele><time>2026-03-27T10:13:09.001Z</time></trkpt><trkpt lat="41.941865693681535" lon="12.317196674811207"><ele>81.0</ele><time>2026-03-27T10:13:10.001Z</time></trkpt><trkpt lat="41.94198091552065" lon="12.31720867875439"><ele>81.0</ele><time>2026-03-27T10:13:11.001Z</time></trkpt><trkpt lat="41.94209170880115" lon="12.317228846404522"><ele>81.0</ele><time>2026-03-27T10:13:12.001Z</time></trkpt><trkpt lat="41.94220681258071" lon="12.317254823117201"><ele>81.0</ele><time>2026-03-27T10:13:13.001Z</time></trkpt><trkpt lat="41.94234185803155" lon="12.317259757347578"><ele>81.0</ele><time>2026-03-27T10:13:14.001Z</time></trkpt><trkpt lat="41.94247787532471" lon="12.31725992052924"><ele>81.0</ele><time>2026-03-27T10:13:15.001Z</time></trkpt><trkpt lat="41.942596023187" lon="12.317279974599833"><ele>81.75</ele><time>2026-03-27T10:13:16.001Z</time></trkpt><trkpt lat="41.942718493110675" lon="12.317301428426907"><ele>82.5</ele><time>2026-03-27T10:13:17.001Z</time></trkpt><trkpt lat="41.94285549631914" lon="12.317252596344868"><ele>83.25</ele><time>2026-03-27T10:13:18.001Z</time></trkpt><trkpt lat="41.94297518849379" lon="12.31725201227263"><ele>84.0</ele><time>2026-03-27T10:13:19.001Z</time></trkpt><trkpt lat="41.94309973506491" lon="12.317264001265006"><ele>84.0</ele><time>2026-03-27T10:13:20.001Z</time></trkpt><trkpt lat="41.94323555770466" lon="12.317285801347728"><ele>84.0</ele><time>2026-03-27T10:13:21.001Z</time></trkpt><trkpt lat="41.94336445511476" lon="12.317298485798453"><ele>84.0</ele><time>2026-03-27T10:13:22.001Z</time></trkpt><trkpt lat="41.94349362678356" lon="12.317307327122602"><ele>84.0</ele><time>2026-03-27T10:13:23.001Z</time></trkpt><trkpt lat="41.943622301230015" lon="12.317303931036971"><ele>84.5</ele><time>2026-03-27T10:13:24.001Z</time></trkpt><trkpt lat="41.94376867708025" lon="12.317298817167556"><ele>85.0</ele><time>2026-03-27T10:13:25.001Z</time></trkpt><trkpt lat="41.94389409394176" lon="12.317284412238958"><ele>85.5</ele><time>2026-03-27T10:13:26.001Z</time></trkpt><trkpt lat="41.944031754520616" lon="12.317261218604925"><ele>86.0</ele><time>2026-03-27T10:13:27.001Z</time></trkpt><trkpt lat="41.94417951658229" lon="12.317229195401321"><ele>86.5</ele><time>2026-03-27T10:13:28.001Z</time></trkpt><trkpt lat="41.944328909620495" lon="12.317193191148547"><ele>87.0</ele><time>2026-03-27T10:13:29.001Z</time></trkpt><trkpt lat="41.94446804741332" lon="12.317152128835414"><ele>87.5</ele><time>2026-03-27T10:13:30.001Z</time></trkpt><trkpt lat="41.94459225330839" lon="12.317112022874364"><ele>88.0</ele><time>2026-03-27T10:13:31.001Z</time></trkpt><trkpt lat="41.94471158624433" lon="12.317079785143566"><ele>88.0</ele><time>2026-03-27T10:13:32.001Z</time></trkpt><trkpt lat="41.94484453973796" lon="12.31705098875489"><ele>88.0</ele><time>2026-03-27T10:13:33.001Z</time></trkpt><trkpt lat="41.94496864656239" lon="12.317026608385047"><ele>88.0</ele><time>2026-03-27T10:13:34.001Z</time></trkpt><trkpt lat="41.945100095996516" lon="12.317001671756778"><ele>88.0</ele><time>2026-03-27T10:13:35.001Z</time></trkpt><trkpt lat="41.945219009065525" lon="12.31698632000612"><ele>88.60000000000001</ele><time>2026-03-27T10:13:36.001Z</time></trkpt><trkpt lat="41.94532966618502" lon="12.316966695343627"><ele>89.2</ele><time>2026-03-27T10:13:37.001Z</time></trkpt><trkpt lat="41.94544374075468" lon="12.316940089637846"><ele>89.8</ele><time>2026-03-27T10:13:38.001Z</time></trkpt><trkpt lat="41.945539094895366" lon="12.316911516002211"><ele>90.4</ele><time>2026-03-27T10:13:39.001Z</time></trkpt><trkpt lat="41.945618331728824" lon="12.316877557916339"><ele>91.0</ele><time>2026-03-27T10:13:40.001Z</time></trkpt><trkpt lat="41.945704258571766" lon="12.316834873331278"><ele>91.0</ele><time>2026-03-27T10:13:41.001Z</time></trkpt><trkpt lat="41.94581170279834" lon="12.316771226339323"><ele>91.0</ele><time>2026-03-27T10:13:42.001Z</time></trkpt><trkpt lat="41.94593143922439" lon="12.316697210608146"><ele>91.0</ele><time>2026-03-27T10:13:43.001Z</time></trkpt><trkpt lat="41.9460286293695" lon="12.316634706296956"><ele>91.0</ele><time>2026-03-27T10:13:44.001Z</time></trkpt><trkpt lat="41.946122325293224" lon="12.316574987468005"><ele>91.0</ele><time>2026-03-27T10:13:45.001Z</time></trkpt><trkpt lat="41.946208057699415" lon="12.316520345339095"><ele>91.0</ele><time>2026-03-27T10:13:46.001Z</time></trkpt><trkpt lat="41.94629615568824" lon="12.316471344526681"><ele>91.0</ele><time>2026-03-27T10:13:47.001Z</time></trkpt><trkpt lat="41.94639781880692" lon="12.316417070365803"><ele>91.0</ele><time>2026-03-27T10:13:48.001Z</time></trkpt><trkpt lat="41.946530281373626" lon="12.316349558370074"><ele>91.0</ele><time>2026-03-27T10:13:49.001Z</time></trkpt><trkpt lat="41.94665581607857" lon="12.316296436869298"><ele>91.75</ele><time>2026-03-27T10:13:50.001Z</time></trkpt><trkpt lat="41.94677345011947" lon="12.316243205669593"><ele>92.5</ele><time>2026-03-27T10:13:51.001Z</time></trkpt><trkpt lat="41.9469114067775" lon="12.316151076289797"><ele>93.25</ele><time>2026-03-27T10:13:52.001Z</time></trkpt><trkpt lat="41.94703720934017" lon="12.316050399417637"><ele>94.0</ele><time>2026-03-27T10:13:53.001Z</time></trkpt><trkpt lat="41.947150498010316" lon="12.315959842829482"><ele>94.0</ele><time>2026-03-27T10:13:54.001Z</time></trkpt><trkpt lat="41.947258937444055" lon="12.315876329194888"><ele>94.0</ele><time>2026-03-27T10:13:55.001Z</time></trkpt><trkpt lat="41.94737602720521" lon="12.315784704934657"><ele>94.0</ele><time>2026-03-27T10:13:56.001Z</time></trkpt><trkpt lat="41.94749806574926" lon="12.31569608653549"><ele>94.0</ele><time>2026-03-27T10:13:57.001Z</time></trkpt><trkpt lat="41.94762683921989" lon="12.31561774099116"><ele>94.33333333333333</ele><time>2026-03-27T10:13:58.001Z</time></trkpt><trkpt lat="41.94776256204387" lon="12.315550648992767"><ele>94.66666666666667</ele><time>2026-03-27T10:13:59.001Z</time></trkpt><trkpt lat="41.94790780932528" lon="12.315496191087197"><ele>95.0</ele><time>2026-03-27T10:14:00.001Z</time></trkpt><trkpt lat="41.948083905077304" lon="12.315440121032713"><ele>95.0</ele><time>2026-03-27T10:14:01.001Z</time></trkpt><trkpt lat="41.94826754343378" lon="12.315388147230474"><ele>95.0</ele><time>2026-03-27T10:14:02.001Z</time></trkpt><trkpt lat="41.94843157491217" lon="12.315344767369254"><ele>95.0</ele><time>2026-03-27T10:14:03.001Z</time></trkpt><trkpt lat="41.94857916493471" lon="12.31530814208067"><ele>94.25</ele><time>2026-03-27T10:14:04.001Z</time></trkpt><trkpt lat="41.94871935857621" lon="12.31527483873557"><ele>93.5</ele><time>2026-03-27T10:14:05.001Z</time></trkpt><trkpt lat="41.94885198367708" lon="12.315242070852072"><ele>92.75</ele><time>2026-03-27T10:14:06.001Z</time></trkpt><trkpt lat="41.948984376114744" lon="12.31520144958788"><ele>92.0</ele><time>2026-03-27T10:14:07.001Z</time></trkpt><trkpt lat="41.949120733026334" lon="12.315160431082784"><ele>92.66666666666667</ele><time>2026-03-27T10:14:08.001Z</time></trkpt><trkpt lat="41.949258774004534" lon="12.315113910625021"><ele>93.33333333333333</ele><time>2026-03-27T10:14:09.001Z</time></trkpt><trkpt lat="41.949391924809944" lon="12.315034863654118"><ele>94.0</ele><time>2026-03-27T10:14:10.001Z</time></trkpt><trkpt lat="41.94953263973388" lon="12.314927627571914"><ele>94.0</ele><time>2026-03-27T10:14:11.001Z</time></trkpt><trkpt lat="41.94967179662728" lon="12.31480502703302"><ele>94.0</ele><time>2026-03-27T10:14:12.001Z</time></trkpt><trkpt lat="41.949805432479316" lon="12.31469773557242"><ele>94.0</ele><time>2026-03-27T10:14:13.001Z</time></trkpt><trkpt lat="41.94992186056712" lon="12.314595365422226"><ele>93.75</ele><time>2026-03-27T10:14:14.001Z</time></trkpt><trkpt lat="41.950028704851995" lon="12.314485557073455"><ele>93.5</ele><time>2026-03-27T10:14:15.001Z</time></trkpt><trkpt lat="41.95013642332779" lon="12.314368113628683"><ele>93.25</ele><time>2026-03-27T10:14:16.001Z</time></trkpt><trkpt lat="41.950257597321546" lon="12.314238867688807"><ele>93.0</ele><time>2026-03-27T10:14:17Z</time></trkpt><trkpt lat="41.95038697678554" lon="12.31411421155014"><ele>93.0</ele><time>2026-03-27T10:14:18Z</time></trkpt><trkpt lat="41.95052110516298" lon="12.31400622956345"><ele>93.0</ele><time>2026-03-27T10:14:19Z</time></trkpt><trkpt lat="41.95067905243838" lon="12.313888805825288"><ele>93.0</ele><time>2026-03-27T10:14:20Z</time></trkpt><trkpt lat="41.95084834566955" lon="12.313766668271018"><ele>90.66666666666667</ele><time>2026-03-27T10:14:21Z</time></trkpt><trkpt lat="41.95099543626224" lon="12.313655840329726"><ele>88.33333333333334</ele><time>2026-03-27T10:14:22Z</time></trkpt><trkpt lat="41.95114360458823" lon="12.313538261963975"><ele>86.0</ele><time>2026-03-27T10:14:23Z</time></trkpt><trkpt lat="41.9512871976713" lon="12.313414589239924"><ele>86.0</ele><time>2026-03-27T10:14:24Z</time></trkpt><trkpt lat="41.951442559178346" lon="12.31329952095595"><ele>86.0</ele><time>2026-03-27T10:14:25Z</time></trkpt><trkpt lat="41.95157142480662" lon="12.313197638884738"><ele>86.0</ele><time>2026-03-27T10:14:26Z</time></trkpt><trkpt lat="41.95169053328838" lon="12.313099968216576"><ele>86.0</ele><time>2026-03-27T10:14:27Z</time></trkpt><trkpt lat="41.951804762218366" lon="12.313009735962412"><ele>86.0</ele><time>2026-03-27T10:14:28Z</time></trkpt><trkpt lat="41.95192579256607" lon="12.312958166838667"><ele>86.0</ele><time>2026-03-27T10:14:29Z</time></trkpt><trkpt lat="41.95206033164959" lon="12.312965326906125"><ele>86.0</ele><time>2026-03-27T10:14:30Z</time></trkpt><trkpt lat="41.95220599243184" lon="12.313023985960706"><ele>86.33333333333334</ele><time>2026-03-27T10:14:31Z</time></trkpt><trkpt lat="41.95237468191601" lon="12.31310095430769"><ele>86.66666666666667</ele><time>2026-03-27T10:14:32Z</time></trkpt><trkpt lat="41.952557465262615" lon="12.313141987680412"><ele>87.0</ele><time>2026-03-27T10:14:33Z</time></trkpt><trkpt lat="41.952722693924294" lon="12.3131361992525"><ele>87.0</ele><time>2026-03-27T10:14:34Z</time></trkpt><trkpt lat="41.95286418122901" lon="12.313129722438326"><ele>87.0</ele><time>2026-03-27T10:14:35Z</time></trkpt><trkpt lat="41.952992500549286" lon="12.313124710189456"><ele>87.0</ele><time>2026-03-27T10:14:36Z</time></trkpt><trkpt lat="41.95311740560127" lon="12.313107628565362"><ele>87.0</ele><time>2026-03-27T10:14:37Z</time></trkpt><trkpt lat="41.953252994865984" lon="12.31307376620081"><ele>87.66666666666667</ele><time>2026-03-27T10:14:38Z</time></trkpt><trkpt lat="41.95339772846448" lon="12.313006439799052"><ele>88.33333333333334</ele><time>2026-03-27T10:14:39Z</time></trkpt><trkpt lat="41.95355078277934" lon="12.312928626934786"><ele>89.0</ele><time>2026-03-27T10:14:40Z</time></trkpt><trkpt lat="41.95368840940951" lon="12.31285943515732"><ele>89.0</ele><time>2026-03-27T10:14:41Z</time></trkpt><trkpt lat="41.95383481833976" lon="12.31279236157304"><ele>89.0</ele><time>2026-03-27T10:14:42Z</time></trkpt><trkpt lat="41.95398319561153" lon="12.312734582252924"><ele>89.0</ele><time>2026-03-27T10:14:43Z</time></trkpt><trkpt lat="41.95413081983019" lon="12.312697136155146"><ele>90.0</ele><time>2026-03-27T10:14:44Z</time></trkpt><trkpt lat="41.95427778584174" lon="12.312679387722158"><ele>91.0</ele><time>2026-03-27T10:14:45Z</time></trkpt><trkpt lat="41.95443846911677" lon="12.312680587344117"><ele>92.0</ele><time>2026-03-27T10:14:46Z</time></trkpt><trkpt lat="41.95462614388917" lon="12.312692121857381"><ele>92.0</ele><time>2026-03-27T10:14:47Z</time></trkpt><trkpt lat="41.954790388381966" lon="12.31268915451026"><ele>92.0</ele><time>2026-03-27T10:14:48Z</time></trkpt><trkpt lat="41.95492778734448" lon="12.312689909997443"><ele>92.0</ele><time>2026-03-27T10:14:49Z</time></trkpt><trkpt lat="41.95505566836322" lon="12.312703139583924"><ele>92.0</ele><time>2026-03-27T10:14:50Z</time></trkpt><trkpt lat="41.955193179714506" lon="12.312733001188882"><ele>92.25</ele><time>2026-03-27T10:14:51Z</time></trkpt><trkpt lat="41.955327363132525" lon="12.312766312653991"><ele>92.5</ele><time>2026-03-27T10:14:52Z</time></trkpt><trkpt lat="41.95545701920275" lon="12.312791512669941"><ele>92.75</ele><time>2026-03-27T10:14:53Z</time></trkpt><trkpt lat="41.9555699639101" lon="12.312811185642754"><ele>93.0</ele><time>2026-03-27T10:14:54Z</time></trkpt><trkpt lat="41.95566327425541" lon="12.312824657335081"><ele>93.0</ele><time>2026-03-27T10:14:55Z</time></trkpt><trkpt lat="41.95573068719237" lon="12.31283586210379"><ele>93.0</ele><time>2026-03-27T10:14:56Z</time></trkpt><trkpt lat="41.95589583674158" lon="12.312850629751948"><ele>93.0</ele><time>2026-03-27T10:14:58Z</time></trkpt><trkpt lat="41.95602887656191" lon="12.312872445023908"><ele>93.0</ele><time>2026-03-27T10:14:59Z</time></trkpt><trkpt lat="41.95619609905084" lon="12.312890438341721"><ele>91.66666666666667</ele><time>2026-03-27T10:15:00Z</time></trkpt><trkpt lat="41.95634051273699" lon="12.312896651193093"><ele>90.33333333333334</ele><time>2026-03-27T10:15:01Z</time></trkpt><trkpt lat="41.9565067613807" lon="12.312898956511118"><ele>89.0</ele><time>2026-03-27T10:15:02Z</time></trkpt><trkpt lat="41.95667875849819" lon="12.312892130070555"><ele>89.25</ele><time>2026-03-27T10:15:03Z</time></trkpt><trkpt lat="41.95682613199273" lon="12.312887388565047"><ele>89.5</ele><time>2026-03-27T10:15:04Z</time></trkpt><trkpt lat="41.956968309208264" lon="12.312890103205488"><ele>89.75</ele><time>2026-03-27T10:15:05Z</time></trkpt><trkpt lat="41.957119864791" lon="12.312901534853108"><ele>90.0</ele><time>2026-03-27T10:15:06Z</time></trkpt><trkpt lat="41.957305189415564" lon="12.312928344555017"><ele>90.0</ele><time>2026-03-27T10:15:07Z</time></trkpt><trkpt lat="41.95749025329542" lon="12.312956183405502"><ele>90.0</ele><time>2026-03-27T10:15:08Z</time></trkpt><trkpt lat="41.95765595539093" lon="12.312977864864365"><ele>90.0</ele><time>2026-03-27T10:15:09Z</time></trkpt><trkpt lat="41.95780774285045" lon="12.312999323687563"><ele>90.33333333333333</ele><time>2026-03-27T10:15:10Z</time></trkpt><trkpt lat="41.95795697606322" lon="12.313028063290133"><ele>90.66666666666666</ele><time>2026-03-27T10:15:11Z</time></trkpt><trkpt lat="41.95810456241297" lon="12.313062605523832"><ele>91.0</ele><time>2026-03-27T10:15:12Z</time></trkpt><trkpt lat="41.958260165430964" lon="12.313097417274774"><ele>91.33333333333333</ele><time>2026-03-27T10:15:13Z</time></trkpt><trkpt lat="41.958412027302515" lon="12.313132050890893"><ele>91.66666666666667</ele><time>2026-03-27T10:15:14Z</time></trkpt><trkpt lat="41.95857505855675" lon="12.313163505437688"><ele>92.0</ele><time>2026-03-27T10:15:15Z</time></trkpt><trkpt lat="41.958758657330186" lon="12.31319816473855"><ele>92.0</ele><time>2026-03-27T10:15:16Z</time></trkpt><trkpt lat="41.95896073259568" lon="12.313237165193144"><ele>92.0</ele><time>2026-03-27T10:15:17Z</time></trkpt><trkpt lat="41.95913460372596" lon="12.313268832968665"><ele>92.0</ele><time>2026-03-27T10:15:18Z</time></trkpt><trkpt lat="41.95929654304017" lon="12.313306228149461"><ele>92.0</ele><time>2026-03-27T10:15:19Z</time></trkpt><trkpt lat="41.95944859567351" lon="12.31335584362648"><ele>92.0</ele><time>2026-03-27T10:15:20Z</time></trkpt><trkpt lat="41.95958168009528" lon="12.313417397301308"><ele>92.0</ele><time>2026-03-27T10:15:21Z</time></trkpt><trkpt lat="41.95969693835658" lon="12.313495572920205"><ele>92.0</ele><time>2026-03-27T10:15:22Z</time></trkpt><trkpt lat="41.95980627512699" lon="12.313596583323502"><ele>92.0</ele><time>2026-03-27T10:15:23Z</time></trkpt><trkpt lat="41.95992251703651" lon="12.313716595264696"><ele>92.0</ele><time>2026-03-27T10:15:24Z</time></trkpt><trkpt lat="41.960048520912686" lon="12.31385498386575"><ele>92.0</ele><time>2026-03-27T10:15:25Z</time></trkpt><trkpt lat="41.960163406708936" lon="12.313982479775568"><ele>91.25</ele><time>2026-03-27T10:15:26Z</time></trkpt><trkpt lat="41.960271005180886" lon="12.314102279416876"><ele>90.5</ele><time>2026-03-27T10:15:27Z</time></trkpt><trkpt lat="41.96040008972962" lon="12.3142021473655"><ele>89.75</ele><time>2026-03-27T10:15:28Z</time></trkpt><trkpt lat="41.96053819168259" lon="12.314272096873657"><ele>89.0</ele><time>2026-03-27T10:15:29Z</time></trkpt><trkpt lat="41.9606943206965" lon="12.314308889096253"><ele>89.0</ele><time>2026-03-27T10:15:30Z</time></trkpt><trkpt lat="41.96086285943954" lon="12.314342686871553"><ele>89.0</ele><time>2026-03-27T10:15:31Z</time></trkpt><trkpt lat="41.96105166757582" lon="12.314379462933255"><ele>89.0</ele><time>2026-03-27T10:15:32Z</time></trkpt><trkpt lat="41.96123709611089" lon="12.3144106806639"><ele>89.0</ele><time>2026-03-27T10:15:33Z</time></trkpt><trkpt lat="41.961395707437774" lon="12.31442882826893"><ele>89.0</ele><time>2026-03-27T10:15:34Z</time></trkpt><trkpt lat="41.96153802421095" lon="12.314439660143222"><ele>89.0</ele><time>2026-03-27T10:15:35Z</time></trkpt><trkpt lat="41.961684347463304" lon="12.314437396129263"><ele>89.0</ele><time>2026-03-27T10:15:36Z</time></trkpt><trkpt lat="41.96185379994163" lon="12.31440937949816"><ele>89.0</ele><time>2026-03-27T10:15:37Z</time></trkpt><trkpt lat="41.962049454321864" lon="12.314370929162498"><ele>89.0</ele><time>2026-03-27T10:15:38Z</time></trkpt><trkpt lat="41.96223353151755" lon="12.314343221976738"><ele>89.0</ele><time>2026-03-27T10:15:39Z</time></trkpt><trkpt lat="41.96239529098131" lon="12.314321239987402"><ele>89.0</ele><time>2026-03-27T10:15:40Z</time></trkpt><trkpt lat="41.962549276336645" lon="12.314306117288812"><ele>89.0</ele><time>2026-03-27T10:15:41Z</time></trkpt><trkpt lat="41.96269014544139" lon="12.3143036652388"><ele>89.0</ele><time>2026-03-27T10:15:42Z</time></trkpt><trkpt lat="41.96281774022959" lon="12.314296114825265"><ele>89.0</ele><time>2026-03-27T10:15:43Z</time></trkpt><trkpt lat="41.96293190333786" lon="12.314285259079837"><ele>89.0</ele><time>2026-03-27T10:15:44Z</time></trkpt><trkpt lat="41.96302579522299" lon="12.314267440957362"><ele>89.0</ele><time>2026-03-27T10:15:45Z</time></trkpt><trkpt lat="41.963091157767614" lon="12.314260541313514"><ele>89.0</ele><time>2026-03-27T10:15:46Z</time></trkpt><trkpt lat="41.96317824484815" lon="12.314337647344347"><ele>89.0</ele><time>2026-03-27T10:15:47Z</time></trkpt><trkpt lat="41.96319574936495" lon="12.31413400264438"><ele>89.0</ele><time>2026-03-27T10:15:48Z</time></trkpt><trkpt lat="41.96319402861031" lon="12.314012280913134"><ele>88.80000000000001</ele><time>2026-03-27T10:15:49Z</time></trkpt><trkpt lat="41.96316430290577" lon="12.313890027710102"><ele>88.60000000000001</ele><time>2026-03-27T10:15:50Z</time></trkpt><trkpt lat="41.96307461748226" lon="12.313804052187656"><ele>88.4</ele><time>2026-03-27T10:15:51Z</time></trkpt><trkpt lat="41.96299164583495" lon="12.313699698521225"><ele>88.2</ele><time>2026-03-27T10:15:52Z</time></trkpt><trkpt lat="41.9628935207055" lon="12.313590653568939"><ele>88.0</ele><time>2026-03-27T10:15:53Z</time></trkpt><trkpt lat="41.9627912456525" lon="12.313435050080917"><ele>88.0</ele><time>2026-03-27T10:15:54Z</time></trkpt><trkpt lat="41.96269373691332" lon="12.313270818676074"><ele>88.0</ele><time>2026-03-27T10:15:55Z</time></trkpt><trkpt lat="41.96257806678713" lon="12.313076615638707"><ele>88.0</ele><time>2026-03-27T10:15:56Z</time></trkpt><trkpt lat="41.96246473260947" lon="12.312887740311126"><ele>85.33333333333333</ele><time>2026-03-27T10:15:57Z</time></trkpt><trkpt lat="41.96235890034145" lon="12.312705628884826"><ele>82.66666666666667</ele><time>2026-03-27T10:15:58Z</time></trkpt><trkpt lat="41.96225306832346" lon="12.312519094860061"><ele>80.0</ele><time>2026-03-27T10:15:59Z</time></trkpt><trkpt lat="41.962159563309115" lon="12.312350794599727"><ele>80.0</ele><time>2026-03-27T10:16:00Z</time></trkpt><trkpt lat="41.962066882758926" lon="12.312177370519045"><ele>80.0</ele><time>2026-03-27T10:16:01Z</time></trkpt><trkpt lat="41.961985686692884" lon="12.311992685443442"><ele>80.0</ele><time>2026-03-27T10:16:02Z</time></trkpt><trkpt lat="41.96192551880622" lon="12.311795320963828"><ele>80.0</ele><time>2026-03-27T10:16:03Z</time></trkpt><trkpt lat="41.9618749591304" lon="12.311587049872657"><ele>80.0</ele><time>2026-03-27T10:16:04Z</time></trkpt><trkpt lat="41.96183940399438" lon="12.311355113702149"><ele>80.0</ele><time>2026-03-27T10:16:05Z</time></trkpt><trkpt lat="41.961815041781115" lon="12.311101733538864"><ele>80.0</ele><time>2026-03-27T10:16:06Z</time></trkpt><trkpt lat="41.96179174317178" lon="12.310792632835103"><ele>80.0</ele><time>2026-03-27T10:16:07Z</time></trkpt><trkpt lat="41.961767595849096" lon="12.310478210887124"><ele>78.66666666666667</ele><time>2026-03-27T10:16:08Z</time></trkpt><trkpt lat="41.961742161226205" lon="12.310199961635302"><ele>77.33333333333333</ele><time>2026-03-27T10:16:09Z</time></trkpt><trkpt lat="41.96171755434502" lon="12.30993076769511"><ele>76.0</ele><time>2026-03-27T10:16:10Z</time></trkpt><trkpt lat="41.96169848281269" lon="12.30965520023547"><ele>67.66666666666666</ele><time>2026-03-27T10:16:11Z</time></trkpt><trkpt lat="41.9616875400471" lon="12.3093639626536"><ele>59.33333333333333</ele><time>2026-03-27T10:16:12Z</time></trkpt><trkpt lat="41.96168336672458" lon="12.309070724629242"><ele>51.0</ele><time>2026-03-27T10:16:13Z</time></trkpt><trkpt lat="41.961664719404226" lon="12.308793318749535"><ele>51.0</ele><time>2026-03-27T10:16:14Z</time></trkpt><trkpt lat="41.9616728752094" lon="12.308534185069242"><ele>51.0</ele><time>2026-03-27T10:16:15Z</time></trkpt><trkpt lat="41.961701473978984" lon="12.308286005234"><ele>51.0</ele><time>2026-03-27T10:16:16Z</time></trkpt><trkpt lat="41.96172220883762" lon="12.308047634235795"><ele>51.0</ele><time>2026-03-27T10:16:17Z</time></trkpt><trkpt lat="41.96174069022064" lon="12.30783664317821"><ele>51.0</ele><time>2026-03-27T10:16:18Z</time></trkpt><trkpt lat="41.961760837222705" lon="12.307642600063206"><ele>51.0</ele><time>2026-03-27T10:16:19Z</time></trkpt><trkpt lat="41.961786942543846" lon="12.307475988113998"><ele>51.0</ele><time>2026-03-27T10:16:20Z</time></trkpt><trkpt lat="41.961836628610136" lon="12.307328898644434"><ele>47.599999999999994</ele><time>2026-03-27T10:16:21Z</time></trkpt><trkpt lat="41.9619022666517" lon="12.307193656836"><ele>44.199999999999996</ele><time>2026-03-27T10:16:22Z</time></trkpt><trkpt lat="41.96198482172875" lon="12.307081702829864"><ele>40.8</ele><time>2026-03-27T10:16:23Z</time></trkpt><trkpt lat="41.96208043207487" lon="12.307023180178259"><ele>37.4</ele><time>2026-03-27T10:16:24Z</time></trkpt><trkpt lat="41.96217951109036" lon="12.307000668172938"><ele>34.0</ele><time>2026-03-27T10:16:25Z</time></trkpt><trkpt lat="41.96228148127355" lon="12.307013609144539"><ele>34.0</ele><time>2026-03-27T10:16:26Z</time></trkpt><trkpt lat="41.96240959429446" lon="12.307070647909878"><ele>34.0</ele><time>2026-03-27T10:16:27Z</time></trkpt><trkpt lat="41.962542245503904" lon="12.307135222696433"><ele>34.0</ele><time>2026-03-27T10:16:28Z</time></trkpt><trkpt lat="41.962698634359135" lon="12.307237748790902"><ele>37.333333333333336</ele><time>2026-03-27T10:16:29Z</time></trkpt><trkpt lat="41.962885586423994" lon="12.30735868946935"><ele>40.666666666666664</ele><time>2026-03-27T10:16:30Z</time></trkpt><trkpt lat="41.96305162363494" lon="12.307463828788618"><ele>44.0</ele><time>2026-03-27T10:16:31Z</time></trkpt><trkpt lat="41.963198189265086" lon="12.30756418168286"><ele>44.0</ele><time>2026-03-27T10:16:32Z</time></trkpt><trkpt lat="41.963335269379336" lon="12.307663348174772"><ele>44.0</ele><time>2026-03-27T10:16:33Z</time></trkpt><trkpt lat="41.96346649318608" lon="12.307762091739596"><ele>44.0</ele><time>2026-03-27T10:16:34Z</time></trkpt><trkpt lat="41.96357294414833" lon="12.307849517942458"><ele>44.0</ele><time>2026-03-27T10:16:35Z</time></trkpt><trkpt lat="41.96366737942323" lon="12.307909522165248"><ele>42.0</ele><time>2026-03-27T10:16:36Z</time></trkpt><trkpt lat="41.96375852733743" lon="12.307918573869397"><ele>40.0</ele><time>2026-03-27T10:16:37Z</time></trkpt><trkpt lat="41.96384912227826" lon="12.307872894536251"><ele>38.0</ele><time>2026-03-27T10:16:38Z</time></trkpt><trkpt lat="41.96395745298583" lon="12.307810566598759"><ele>36.0</ele><time>2026-03-27T10:16:39Z</time></trkpt><trkpt lat="41.96405710430767" lon="12.307759155555363"><ele>34.0</ele><time>2026-03-27T10:16:40Z</time></trkpt><trkpt lat="41.9641389954384" lon="12.307707117649834"><ele>33.5</ele><time>2026-03-27T10:16:41Z</time></trkpt><trkpt lat="41.964203200832074" lon="12.30761346955743"><ele>33.0</ele><time>2026-03-27T10:16:42Z</time></trkpt><trkpt lat="41.96424225047115" lon="12.307475806790144"><ele>32.5</ele><time>2026-03-27T10:16:43Z</time></trkpt><trkpt lat="41.96426188665963" lon="12.30731087740734"><ele>32.0</ele><time>2026-03-27T10:16:44Z</time></trkpt><trkpt lat="41.96426910182061" lon="12.30711525530006"><ele>32.0</ele><time>2026-03-27T10:16:45Z</time></trkpt><trkpt lat="41.964270787809795" lon="12.306901662223918"><ele>32.0</ele><time>2026-03-27T10:16:46Z</time></trkpt><trkpt lat="41.9642927641262" lon="12.306693393412786"><ele>32.0</ele><time>2026-03-27T10:16:47Z</time></trkpt><trkpt lat="41.96430026258537" lon="12.306460041378454"><ele>32.0</ele><time>2026-03-27T10:16:48Z</time></trkpt><trkpt lat="41.9643062234577" lon="12.306257160463046"><ele>32.0</ele><time>2026-03-27T10:16:49Z</time></trkpt><trkpt lat="41.964295980323406" lon="12.306066353048104"><ele>32.0</ele><time>2026-03-27T10:16:50Z</time></trkpt><trkpt lat="41.9643010652983" lon="12.30587983093446"><ele>32.0</ele><time>2026-03-27T10:16:51Z</time></trkpt><trkpt lat="41.96428741136287" lon="12.305702140819244"><ele>31.75</ele><time>2026-03-27T10:16:52Z</time></trkpt><trkpt lat="41.96425132999849" lon="12.305527078502786"><ele>31.5</ele><time>2026-03-27T10:16:53Z</time></trkpt><trkpt lat="41.96419317768454" lon="12.30534934968116"><ele>31.25</ele><time>2026-03-27T10:16:54Z</time></trkpt><trkpt lat="41.96414643490838" lon="12.305167224009192"><ele>31.0</ele><time>2026-03-27T10:16:55Z</time></trkpt><trkpt lat="41.964094430599374" lon="12.305011022169213"><ele>31.8</ele><time>2026-03-27T10:16:56Z</time></trkpt><trkpt lat="41.96405365639738" lon="12.304880145158632"><ele>32.6</ele><time>2026-03-27T10:16:57Z</time></trkpt><trkpt lat="41.96402424905094" lon="12.304780381507896"><ele>33.4</ele><time>2026-03-27T10:16:58Z</time></trkpt><trkpt lat="41.963986822082525" lon="12.304643133969698"><ele>34.2</ele><time>2026-03-27T10:17:00Z</time></trkpt><trkpt lat="41.9639320440169" lon="12.304475700797372"><ele>35.0</ele><time>2026-03-27T10:17:02Z</time></trkpt><trkpt lat="41.96389522862198" lon="12.304376714663428"><ele>35.75</ele><time>2026-03-27T10:17:03Z</time></trkpt><trkpt lat="41.963882298587514" lon="12.304239919433698"><ele>36.5</ele><time>2026-03-27T10:17:04Z</time></trkpt><trkpt lat="41.9638810394902" lon="12.304105103030645"><ele>37.25</ele><time>2026-03-27T10:17:05Z</time></trkpt><trkpt lat="41.963913984069144" lon="12.303927552437925"><ele>38.0</ele><time>2026-03-27T10:17:06Z</time></trkpt><trkpt lat="41.963921743828" lon="12.303683171969768"><ele>38.666666666666664</ele><time>2026-03-27T10:17:07Z</time></trkpt><trkpt lat="41.96395120135745" lon="12.303448893101711"><ele>39.333333333333336</ele><time>2026-03-27T10:17:08Z</time></trkpt><trkpt lat="41.963985068293496" lon="12.303186516057217"><ele>40.0</ele><time>2026-03-27T10:17:09Z</time></trkpt><trkpt lat="41.96400931266468" lon="12.302893048786446"><ele>41.333333333333336</ele><time>2026-03-27T10:17:10Z</time></trkpt><trkpt lat="41.96402680797059" lon="12.30262059077996"><ele>42.666666666666664</ele><time>2026-03-27T10:17:11Z</time></trkpt><trkpt lat="41.964023604846254" lon="12.30231978212016"><ele>44.0</ele><time>2026-03-27T10:17:12Z</time></trkpt><trkpt lat="41.964045832698375" lon="12.3020632667545"><ele>47.33333333333333</ele><time>2026-03-27T10:17:13Z</time></trkpt><trkpt lat="41.96403562830356" lon="12.30183914649591"><ele>50.666666666666664</ele><time>2026-03-27T10:17:14Z</time></trkpt><trkpt lat="41.964041522263145" lon="12.301646192018627"><ele>54.0</ele><time>2026-03-27T10:17:15Z</time></trkpt><trkpt lat="41.964072460257555" lon="12.30146069300471"><ele>55.5</ele><time>2026-03-27T10:17:16Z</time></trkpt><trkpt lat="41.96411269688249" lon="12.301298150439894"><ele>57.0</ele><time>2026-03-27T10:17:17Z</time></trkpt><trkpt lat="41.96417350709436" lon="12.301151838134787"><ele>58.5</ele><time>2026-03-27T10:17:18Z</time></trkpt><trkpt lat="41.96428355137207" lon="12.30104030743136"><ele>60.0</ele><time>2026-03-27T10:17:19Z</time></trkpt><trkpt lat="41.964413802214175" lon="12.300963302717628"><ele>60.0</ele><time>2026-03-27T10:17:20Z</time></trkpt><trkpt lat="41.964553125929335" lon="12.300893682713289"><ele>60.0</ele><time>2026-03-27T10:17:21Z</time></trkpt><trkpt lat="41.964671827707" lon="12.300809931272557"><ele>60.0</ele><time>2026-03-27T10:17:22Z</time></trkpt><trkpt lat="41.96477664056541" lon="12.300673612869272"><ele>60.0</ele><time>2026-03-27T10:17:23Z</time></trkpt><trkpt lat="41.96485633307513" lon="12.300499083336105"><ele>62.0</ele><time>2026-03-27T10:17:24Z</time></trkpt><trkpt lat="41.964905432305436" lon="12.300329410533566"><ele>64.0</ele><time>2026-03-27T10:17:25Z</time></trkpt><trkpt lat="41.96491584690041" lon="12.300165552820246"><ele>66.0</ele><time>2026-03-27T10:17:26Z</time></trkpt><trkpt lat="41.964880991817694" lon="12.299989440689858"><ele>68.0</ele><time>2026-03-27T10:17:27Z</time></trkpt><trkpt lat="41.96480218203487" lon="12.299799260879567"><ele>67.0</ele><time>2026-03-27T10:17:28Z</time></trkpt><trkpt lat="41.964741236073166" lon="12.299598342786044"><ele>66.0</ele><time>2026-03-27T10:17:29Z</time></trkpt><trkpt lat="41.96463503335875" lon="12.29942476374769"><ele>65.0</ele><time>2026-03-27T10:17:30Z</time></trkpt><trkpt lat="41.96452902831002" lon="12.299265529848693"><ele>65.0</ele><time>2026-03-27T10:17:31Z</time></trkpt><trkpt lat="41.96445539531075" lon="12.299126759990003"><ele>65.0</ele><time>2026-03-27T10:17:32Z</time></trkpt><trkpt lat="41.96440926534405" lon="12.298966517149502"><ele>65.0</ele><time>2026-03-27T10:17:33Z</time></trkpt><trkpt lat="41.964374818731656" lon="12.29878257058701"><ele>65.0</ele><time>2026-03-27T10:17:34Z</time></trkpt><trkpt lat="41.964382209202945" lon="12.298600509482224"><ele>66.25</ele><time>2026-03-27T10:17:35Z</time></trkpt><trkpt lat="41.964363724306125" lon="12.298442299494173"><ele>67.5</ele><time>2026-03-27T10:17:36Z</time></trkpt><trkpt lat="41.96430326902307" lon="12.298278554867203"><ele>68.75</ele><time>2026-03-27T10:17:37Z</time></trkpt><trkpt lat="41.96421248498376" lon="12.298122534373734"><ele>70.0</ele><time>2026-03-27T10:17:38Z</time></trkpt><trkpt lat="41.96411276822431" lon="12.297980865507432"><ele>73.25</ele><time>2026-03-27T10:17:39Z</time></trkpt><trkpt lat="41.96400028256108" lon="12.297851428253013"><ele>76.5</ele><time>2026-03-27T10:17:40Z</time></trkpt><trkpt lat="41.963897200988974" lon="12.297731517580115"><ele>79.75</ele><time>2026-03-27T10:17:41Z</time></trkpt><trkpt lat="41.96379962871137" lon="12.297629731840656"><ele>83.0</ele><time>2026-03-27T10:17:42Z</time></trkpt><trkpt lat="41.963718448496145" lon="12.29751982433884"><ele>83.0</ele><time>2026-03-27T10:17:43Z</time></trkpt><trkpt lat="41.96368826080822" lon="12.297361490409555"><ele>83.0</ele><time>2026-03-27T10:17:44Z</time></trkpt><trkpt lat="41.96369812813244" lon="12.29719217692066"><ele>83.0</ele><time>2026-03-27T10:17:45Z</time></trkpt><trkpt lat="41.96372356295352" lon="12.297016055348953"><ele>83.0</ele><time>2026-03-27T10:17:46Z</time></trkpt><trkpt lat="41.96377079735404" lon="12.296881322381628"><ele>82.5</ele><time>2026-03-27T10:17:47Z</time></trkpt><trkpt lat="41.96385625026517" lon="12.296772255355531"><ele>82.0</ele><time>2026-03-27T10:17:48Z</time></trkpt><trkpt lat="41.963981579834524" lon="12.296680499711067"><ele>81.5</ele><time>2026-03-27T10:17:49Z</time></trkpt><trkpt lat="41.9641408010851" lon="12.296586070624379"><ele>81.0</ele><time>2026-03-27T10:17:50Z</time></trkpt><trkpt lat="41.96428436395025" lon="12.296491360467781"><ele>83.66666666666667</ele><time>2026-03-27T10:17:51Z</time></trkpt><trkpt lat="41.96441084286804" lon="12.296400229718033"><ele>86.33333333333334</ele><time>2026-03-27T10:17:52Z</time></trkpt><trkpt lat="41.96453193289522" lon="12.296279175430762"><ele>89.0</ele><time>2026-03-27T10:17:53Z</time></trkpt><trkpt lat="41.964650116543034" lon="12.296116009846141"><ele>89.0</ele><time>2026-03-27T10:17:54Z</time></trkpt><trkpt lat="41.96476209597599" lon="12.295932349784254"><ele>89.0</ele><time>2026-03-27T10:17:55Z</time></trkpt><trkpt lat="41.964856754536115" lon="12.295765229365493"><ele>89.0</ele><time>2026-03-27T10:17:56Z</time></trkpt><trkpt lat="41.96496946246084" lon="12.295597376070138"><ele>89.33333333333334</ele><time>2026-03-27T10:17:57Z</time></trkpt><trkpt lat="41.965113026916725" lon="12.29543584577333"><ele>89.66666666666667</ele><time>2026-03-27T10:17:58Z</time></trkpt><trkpt lat="41.96525336137296" lon="12.295294852969864"><ele>90.0</ele><time>2026-03-27T10:17:59Z</time></trkpt><trkpt lat="41.965381377237605" lon="12.29517516292848"><ele>90.0</ele><time>2026-03-27T10:18:00Z</time></trkpt><trkpt lat="41.965504543307595" lon="12.295057387518328"><ele>90.0</ele><time>2026-03-27T10:18:01Z</time></trkpt><trkpt lat="41.965613511996565" lon="12.29494621558636"><ele>90.0</ele><time>2026-03-27T10:18:02Z</time></trkpt><trkpt lat="41.96571501760937" lon="12.294835547695008"><ele>90.0</ele><time>2026-03-27T10:18:03Z</time></trkpt><trkpt lat="41.96580679135371" lon="12.294726779147316"><ele>90.5</ele><time>2026-03-27T10:18:04Z</time></trkpt><trkpt lat="41.96588542268569" lon="12.294606953575675"><ele>91.0</ele><time>2026-03-27T10:18:05Z</time></trkpt><trkpt lat="41.96593069233727" lon="12.29446188786363"><ele>91.5</ele><time>2026-03-27T10:18:06Z</time></trkpt><trkpt lat="41.965937463960984" lon="12.294296443044738"><ele>92.0</ele><time>2026-03-27T10:18:07Z</time></trkpt><trkpt lat="41.96589832809982" lon="12.294113748674429"><ele>91.25</ele><time>2026-03-27T10:18:08Z</time></trkpt><trkpt lat="41.96584186963069" lon="12.293917596513321"><ele>90.5</ele><time>2026-03-27T10:18:09Z</time></trkpt><trkpt lat="41.96581099347198" lon="12.293839535733804"><ele>89.75</ele><time>2026-03-27T10:18:10Z</time></trkpt><trkpt lat="41.965718544423176" lon="12.293648304196582"><ele>89.0</ele><time>2026-03-27T10:18:11Z</time></trkpt><trkpt lat="41.9656384270981" lon="12.293470246677597"><ele>89.0</ele><time>2026-03-27T10:18:12Z</time></trkpt><trkpt lat="41.96555148867308" lon="12.293306828017826"><ele>89.0</ele><time>2026-03-27T10:18:13Z</time></trkpt><trkpt lat="41.96544900499072" lon="12.293151493576413"><ele>89.0</ele><time>2026-03-27T10:18:14Z</time></trkpt><trkpt lat="41.96533908713991" lon="12.293007965866975"><ele>88.25</ele><time>2026-03-27T10:18:15Z</time></trkpt><trkpt lat="41.96522938261818" lon="12.292872178170054"><ele>87.5</ele><time>2026-03-27T10:18:16Z</time></trkpt><trkpt lat="41.965106501042065" lon="12.292759572072736"><ele>86.75</ele><time>2026-03-27T10:18:17Z</time></trkpt><trkpt lat="41.96499241747024" lon="12.292632287602006"><ele>86.0</ele><time>2026-03-27T10:18:18Z</time></trkpt><trkpt lat="41.964900889805705" lon="12.292473592023727"><ele>82.33333333333334</ele><time>2026-03-27T10:18:19Z</time></trkpt><trkpt lat="41.96480962376832" lon="12.292313071822083"><ele>78.66666666666667</ele><time>2026-03-27T10:18:20Z</time></trkpt><trkpt lat="41.964721402182874" lon="12.292132675166156"><ele>75.0</ele><time>2026-03-27T10:18:21Z</time></trkpt><trkpt lat="41.96461971448809" lon="12.291893382067055"><ele>74.5</ele><time>2026-03-27T10:18:22Z</time></trkpt><trkpt lat="41.964509374307596" lon="12.291586206713774"><ele>74.0</ele><time>2026-03-27T10:18:23Z</time></trkpt><trkpt lat="41.964399448135836" lon="12.291266187388842"><ele>70.0</ele><time>2026-03-27T10:18:24Z</time></trkpt><trkpt lat="41.964305440969724" lon="12.29099007868885"><ele>66.0</ele><time>2026-03-27T10:18:25Z</time></trkpt><trkpt lat="41.96421810186119" lon="12.290731054949923"><ele>62.0</ele><time>2026-03-27T10:18:26Z</time></trkpt><trkpt lat="41.964137004218664" lon="12.290490026709724"><ele>59.333333333333336</ele><time>2026-03-27T10:18:27Z</time></trkpt><trkpt lat="41.96406135226153" lon="12.290266095247555"><ele>56.66666666666667</ele><time>2026-03-27T10:18:28Z</time></trkpt><trkpt lat="41.96398761770803" lon="12.290058464175438"><ele>54.0</ele><time>2026-03-27T10:18:29Z</time></trkpt><trkpt lat="41.96393290826832" lon="12.289898354576897"><ele>58.33333333333333</ele><time>2026-03-27T10:18:30Z</time></trkpt><trkpt lat="41.963867166792014" lon="12.289688509109023"><ele>62.666666666666664</ele><time>2026-03-27T10:18:31Z</time></trkpt><trkpt lat="41.963835326259165" lon="12.28949915215764"><ele>67.0</ele><time>2026-03-27T10:18:32Z</time></trkpt><trkpt lat="41.963827068860375" lon="12.289302444746129"><ele>67.0</ele><time>2026-03-27T10:18:33Z</time></trkpt><trkpt lat="41.96383337357558" lon="12.28909978165724"><ele>67.0</ele><time>2026-03-27T10:18:34Z</time></trkpt><trkpt lat="41.96386524802261" lon="12.288914836901753"><ele>67.0</ele><time>2026-03-27T10:18:35Z</time></trkpt><trkpt lat="41.96392518022043" lon="12.288717410392676"><ele>68.0</ele><time>2026-03-27T10:18:36Z</time></trkpt><trkpt lat="41.96400306034572" lon="12.288492757669143"><ele>69.0</ele><time>2026-03-27T10:18:37Z</time></trkpt><trkpt lat="41.96409446154412" lon="12.288248948590105"><ele>70.0</ele><time>2026-03-27T10:18:38Z</time></trkpt><trkpt lat="41.96420285651403" lon="12.287963720530648"><ele>75.66666666666666</ele><time>2026-03-27T10:18:39Z</time></trkpt><trkpt lat="41.96430932351041" lon="12.287710003983216"><ele>81.33333333333333</ele><time>2026-03-27T10:18:40Z</time></trkpt><trkpt lat="41.96442061050638" lon="12.287472590297913"><ele>87.0</ele><time>2026-03-27T10:18:41Z</time></trkpt><trkpt lat="41.9645158877418" lon="12.287275887946027"><ele>86.75</ele><time>2026-03-27T10:18:42Z</time></trkpt><trkpt lat="41.96459182984626" lon="12.28710829001033"><ele>86.5</ele><time>2026-03-27T10:18:43Z</time></trkpt><trkpt lat="41.964648944628635" lon="12.286941419411898"><ele>86.25</ele><time>2026-03-27T10:18:44Z</time></trkpt><trkpt lat="41.96470159562949" lon="12.286774147964575"><ele>86.0</ele><time>2026-03-27T10:18:45Z</time></trkpt><trkpt lat="41.96472543100828" lon="12.286607889142172"><ele>86.0</ele><time>2026-03-27T10:18:46Z</time></trkpt><trkpt lat="41.96473498037326" lon="12.286446778361578"><ele>86.0</ele><time>2026-03-27T10:18:47Z</time></trkpt><trkpt lat="41.96473936205074" lon="12.286320392590168"><ele>86.0</ele><time>2026-03-27T10:18:48Z</time></trkpt><trkpt lat="41.96478802144606" lon="12.286185945756932"><ele>86.0</ele><time>2026-03-27T10:18:50Z</time></trkpt><trkpt lat="41.96484290225173" lon="12.286141344546891"><ele>86.0</ele><time>2026-03-27T10:18:51Z</time></trkpt><trkpt lat="41.9649276072177" lon="12.286143281409121"><ele>88.66666666666667</ele><time>2026-03-27T10:18:52Z</time></trkpt><trkpt lat="41.96505616694876" lon="12.286122627963177"><ele>91.33333333333333</ele><time>2026-03-27T10:18:53Z</time></trkpt><trkpt lat="41.9652245456347" lon="12.286098966843367"><ele>94.0</ele><time>2026-03-27T10:18:54Z</time></trkpt><trkpt lat="41.96538225716049" lon="12.286076600873173"><ele>94.0</ele><time>2026-03-27T10:18:55Z</time></trkpt><trkpt lat="41.96555415312511" lon="12.286053180157817"><ele>94.0</ele><time>2026-03-27T10:18:56Z</time></trkpt><trkpt lat="41.9657419462827" lon="12.286002374592533"><ele>94.0</ele><time>2026-03-27T10:18:57Z</time></trkpt><trkpt lat="41.96587209734241" lon="12.285973882072408"><ele>93.66666666666666</ele><time>2026-03-27T10:18:58Z</time></trkpt><trkpt lat="41.96599167727348" lon="12.285914696951897"><ele>93.33333333333333</ele><time>2026-03-27T10:18:59Z</time></trkpt><trkpt lat="41.966119653769034" lon="12.2858240030283"><ele>93.0</ele><time>2026-03-27T10:19:00Z</time></trkpt><trkpt lat="41.966271873808246" lon="12.285695634917072"><ele>91.0</ele><time>2026-03-27T10:19:01Z</time></trkpt><trkpt lat="41.96647794232688" lon="12.285591662369546"><ele>89.0</ele><time>2026-03-27T10:19:02Z</time></trkpt><trkpt lat="41.96667010050297" lon="12.28547900832484"><ele>87.0</ele><time>2026-03-27T10:19:03Z</time></trkpt><trkpt lat="41.96684802874711" lon="12.285373330061434"><ele>87.0</ele><time>2026-03-27T10:19:04Z</time></trkpt><trkpt lat="41.96700715769749" lon="12.285259051950185"><ele>87.0</ele><time>2026-03-27T10:19:05Z</time></trkpt><trkpt lat="41.96715391117675" lon="12.285151703082304"><ele>87.0</ele><time>2026-03-27T10:19:06Z</time></trkpt><trkpt lat="41.96727419091314" lon="12.285020210984586"><ele>87.0</ele><time>2026-03-27T10:19:07Z</time></trkpt><trkpt lat="41.967388464974206" lon="12.284860152071737"><ele>87.0</ele><time>2026-03-27T10:19:08Z</time></trkpt><trkpt lat="41.96750336797331" lon="12.284699030820795"><ele>87.0</ele><time>2026-03-27T10:19:09Z</time></trkpt><trkpt lat="41.96761722212641" lon="12.284554208974392"><ele>89.33333333333333</ele><time>2026-03-27T10:19:10Z</time></trkpt><trkpt lat="41.96773921563472" lon="12.284404106527592"><ele>91.66666666666666</ele><time>2026-03-27T10:19:11Z</time></trkpt><trkpt lat="41.96786470850727" lon="12.284262348248104"><ele>94.0</ele><time>2026-03-27T10:19:12Z</time></trkpt><trkpt lat="41.967969839635714" lon="12.284135280533071"><ele>94.0</ele><time>2026-03-27T10:19:13Z</time></trkpt><trkpt lat="41.96808592038665" lon="12.284027801831401"><ele>94.0</ele><time>2026-03-27T10:19:14Z</time></trkpt><trkpt lat="41.968217252043324" lon="12.28393176690752"><ele>94.0</ele><time>2026-03-27T10:19:15Z</time></trkpt><trkpt lat="41.9683433345188" lon="12.283848736744758"><ele>94.0</ele><time>2026-03-27T10:19:16Z</time></trkpt><trkpt lat="41.96844415161789" lon="12.28376534056951"><ele>92.5</ele><time>2026-03-27T10:19:17Z</time></trkpt><trkpt lat="41.96853039400301" lon="12.28365331112289"><ele>91.0</ele><time>2026-03-27T10:19:18Z</time></trkpt><trkpt lat="41.968592765023935" lon="12.283518915528463"><ele>89.5</ele><time>2026-03-27T10:19:19Z</time></trkpt><trkpt lat="41.968644043067876" lon="12.283342586730187"><ele>88.0</ele><time>2026-03-27T10:19:20Z</time></trkpt><trkpt lat="41.96865785655312" lon="12.2831379687442"><ele>87.66666666666666</ele><time>2026-03-27T10:19:21Z</time></trkpt><trkpt lat="41.968635267264894" lon="12.282911913387778"><ele>87.33333333333333</ele><time>2026-03-27T10:19:22Z</time></trkpt><trkpt lat="41.96859133802076" lon="12.28266177167632"><ele>87.0</ele><time>2026-03-27T10:19:23Z</time></trkpt><trkpt lat="41.968552441727915" lon="12.282402781192312"><ele>87.0</ele><time>2026-03-27T10:19:24Z</time></trkpt><trkpt lat="41.968514172417834" lon="12.282169296743636"><ele>87.0</ele><time>2026-03-27T10:19:25Z</time></trkpt><trkpt lat="41.968453728690115" lon="12.281966956849727"><ele>87.0</ele><time>2026-03-27T10:19:26Z</time></trkpt><trkpt lat="41.96835483197526" lon="12.281775765574528"><ele>87.0</ele><time>2026-03-27T10:19:27Z</time></trkpt><trkpt lat="41.968221284734405" lon="12.281578311490845"><ele>87.0</ele><time>2026-03-27T10:19:28Z</time></trkpt><trkpt lat="41.968123205506856" lon="12.281389913630338"><ele>87.0</ele><time>2026-03-27T10:19:29Z</time></trkpt><trkpt lat="41.968032061084905" lon="12.28122161344151"><ele>89.33333333333333</ele><time>2026-03-27T10:19:30Z</time></trkpt><trkpt lat="41.967961974444336" lon="12.28103810813895"><ele>91.66666666666666</ele><time>2026-03-27T10:19:31Z</time></trkpt><trkpt lat="41.96790726810094" lon="12.280819420898911"><ele>94.0</ele><time>2026-03-27T10:19:32Z</time></trkpt><trkpt lat="41.96784405152148" lon="12.280588281157765"><ele>95.75</ele><time>2026-03-27T10:19:33Z</time></trkpt><trkpt lat="41.967794911012746" lon="12.28039319993822"><ele>97.5</ele><time>2026-03-27T10:19:34Z</time></trkpt><trkpt lat="41.96775216287293" lon="12.280203129126479"><ele>99.25</ele><time>2026-03-27T10:19:35Z</time></trkpt><trkpt lat="41.96771882460988" lon="12.280027435235617"><ele>101.0</ele><time>2026-03-27T10:19:36Z</time></trkpt><trkpt lat="41.967700715377596" lon="12.27985422786879"><ele>100.33333333333333</ele><time>2026-03-27T10:19:37Z</time></trkpt><trkpt lat="41.96770045276974" lon="12.27965030573379"><ele>99.66666666666666</ele><time>2026-03-27T10:19:38Z</time></trkpt><trkpt lat="41.96770826477804" lon="12.27940982665683"><ele>99.0</ele><time>2026-03-27T10:19:39Z</time></trkpt><trkpt lat="41.96769359682376" lon="12.27915724289223"><ele>98.66666666666666</ele><time>2026-03-27T10:19:40Z</time></trkpt><trkpt lat="41.967687760456954" lon="12.278911371419879"><ele>98.33333333333333</ele><time>2026-03-27T10:19:41Z</time></trkpt><trkpt lat="41.967664817378086" lon="12.278640827198847"><ele>98.0</ele><time>2026-03-27T10:19:42Z</time></trkpt><trkpt lat="41.96762670081198" lon="12.278366223704289"><ele>97.66666666666666</ele><time>2026-03-27T10:19:43Z</time></trkpt><trkpt lat="41.96756606036658" lon="12.278097671872102"><ele>97.33333333333334</ele><time>2026-03-27T10:19:44Z</time></trkpt><trkpt lat="41.96748209598669" lon="12.27780435728688"><ele>97.0</ele><time>2026-03-27T10:19:45Z</time></trkpt><trkpt lat="41.96740380987891" lon="12.277486056141568"><ele>97.0</ele><time>2026-03-27T10:19:46Z</time></trkpt><trkpt lat="41.96731809306664" lon="12.277189465115931"><ele>97.0</ele><time>2026-03-27T10:19:47Z</time></trkpt><trkpt lat="41.9672392949262" lon="12.276913652465725"><ele>97.0</ele><time>2026-03-27T10:19:48Z</time></trkpt><trkpt lat="41.967166256865454" lon="12.2766660778164"><ele>97.0</ele><time>2026-03-27T10:19:49Z</time></trkpt><trkpt lat="41.96709517447898" lon="12.276427152358222"><ele>97.0</ele><time>2026-03-27T10:19:50Z</time></trkpt><trkpt lat="41.96702941781315" lon="12.276204356929904"><ele>97.0</ele><time>2026-03-27T10:19:51Z</time></trkpt><trkpt lat="41.96696626581991" lon="12.275980200773418"><ele>97.0</ele><time>2026-03-27T10:19:52Z</time></trkpt><trkpt lat="41.966918146784764" lon="12.27578653833499"><ele>97.0</ele><time>2026-03-27T10:19:53Z</time></trkpt><trkpt lat="41.96687884049022" lon="12.27560752454635"><ele>96.0</ele><time>2026-03-27T10:19:54Z</time></trkpt><trkpt lat="41.9668722069681" lon="12.275420507018469"><ele>95.0</ele><time>2026-03-27T10:19:55Z</time></trkpt><trkpt lat="41.96685008501771" lon="12.27520494091577"><ele>94.0</ele><time>2026-03-27T10:19:56Z</time></trkpt><trkpt lat="41.96687954466956" lon="12.274995137781353"><ele>92.66666666666666</ele><time>2026-03-27T10:19:57Z</time></trkpt><trkpt lat="41.96693012722308" lon="12.274768231905611"><ele>91.33333333333333</ele><time>2026-03-27T10:19:58Z</time></trkpt><trkpt lat="41.9669813155139" lon="12.274523101020424"><ele>90.0</ele><time>2026-03-27T10:19:59Z</time></trkpt><trkpt lat="41.96702563068611" lon="12.274258311701384"><ele>90.0</ele><time>2026-03-27T10:20:00Z</time></trkpt><trkpt lat="41.96708052173233" lon="12.274014933167974"><ele>90.0</ele><time>2026-03-27T10:20:01Z</time></trkpt><trkpt lat="41.967109531927086" lon="12.273781163206896"><ele>90.0</ele><time>2026-03-27T10:20:02Z</time></trkpt><trkpt lat="41.967120293686236" lon="12.273549418578872"><ele>87.66666666666667</ele><time>2026-03-27T10:20:03Z</time></trkpt><trkpt lat="41.967146103216315" lon="12.273335290221883"><ele>85.33333333333334</ele><time>2026-03-27T10:20:04Z</time></trkpt><trkpt lat="41.96718734630991" lon="12.273123913020102"><ele>83.0</ele><time>2026-03-27T10:20:05Z</time></trkpt><trkpt lat="41.96721780953274" lon="12.27291596059983"><ele>80.5</ele><time>2026-03-27T10:20:06Z</time></trkpt><trkpt lat="41.967246297183756" lon="12.272719703263512"><ele>78.0</ele><time>2026-03-27T10:20:07Z</time></trkpt><trkpt lat="41.9672539971113" lon="12.272531783432852"><ele>75.5</ele><time>2026-03-27T10:20:08Z</time></trkpt><trkpt lat="41.967262609409566" lon="12.272329109238592"><ele>73.0</ele><time>2026-03-27T10:20:09Z</time></trkpt><trkpt lat="41.96725867443048" lon="12.272101193453839"><ele>69.33333333333333</ele><time>2026-03-27T10:20:10Z</time></trkpt><trkpt lat="41.967261794920915" lon="12.271893076609425"><ele>65.66666666666667</ele><time>2026-03-27T10:20:11Z</time></trkpt><trkpt lat="41.96723778102067" lon="12.271686194818695"><ele>62.0</ele><time>2026-03-27T10:20:12Z</time></trkpt><trkpt lat="41.96720793641055" lon="12.271471522993423"><ele>59.333333333333336</ele><time>2026-03-27T10:20:13Z</time></trkpt><trkpt lat="41.96717371621334" lon="12.271270756948185"><ele>56.66666666666667</ele><time>2026-03-27T10:20:14Z</time></trkpt><trkpt lat="41.96713646306653" lon="12.271074651826455"><ele>54.0</ele><time>2026-03-27T10:20:15Z</time></trkpt><trkpt lat="41.96709815777875" lon="12.270883929726946"><ele>54.0</ele><time>2026-03-27T10:20:16Z</time></trkpt><trkpt lat="41.967067049231645" lon="12.27069999279985"><ele>54.0</ele><time>2026-03-27T10:20:17Z</time></trkpt><trkpt lat="41.96706233731063" lon="12.270512411436545"><ele>54.0</ele><time>2026-03-27T10:20:18Z</time></trkpt><trkpt lat="41.96707184683291" lon="12.27033613446185"><ele>54.0</ele><time>2026-03-27T10:20:19Z</time></trkpt><trkpt lat="41.96710009706258" lon="12.270153698467777"><ele>52.66666666666667</ele><time>2026-03-27T10:20:20Z</time></trkpt><trkpt lat="41.96713607619772" lon="12.269932524031821"><ele>51.333333333333336</ele><time>2026-03-27T10:20:21Z</time></trkpt><trkpt lat="41.96717166362263" lon="12.26971248565743"><ele>50.0</ele><time>2026-03-27T10:20:22Z</time></trkpt><trkpt lat="41.96721486235278" lon="12.269517686962459"><ele>50.0</ele><time>2026-03-27T10:20:23Z</time></trkpt><trkpt lat="41.96726682919799" lon="12.269343525411992"><ele>50.0</ele><time>2026-03-27T10:20:24Z</time></trkpt><trkpt lat="41.96731111342153" lon="12.269171977708554"><ele>50.0</ele><time>2026-03-27T10:20:25Z</time></trkpt><trkpt lat="41.967380879395755" lon="12.269032936192698"><ele>50.0</ele><time>2026-03-27T10:20:26Z</time></trkpt><trkpt lat="41.9674601270731" lon="12.268902781282229"><ele>53.5</ele><time>2026-03-27T10:20:27Z</time></trkpt><trkpt lat="41.96755925873693" lon="12.268826080756686"><ele>57.0</ele><time>2026-03-27T10:20:28Z</time></trkpt><trkpt lat="41.96767981846477" lon="12.268783688980882"><ele>60.5</ele><time>2026-03-27T10:20:29Z</time></trkpt><trkpt lat="41.967809336233266" lon="12.26877732259844"><ele>64.0</ele><time>2026-03-27T10:20:30Z</time></trkpt><trkpt lat="41.96794952305062" lon="12.2687755230397"><ele>64.0</ele><time>2026-03-27T10:20:31Z</time></trkpt><trkpt lat="41.968106391999726" lon="12.268758081051732"><ele>64.0</ele><time>2026-03-27T10:20:32Z</time></trkpt><trkpt lat="41.968267322169" lon="12.268745067666261"><ele>64.0</ele><time>2026-03-27T10:20:33Z</time></trkpt><trkpt lat="41.968411265125226" lon="12.268736204867222"><ele>63.5</ele><time>2026-03-27T10:20:34Z</time></trkpt><trkpt lat="41.968542343962056" lon="12.268715296437692"><ele>63.0</ele><time>2026-03-27T10:20:35Z</time></trkpt><trkpt lat="41.96866783177536" lon="12.26865837837961"><ele>62.5</ele><time>2026-03-27T10:20:36Z</time></trkpt><trkpt lat="41.96879205656106" lon="12.26857156090125"><ele>62.0</ele><time>2026-03-27T10:20:37Z</time></trkpt><trkpt lat="41.96890500388906" lon="12.26846131064921"><ele>62.0</ele><time>2026-03-27T10:20:38Z</time></trkpt><trkpt lat="41.96899429978745" lon="12.268328046957253"><ele>62.0</ele><time>2026-03-27T10:20:39Z</time></trkpt><trkpt lat="41.96906820507829" lon="12.268173776235104"><ele>62.0</ele><time>2026-03-27T10:20:40Z</time></trkpt><trkpt lat="41.96911845352589" lon="12.268007424826827"><ele>62.0</ele><time>2026-03-27T10:20:41Z</time></trkpt><trkpt lat="41.96915147523923" lon="12.267838342627643"><ele>64.25</ele><time>2026-03-27T10:20:42Z</time></trkpt><trkpt lat="41.969164002508975" lon="12.267663846355616"><ele>66.5</ele><time>2026-03-27T10:20:43Z</time></trkpt><trkpt lat="41.96915933159133" lon="12.267477503686235"><ele>68.75</ele><time>2026-03-27T10:20:44Z</time></trkpt><trkpt lat="41.969141661677156" lon="12.267264686266858"><ele>71.0</ele><time>2026-03-27T10:20:45Z</time></trkpt><trkpt lat="41.96911812742111" lon="12.267015874592552"><ele>72.66666666666667</ele><time>2026-03-27T10:20:46Z</time></trkpt><trkpt lat="41.969114548955865" lon="12.266776350734798"><ele>74.33333333333333</ele><time>2026-03-27T10:20:47Z</time></trkpt><trkpt lat="41.96916337145573" lon="12.266581892900154"><ele>76.0</ele><time>2026-03-27T10:20:48Z</time></trkpt><trkpt lat="41.96921520375914" lon="12.266369173738369"><ele>78.66666666666666</ele><time>2026-03-27T10:20:49Z</time></trkpt><trkpt lat="41.96925700060152" lon="12.266126500758004"><ele>81.33333333333333</ele><time>2026-03-27T10:20:50Z</time></trkpt><trkpt lat="41.969297945278" lon="12.265911385646433"><ele>84.0</ele><time>2026-03-27T10:20:51Z</time></trkpt><trkpt lat="41.969346047120766" lon="12.265707055253214"><ele>85.33333333333333</ele><time>2026-03-27T10:20:52Z</time></trkpt><trkpt lat="41.96943265456233" lon="12.265525762256749"><ele>86.66666666666666</ele><time>2026-03-27T10:20:53Z</time></trkpt><trkpt lat="41.96950482171133" lon="12.265344742995985"><ele>88.0</ele><time>2026-03-27T10:20:54Z</time></trkpt><trkpt lat="41.96959316262543" lon="12.265201667417829"><ele>88.0</ele><time>2026-03-27T10:20:55Z</time></trkpt><trkpt lat="41.969698115650004" lon="12.265065143372626"><ele>88.0</ele><time>2026-03-27T10:20:56Z</time></trkpt><trkpt lat="41.96982694568745" lon="12.264947154165949"><ele>88.0</ele><time>2026-03-27T10:20:57Z</time></trkpt><trkpt lat="41.96994267020017" lon="12.264850850895332"><ele>88.0</ele><time>2026-03-27T10:20:58Z</time></trkpt><trkpt lat="41.970038681134284" lon="12.264744314801284"><ele>90.0</ele><time>2026-03-27T10:20:59Z</time></trkpt><trkpt lat="41.97011059618399" lon="12.264604347825955"><ele>92.0</ele><time>2026-03-27T10:21:00Z</time></trkpt><trkpt lat="41.9701588376271" lon="12.264437528872822"><ele>94.0</ele><time>2026-03-27T10:21:01Z</time></trkpt><trkpt lat="41.97018261775558" lon="12.264252908987679"><ele>96.0</ele><time>2026-03-27T10:21:02Z</time></trkpt><trkpt lat="41.97019412121505" lon="12.264079401570134"><ele>93.8</ele><time>2026-03-27T10:21:03Z</time></trkpt><trkpt lat="41.97021463167674" lon="12.263931700709932"><ele>91.6</ele><time>2026-03-27T10:21:04Z</time></trkpt><trkpt lat="41.97025216137106" lon="12.26382693776537"><ele>89.4</ele><time>2026-03-27T10:21:05Z</time></trkpt><trkpt lat="41.9703196485535" lon="12.263743316448474"><ele>87.2</ele><time>2026-03-27T10:21:06Z</time></trkpt><trkpt lat="41.97042126903834" lon="12.263663565551143"><ele>85.0</ele><time>2026-03-27T10:21:07Z</time></trkpt><trkpt lat="41.97054317577736" lon="12.263567700223376"><ele>85.0</ele><time>2026-03-27T10:21:08Z</time></trkpt><trkpt lat="41.97065446262506" lon="12.263512662024661"><ele>85.0</ele><time>2026-03-27T10:21:09Z</time></trkpt><trkpt lat="41.970760401453674" lon="12.263495828581291"><ele>85.0</ele><time>2026-03-27T10:21:10Z</time></trkpt><trkpt lat="41.97086410733421" lon="12.263519631882078"><ele>85.0</ele><time>2026-03-27T10:21:11Z</time></trkpt><trkpt lat="41.97098897774067" lon="12.263569555370784"><ele>82.66666666666666</ele><time>2026-03-27T10:21:12Z</time></trkpt><trkpt lat="41.97114931533432" lon="12.263623112161747"><ele>80.33333333333333</ele><time>2026-03-27T10:21:13Z</time></trkpt><trkpt lat="41.97131075813956" lon="12.263668086143673"><ele>78.0</ele><time>2026-03-27T10:21:14Z</time></trkpt><trkpt lat="41.97146042503549" lon="12.263692812040482"><ele>78.0</ele><time>2026-03-27T10:21:15Z</time></trkpt><trkpt lat="41.97160357652131" lon="12.263724379965005"><ele>78.0</ele><time>2026-03-27T10:21:16Z</time></trkpt><trkpt lat="41.97174941943111" lon="12.263762244664917"><ele>78.0</ele><time>2026-03-27T10:21:17Z</time></trkpt><trkpt lat="41.97187656525457" lon="12.263814059875134"><ele>78.0</ele><time>2026-03-27T10:21:18Z</time></trkpt><trkpt lat="41.97200367956689" lon="12.263888938503253"><ele>81.0</ele><time>2026-03-27T10:21:19Z</time></trkpt><trkpt lat="41.97211746580574" lon="12.263980415051812"><ele>84.0</ele><time>2026-03-27T10:21:20Z</time></trkpt><trkpt lat="41.97222848940688" lon="12.2640464904248"><ele>87.0</ele><time>2026-03-27T10:21:21Z</time></trkpt><trkpt lat="41.97236400759687" lon="12.26407108620404"><ele>90.0</ele><time>2026-03-27T10:21:22Z</time></trkpt><trkpt lat="41.97252424122987" lon="12.264055108225843"><ele>90.0</ele><time>2026-03-27T10:21:23Z</time></trkpt><trkpt lat="41.97272892880788" lon="12.264029289837188"><ele>90.0</ele><time>2026-03-27T10:21:24Z</time></trkpt><trkpt lat="41.972917803006666" lon="12.264006806918156"><ele>90.0</ele><time>2026-03-27T10:21:25Z</time></trkpt><trkpt lat="41.973089558464686" lon="12.263987393401043"><ele>90.0</ele><time>2026-03-27T10:21:26Z</time></trkpt><trkpt lat="41.97324816875311" lon="12.26395843550051"><ele>90.0</ele><time>2026-03-27T10:21:27Z</time></trkpt><trkpt lat="41.97339361520786" lon="12.263923587115226"><ele>90.0</ele><time>2026-03-27T10:21:28Z</time></trkpt><trkpt lat="41.973539360155954" lon="12.263899255766953"><ele>89.0</ele><time>2026-03-27T10:21:29Z</time></trkpt><trkpt lat="41.97368515700943" lon="12.26387894381882"><ele>88.0</ele><time>2026-03-27T10:21:30Z</time></trkpt><trkpt lat="41.973828989138006" lon="12.263859391706976"><ele>87.0</ele><time>2026-03-27T10:21:31Z</time></trkpt><trkpt lat="41.97395056627206" lon="12.26384099571456"><ele>86.0</ele><time>2026-03-27T10:21:32Z</time></trkpt><trkpt lat="41.97406117739699" lon="12.263795013874768"><ele>86.0</ele><time>2026-03-27T10:21:33Z</time></trkpt><trkpt lat="41.974164521202404" lon="12.263687551971065"><ele>86.0</ele><time>2026-03-27T10:21:34Z</time></trkpt><trkpt lat="41.97427952026947" lon="12.26355298493912"><ele>86.0</ele><time>2026-03-27T10:21:35Z</time></trkpt><trkpt lat="41.974401709532636" lon="12.263462611022698"><ele>86.0</ele><time>2026-03-27T10:21:36Z</time></trkpt><trkpt lat="41.97452018645048" lon="12.26339160909414"><ele>83.0</ele><time>2026-03-27T10:21:37Z</time></trkpt><trkpt lat="41.97466507535442" lon="12.263339655426527"><ele>80.0</ele><time>2026-03-27T10:21:38Z</time></trkpt><trkpt lat="41.97478684764988" lon="12.263320333497198"><ele>77.0</ele><time>2026-03-27T10:21:39Z</time></trkpt><trkpt lat="41.97492033008699" lon="12.263349331322631"><ele>74.0</ele><time>2026-03-27T10:21:40Z</time></trkpt><trkpt lat="41.97503071344335" lon="12.263411928927153"><ele>70.0</ele><time>2026-03-27T10:21:41Z</time></trkpt><trkpt lat="41.975168110387074" lon="12.263499795757081"><ele>66.0</ele><time>2026-03-27T10:21:42Z</time></trkpt><trkpt lat="41.97531754988199" lon="12.263601494532685"><ele>62.0</ele><time>2026-03-27T10:21:43Z</time></trkpt><trkpt lat="41.97549455047143" lon="12.263725195309737"><ele>62.0</ele><time>2026-03-27T10:21:44Z</time></trkpt><trkpt lat="41.97562985345597" lon="12.26383327652484"><ele>62.0</ele><time>2026-03-27T10:21:45Z</time></trkpt><trkpt lat="41.97578515052868" lon="12.263911798843928"><ele>62.0</ele><time>2026-03-27T10:21:46Z</time></trkpt><trkpt lat="41.975916878741096" lon="12.263959430573774"><ele>60.833333333333336</ele><time>2026-03-27T10:21:47Z</time></trkpt><trkpt lat="41.976039774682135" lon="12.26399404128686"><ele>59.66666666666667</ele><time>2026-03-27T10:21:48Z</time></trkpt><trkpt lat="41.976106403060285" lon="12.264006270334981"><ele>58.5</ele><time>2026-03-27T10:21:49Z</time></trkpt><trkpt lat="41.97619611780533" lon="12.264010178153047"><ele>57.33333333333333</ele><time>2026-03-27T10:21:50Z</time></trkpt><trkpt lat="41.97624876779943" lon="12.263947369483251"><ele>56.166666666666664</ele><time>2026-03-27T10:21:51Z</time></trkpt><trkpt lat="41.97625862654982" lon="12.263828718659745"><ele>55.0</ele><time>2026-03-27T10:21:52Z</time></trkpt><trkpt lat="41.97617388170694" lon="12.263714288295315"><ele>55.0</ele><time>2026-03-27T10:21:53Z</time></trkpt><trkpt lat="41.97607891784168" lon="12.263653911222496"><ele>55.0</ele><time>2026-03-27T10:21:54Z</time></trkpt><trkpt lat="41.97597970572981" lon="12.26366170804915"><ele>55.0</ele><time>2026-03-27T10:21:55Z</time></trkpt><trkpt lat="41.97584323086979" lon="12.263590943277569"><ele>55.0</ele><time>2026-03-27T10:21:56Z</time></trkpt><trkpt lat="41.975700858722206" lon="12.263450300246184"><ele>53.666666666666664</ele><time>2026-03-27T10:21:57Z</time></trkpt><trkpt lat="41.975544805332646" lon="12.263271207136542"><ele>52.33333333333333</ele><time>2026-03-27T10:21:58Z</time></trkpt><trkpt lat="41.97536933818686" lon="12.26307785161774"><ele>51.0</ele><time>2026-03-27T10:21:59Z</time></trkpt><trkpt lat="41.97519753076652" lon="12.262910502296673"><ele>51.0</ele><time>2026-03-27T10:22:00Z</time></trkpt><trkpt lat="41.97507831936866" lon="12.2627537618048"><ele>51.0</ele><time>2026-03-27T10:22:01Z</time></trkpt><trkpt lat="41.974949005800845" lon="12.262641382120991"><ele>51.0</ele><time>2026-03-27T10:22:02Z</time></trkpt><trkpt lat="41.97484904354355" lon="12.262516985942458"><ele>51.0</ele><time>2026-03-27T10:22:03Z</time></trkpt><trkpt lat="41.97478871650911" lon="12.262379002209116"><ele>51.0</ele><time>2026-03-27T10:22:04Z</time></trkpt><trkpt lat="41.974744309009814" lon="12.262227413527194"><ele>51.0</ele><time>2026-03-27T10:22:05Z</time></trkpt><trkpt lat="41.97470314166991" lon="12.262026050909101"><ele>51.0</ele><time>2026-03-27T10:22:06Z</time></trkpt><trkpt lat="41.974665826739795" lon="12.261797341805517"><ele>51.0</ele><time>2026-03-27T10:22:07Z</time></trkpt><trkpt lat="41.97462344735473" lon="12.261601781459053"><ele>51.0</ele><time>2026-03-27T10:22:08Z</time></trkpt><trkpt lat="41.97462248756101" lon="12.261418255269643"><ele>51.0</ele><time>2026-03-27T10:22:09Z</time></trkpt><trkpt lat="41.974628013415014" lon="12.261239280117568"><ele>51.0</ele><time>2026-03-27T10:22:10Z</time></trkpt><trkpt lat="41.97468455346118" lon="12.261077017162425"><ele>50.66666666666667</ele><time>2026-03-27T10:22:11Z</time></trkpt><trkpt lat="41.974745274429964" lon="12.26087550205093"><ele>50.333333333333336</ele><time>2026-03-27T10:22:12Z</time></trkpt><trkpt lat="41.97482929534011" lon="12.260679036718276"><ele>50.0</ele><time>2026-03-27T10:22:13Z</time></trkpt><trkpt lat="41.97489529271501" lon="12.260495452256926"><ele>50.0</ele><time>2026-03-27T10:22:14Z</time></trkpt><trkpt lat="41.97494616703568" lon="12.26032191595517"><ele>50.0</ele><time>2026-03-27T10:22:15Z</time></trkpt><trkpt lat="41.97498182774827" lon="12.260155284570802"><ele>50.0</ele><time>2026-03-27T10:22:16Z</time></trkpt><trkpt lat="41.97498795411676" lon="12.259982308062753"><ele>50.0</ele><time>2026-03-27T10:22:17Z</time></trkpt><trkpt lat="41.974958026280746" lon="12.259799516019873"><ele>50.333333333333336</ele><time>2026-03-27T10:22:18Z</time></trkpt><trkpt lat="41.97489457782051" lon="12.259619240573393"><ele>50.66666666666667</ele><time>2026-03-27T10:22:19Z</time></trkpt><trkpt lat="41.97479858963037" lon="12.259410996770931"><ele>51.0</ele><time>2026-03-27T10:22:20Z</time></trkpt><trkpt lat="41.97472566225815" lon="12.25919458688165"><ele>51.0</ele><time>2026-03-27T10:22:21Z</time></trkpt><trkpt lat="41.974652650885915" lon="12.259015535693472"><ele>51.0</ele><time>2026-03-27T10:22:22Z</time></trkpt><trkpt lat="41.97463870716675" lon="12.258826664158283"><ele>51.0</ele><time>2026-03-27T10:22:23Z</time></trkpt><trkpt lat="41.974622449845086" lon="12.25865153295643"><ele>51.0</ele><time>2026-03-27T10:22:24Z</time></trkpt><trkpt lat="41.97460579755406" lon="12.258479436363572"><ele>51.33333333333333</ele><time>2026-03-27T10:22:25Z</time></trkpt><trkpt lat="41.97464040205407" lon="12.258282135179323"><ele>51.666666666666664</ele><time>2026-03-27T10:22:26Z</time></trkpt><trkpt lat="41.97467794738228" lon="12.258053564425667"><ele>52.0</ele><time>2026-03-27T10:22:27Z</time></trkpt><trkpt lat="41.97469931487368" lon="12.257828870477596"><ele>54.0</ele><time>2026-03-27T10:22:28Z</time></trkpt><trkpt lat="41.974727411681776" lon="12.25765080934672"><ele>56.0</ele><time>2026-03-27T10:22:29Z</time></trkpt><trkpt lat="41.974728191654656" lon="12.257490997712909"><ele>58.0</ele><time>2026-03-27T10:22:30Z</time></trkpt><trkpt lat="41.9746840080818" lon="12.25734160182271"><ele>60.0</ele><time>2026-03-27T10:22:31Z</time></trkpt><trkpt lat="41.97460142627705" lon="12.257207726813977"><ele>65.66666666666667</ele><time>2026-03-27T10:22:32Z</time></trkpt><trkpt lat="41.97448599295301" lon="12.257074531785614"><ele>71.33333333333334</ele><time>2026-03-27T10:22:33Z</time></trkpt><trkpt lat="41.97436600769333" lon="12.256901489106296"><ele>77.0</ele><time>2026-03-27T10:22:34Z</time></trkpt><trkpt lat="41.97423157895907" lon="12.256745167984326"><ele>75.25</ele><time>2026-03-27T10:22:35Z</time></trkpt><trkpt lat="41.974126964482664" lon="12.256633114600895"><ele>73.5</ele><time>2026-03-27T10:22:36Z</time></trkpt><trkpt lat="41.974024543667234" lon="12.256544919250352"><ele>71.75</ele><time>2026-03-27T10:22:37Z</time></trkpt><trkpt lat="41.973900742696266" lon="12.256522693059562"><ele>70.0</ele><time>2026-03-27T10:22:38Z</time></trkpt><trkpt lat="41.97377693428437" lon="12.256533407050567"><ele>70.0</ele><time>2026-03-27T10:22:39Z</time></trkpt><trkpt lat="41.973656350799786" lon="12.256549717704859"><ele>70.0</ele><time>2026-03-27T10:22:40Z</time></trkpt><trkpt lat="41.973558830641515" lon="12.256462457222712"><ele>70.0</ele><time>2026-03-27T10:22:41Z</time></trkpt><trkpt lat="41.973434390909304" lon="12.256374572354842"><ele>70.0</ele><time>2026-03-27T10:22:42Z</time></trkpt><trkpt lat="41.97330731608421" lon="12.256222023237603"><ele>72.66666666666666</ele><time>2026-03-27T10:22:43Z</time></trkpt><trkpt lat="41.97318257448976" lon="12.256100623642803"><ele>75.33333333333333</ele><time>2026-03-27T10:22:44Z</time></trkpt><trkpt lat="41.97304919892526" lon="12.255997935266372"><ele>78.0</ele><time>2026-03-27T10:22:45Z</time></trkpt><trkpt lat="41.97292990338474" lon="12.255875633020624"><ele>78.0</ele><time>2026-03-27T10:22:46Z</time></trkpt><trkpt lat="41.972812928945245" lon="12.25577518082031"><ele>78.0</ele><time>2026-03-27T10:22:47Z</time></trkpt><trkpt lat="41.97270665128193" lon="12.255657091352687"><ele>78.0</ele><time>2026-03-27T10:22:48Z</time></trkpt><trkpt lat="41.97261451071322" lon="12.255531637549412"><ele>78.0</ele><time>2026-03-27T10:22:49Z</time></trkpt><trkpt lat="41.972546995647754" lon="12.255394247091402"><ele>77.25</ele><time>2026-03-27T10:22:50Z</time></trkpt><trkpt lat="41.97250816943728" lon="12.255256521344833"><ele>76.5</ele><time>2026-03-27T10:22:51Z</time></trkpt><trkpt lat="41.97249917831854" lon="12.255102770893915"><ele>75.75</ele><time>2026-03-27T10:22:52Z</time></trkpt><trkpt lat="41.972505949983095" lon="12.254921436548138"><ele>75.0</ele><time>2026-03-27T10:22:53Z</time></trkpt><trkpt lat="41.972512411969376" lon="12.254714860774024"><ele>77.75</ele><time>2026-03-27T10:22:54Z</time></trkpt><trkpt lat="41.972541797176206" lon="12.254527146104866"><ele>80.5</ele><time>2026-03-27T10:22:55Z</time></trkpt><trkpt lat="41.97258201519304" lon="12.25434209319941"><ele>83.25</ele><time>2026-03-27T10:22:56Z</time></trkpt><trkpt lat="41.972660967986734" lon="12.254179174409936"><ele>86.0</ele><time>2026-03-27T10:22:57Z</time></trkpt><trkpt lat="41.97274385675884" lon="12.254017233833334"><ele>85.75</ele><time>2026-03-27T10:22:58Z</time></trkpt><trkpt lat="41.972824242536554" lon="12.253861077989452"><ele>85.5</ele><time>2026-03-27T10:22:59Z</time></trkpt><trkpt lat="41.972916191955306" lon="12.253740207850079"><ele>85.25</ele><time>2026-03-27T10:23:00Z</time></trkpt><trkpt lat="41.972985600157045" lon="12.253612118705195"><ele>85.0</ele><time>2026-03-27T10:23:01Z</time></trkpt><trkpt lat="41.97303461286554" lon="12.253446991425902"><ele>85.0</ele><time>2026-03-27T10:23:02Z</time></trkpt><trkpt lat="41.97305690254125" lon="12.25326565722126"><ele>85.0</ele><time>2026-03-27T10:23:03Z</time></trkpt><trkpt lat="41.97303679743585" lon="12.253102904639007"><ele>85.0</ele><time>2026-03-27T10:23:04Z</time></trkpt><trkpt lat="41.97298112237555" lon="12.252943520334995"><ele>85.0</ele><time>2026-03-27T10:23:05Z</time></trkpt><trkpt lat="41.97288890994513" lon="12.252788702495064"><ele>86.33333333333333</ele><time>2026-03-27T10:23:06Z</time></trkpt><trkpt lat="41.972806482147526" lon="12.252599163873798"><ele>87.66666666666667</ele><time>2026-03-27T10:23:07Z</time></trkpt><trkpt lat="41.97274346921835" lon="12.252394187135332"><ele>89.0</ele><time>2026-03-27T10:23:08Z</time></trkpt><trkpt lat="41.97266866520735" lon="12.252142226242187"><ele>89.0</ele><time>2026-03-27T10:23:09Z</time></trkpt><trkpt lat="41.972581331980656" lon="12.251904279968446"><ele>89.0</ele><time>2026-03-27T10:23:10Z</time></trkpt><trkpt lat="41.972473170179896" lon="12.251670813182743"><ele>89.0</ele><time>2026-03-27T10:23:11Z</time></trkpt><trkpt lat="41.97237401319254" lon="12.251476994776054"><ele>89.5</ele><time>2026-03-27T10:23:12Z</time></trkpt><trkpt lat="41.97229837234016" lon="12.251308910201907"><ele>90.0</ele><time>2026-03-27T10:23:13Z</time></trkpt><trkpt lat="41.97224771593011" lon="12.25115565495488"><ele>90.5</ele><time>2026-03-27T10:23:14Z</time></trkpt><trkpt lat="41.97223690553187" lon="12.251014694514785"><ele>91.0</ele><time>2026-03-27T10:23:15Z</time></trkpt><trkpt lat="41.97227898315419" lon="12.250901558465396"><ele>91.0</ele><time>2026-03-27T10:23:16Z</time></trkpt><trkpt lat="41.97234197394827" lon="12.250769219147974"><ele>91.0</ele><time>2026-03-27T10:23:17Z</time></trkpt><trkpt lat="41.97241056073564" lon="12.250599695062064"><ele>91.0</ele><time>2026-03-27T10:23:18Z</time></trkpt><trkpt lat="41.972489781049454" lon="12.25042867065863"><ele>91.0</ele><time>2026-03-27T10:23:19Z</time></trkpt><trkpt lat="41.97254877983879" lon="12.250277032702028"><ele>91.5</ele><time>2026-03-27T10:23:20Z</time></trkpt><trkpt lat="41.97260098255322" lon="12.250130129712774"><ele>92.0</ele><time>2026-03-27T10:23:21Z</time></trkpt><trkpt lat="41.97261750986055" lon="12.249946039221859"><ele>92.5</ele><time>2026-03-27T10:23:22Z</time></trkpt><trkpt lat="41.972630820657905" lon="12.249745994028277"><ele>93.0</ele><time>2026-03-27T10:23:23Z</time></trkpt><trkpt lat="41.97264277933344" lon="12.249574871010294"><ele>93.4</ele><time>2026-03-27T10:23:24Z</time></trkpt><trkpt lat="41.972654509284666" lon="12.249414981569142"><ele>93.80000000000001</ele><time>2026-03-27T10:23:25Z</time></trkpt><trkpt lat="41.972666824425" lon="12.249284294684756"><ele>94.2</ele><time>2026-03-27T10:23:26Z</time></trkpt><trkpt lat="41.972682664541665" lon="12.249185543881923"><ele>94.6</ele><time>2026-03-27T10:23:27Z</time></trkpt><trkpt lat="41.972711853249734" lon="12.249109713070274"><ele>95.0</ele><time>2026-03-27T10:23:29Z</time></trkpt><trkpt lat="41.9728393530791" lon="12.249155320274973"><ele>95.0</ele><time>2026-03-27T10:23:36Z</time></trkpt><trkpt lat="41.97291533776004" lon="12.249232231511645"><ele>95.0</ele><time>2026-03-27T10:23:37Z</time></trkpt><trkpt lat="41.973012091925284" lon="12.24935501193618"><ele>95.0</ele><time>2026-03-27T10:23:38Z</time></trkpt><trkpt lat="41.97309507023724" lon="12.249459716026122"><ele>95.0</ele><time>2026-03-27T10:23:39Z</time></trkpt><trkpt lat="41.973207191489045" lon="12.249584116459902"><ele>95.0</ele><time>2026-03-27T10:23:40Z</time></trkpt><trkpt lat="41.97334574177719" lon="12.249729875190207"><ele>95.0</ele><time>2026-03-27T10:23:41Z</time></trkpt><trkpt lat="41.97348060944395" lon="12.24988475065682"><ele>95.0</ele><time>2026-03-27T10:23:42Z</time></trkpt><trkpt lat="41.9736434291322" lon="12.250050345076852"><ele>96.5</ele><time>2026-03-27T10:23:43Z</time></trkpt><trkpt lat="41.97383190852411" lon="12.250214076635865"><ele>98.0</ele><time>2026-03-27T10:23:44Z</time></trkpt><trkpt lat="41.97403086995516" lon="12.250357206161441"><ele>98.5</ele><time>2026-03-27T10:23:45Z</time></trkpt><trkpt lat="41.97423750220862" lon="12.250493372459623"><ele>99.0</ele><time>2026-03-27T10:23:46Z</time></trkpt><trkpt lat="41.97449056042928" lon="12.250648451027708"><ele>97.5</ele><time>2026-03-27T10:23:47Z</time></trkpt><trkpt lat="41.97476059494588" lon="12.250812515536952"><ele>96.0</ele><time>2026-03-27T10:23:48Z</time></trkpt><trkpt lat="41.975013407023994" lon="12.250965447081533"><ele>95.5</ele><time>2026-03-27T10:23:49Z</time></trkpt><trkpt lat="41.97525554126403" lon="12.251109057710217"><ele>95.0</ele><time>2026-03-27T10:23:50Z</time></trkpt><trkpt lat="41.97547355659113" lon="12.25124330843883"><ele>95.0</ele><time>2026-03-27T10:23:51Z</time></trkpt><trkpt lat="41.975671953099216" lon="12.251359761605762"><ele>95.0</ele><time>2026-03-27T10:23:52Z</time></trkpt><trkpt lat="41.9758759064398" lon="12.2514769543762"><ele>95.0</ele><time>2026-03-27T10:23:53Z</time></trkpt><trkpt lat="41.976060910109894" lon="12.251586387179465"><ele>96.0</ele><time>2026-03-27T10:23:54Z</time></trkpt><trkpt lat="41.97623841119388" lon="12.251683938099898"><ele>97.0</ele><time>2026-03-27T10:23:55Z</time></trkpt><trkpt lat="41.97642958587256" lon="12.251738657961395"><ele>98.0</ele><time>2026-03-27T10:23:56Z</time></trkpt><trkpt lat="41.97664280903619" lon="12.251759478093694"><ele>98.5</ele><time>2026-03-27T10:23:57Z</time></trkpt><trkpt lat="41.976883651531196" lon="12.25175510823367"><ele>99.0</ele><time>2026-03-27T10:23:58Z</time></trkpt><trkpt lat="41.97715114545227" lon="12.251742154039434"><ele>99.0</ele><time>2026-03-27T10:23:59Z</time></trkpt><trkpt lat="41.97739894810907" lon="12.251747051484204"><ele>99.0</ele><time>2026-03-27T10:24:00Z</time></trkpt><trkpt lat="41.977615514405" lon="12.251750178556803"><ele>100.5</ele><time>2026-03-27T10:24:01Z</time></trkpt><trkpt lat="41.97784720324659" lon="12.251747944426121"><ele>102.0</ele><time>2026-03-27T10:24:02Z</time></trkpt><trkpt lat="41.97806847505626" lon="12.251744065637874"><ele>102.0</ele><time>2026-03-27T10:24:03Z</time></trkpt><trkpt lat="41.97826826667497" lon="12.251746500419044"><ele>102.0</ele><time>2026-03-27T10:24:04Z</time></trkpt><trkpt lat="41.978474254251715" lon="12.251739820696407"><ele>102.0</ele><time>2026-03-27T10:24:05Z</time></trkpt><trkpt lat="41.97868128767544" lon="12.251733228551087"><ele>102.0</ele><time>2026-03-27T10:24:06Z</time></trkpt><trkpt lat="41.97888808406673" lon="12.251716085450141"><ele>102.0</ele><time>2026-03-27T10:24:07Z</time></trkpt><trkpt lat="41.979094837537495" lon="12.251655579653892"><ele>102.0</ele><time>2026-03-27T10:24:08Z</time></trkpt><trkpt lat="41.97928840542708" lon="12.251556669278983"><ele>102.33333333333334</ele><time>2026-03-27T10:24:09Z</time></trkpt><trkpt lat="41.97946673299192" lon="12.25142791024963"><ele>102.66666666666667</ele><time>2026-03-27T10:24:10Z</time></trkpt><trkpt lat="41.97963599582167" lon="12.25128187502278"><ele>103.0</ele><time>2026-03-27T10:24:11Z</time></trkpt><trkpt lat="41.97980118856577" lon="12.251106643805397"><ele>103.0</ele><time>2026-03-27T10:24:12Z</time></trkpt><trkpt lat="41.97994743498342" lon="12.250905717049681"><ele>103.0</ele><time>2026-03-27T10:24:13Z</time></trkpt><trkpt lat="41.98011047522425" lon="12.250662148913062"><ele>103.33333333333334</ele><time>2026-03-27T10:24:14Z</time></trkpt><trkpt lat="41.980268957352465" lon="12.250436068578141"><ele>103.66666666666666</ele><time>2026-03-27T10:24:15Z</time></trkpt><trkpt lat="41.980410781087144" lon="12.250243821715927"><ele>104.0</ele><time>2026-03-27T10:24:16Z</time></trkpt><trkpt lat="41.980556712438556" lon="12.250047720777488"><ele>104.0</ele><time>2026-03-27T10:24:17Z</time></trkpt><trkpt lat="41.98069339401184" lon="12.249867153433181"><ele>104.0</ele><time>2026-03-27T10:24:18Z</time></trkpt><trkpt lat="41.980817602560535" lon="12.24970344238849"><ele>104.0</ele><time>2026-03-27T10:24:19Z</time></trkpt><trkpt lat="41.98094926915957" lon="12.249537571498019"><ele>103.33333333333333</ele><time>2026-03-27T10:24:20Z</time></trkpt><trkpt lat="41.981081718368586" lon="12.249384056414572"><ele>102.66666666666666</ele><time>2026-03-27T10:24:21Z</time></trkpt><trkpt lat="41.981231820380955" lon="12.249237812843413"><ele>102.0</ele><time>2026-03-27T10:24:22Z</time></trkpt><trkpt lat="41.98141044432434" lon="12.249103335644051"><ele>102.0</ele><time>2026-03-27T10:24:23Z</time></trkpt><trkpt lat="41.981621615385826" lon="12.24897658666047"><ele>102.0</ele><time>2026-03-27T10:24:24Z</time></trkpt><trkpt lat="41.98186777902209" lon="12.248850958472346"><ele>102.0</ele><time>2026-03-27T10:24:25Z</time></trkpt><trkpt lat="41.982132340320184" lon="12.248719764636355"><ele>102.0</ele><time>2026-03-27T10:24:26Z</time></trkpt><trkpt lat="41.98240584743367" lon="12.24857953507724"><ele>102.5</ele><time>2026-03-27T10:24:27Z</time></trkpt><trkpt lat="41.98265307093491" lon="12.248443092829977"><ele>103.0</ele><time>2026-03-27T10:24:28Z</time></trkpt><trkpt lat="41.982880031795936" lon="12.248332194589173"><ele>103.0</ele><time>2026-03-27T10:24:29Z</time></trkpt><trkpt lat="41.98310946782516" lon="12.248229998048615"><ele>103.0</ele><time>2026-03-27T10:24:30Z</time></trkpt><trkpt lat="41.983327869170566" lon="12.248119612337643"><ele>103.33333333333334</ele><time>2026-03-27T10:24:31Z</time></trkpt><trkpt lat="41.983525605992824" lon="12.248013578247528"><ele>103.66666666666666</ele><time>2026-03-27T10:24:32Z</time></trkpt><trkpt lat="41.983707566227714" lon="12.247921283311705"><ele>104.0</ele><time>2026-03-27T10:24:33Z</time></trkpt><trkpt lat="41.98389797103381" lon="12.247822984133931"><ele>104.0</ele><time>2026-03-27T10:24:34Z</time></trkpt><trkpt lat="41.98410027775059" lon="12.247716766731399"><ele>104.0</ele><time>2026-03-27T10:24:35Z</time></trkpt><trkpt lat="41.98428775781539" lon="12.2476228550004"><ele>104.0</ele><time>2026-03-27T10:24:36Z</time></trkpt><trkpt lat="41.984483664662285" lon="12.247529929636311"><ele>103.5</ele><time>2026-03-27T10:24:37Z</time></trkpt><trkpt lat="41.984700858852044" lon="12.24743273542957"><ele>103.0</ele><time>2026-03-27T10:24:38Z</time></trkpt><trkpt lat="41.9849331552824" lon="12.247339681341854"><ele>101.5</ele><time>2026-03-27T10:24:39Z</time></trkpt><trkpt lat="41.98517442750814" lon="12.24724002074106"><ele>100.0</ele><time>2026-03-27T10:24:40Z</time></trkpt><trkpt lat="41.985418766495606" lon="12.24713058563899"><ele>100.0</ele><time>2026-03-27T10:24:41Z</time></trkpt><trkpt lat="41.985628699639335" lon="12.247036601281362"><ele>100.0</ele><time>2026-03-27T10:24:42Z</time></trkpt><trkpt lat="41.98583416059547" lon="12.246947030568682"><ele>100.0</ele><time>2026-03-27T10:24:43Z</time></trkpt><trkpt lat="41.98602998860247" lon="12.246858882479762"><ele>100.66666666666667</ele><time>2026-03-27T10:24:44Z</time></trkpt><trkpt lat="41.98623101615254" lon="12.24676833718172"><ele>101.33333333333334</ele><time>2026-03-27T10:24:45Z</time></trkpt><trkpt lat="41.98644002873286" lon="12.246670609749891"><ele>102.0</ele><time>2026-03-27T10:24:46Z</time></trkpt><trkpt lat="41.986643481609626" lon="12.246575515247056"><ele>102.0</ele><time>2026-03-27T10:24:47Z</time></trkpt><trkpt lat="41.9868489149001" lon="12.246479158115125"><ele>102.0</ele><time>2026-03-27T10:24:48Z</time></trkpt><trkpt lat="41.987067839671525" lon="12.246379160427555"><ele>102.0</ele><time>2026-03-27T10:24:49Z</time></trkpt><trkpt lat="41.98730605952726" lon="12.246275607271134"><ele>104.5</ele><time>2026-03-27T10:24:50Z</time></trkpt><trkpt lat="41.98754096915982" lon="12.246169182534334"><ele>107.0</ele><time>2026-03-27T10:24:51Z</time></trkpt><trkpt lat="41.987752752816334" lon="12.246062870593686"><ele>107.0</ele><time>2026-03-27T10:24:52Z</time></trkpt><trkpt lat="41.987954250871326" lon="12.245959999974492"><ele>107.0</ele><time>2026-03-27T10:24:53Z</time></trkpt><trkpt lat="41.98817361028753" lon="12.245852446338418"><ele>107.0</ele><time>2026-03-27T10:24:54Z</time></trkpt><trkpt lat="41.98840689028993" lon="12.24574386722452"><ele>106.66666666666666</ele><time>2026-03-27T10:24:55Z</time></trkpt><trkpt lat="41.988618431179326" lon="12.24564620640878"><ele>106.33333333333334</ele><time>2026-03-27T10:24:56Z</time></trkpt><trkpt lat="41.988802848194474" lon="12.245562796081945"><ele>106.0</ele><time>2026-03-27T10:24:57Z</time></trkpt><trkpt lat="41.98899737825522" lon="12.245480211395266"><ele>107.0</ele><time>2026-03-27T10:24:58Z</time></trkpt><trkpt lat="41.98920809683858" lon="12.245405334683719"><ele>108.0</ele><time>2026-03-27T10:24:59Z</time></trkpt><trkpt lat="41.98944756725487" lon="12.245330873191707"><ele>108.0</ele><time>2026-03-27T10:25:00Z</time></trkpt><trkpt lat="41.98966958964082" lon="12.245273045965257"><ele>108.0</ele><time>2026-03-27T10:25:01Z</time></trkpt><trkpt lat="41.98986902917898" lon="12.245231087349806"><ele>108.0</ele><time>2026-03-27T10:25:02Z</time></trkpt><trkpt lat="41.990067858848924" lon="12.245201243406136"><ele>109.0</ele><time>2026-03-27T10:25:03Z</time></trkpt><trkpt lat="41.99026679450688" lon="12.245191328462294"><ele>110.0</ele><time>2026-03-27T10:25:04Z</time></trkpt><trkpt lat="41.990477297619954" lon="12.245185437414534"><ele>111.0</ele><time>2026-03-27T10:25:05Z</time></trkpt><trkpt lat="41.9906875923638" lon="12.245174234501238"><ele>110.33333333333334</ele><time>2026-03-27T10:25:06Z</time></trkpt><trkpt lat="41.99089212927813" lon="12.245160065422075"><ele>109.66666666666667</ele><time>2026-03-27T10:25:07Z</time></trkpt><trkpt lat="41.99109789518013" lon="12.245154318288833"><ele>109.0</ele><time>2026-03-27T10:25:08Z</time></trkpt><trkpt lat="41.99129910319839" lon="12.245149396998883"><ele>109.0</ele><time>2026-03-27T10:25:09Z</time></trkpt><trkpt lat="41.99148644038305" lon="12.245170067357378"><ele>109.0</ele><time>2026-03-27T10:25:10Z</time></trkpt><trkpt lat="41.99170215465624" lon="12.245222246959749"><ele>109.0</ele><time>2026-03-27T10:25:11Z</time></trkpt><trkpt lat="41.99195025709737" lon="12.245303765460154"><ele>108.33333333333334</ele><time>2026-03-27T10:25:12Z</time></trkpt><trkpt lat="41.99217465564778" lon="12.245385903700784"><ele>107.66666666666666</ele><time>2026-03-27T10:25:13Z</time></trkpt><trkpt lat="41.99237963605302" lon="12.245458296151195"><ele>107.0</ele><time>2026-03-27T10:25:14Z</time></trkpt><trkpt lat="41.99257479871625" lon="12.245518977027572"><ele>106.66666666666666</ele><time>2026-03-27T10:25:15Z</time></trkpt><trkpt lat="41.99275885018678" lon="12.245580009163215"><ele>106.33333333333334</ele><time>2026-03-27T10:25:16Z</time></trkpt><trkpt lat="41.99294198121827" lon="12.245643783906097"><ele>106.0</ele><time>2026-03-27T10:25:17Z</time></trkpt><trkpt lat="41.993122884455346" lon="12.245703295726965"><ele>106.0</ele><time>2026-03-27T10:25:18Z</time></trkpt><trkpt lat="41.99330828388448" lon="12.24576999220646"><ele>106.0</ele><time>2026-03-27T10:25:19Z</time></trkpt><trkpt lat="41.99347402934433" lon="12.245826424870751"><ele>106.0</ele><time>2026-03-27T10:25:20Z</time></trkpt><trkpt lat="41.99364200200583" lon="12.245877389419512"><ele>106.0</ele><time>2026-03-27T10:25:21Z</time></trkpt><trkpt lat="41.99380584327331" lon="12.245922877591587"><ele>106.0</ele><time>2026-03-27T10:25:22Z</time></trkpt><trkpt lat="41.99397147219066" lon="12.24595151332088"><ele>106.0</ele><time>2026-03-27T10:25:23Z</time></trkpt><trkpt lat="41.99414660726747" lon="12.245961461038487"><ele>106.33333333333334</ele><time>2026-03-27T10:25:24Z</time></trkpt><trkpt lat="41.99432323247496" lon="12.245944056159402"><ele>106.66666666666666</ele><time>2026-03-27T10:25:25Z</time></trkpt><trkpt lat="41.994524114377256" lon="12.245889133195403"><ele>107.0</ele><time>2026-03-27T10:25:26Z</time></trkpt><trkpt lat="41.99473765844215" lon="12.245801179188"><ele>107.0</ele><time>2026-03-27T10:25:27Z</time></trkpt><trkpt lat="41.99491349087014" lon="12.245692968227484"><ele>107.0</ele><time>2026-03-27T10:25:28Z</time></trkpt><trkpt lat="41.995079026821585" lon="12.245558961850175"><ele>107.0</ele><time>2026-03-27T10:25:29Z</time></trkpt><trkpt lat="41.99524427861341" lon="12.245397414214077"><ele>108.66666666666666</ele><time>2026-03-27T10:25:30Z</time></trkpt><trkpt lat="41.99539609555851" lon="12.245230726637686"><ele>110.33333333333334</ele><time>2026-03-27T10:25:31Z</time></trkpt><trkpt lat="41.995548657981274" lon="12.245054420723584"><ele>112.0</ele><time>2026-03-27T10:25:32Z</time></trkpt><trkpt lat="41.99571782969148" lon="12.244873276453573"><ele>112.66666666666667</ele><time>2026-03-27T10:25:33Z</time></trkpt><trkpt lat="41.9958707293336" lon="12.24470939883354"><ele>113.33333333333334</ele><time>2026-03-27T10:25:34Z</time></trkpt><trkpt lat="41.99600297371689" lon="12.244584281729356"><ele>114.0</ele><time>2026-03-27T10:25:35Z</time></trkpt><trkpt lat="41.99614000716232" lon="12.244449083864641"><ele>114.0</ele><time>2026-03-27T10:25:36Z</time></trkpt><trkpt lat="41.99627584155136" lon="12.24431044802066"><ele>114.0</ele><time>2026-03-27T10:25:37Z</time></trkpt><trkpt lat="41.99642752845048" lon="12.244151692859788"><ele>114.0</ele><time>2026-03-27T10:25:38Z</time></trkpt><trkpt lat="41.996610149909706" lon="12.243971140678006"><ele>114.33333333333334</ele><time>2026-03-27T10:25:39Z</time></trkpt><trkpt lat="41.99679381915738" lon="12.243822413963166"><ele>114.66666666666667</ele><time>2026-03-27T10:25:40Z</time></trkpt><trkpt lat="41.99699456276714" lon="12.24368538230283"><ele>115.0</ele><time>2026-03-27T10:25:41Z</time></trkpt><trkpt lat="41.99717526457224" lon="12.243570867143664"><ele>115.0</ele><time>2026-03-27T10:25:42Z</time></trkpt><trkpt lat="41.99734406968723" lon="12.243454652082034"><ele>115.0</ele><time>2026-03-27T10:25:43Z</time></trkpt><trkpt lat="41.99751322705682" lon="12.243332037072252"><ele>115.0</ele><time>2026-03-27T10:25:44Z</time></trkpt><trkpt lat="41.99768596379197" lon="12.243207137596647"><ele>116.0</ele><time>2026-03-27T10:25:45Z</time></trkpt><trkpt lat="41.99784629264684" lon="12.243093455328482"><ele>117.0</ele><time>2026-03-27T10:25:46Z</time></trkpt><trkpt lat="41.99800676681443" lon="12.2429851623153"><ele>118.0</ele><time>2026-03-27T10:25:47Z</time></trkpt><trkpt lat="41.99818251574547" lon="12.242869231435446"><ele>118.33333333333334</ele><time>2026-03-27T10:25:48Z</time></trkpt><trkpt lat="41.998344713478346" lon="12.242763910863207"><ele>118.66666666666666</ele><time>2026-03-27T10:25:49Z</time></trkpt><trkpt lat="41.998508074908976" lon="12.242667134790384"><ele>119.0</ele><time>2026-03-27T10:25:50Z</time></trkpt><trkpt lat="41.998681835014054" lon="12.242594229381849"><ele>119.0</ele><time>2026-03-27T10:25:51Z</time></trkpt><trkpt lat="41.99886869758782" lon="12.242554757232666"><ele>119.0</ele><time>2026-03-27T10:25:52Z</time></trkpt><trkpt lat="41.99906186038364" lon="12.242543765783951"><ele>119.0</ele><time>2026-03-27T10:25:53Z</time></trkpt><trkpt lat="41.999261499113885" lon="12.242551157383556"><ele>120.5</ele><time>2026-03-27T10:25:54Z</time></trkpt><trkpt lat="41.99947232931404" lon="12.242561814124567"><ele>122.0</ele><time>2026-03-27T10:25:55Z</time></trkpt><trkpt lat="41.999723972327594" lon="12.242570646995556"><ele>122.0</ele><time>2026-03-27T10:25:56Z</time></trkpt><trkpt lat="42.00000035585601" lon="12.242588340082085"><ele>122.0</ele><time>2026-03-27T10:25:57Z</time></trkpt><trkpt lat="42.00028194155645" lon="12.242610091154498"><ele>122.0</ele><time>2026-03-27T10:25:58Z</time></trkpt><trkpt lat="42.00050841120011" lon="12.242635670121976"><ele>122.0</ele><time>2026-03-27T10:25:59Z</time></trkpt><trkpt lat="42.00069861589341" lon="12.242653923995176"><ele>122.0</ele><time>2026-03-27T10:26:00Z</time></trkpt><trkpt lat="42.00090306929605" lon="12.24267301963977"><ele>121.33333333333333</ele><time>2026-03-27T10:26:01Z</time></trkpt><trkpt lat="42.00109824243656" lon="12.242687441752205"><ele>120.66666666666666</ele><time>2026-03-27T10:26:02Z</time></trkpt><trkpt lat="42.00129860538659" lon="12.242697740861288"><ele>120.0</ele><time>2026-03-27T10:26:03Z</time></trkpt><trkpt lat="42.00148374986134" lon="12.242710807107803"><ele>120.0</ele><time>2026-03-27T10:26:04Z</time></trkpt><trkpt lat="42.00166379938501" lon="12.242728865828159"><ele>120.0</ele><time>2026-03-27T10:26:05Z</time></trkpt><trkpt lat="42.00184816801178" lon="12.242744722025229"><ele>120.0</ele><time>2026-03-27T10:26:06Z</time></trkpt><trkpt lat="42.00202394653278" lon="12.242770169907057"><ele>121.0</ele><time>2026-03-27T10:26:07Z</time></trkpt><trkpt lat="42.00222218618938" lon="12.2428207353873"><ele>122.0</ele><time>2026-03-27T10:26:08Z</time></trkpt><trkpt lat="42.00243948570888" lon="12.242882446116417"><ele>123.0</ele><time>2026-03-27T10:26:09Z</time></trkpt><trkpt lat="42.00267288159627" lon="12.242951544576112"><ele>123.0</ele><time>2026-03-27T10:26:10Z</time></trkpt><trkpt lat="42.0029450308213" lon="12.243036353068614"><ele>123.0</ele><time>2026-03-27T10:26:11Z</time></trkpt><trkpt lat="42.00323266226883" lon="12.243135622076041"><ele>124.0</ele><time>2026-03-27T10:26:12Z</time></trkpt><trkpt lat="42.00353178694699" lon="12.24323635535381"><ele>125.0</ele><time>2026-03-27T10:26:13Z</time></trkpt><trkpt lat="42.00381625862788" lon="12.243322689319942"><ele>125.0</ele><time>2026-03-27T10:26:14Z</time></trkpt><trkpt lat="42.00404488069499" lon="12.2434144526437"><ele>125.0</ele><time>2026-03-27T10:26:15Z</time></trkpt><trkpt lat="42.00425451957383" lon="12.243488742064123"><ele>125.33333333333333</ele><time>2026-03-27T10:26:16Z</time></trkpt><trkpt lat="42.004468487938276" lon="12.243553830445924"><ele>125.66666666666666</ele><time>2026-03-27T10:26:17Z</time></trkpt><trkpt lat="42.004687662720016" lon="12.243622330269101"><ele>126.0</ele><time>2026-03-27T10:26:18Z</time></trkpt><trkpt lat="42.00489605055478" lon="12.24370035032377"><ele>127.0</ele><time>2026-03-27T10:26:19Z</time></trkpt><trkpt lat="42.00507824729576" lon="12.24376960434393"><ele>128.0</ele><time>2026-03-27T10:26:20Z</time></trkpt><trkpt lat="42.0052640430672" lon="12.243820611067324"><ele>129.0</ele><time>2026-03-27T10:26:21Z</time></trkpt><trkpt lat="42.005451549637975" lon="12.243890860245607"><ele>129.0</ele><time>2026-03-27T10:26:22Z</time></trkpt><trkpt lat="42.005631021704545" lon="12.243940231671278"><ele>129.0</ele><time>2026-03-27T10:26:23Z</time></trkpt><trkpt lat="42.0058288636463" lon="12.24398777952068"><ele>129.0</ele><time>2026-03-27T10:26:24Z</time></trkpt><trkpt lat="42.00604337644692" lon="12.244021837133023"><ele>129.66666666666666</ele><time>2026-03-27T10:26:25Z</time></trkpt><trkpt lat="42.00626886222367" lon="12.244044549728558"><ele>130.33333333333331</ele><time>2026-03-27T10:26:26Z</time></trkpt><trkpt lat="42.00648144879388" lon="12.244066356636297"><ele>131.0</ele><time>2026-03-27T10:26:27Z</time></trkpt><trkpt lat="42.0066937209909" lon="12.244089118536861"><ele>131.33333333333331</ele><time>2026-03-27T10:26:28Z</time></trkpt><trkpt lat="42.006900509917884" lon="12.244108823441621"><ele>131.66666666666666</ele><time>2026-03-27T10:26:29Z</time></trkpt><trkpt lat="42.00707884405249" lon="12.244127733488476"><ele>132.0</ele><time>2026-03-27T10:26:30Z</time></trkpt><trkpt lat="42.00726566080306" lon="12.244148888416982"><ele>132.0</ele><time>2026-03-27T10:26:31Z</time></trkpt><trkpt lat="42.007470390094326" lon="12.244178004644935"><ele>132.0</ele><time>2026-03-27T10:26:32Z</time></trkpt><trkpt lat="42.007660997537464" lon="12.244202498077229"><ele>132.0</ele><time>2026-03-27T10:26:33Z</time></trkpt><trkpt lat="42.00783669173256" lon="12.244225858461805"><ele>132.33333333333334</ele><time>2026-03-27T10:26:34Z</time></trkpt><trkpt lat="42.008003598136334" lon="12.244246581659192"><ele>132.66666666666669</ele><time>2026-03-27T10:26:35Z</time></trkpt><trkpt lat="42.008180950485844" lon="12.244265332516669"><ele>133.0</ele><time>2026-03-27T10:26:36Z</time></trkpt><trkpt lat="42.00837315963993" lon="12.244297692894381"><ele>133.33333333333334</ele><time>2026-03-27T10:26:37Z</time></trkpt><trkpt lat="42.00858253663974" lon="12.244323849516297"><ele>133.66666666666666</ele><time>2026-03-27T10:26:38Z</time></trkpt><trkpt lat="42.00878501920115" lon="12.244342105784975"><ele>134.0</ele><time>2026-03-27T10:26:39Z</time></trkpt><trkpt lat="42.008968592825475" lon="12.244346177943992"><ele>134.33333333333331</ele><time>2026-03-27T10:26:40Z</time></trkpt><trkpt lat="42.00916622649224" lon="12.244326950027633"><ele>134.66666666666666</ele><time>2026-03-27T10:26:41Z</time></trkpt><trkpt lat="42.00940508221218" lon="12.244294337056747"><ele>135.0</ele><time>2026-03-27T10:26:42Z</time></trkpt><trkpt lat="42.00968757325932" lon="12.244253772542944"><ele>135.0</ele><time>2026-03-27T10:26:43Z</time></trkpt><trkpt lat="42.009992820655825" lon="12.244219813580852"><ele>135.0</ele><time>2026-03-27T10:26:44Z</time></trkpt><trkpt lat="42.01028811990296" lon="12.24420005111062"><ele>135.0</ele><time>2026-03-27T10:26:45Z</time></trkpt><trkpt lat="42.010577825096796" lon="12.244169241546823"><ele>135.0</ele><time>2026-03-27T10:26:46Z</time></trkpt><trkpt lat="42.01083825779642" lon="12.244132819243735"><ele>135.0</ele><time>2026-03-27T10:26:47Z</time></trkpt><trkpt lat="42.01108141922449" lon="12.244081631564171"><ele>135.0</ele><time>2026-03-27T10:26:48Z</time></trkpt><trkpt lat="42.01134727298092" lon="12.244005992424018"><ele>137.0</ele><time>2026-03-27T10:26:49Z</time></trkpt><trkpt lat="42.01163782145618" lon="12.243918109349938"><ele>139.0</ele><time>2026-03-27T10:26:50Z</time></trkpt><trkpt lat="42.01191824726462" lon="12.243840098134754"><ele>139.0</ele><time>2026-03-27T10:26:51Z</time></trkpt><trkpt lat="42.01215658299505" lon="12.24377321008051"><ele>139.0</ele><time>2026-03-27T10:26:52Z</time></trkpt><trkpt lat="42.01237250744485" lon="12.243712648580862"><ele>141.0</ele><time>2026-03-27T10:26:53Z</time></trkpt><trkpt lat="42.01260891438658" lon="12.243646595404583"><ele>143.0</ele><time>2026-03-27T10:26:54Z</time></trkpt><trkpt lat="42.01286995935109" lon="12.243571149589796"><ele>143.0</ele><time>2026-03-27T10:26:55Z</time></trkpt><trkpt lat="42.01310380775187" lon="12.24350635955382"><ele>143.0</ele><time>2026-03-27T10:26:56Z</time></trkpt><trkpt lat="42.013325804843845" lon="12.243445272892817"><ele>143.0</ele><time>2026-03-27T10:26:57Z</time></trkpt><trkpt lat="42.01353170417081" lon="12.243389168733682"><ele>143.0</ele><time>2026-03-27T10:26:58Z</time></trkpt><trkpt lat="42.01372123244986" lon="12.243334615902349"><ele>143.0</ele><time>2026-03-27T10:26:59Z</time></trkpt><trkpt lat="42.01388536086191" lon="12.243290114628474"><ele>143.0</ele><time>2026-03-27T10:27:00Z</time></trkpt><trkpt lat="42.014036601740834" lon="12.24325150536579"><ele>143.0</ele><time>2026-03-27T10:27:01Z</time></trkpt><trkpt lat="42.01419047851182" lon="12.243209913214947"><ele>143.0</ele><time>2026-03-27T10:27:02Z</time></trkpt><trkpt lat="42.01433444917647" lon="12.24317189393614"><ele>143.20000000000002</ele><time>2026-03-27T10:27:03Z</time></trkpt><trkpt lat="42.01445271424053" lon="12.24313968831903"><ele>143.4</ele><time>2026-03-27T10:27:04Z</time></trkpt><trkpt lat="42.014543249514404" lon="12.24311366317291"><ele>143.60000000000002</ele><time>2026-03-27T10:27:05Z</time></trkpt><trkpt lat="42.014612564120426" lon="12.24309233696224"><ele>143.8</ele><time>2026-03-27T10:27:06Z</time></trkpt><trkpt lat="42.0147186068317" lon="12.24305624868675"><ele>144.0</ele><time>2026-03-27T10:27:08Z</time></trkpt><trkpt lat="42.01478218141718" lon="12.24303927148573"><ele>143.25</ele><time>2026-03-27T10:27:09Z</time></trkpt><trkpt lat="42.01487927979246" lon="12.243022110505498"><ele>142.5</ele><time>2026-03-27T10:27:10Z</time></trkpt><trkpt lat="42.01499005498646" lon="12.242994323975365"><ele>141.75</ele><time>2026-03-27T10:27:11Z</time></trkpt><trkpt lat="42.01509930171145" lon="12.242966630878225"><ele>141.0</ele><time>2026-03-27T10:27:12Z</time></trkpt><trkpt lat="42.01525195366184" lon="12.242928703568905"><ele>140.66666666666666</ele><time>2026-03-27T10:27:13Z</time></trkpt><trkpt lat="42.01542665296188" lon="12.242886314824966"><ele>140.33333333333331</ele><time>2026-03-27T10:27:14Z</time></trkpt><trkpt lat="42.01558437407802" lon="12.242856601390796"><ele>140.0</ele><time>2026-03-27T10:27:15Z</time></trkpt><trkpt lat="42.01573727634343" lon="12.242845934194248"><ele>140.33333333333331</ele><time>2026-03-27T10:27:16Z</time></trkpt><trkpt lat="42.015889945144515" lon="12.242846191108262"><ele>140.66666666666666</ele><time>2026-03-27T10:27:17Z</time></trkpt><trkpt lat="42.01605073903183" lon="12.242859518849892"><ele>141.0</ele><time>2026-03-27T10:27:18Z</time></trkpt><trkpt lat="42.01623797119175" lon="12.242873347456522"><ele>141.0</ele><time>2026-03-27T10:27:19Z</time></trkpt><trkpt lat="42.016406279635426" lon="12.242892100655546"><ele>141.0</ele><time>2026-03-27T10:27:20Z</time></trkpt><trkpt lat="42.01655306746987" lon="12.242912872735662"><ele>141.0</ele><time>2026-03-27T10:27:21Z</time></trkpt><trkpt lat="42.01668947658275" lon="12.242930350947608"><ele>141.25</ele><time>2026-03-27T10:27:22Z</time></trkpt><trkpt lat="42.01683227982658" lon="12.242944115147296"><ele>141.5</ele><time>2026-03-27T10:27:23Z</time></trkpt><trkpt lat="42.01698041620049" lon="12.242962347842516"><ele>141.75</ele><time>2026-03-27T10:27:24Z</time></trkpt><trkpt lat="42.017124565564885" lon="12.24298080612794"><ele>142.0</ele><time>2026-03-27T10:27:25Z</time></trkpt><trkpt lat="42.017273801572394" lon="12.24300825296018"><ele>142.0</ele><time>2026-03-27T10:27:26Z</time></trkpt><trkpt lat="42.017430675195044" lon="12.243058498679936"><ele>142.0</ele><time>2026-03-27T10:27:27Z</time></trkpt><trkpt lat="42.01759791732582" lon="12.2431357241753"><ele>142.0</ele><time>2026-03-27T10:27:28Z</time></trkpt><trkpt lat="42.01776229606002" lon="12.243217129182131"><ele>143.0</ele><time>2026-03-27T10:27:29Z</time></trkpt><trkpt lat="42.0179232536993" lon="12.243294535651552"><ele>144.0</ele><time>2026-03-27T10:27:30Z</time></trkpt><trkpt lat="42.01806946868902" lon="12.243362099910298"><ele>145.0</ele><time>2026-03-27T10:27:31Z</time></trkpt><trkpt lat="42.01823994492029" lon="12.243437286913823"><ele>146.0</ele><time>2026-03-27T10:27:32Z</time></trkpt><trkpt lat="42.01845509021232" lon="12.243539464399346"><ele>147.0</ele><time>2026-03-27T10:27:33Z</time></trkpt><trkpt lat="42.0186802429448" lon="12.243662339853376"><ele>147.0</ele><time>2026-03-27T10:27:34Z</time></trkpt><trkpt lat="42.01887878468774" lon="12.243768780652676"><ele>147.0</ele><time>2026-03-27T10:27:35Z</time></trkpt><trkpt lat="42.01907453575104" lon="12.243865062859701"><ele>147.0</ele><time>2026-03-27T10:27:36Z</time></trkpt><trkpt lat="42.01925658001262" lon="12.243957218307477"><ele>148.0</ele><time>2026-03-27T10:27:37Z</time></trkpt><trkpt lat="42.01943609837795" lon="12.244052988834609"><ele>149.0</ele><time>2026-03-27T10:27:38Z</time></trkpt><trkpt lat="42.01960915119387" lon="12.244159888230966"><ele>150.0</ele><time>2026-03-27T10:27:39Z</time></trkpt><trkpt lat="42.01975589106541" lon="12.244286921494364"><ele>150.0</ele><time>2026-03-27T10:27:40Z</time></trkpt><trkpt lat="42.01989844451826" lon="12.244444472391283"><ele>150.0</ele><time>2026-03-27T10:27:41Z</time></trkpt><trkpt lat="42.0200494457669" lon="12.244627809844076"><ele>150.0</ele><time>2026-03-27T10:27:42Z</time></trkpt><trkpt lat="42.020212359406614" lon="12.244838325756717"><ele>151.33333333333334</ele><time>2026-03-27T10:27:43Z</time></trkpt><trkpt lat="42.02036468773675" lon="12.245040021536267"><ele>152.66666666666669</ele><time>2026-03-27T10:27:44Z</time></trkpt><trkpt lat="42.02050857255357" lon="12.245221589684398"><ele>154.0</ele><time>2026-03-27T10:27:45Z</time></trkpt><trkpt lat="42.02066720095968" lon="12.24540203532607"><ele>154.0</ele><time>2026-03-27T10:27:46Z</time></trkpt><trkpt lat="42.02084197739213" lon="12.245558808009687"><ele>154.0</ele><time>2026-03-27T10:27:47Z</time></trkpt><trkpt lat="42.02103582057926" lon="12.245675284898187"><ele>154.0</ele><time>2026-03-27T10:27:48Z</time></trkpt><trkpt lat="42.02123630431032" lon="12.245764830066271"><ele>154.0</ele><time>2026-03-27T10:27:49Z</time></trkpt><trkpt lat="42.02144270135497" lon="12.245826306469661"><ele>154.0</ele><time>2026-03-27T10:27:50Z</time></trkpt><trkpt lat="42.02164985054582" lon="12.245854182144138"><ele>154.0</ele><time>2026-03-27T10:27:51Z</time></trkpt><trkpt lat="42.02187147568443" lon="12.245851378785758"><ele>156.0</ele><time>2026-03-27T10:27:52Z</time></trkpt><trkpt lat="42.0221155188038" lon="12.245825266433268"><ele>158.0</ele><time>2026-03-27T10:27:53Z</time></trkpt><trkpt lat="42.022358964619684" lon="12.24580794968231"><ele>159.0</ele><time>2026-03-27T10:27:54Z</time></trkpt><trkpt lat="42.022596167593676" lon="12.245807092892466"><ele>160.0</ele><time>2026-03-27T10:27:55Z</time></trkpt><trkpt lat="42.0228229310807" lon="12.245795556627005"><ele>160.0</ele><time>2026-03-27T10:27:56Z</time></trkpt><trkpt lat="42.023032055647874" lon="12.2457927950274"><ele>160.0</ele><time>2026-03-27T10:27:57Z</time></trkpt><trkpt lat="42.0232561994669" lon="12.245784208959845"><ele>160.0</ele><time>2026-03-27T10:27:58Z</time></trkpt><trkpt lat="42.02345471422765" lon="12.24577930900107"><ele>161.0</ele><time>2026-03-27T10:27:59Z</time></trkpt><trkpt lat="42.02364821269914" lon="12.245773414559244"><ele>162.0</ele><time>2026-03-27T10:28:00Z</time></trkpt><trkpt lat="42.02383859490892" lon="12.245766603900297"><ele>163.0</ele><time>2026-03-27T10:28:01Z</time></trkpt><trkpt lat="42.0240172368538" lon="12.245760975475381"><ele>163.66666666666669</ele><time>2026-03-27T10:28:02Z</time></trkpt><trkpt lat="42.02420111150488" lon="12.245759017892949"><ele>164.33333333333334</ele><time>2026-03-27T10:28:03Z</time></trkpt><trkpt lat="42.02437784691254" lon="12.245778777683693"><ele>165.0</ele><time>2026-03-27T10:28:04Z</time></trkpt><trkpt lat="42.02457529913693" lon="12.24583768451253"><ele>165.0</ele><time>2026-03-27T10:28:05Z</time></trkpt><trkpt lat="42.024767103530074" lon="12.245919547401796"><ele>165.0</ele><time>2026-03-27T10:28:06Z</time></trkpt><trkpt lat="42.02495678201872" lon="12.24598910243053"><ele>165.0</ele><time>2026-03-27T10:28:07Z</time></trkpt><trkpt lat="42.02514175193325" lon="12.246054837084063"><ele>166.0</ele><time>2026-03-27T10:28:08Z</time></trkpt><trkpt lat="42.02530698155229" lon="12.246115836613836"><ele>167.0</ele><time>2026-03-27T10:28:09Z</time></trkpt><trkpt lat="42.02547829517986" lon="12.246174840867742"><ele>168.0</ele><time>2026-03-27T10:28:10Z</time></trkpt><trkpt lat="42.025659895870845" lon="12.246221884217766"><ele>168.66666666666666</ele><time>2026-03-27T10:28:11Z</time></trkpt><trkpt lat="42.02584978475209" lon="12.246284606791232"><ele>169.33333333333331</ele><time>2026-03-27T10:28:12Z</time></trkpt><trkpt lat="42.02606062875666" lon="12.246349782639918"><ele>170.0</ele><time>2026-03-27T10:28:13Z</time></trkpt><trkpt lat="42.0263118517195" lon="12.246422840625167"><ele>170.0</ele><time>2026-03-27T10:28:14Z</time></trkpt><trkpt lat="42.0265897684374" lon="12.246516449834141"><ele>170.0</ele><time>2026-03-27T10:28:15Z</time></trkpt><trkpt lat="42.02687552291691" lon="12.246626472017057"><ele>171.0</ele><time>2026-03-27T10:28:16Z</time></trkpt><trkpt lat="42.02711758091158" lon="12.246723687048828"><ele>172.0</ele><time>2026-03-27T10:28:17Z</time></trkpt><trkpt lat="42.02733634870577" lon="12.246799800526318"><ele>173.0</ele><time>2026-03-27T10:28:18Z</time></trkpt><trkpt lat="42.0275656414658" lon="12.246877947030182"><ele>174.0</ele><time>2026-03-27T10:28:19Z</time></trkpt><trkpt lat="42.02777870896907" lon="12.246956476301321"><ele>174.0</ele><time>2026-03-27T10:28:20Z</time></trkpt><trkpt lat="42.02798112601424" lon="12.247030157810723"><ele>174.0</ele><time>2026-03-27T10:28:21Z</time></trkpt><trkpt lat="42.02818092481746" lon="12.247100159933687"><ele>174.0</ele><time>2026-03-27T10:28:22Z</time></trkpt><trkpt lat="42.02837458651061" lon="12.247163624415734"><ele>174.66666666666666</ele><time>2026-03-27T10:28:23Z</time></trkpt><trkpt lat="42.028563200568726" lon="12.247226455132665"><ele>175.33333333333331</ele><time>2026-03-27T10:28:24Z</time></trkpt><trkpt lat="42.02876033630996" lon="12.247296587001902"><ele>176.0</ele><time>2026-03-27T10:28:25Z</time></trkpt><trkpt lat="42.02897036964011" lon="12.247368898954528"><ele>177.0</ele><time>2026-03-27T10:28:26Z</time></trkpt><trkpt lat="42.029183047375476" lon="12.247440558083412"><ele>178.0</ele><time>2026-03-27T10:28:27Z</time></trkpt><trkpt lat="42.029392641081074" lon="12.247509413663972"><ele>179.0</ele><time>2026-03-27T10:28:28Z</time></trkpt><trkpt lat="42.02959488249767" lon="12.247580521212804"><ele>179.0</ele><time>2026-03-27T10:28:29Z</time></trkpt><trkpt lat="42.02977308788648" lon="12.24764023020749"><ele>179.0</ele><time>2026-03-27T10:28:30Z</time></trkpt><trkpt lat="42.029940492200794" lon="12.247697652175727"><ele>179.0</ele><time>2026-03-27T10:28:31Z</time></trkpt><trkpt lat="42.03010521321918" lon="12.24775778302586"><ele>179.33333333333331</ele><time>2026-03-27T10:28:32Z</time></trkpt><trkpt lat="42.03026653878664" lon="12.247817491773267"><ele>179.66666666666666</ele><time>2026-03-27T10:28:33Z</time></trkpt><trkpt lat="42.030413487655956" lon="12.247869141170135"><ele>180.0</ele><time>2026-03-27T10:28:34Z</time></trkpt><trkpt lat="42.0305526134998" lon="12.247918356567025"><ele>180.0</ele><time>2026-03-27T10:28:35Z</time></trkpt><trkpt lat="42.030694313607576" lon="12.247971164967858"><ele>180.0</ele><time>2026-03-27T10:28:36Z</time></trkpt><trkpt lat="42.03082557685288" lon="12.248016866184992"><ele>180.0</ele><time>2026-03-27T10:28:37Z</time></trkpt><trkpt lat="42.0309491069756" lon="12.248061966830626"><ele>180.0</ele><time>2026-03-27T10:28:38Z</time></trkpt><trkpt lat="42.03106801020697" lon="12.248104998420589"><ele>180.5</ele><time>2026-03-27T10:28:39Z</time></trkpt><trkpt lat="42.031175318422974" lon="12.24814057254386"><ele>181.0</ele><time>2026-03-27T10:28:40Z</time></trkpt><trkpt lat="42.031274052812265" lon="12.248162827946246"><ele>181.5</ele><time>2026-03-27T10:28:41Z</time></trkpt><trkpt lat="42.03140142957421" lon="12.248213334808067"><ele>182.0</ele><time>2026-03-27T10:28:42Z</time></trkpt><trkpt lat="42.031519227989875" lon="12.248241173639405"><ele>182.0</ele><time>2026-03-27T10:28:43Z</time></trkpt><trkpt lat="42.03163495411962" lon="12.24828955078837"><ele>182.0</ele><time>2026-03-27T10:28:44Z</time></trkpt><trkpt lat="42.03178687629722" lon="12.248338407887736"><ele>182.0</ele><time>2026-03-27T10:28:45Z</time></trkpt><trkpt lat="42.031983626325314" lon="12.24839731968396"><ele>182.66666666666666</ele><time>2026-03-27T10:28:46Z</time></trkpt><trkpt lat="42.03220079096597" lon="12.248466878065564"><ele>183.33333333333334</ele><time>2026-03-27T10:28:47Z</time></trkpt><trkpt lat="42.0323728065956" lon="12.248550892907174"><ele>184.0</ele><time>2026-03-27T10:28:48Z</time></trkpt><trkpt lat="42.03255476633991" lon="12.248624419642528"><ele>186.0</ele><time>2026-03-27T10:28:49Z</time></trkpt><trkpt lat="42.03277680752803" lon="12.248709337341225"><ele>188.0</ele><time>2026-03-27T10:28:50Z</time></trkpt><trkpt lat="42.033023722497624" lon="12.248808472457053"><ele>188.0</ele><time>2026-03-27T10:28:51Z</time></trkpt><trkpt lat="42.03329305021121" lon="12.248920864734009"><ele>188.0</ele><time>2026-03-27T10:28:52Z</time></trkpt><trkpt lat="42.033526527521595" lon="12.249016615458826"><ele>188.0</ele><time>2026-03-27T10:28:53Z</time></trkpt><trkpt lat="42.03373082251629" lon="12.249108984532082"><ele>188.0</ele><time>2026-03-27T10:28:54Z</time></trkpt><trkpt lat="42.033931169880866" lon="12.249197722032646"><ele>188.0</ele><time>2026-03-27T10:28:55Z</time></trkpt><trkpt lat="42.034131946530614" lon="12.249290472497385"><ele>188.33333333333331</ele><time>2026-03-27T10:28:56Z</time></trkpt><trkpt lat="42.03434207736501" lon="12.249386205050723"><ele>188.66666666666666</ele><time>2026-03-27T10:28:57Z</time></trkpt><trkpt lat="42.03455553018499" lon="12.249476380174512"><ele>189.0</ele><time>2026-03-27T10:28:58Z</time></trkpt><trkpt lat="42.034788151690115" lon="12.249566198661624"><ele>190.0</ele><time>2026-03-27T10:28:59Z</time></trkpt><trkpt lat="42.03501937425081" lon="12.249659394763114"><ele>191.0</ele><time>2026-03-27T10:29:00Z</time></trkpt><trkpt lat="42.03525944964745" lon="12.24975857278446"><ele>190.0</ele><time>2026-03-27T10:29:01Z</time></trkpt><trkpt lat="42.03551412780506" lon="12.249860546717581"><ele>189.0</ele><time>2026-03-27T10:29:02Z</time></trkpt><trkpt lat="42.03574918524913" lon="12.249952640397101"><ele>189.5</ele><time>2026-03-27T10:29:03Z</time></trkpt><trkpt lat="42.035981052886086" lon="12.250034381626872"><ele>190.0</ele><time>2026-03-27T10:29:04Z</time></trkpt><trkpt lat="42.03620528658402" lon="12.250115522338447"><ele>190.0</ele><time>2026-03-27T10:29:05Z</time></trkpt><trkpt lat="42.036427343154806" lon="12.250195350812682"><ele>190.0</ele><time>2026-03-27T10:29:06Z</time></trkpt><trkpt lat="42.03665268287133" lon="12.250281237838095"><ele>190.0</ele><time>2026-03-27T10:29:07Z</time></trkpt><trkpt lat="42.036876857081396" lon="12.250367201336687"><ele>190.0</ele><time>2026-03-27T10:29:08Z</time></trkpt><trkpt lat="42.037096683055694" lon="12.250448685537163"><ele>190.0</ele><time>2026-03-27T10:29:09Z</time></trkpt><trkpt lat="42.037318548560634" lon="12.250528109091013"><ele>190.0</ele><time>2026-03-27T10:29:10Z</time></trkpt><trkpt lat="42.03755488292178" lon="12.250611878466048"><ele>188.5</ele><time>2026-03-27T10:29:11Z</time></trkpt><trkpt lat="42.03779064342828" lon="12.250696966975243"><ele>187.0</ele><time>2026-03-27T10:29:12Z</time></trkpt><trkpt lat="42.038009836397855" lon="12.250775839118877"><ele>187.0</ele><time>2026-03-27T10:29:13Z</time></trkpt><trkpt lat="42.03822446496517" lon="12.250854827988894"><ele>187.0</ele><time>2026-03-27T10:29:14Z</time></trkpt><trkpt lat="42.03844000030994" lon="12.250932390521534"><ele>187.0</ele><time>2026-03-27T10:29:15Z</time></trkpt><trkpt lat="42.03865448906533" lon="12.251009896844696"><ele>187.33333333333334</ele><time>2026-03-27T10:29:16Z</time></trkpt><trkpt lat="42.03886677800412" lon="12.251085487040298"><ele>187.66666666666666</ele><time>2026-03-27T10:29:17Z</time></trkpt><trkpt lat="42.039081359742376" lon="12.251163394972906"><ele>188.0</ele><time>2026-03-27T10:29:18Z</time></trkpt><trkpt lat="42.03929017484091" lon="12.251245223960515"><ele>188.0</ele><time>2026-03-27T10:29:19Z</time></trkpt><trkpt lat="42.03950060803686" lon="12.251327819375955"><ele>188.0</ele><time>2026-03-27T10:29:20Z</time></trkpt><trkpt lat="42.03970424803192" lon="12.25139444418645"><ele>188.0</ele><time>2026-03-27T10:29:21Z</time></trkpt><trkpt lat="42.03991128154931" lon="12.251448686144052"><ele>188.66666666666666</ele><time>2026-03-27T10:29:22Z</time></trkpt><trkpt lat="42.0401225584243" lon="12.251484587388786"><ele>189.33333333333334</ele><time>2026-03-27T10:29:23Z</time></trkpt><trkpt lat="42.040337947491665" lon="12.251493512248611"><ele>190.0</ele><time>2026-03-27T10:29:24Z</time></trkpt><trkpt lat="42.04056980947156" lon="12.251484223858855"><ele>190.0</ele><time>2026-03-27T10:29:25Z</time></trkpt><trkpt lat="42.04080239047057" lon="12.25147501794579"><ele>190.0</ele><time>2026-03-27T10:29:26Z</time></trkpt><trkpt lat="42.041009044511576" lon="12.25147122655403"><ele>190.0</ele><time>2026-03-27T10:29:27Z</time></trkpt><trkpt lat="42.04121279830435" lon="12.251473562896681"><ele>190.0</ele><time>2026-03-27T10:29:28Z</time></trkpt><trkpt lat="42.04140688980597" lon="12.251486807577002"><ele>190.0</ele><time>2026-03-27T10:29:29Z</time></trkpt><trkpt lat="42.041605201015265" lon="12.25151721046027"><ele>190.0</ele><time>2026-03-27T10:29:30Z</time></trkpt><trkpt lat="42.04180940395772" lon="12.251570231120894"><ele>190.33333333333334</ele><time>2026-03-27T10:29:31Z</time></trkpt><trkpt lat="42.0420241238156" lon="12.251649423003828"><ele>190.66666666666666</ele><time>2026-03-27T10:29:32Z</time></trkpt><trkpt lat="42.042233756764524" lon="12.251746982697815"><ele>191.0</ele><time>2026-03-27T10:29:33Z</time></trkpt><trkpt lat="42.04242846762044" lon="12.251843426407081"><ele>192.0</ele><time>2026-03-27T10:29:34Z</time></trkpt><trkpt lat="42.042626179720685" lon="12.251930534495674"><ele>193.0</ele><time>2026-03-27T10:29:35Z</time></trkpt><trkpt lat="42.04282125523674" lon="12.252011066535209"><ele>194.0</ele><time>2026-03-27T10:29:36Z</time></trkpt><trkpt lat="42.04302212929679" lon="12.252095740098772"><ele>194.0</ele><time>2026-03-27T10:29:37Z</time></trkpt><trkpt lat="42.04322144849615" lon="12.25217688790543"><ele>194.0</ele><time>2026-03-27T10:29:38Z</time></trkpt><trkpt lat="42.04342492772475" lon="12.252263570228093"><ele>194.0</ele><time>2026-03-27T10:29:39Z</time></trkpt><trkpt lat="42.04363593601464" lon="12.252351942737247"><ele>194.0</ele><time>2026-03-27T10:29:40Z</time></trkpt><trkpt lat="42.043843118452294" lon="12.252443844829385"><ele>194.0</ele><time>2026-03-27T10:29:41Z</time></trkpt><trkpt lat="42.044045893174115" lon="12.252530671189477"><ele>194.0</ele><time>2026-03-27T10:29:42Z</time></trkpt><trkpt lat="42.04425237945142" lon="12.252608803099077"><ele>195.0</ele><time>2026-03-27T10:29:43Z</time></trkpt><trkpt lat="42.0444620612516" lon="12.252663473857158"><ele>196.0</ele><time>2026-03-27T10:29:44Z</time></trkpt><trkpt lat="42.04468890372366" lon="12.252698195588923"><ele>197.0</ele><time>2026-03-27T10:29:45Z</time></trkpt><trkpt lat="42.04491536512437" lon="12.252718177318489"><ele>197.33333333333334</ele><time>2026-03-27T10:29:46Z</time></trkpt><trkpt lat="42.04513647718564" lon="12.252734233393982"><ele>197.66666666666669</ele><time>2026-03-27T10:29:47Z</time></trkpt><trkpt lat="42.04533232405719" lon="12.252753267520955"><ele>198.0</ele><time>2026-03-27T10:29:48Z</time></trkpt><trkpt lat="42.04552348837416" lon="12.252770138316704"><ele>198.0</ele><time>2026-03-27T10:29:49Z</time></trkpt><trkpt lat="42.045717678245204" lon="12.252794880256133"><ele>198.0</ele><time>2026-03-27T10:29:50Z</time></trkpt><trkpt lat="42.04590711054337" lon="12.25281213207902"><ele>198.0</ele><time>2026-03-27T10:29:51Z</time></trkpt><trkpt lat="42.04609374496894" lon="12.252804483075973"><ele>198.33333333333331</ele><time>2026-03-27T10:29:52Z</time></trkpt><trkpt lat="42.046307413943154" lon="12.252763905406328"><ele>198.66666666666666</ele><time>2026-03-27T10:29:53Z</time></trkpt><trkpt lat="42.046529332833714" lon="12.252700743932916"><ele>199.0</ele><time>2026-03-27T10:29:54Z</time></trkpt><trkpt lat="42.04674272827784" lon="12.252638784583828"><ele>199.0</ele><time>2026-03-27T10:29:55Z</time></trkpt><trkpt lat="42.0469402354509" lon="12.252588338733313"><ele>199.0</ele><time>2026-03-27T10:29:56Z</time></trkpt><trkpt lat="42.04712216707222" lon="12.252542403435154"><ele>199.0</ele><time>2026-03-27T10:29:57Z</time></trkpt><trkpt lat="42.0473080144453" lon="12.252488603620135"><ele>199.5</ele><time>2026-03-27T10:29:58Z</time></trkpt><trkpt lat="42.04747141260197" lon="12.25244259720633"><ele>200.0</ele><time>2026-03-27T10:29:59Z</time></trkpt><trkpt lat="42.04761631700762" lon="12.252406510365157"><ele>200.5</ele><time>2026-03-27T10:30:00Z</time></trkpt><trkpt lat="42.047741504684275" lon="12.252377807766683"><ele>201.0</ele><time>2026-03-27T10:30:01Z</time></trkpt><trkpt lat="42.04785368591901" lon="12.252359840716727"><ele>201.0</ele><time>2026-03-27T10:30:02Z</time></trkpt><trkpt lat="42.04795467862431" lon="12.25236529171848"><ele>201.0</ele><time>2026-03-27T10:30:03Z</time></trkpt><trkpt lat="42.048039100852435" lon="12.252390322142295"><ele>201.0</ele><time>2026-03-27T10:30:04Z</time></trkpt><trkpt lat="42.04810306419424" lon="12.252423253440416"><ele>201.0</ele><time>2026-03-27T10:30:05Z</time></trkpt><trkpt lat="42.04816830993896" lon="12.252477909869926"><ele>201.0</ele><time>2026-03-27T10:30:08Z</time></trkpt><trkpt lat="42.04823858239059" lon="12.252526299119614"><ele>201.0</ele><time>2026-03-27T10:30:26Z</time></trkpt><trkpt lat="42.048369820289246" lon="12.252490235686926"><ele>201.25</ele><time>2026-03-27T10:30:28Z</time></trkpt><trkpt lat="42.048469570075575" lon="12.252386995544143"><ele>201.5</ele><time>2026-03-27T10:30:29Z</time></trkpt><trkpt lat="42.04856520147756" lon="12.252287524783492"><ele>201.75</ele><time>2026-03-27T10:30:30Z</time></trkpt><trkpt lat="42.04869174595236" lon="12.252176189512717"><ele>202.0</ele><time>2026-03-27T10:30:31Z</time></trkpt><trkpt lat="42.048845706911884" lon="12.252025362607233"><ele>202.66666666666666</ele><time>2026-03-27T10:30:32Z</time></trkpt><trkpt lat="42.048975559759725" lon="12.251881609824954"><ele>203.33333333333331</ele><time>2026-03-27T10:30:33Z</time></trkpt><trkpt lat="42.04910824265887" lon="12.25171530305379"><ele>204.0</ele><time>2026-03-27T10:30:34Z</time></trkpt><trkpt lat="42.04922762875759" lon="12.251531918367583"><ele>205.33333333333331</ele><time>2026-03-27T10:30:35Z</time></trkpt><trkpt lat="42.04932516402731" lon="12.251352056860231"><ele>206.66666666666666</ele><time>2026-03-27T10:30:36Z</time></trkpt><trkpt lat="42.04939768980702" lon="12.2511570786507"><ele>208.0</ele><time>2026-03-27T10:30:37Z</time></trkpt><trkpt lat="42.04944311912963" lon="12.250922576576048"><ele>208.0</ele><time>2026-03-27T10:30:38Z</time></trkpt><trkpt lat="42.04948054561771" lon="12.250640712985895"><ele>208.0</ele><time>2026-03-27T10:30:39Z</time></trkpt><trkpt lat="42.04951030747028" lon="12.25035579479251"><ele>208.0</ele><time>2026-03-27T10:30:40Z</time></trkpt><trkpt lat="42.04952083864303" lon="12.250088405178175"><ele>209.0</ele><time>2026-03-27T10:30:41Z</time></trkpt><trkpt lat="42.049506067394695" lon="12.249850250784718"><ele>210.0</ele><time>2026-03-27T10:30:42Z</time></trkpt><trkpt lat="42.049483821506755" lon="12.249605781061485"><ele>211.0</ele><time>2026-03-27T10:30:43Z</time></trkpt><trkpt lat="42.049512118498264" lon="12.24933973644863"><ele>211.66666666666666</ele><time>2026-03-27T10:30:44Z</time></trkpt><trkpt lat="42.049575607673994" lon="12.249105127498645"><ele>212.33333333333331</ele><time>2026-03-27T10:30:45Z</time></trkpt><trkpt lat="42.049662915565165" lon="12.248847719104036"><ele>213.0</ele><time>2026-03-27T10:30:46Z</time></trkpt><trkpt lat="42.04975608846949" lon="12.248562501073692"><ele>214.5</ele><time>2026-03-27T10:30:47Z</time></trkpt><trkpt lat="42.049843014866084" lon="12.248251270142434"><ele>216.0</ele><time>2026-03-27T10:30:48Z</time></trkpt><trkpt lat="42.04993988839057" lon="12.247959460712663"><ele>216.5</ele><time>2026-03-27T10:30:49Z</time></trkpt><trkpt lat="42.05003095238899" lon="12.24767827980026"><ele>217.0</ele><time>2026-03-27T10:30:50Z</time></trkpt><trkpt lat="42.050133982928976" lon="12.24741328516872"><ele>216.66666666666666</ele><time>2026-03-27T10:30:51Z</time></trkpt><trkpt lat="42.05022057395009" lon="12.247153512254839"><ele>216.33333333333331</ele><time>2026-03-27T10:30:52Z</time></trkpt><trkpt lat="42.050287946424895" lon="12.246906715437166"><ele>216.0</ele><time>2026-03-27T10:30:53Z</time></trkpt><trkpt lat="42.050388313623195" lon="12.246659032385468"><ele>216.0</ele><time>2026-03-27T10:30:54Z</time></trkpt><trkpt lat="42.05046493788777" lon="12.246392208743837"><ele>216.0</ele><time>2026-03-27T10:30:55Z</time></trkpt><trkpt lat="42.05056080866051" lon="12.24613209834213"><ele>216.0</ele><time>2026-03-27T10:30:56Z</time></trkpt><trkpt lat="42.05065496993889" lon="12.245885575328051"><ele>216.0</ele><time>2026-03-27T10:30:57Z</time></trkpt><trkpt lat="42.05074635769225" lon="12.24565265441604"><ele>216.0</ele><time>2026-03-27T10:30:58Z</time></trkpt><trkpt lat="42.05083074548259" lon="12.245455617499214"><ele>216.0</ele><time>2026-03-27T10:30:59Z</time></trkpt><trkpt lat="42.05091294853338" lon="12.24526772803512"><ele>216.66666666666669</ele><time>2026-03-27T10:31:00Z</time></trkpt><trkpt lat="42.051004204593056" lon="12.245066921742783"><ele>217.33333333333334</ele><time>2026-03-27T10:31:01Z</time></trkpt><trkpt lat="42.05110405256253" lon="12.244853822916888"><ele>218.0</ele><time>2026-03-27T10:31:02Z</time></trkpt><trkpt lat="42.05122633295222" lon="12.24464559069658"><ele>218.0</ele><time>2026-03-27T10:31:03Z</time></trkpt><trkpt lat="42.05133899820869" lon="12.244430895943283"><ele>218.0</ele><time>2026-03-27T10:31:04Z</time></trkpt><trkpt lat="42.05145692636892" lon="12.244232660525983"><ele>218.0</ele><time>2026-03-27T10:31:05Z</time></trkpt><trkpt lat="42.051591070015235" lon="12.24403127058786"><ele>218.33333333333334</ele><time>2026-03-27T10:31:06Z</time></trkpt><trkpt lat="42.05174325064043" lon="12.24381151760587"><ele>218.66666666666669</ele><time>2026-03-27T10:31:07Z</time></trkpt><trkpt lat="42.05189981834411" lon="12.243591298533817"><ele>219.0</ele><time>2026-03-27T10:31:08Z</time></trkpt><trkpt lat="42.05203669843309" lon="12.24340269044138"><ele>219.0</ele><time>2026-03-27T10:31:09Z</time></trkpt><trkpt lat="42.0521566279316" lon="12.24320863961729"><ele>219.0</ele><time>2026-03-27T10:31:10Z</time></trkpt><trkpt lat="42.0522972227037" lon="12.243011032993644"><ele>219.0</ele><time>2026-03-27T10:31:11Z</time></trkpt><trkpt lat="42.05242487759874" lon="12.242786153951771"><ele>219.33333333333331</ele><time>2026-03-27T10:31:12Z</time></trkpt><trkpt lat="42.052538086659546" lon="12.242532928574533"><ele>219.66666666666666</ele><time>2026-03-27T10:31:13Z</time></trkpt><trkpt lat="42.052633545933" lon="12.24226047008001"><ele>220.0</ele><time>2026-03-27T10:31:14Z</time></trkpt><trkpt lat="42.052739026769515" lon="12.242019449815775"><ele>220.66666666666666</ele><time>2026-03-27T10:31:15Z</time></trkpt><trkpt lat="42.05281445247834" lon="12.24177386410164"><ele>221.33333333333331</ele><time>2026-03-27T10:31:16Z</time></trkpt><trkpt lat="42.05290003724459" lon="12.241564619209004"><ele>222.0</ele><time>2026-03-27T10:31:17Z</time></trkpt><trkpt lat="42.05300949110217" lon="12.241371269541824"><ele>222.66666666666669</ele><time>2026-03-27T10:31:18Z</time></trkpt><trkpt lat="42.053100803701824" lon="12.241143384060274"><ele>223.33333333333334</ele><time>2026-03-27T10:31:19Z</time></trkpt><trkpt lat="42.05320394206384" lon="12.240944287483691"><ele>224.0</ele><time>2026-03-27T10:31:20Z</time></trkpt><trkpt lat="42.053309168979595" lon="12.240738540708712"><ele>223.0</ele><time>2026-03-27T10:31:21Z</time></trkpt><trkpt lat="42.05342672126467" lon="12.240549654022967"><ele>222.0</ele><time>2026-03-27T10:31:22Z</time></trkpt><trkpt lat="42.053535307158846" lon="12.240349512463254"><ele>221.0</ele><time>2026-03-27T10:31:23Z</time></trkpt><trkpt lat="42.0536512311458" lon="12.240145024381421"><ele>221.0</ele><time>2026-03-27T10:31:24Z</time></trkpt><trkpt lat="42.05378680268345" lon="12.239935301697065"><ele>221.0</ele><time>2026-03-27T10:31:25Z</time></trkpt><trkpt lat="42.05392854971262" lon="12.239744100590364"><ele>221.0</ele><time>2026-03-27T10:31:26Z</time></trkpt><trkpt lat="42.0540861430807" lon="12.239558236662697"><ele>220.66666666666669</ele><time>2026-03-27T10:31:27Z</time></trkpt><trkpt lat="42.05424421347571" lon="12.239375830341578"><ele>220.33333333333331</ele><time>2026-03-27T10:31:28Z</time></trkpt><trkpt lat="42.054416151186345" lon="12.239179209138275"><ele>220.0</ele><time>2026-03-27T10:31:29Z</time></trkpt><trkpt lat="42.05461963074772" lon="12.238949172735584"><ele>219.0</ele><time>2026-03-27T10:31:30Z</time></trkpt><trkpt lat="42.054841253020456" lon="12.238704037352091"><ele>218.0</ele><time>2026-03-27T10:31:31Z</time></trkpt><trkpt lat="42.05506856299005" lon="12.238450247986174"><ele>219.0</ele><time>2026-03-27T10:31:32Z</time></trkpt><trkpt lat="42.055300659322576" lon="12.238213300220616"><ele>220.0</ele><time>2026-03-27T10:31:33Z</time></trkpt><trkpt lat="42.05551821919957" lon="12.237991645454082"><ele>220.0</ele><time>2026-03-27T10:31:34Z</time></trkpt><trkpt lat="42.05572818953771" lon="12.237813892079954"><ele>220.0</ele><time>2026-03-27T10:31:35Z</time></trkpt><trkpt lat="42.055914530823735" lon="12.237633003440722"><ele>220.66666666666666</ele><time>2026-03-27T10:31:36Z</time></trkpt><trkpt lat="42.056084929307346" lon="12.237437874099678"><ele>221.33333333333331</ele><time>2026-03-27T10:31:37Z</time></trkpt><trkpt lat="42.05625775350678" lon="12.237273061715827"><ele>222.0</ele><time>2026-03-27T10:31:38Z</time></trkpt><trkpt lat="42.05643400042238" lon="12.237098753694406"><ele>222.0</ele><time>2026-03-27T10:31:39Z</time></trkpt><trkpt lat="42.05661761659847" lon="12.236918147261196"><ele>222.0</ele><time>2026-03-27T10:31:40Z</time></trkpt><trkpt lat="42.05680546740391" lon="12.23673898499426"><ele>223.0</ele><time>2026-03-27T10:31:41Z</time></trkpt><trkpt lat="42.056989665258655" lon="12.236559276115385"><ele>224.0</ele><time>2026-03-27T10:31:42Z</time></trkpt><trkpt lat="42.05716345236232" lon="12.236380217417212"><ele>225.0</ele><time>2026-03-27T10:31:43Z</time></trkpt><trkpt lat="42.0573310439435" lon="12.236199942397292"><ele>226.0</ele><time>2026-03-27T10:31:44Z</time></trkpt><trkpt lat="42.057496227679835" lon="12.236011306380595"><ele>227.0</ele><time>2026-03-27T10:31:45Z</time></trkpt><trkpt lat="42.05766452536054" lon="12.235817173945259"><ele>228.0</ele><time>2026-03-27T10:31:46Z</time></trkpt><trkpt lat="42.057841427677616" lon="12.235632197786625"><ele>229.0</ele><time>2026-03-27T10:31:47Z</time></trkpt><trkpt lat="42.058026762878434" lon="12.235462183423195"><ele>230.0</ele><time>2026-03-27T10:31:48Z</time></trkpt><trkpt lat="42.05821919337346" lon="12.235299823942716"><ele>230.0</ele><time>2026-03-27T10:31:49Z</time></trkpt><trkpt lat="42.05843964532213" lon="12.235111888545218"><ele>230.0</ele><time>2026-03-27T10:31:50Z</time></trkpt><trkpt lat="42.05867814637698" lon="12.234898457624787"><ele>231.0</ele><time>2026-03-27T10:31:51Z</time></trkpt><trkpt lat="42.05890195748781" lon="12.234705438313743"><ele>232.0</ele><time>2026-03-27T10:31:52Z</time></trkpt><trkpt lat="42.05909891412097" lon="12.234537882376468"><ele>231.5</ele><time>2026-03-27T10:31:53Z</time></trkpt><trkpt lat="42.059292305077506" lon="12.234375861108779"><ele>231.0</ele><time>2026-03-27T10:31:54Z</time></trkpt><trkpt lat="42.05948608032014" lon="12.2342127985074"><ele>231.0</ele><time>2026-03-27T10:31:55Z</time></trkpt><trkpt lat="42.059680296667075" lon="12.234035922629113"><ele>231.0</ele><time>2026-03-27T10:31:56Z</time></trkpt><trkpt lat="42.059883155815925" lon="12.233844741971339"><ele>232.5</ele><time>2026-03-27T10:31:57Z</time></trkpt><trkpt lat="42.06009020454127" lon="12.23363024879644"><ele>234.0</ele><time>2026-03-27T10:31:58Z</time></trkpt><trkpt lat="42.06026604659242" lon="12.233426019149507"><ele>234.0</ele><time>2026-03-27T10:31:59Z</time></trkpt><trkpt lat="42.06042670209837" lon="12.233232744835224"><ele>234.0</ele><time>2026-03-27T10:32:00Z</time></trkpt><trkpt lat="42.06058902395766" lon="12.233041536581299"><ele>234.0</ele><time>2026-03-27T10:32:01Z</time></trkpt><trkpt lat="42.060768565708464" lon="12.232853029477209"><ele>235.0</ele><time>2026-03-27T10:32:02Z</time></trkpt><trkpt lat="42.06098462033558" lon="12.23270309526532"><ele>236.0</ele><time>2026-03-27T10:32:03Z</time></trkpt><trkpt lat="42.06119542184995" lon="12.232560911345859"><ele>236.0</ele><time>2026-03-27T10:32:04Z</time></trkpt><trkpt lat="42.061382044106736" lon="12.232413073859238"><ele>236.0</ele><time>2026-03-27T10:32:05Z</time></trkpt><trkpt lat="42.06156686894005" lon="12.232277151468923"><ele>236.0</ele><time>2026-03-27T10:32:06Z</time></trkpt><trkpt lat="42.06173837775199" lon="12.23210325529931"><ele>236.33333333333334</ele><time>2026-03-27T10:32:07Z</time></trkpt><trkpt lat="42.06189877489418" lon="12.231909308238123"><ele>236.66666666666669</ele><time>2026-03-27T10:32:08Z</time></trkpt><trkpt lat="42.062060911326746" lon="12.231706080561475"><ele>237.0</ele><time>2026-03-27T10:32:09Z</time></trkpt><trkpt lat="42.06222436495477" lon="12.231494058227872"><ele>237.5</ele><time>2026-03-27T10:32:10Z</time></trkpt><trkpt lat="42.06238099189047" lon="12.231265686578302"><ele>238.0</ele><time>2026-03-27T10:32:11Z</time></trkpt><trkpt lat="42.06252530291394" lon="12.231027994098868"><ele>238.0</ele><time>2026-03-27T10:32:12Z</time></trkpt><trkpt lat="42.062654381880925" lon="12.230803026913923"><ele>238.0</ele><time>2026-03-27T10:32:13Z</time></trkpt><trkpt lat="42.06276734584242" lon="12.230608146318483"><ele>238.0</ele><time>2026-03-27T10:32:14Z</time></trkpt><trkpt lat="42.06286762583239" lon="12.230433206178313"><ele>240.0</ele><time>2026-03-27T10:32:15Z</time></trkpt><trkpt lat="42.06294765279305" lon="12.230255285224152"><ele>242.0</ele><time>2026-03-27T10:32:16Z</time></trkpt><trkpt lat="42.06299576681205" lon="12.230047648221204"><ele>244.0</ele><time>2026-03-27T10:32:17Z</time></trkpt><trkpt lat="42.06302386037902" lon="12.229798251284139"><ele>245.0</ele><time>2026-03-27T10:32:18Z</time></trkpt><trkpt lat="42.06305574634735" lon="12.22948891908933"><ele>246.0</ele><time>2026-03-27T10:32:19Z</time></trkpt><trkpt lat="42.06312694172952" lon="12.229174899706063"><ele>246.66666666666669</ele><time>2026-03-27T10:32:20Z</time></trkpt><trkpt lat="42.06318038228368" lon="12.228903241486709"><ele>247.33333333333334</ele><time>2026-03-27T10:32:21Z</time></trkpt><trkpt lat="42.063230522086535" lon="12.228664568423083"><ele>248.0</ele><time>2026-03-27T10:32:22Z</time></trkpt><trkpt lat="42.06328260739435" lon="12.228437477722725"><ele>246.66666666666669</ele><time>2026-03-27T10:32:23Z</time></trkpt><trkpt lat="42.06333972219097" lon="12.228206206263387"><ele>245.33333333333331</ele><time>2026-03-27T10:32:24Z</time></trkpt><trkpt lat="42.063411316743085" lon="12.227970896020183"><ele>244.0</ele><time>2026-03-27T10:32:25Z</time></trkpt><trkpt lat="42.06349677589535" lon="12.22773167562166"><ele>244.0</ele><time>2026-03-27T10:32:26Z</time></trkpt><trkpt lat="42.06357678653635" lon="12.22749705705429"><ele>244.0</ele><time>2026-03-27T10:32:27Z</time></trkpt><trkpt lat="42.06367561097318" lon="12.227296972818925"><ele>244.0</ele><time>2026-03-27T10:32:28Z</time></trkpt><trkpt lat="42.06376938426967" lon="12.227085557678093"><ele>244.66666666666666</ele><time>2026-03-27T10:32:29Z</time></trkpt><trkpt lat="42.063850508791916" lon="12.226884648901823"><ele>245.33333333333331</ele><time>2026-03-27T10:32:30Z</time></trkpt><trkpt lat="42.06392899737666" lon="12.226688180101036"><ele>246.0</ele><time>2026-03-27T10:32:31Z</time></trkpt><trkpt lat="42.06399957221733" lon="12.226481914778107"><ele>246.66666666666669</ele><time>2026-03-27T10:32:32Z</time></trkpt><trkpt lat="42.0640556247937" lon="12.226257102610731"><ele>247.33333333333334</ele><time>2026-03-27T10:32:33Z</time></trkpt><trkpt lat="42.064101495060626" lon="12.22601909707072"><ele>248.0</ele><time>2026-03-27T10:32:34Z</time></trkpt><trkpt lat="42.064142669363314" lon="12.225788554481491"><ele>249.66666666666669</ele><time>2026-03-27T10:32:35Z</time></trkpt><trkpt lat="42.064186073225486" lon="12.225552715539743"><ele>251.33333333333331</ele><time>2026-03-27T10:32:36Z</time></trkpt><trkpt lat="42.06423663447572" lon="12.22531637855152"><ele>253.0</ele><time>2026-03-27T10:32:37Z</time></trkpt><trkpt lat="42.06428720120843" lon="12.22511355610909"><ele>253.0</ele><time>2026-03-27T10:32:38Z</time></trkpt><trkpt lat="42.06434692306965" lon="12.224910472084101"><ele>253.0</ele><time>2026-03-27T10:32:39Z</time></trkpt><trkpt lat="42.06441525022881" lon="12.22471068781364"><ele>253.0</ele><time>2026-03-27T10:32:40Z</time></trkpt><trkpt lat="42.06448953025392" lon="12.224521671365709"><ele>253.66666666666666</ele><time>2026-03-27T10:32:41Z</time></trkpt><trkpt lat="42.064590183855024" lon="12.224328998653514"><ele>254.33333333333331</ele><time>2026-03-27T10:32:42Z</time></trkpt><trkpt lat="42.064711149039944" lon="12.224145718825723"><ele>255.0</ele><time>2026-03-27T10:32:43Z</time></trkpt><trkpt lat="42.064854175613746" lon="12.223971302478319"><ele>251.33333333333331</ele><time>2026-03-27T10:32:44Z</time></trkpt><trkpt lat="42.06501225146439" lon="12.223798168059242"><ele>247.66666666666666</ele><time>2026-03-27T10:32:45Z</time></trkpt><trkpt lat="42.065184360620485" lon="12.223624084652364"><ele>244.0</ele><time>2026-03-27T10:32:46Z</time></trkpt><trkpt lat="42.06537644423798" lon="12.223449293986436"><ele>244.0</ele><time>2026-03-27T10:32:47Z</time></trkpt><trkpt lat="42.06555783635156" lon="12.223298972746454"><ele>244.0</ele><time>2026-03-27T10:32:48Z</time></trkpt><trkpt lat="42.065717123481846" lon="12.223172233615946"><ele>244.0</ele><time>2026-03-27T10:32:49Z</time></trkpt><trkpt lat="42.06588037187305" lon="12.223040458255158"><ele>243.33333333333331</ele><time>2026-03-27T10:32:50Z</time></trkpt><trkpt lat="42.06604021696659" lon="12.222907566796621"><ele>242.66666666666669</ele><time>2026-03-27T10:32:51Z</time></trkpt><trkpt lat="42.06620566070615" lon="12.222762980318373"><ele>242.0</ele><time>2026-03-27T10:32:52Z</time></trkpt><trkpt lat="42.066376686639444" lon="12.222622809868318"><ele>242.0</ele><time>2026-03-27T10:32:53Z</time></trkpt><trkpt lat="42.06656867950133" lon="12.22249900625076"><ele>242.0</ele><time>2026-03-27T10:32:54Z</time></trkpt><trkpt lat="42.066792917042896" lon="12.222399025363229"><ele>242.0</ele><time>2026-03-27T10:32:55Z</time></trkpt><trkpt lat="42.06703132704351" lon="12.222319137924055"><ele>243.33333333333334</ele><time>2026-03-27T10:32:56Z</time></trkpt><trkpt lat="42.06724782279853" lon="12.222256148804439"><ele>244.66666666666669</ele><time>2026-03-27T10:32:57Z</time></trkpt><trkpt lat="42.06746203313645" lon="12.222181505274557"><ele>246.0</ele><time>2026-03-27T10:32:58Z</time></trkpt><trkpt lat="42.067673554858686" lon="12.222101243597471"><ele>246.0</ele><time>2026-03-27T10:32:59Z</time></trkpt><trkpt lat="42.067876379724915" lon="12.222026675556876"><ele>246.0</ele><time>2026-03-27T10:33:00Z</time></trkpt><trkpt lat="42.068071296605815" lon="12.221947726699888"><ele>246.0</ele><time>2026-03-27T10:33:01Z</time></trkpt><trkpt lat="42.068262811443304" lon="12.221859963724373"><ele>247.0</ele><time>2026-03-27T10:33:02Z</time></trkpt><trkpt lat="42.068454455385954" lon="12.221760244809891"><ele>248.0</ele><time>2026-03-27T10:33:03Z</time></trkpt><trkpt lat="42.06864416658839" lon="12.221656149894715"><ele>249.0</ele><time>2026-03-27T10:33:04Z</time></trkpt><trkpt lat="42.06882668179521" lon="12.221564463960314"><ele>249.0</ele><time>2026-03-27T10:33:05Z</time></trkpt><trkpt lat="42.068994879880904" lon="12.221484074032098"><ele>249.0</ele><time>2026-03-27T10:33:06Z</time></trkpt><trkpt lat="42.06916007288422" lon="12.22138676360835"><ele>249.0</ele><time>2026-03-27T10:33:07Z</time></trkpt><trkpt lat="42.069321486954145" lon="12.22127147168107"><ele>251.66666666666669</ele><time>2026-03-27T10:33:08Z</time></trkpt><trkpt lat="42.0694795167107" lon="12.221136286207505"><ele>254.33333333333334</ele><time>2026-03-27T10:33:09Z</time></trkpt><trkpt lat="42.06963487958944" lon="12.22095950278662"><ele>257.0</ele><time>2026-03-27T10:33:10Z</time></trkpt><trkpt lat="42.06978311151625" lon="12.220761533419044"><ele>255.33333333333334</ele><time>2026-03-27T10:33:11Z</time></trkpt><trkpt lat="42.069910577819016" lon="12.22057492374158"><ele>253.66666666666669</ele><time>2026-03-27T10:33:12Z</time></trkpt><trkpt lat="42.07002572178247" lon="12.22039402688797"><ele>252.0</ele><time>2026-03-27T10:33:13Z</time></trkpt><trkpt lat="42.07013776989972" lon="12.220190732983168"><ele>252.0</ele><time>2026-03-27T10:33:14Z</time></trkpt><trkpt lat="42.070257566151874" lon="12.219955908076056"><ele>252.0</ele><time>2026-03-27T10:33:15Z</time></trkpt><trkpt lat="42.07039302080971" lon="12.21968119498164"><ele>251.66666666666669</ele><time>2026-03-27T10:33:16Z</time></trkpt><trkpt lat="42.0705216279037" lon="12.219420217666523"><ele>251.33333333333334</ele><time>2026-03-27T10:33:17Z</time></trkpt><trkpt lat="42.07063230763466" lon="12.219195411834205"><ele>251.0</ele><time>2026-03-27T10:33:18Z</time></trkpt><trkpt lat="42.07074382427738" lon="12.218971840425226"><ele>249.33333333333334</ele><time>2026-03-27T10:33:19Z</time></trkpt><trkpt lat="42.07085651876169" lon="12.218749200645416"><ele>247.66666666666669</ele><time>2026-03-27T10:33:20Z</time></trkpt><trkpt lat="42.0709700508274" lon="12.21852841768983"><ele>246.0</ele><time>2026-03-27T10:33:21Z</time></trkpt><trkpt lat="42.07109834836147" lon="12.218288231018056"><ele>245.66666666666669</ele><time>2026-03-27T10:33:22Z</time></trkpt><trkpt lat="42.071225383809" lon="12.218055975171213"><ele>245.33333333333334</ele><time>2026-03-27T10:33:23Z</time></trkpt><trkpt lat="42.071355801087755" lon="12.217827367482924"><ele>245.0</ele><time>2026-03-27T10:33:24Z</time></trkpt><trkpt lat="42.071503853689954" lon="12.217607640673387"><ele>244.66666666666669</ele><time>2026-03-27T10:33:25Z</time></trkpt><trkpt lat="42.07166085370248" lon="12.21738559256578"><ele>244.33333333333331</ele><time>2026-03-27T10:33:26Z</time></trkpt><trkpt lat="42.07181922590926" lon="12.217178685778029"><ele>244.0</ele><time>2026-03-27T10:33:27Z</time></trkpt><trkpt lat="42.071980527448936" lon="12.216988597797364"><ele>244.0</ele><time>2026-03-27T10:33:28Z</time></trkpt><trkpt lat="42.07214179213928" lon="12.216814243748459"><ele>244.0</ele><time>2026-03-27T10:33:29Z</time></trkpt><trkpt lat="42.07231057797353" lon="12.216647158787103"><ele>244.0</ele><time>2026-03-27T10:33:30Z</time></trkpt><trkpt lat="42.07249043222631" lon="12.216466550666732"><ele>244.33333333333331</ele><time>2026-03-27T10:33:31Z</time></trkpt><trkpt lat="42.07266049203435" lon="12.21628783244547"><ele>244.66666666666669</ele><time>2026-03-27T10:33:32Z</time></trkpt><trkpt lat="42.07283201472451" lon="12.216111857395527"><ele>245.0</ele><time>2026-03-27T10:33:33Z</time></trkpt><trkpt lat="42.073015867687744" lon="12.215919291251478"><ele>245.0</ele><time>2026-03-27T10:33:34Z</time></trkpt><trkpt lat="42.073242588261934" lon="12.21570678319328"><ele>245.0</ele><time>2026-03-27T10:33:35Z</time></trkpt><trkpt lat="42.07348765434675" lon="12.215444643669107"><ele>245.0</ele><time>2026-03-27T10:33:36Z</time></trkpt><trkpt lat="42.073734287564896" lon="12.21516859185762"><ele>245.0</ele><time>2026-03-27T10:33:37Z</time></trkpt><trkpt lat="42.07397535279203" lon="12.214899987982152"><ele>245.0</ele><time>2026-03-27T10:33:38Z</time></trkpt><trkpt lat="42.07418016286969" lon="12.214656069432559"><ele>245.0</ele><time>2026-03-27T10:33:39Z</time></trkpt><trkpt lat="42.07437686321909" lon="12.214446604472682"><ele>245.0</ele><time>2026-03-27T10:33:40Z</time></trkpt><trkpt lat="42.07455908551437" lon="12.21425173655699"><ele>245.0</ele><time>2026-03-27T10:33:41Z</time></trkpt><trkpt lat="42.07474408355239" lon="12.214047292503286"><ele>244.5</ele><time>2026-03-27T10:33:42Z</time></trkpt><trkpt lat="42.07491874839869" lon="12.21384600147626"><ele>244.0</ele><time>2026-03-27T10:33:43Z</time></trkpt><trkpt lat="42.07508146800617" lon="12.213629367365712"><ele>245.0</ele><time>2026-03-27T10:33:44Z</time></trkpt><trkpt lat="42.07523069962948" lon="12.21338572881004"><ele>246.0</ele><time>2026-03-27T10:33:45Z</time></trkpt><trkpt lat="42.07538871223264" lon="12.213152913218181"><ele>246.5</ele><time>2026-03-27T10:33:46Z</time></trkpt><trkpt lat="42.07553490720907" lon="12.212917288784253"><ele>247.0</ele><time>2026-03-27T10:33:47Z</time></trkpt><trkpt lat="42.07568408453725" lon="12.212675889461693"><ele>247.0</ele><time>2026-03-27T10:33:48Z</time></trkpt><trkpt lat="42.07581957491065" lon="12.212420960310036"><ele>247.0</ele><time>2026-03-27T10:33:49Z</time></trkpt><trkpt lat="42.07597177089468" lon="12.212183179234774"><ele>247.0</ele><time>2026-03-27T10:33:50Z</time></trkpt><trkpt lat="42.076117495912875" lon="12.211946333697206"><ele>247.0</ele><time>2026-03-27T10:33:51Z</time></trkpt><trkpt lat="42.07624837471326" lon="12.211727354972625"><ele>247.0</ele><time>2026-03-27T10:33:52Z</time></trkpt><trkpt lat="42.07636488491648" lon="12.211526991583975"><ele>247.66666666666666</ele><time>2026-03-27T10:33:53Z</time></trkpt><trkpt lat="42.076466781152575" lon="12.211330912623588"><ele>248.33333333333331</ele><time>2026-03-27T10:33:54Z</time></trkpt><trkpt lat="42.07655935292852" lon="12.211119866452103"><ele>249.0</ele><time>2026-03-27T10:33:55Z</time></trkpt><trkpt lat="42.07664494527079" lon="12.210896532039646"><ele>249.33333333333331</ele><time>2026-03-27T10:33:56Z</time></trkpt><trkpt lat="42.076733263773626" lon="12.210634349614255"><ele>249.66666666666666</ele><time>2026-03-27T10:33:57Z</time></trkpt><trkpt lat="42.07682261663103" lon="12.210369612931137"><ele>250.0</ele><time>2026-03-27T10:33:58Z</time></trkpt><trkpt lat="42.07690222656631" lon="12.210139925287196"><ele>250.0</ele><time>2026-03-27T10:33:59Z</time></trkpt><trkpt lat="42.076977850039235" lon="12.20991371154346"><ele>250.0</ele><time>2026-03-27T10:34:00Z</time></trkpt><trkpt lat="42.07706178419365" lon="12.209682128274434"><ele>250.0</ele><time>2026-03-27T10:34:01Z</time></trkpt><trkpt lat="42.07714547945314" lon="12.209432470085014"><ele>249.66666666666666</ele><time>2026-03-27T10:34:02Z</time></trkpt><trkpt lat="42.077223779399056" lon="12.209180108917433"><ele>249.33333333333331</ele><time>2026-03-27T10:34:03Z</time></trkpt><trkpt lat="42.07732046168673" lon="12.20894671673933"><ele>249.0</ele><time>2026-03-27T10:34:04Z</time></trkpt><trkpt lat="42.07738811984091" lon="12.208692937794272"><ele>249.0</ele><time>2026-03-27T10:34:05Z</time></trkpt><trkpt lat="42.07747214989086" lon="12.208446910904705"><ele>249.0</ele><time>2026-03-27T10:34:06Z</time></trkpt><trkpt lat="42.0775530215017" lon="12.208202387090573"><ele>249.0</ele><time>2026-03-27T10:34:07Z</time></trkpt><trkpt lat="42.077634868542255" lon="12.207957612380328"><ele>249.0</ele><time>2026-03-27T10:34:08Z</time></trkpt><trkpt lat="42.07771583530656" lon="12.20772189598136"><ele>249.0</ele><time>2026-03-27T10:34:09Z</time></trkpt><trkpt lat="42.077800382213894" lon="12.207480799193208"><ele>249.0</ele><time>2026-03-27T10:34:10Z</time></trkpt><trkpt lat="42.07789720742739" lon="12.207227767304124"><ele>248.66666666666669</ele><time>2026-03-27T10:34:11Z</time></trkpt><trkpt lat="42.07801764608698" lon="12.20702016143865"><ele>248.33333333333334</ele><time>2026-03-27T10:34:12Z</time></trkpt><trkpt lat="42.07812360550899" lon="12.206816401969073"><ele>248.0</ele><time>2026-03-27T10:34:13Z</time></trkpt><trkpt lat="42.07825351646893" lon="12.20659555791851"><ele>247.5</ele><time>2026-03-27T10:34:14Z</time></trkpt><trkpt lat="42.07840735958396" lon="12.206358212917864"><ele>247.0</ele><time>2026-03-27T10:34:15Z</time></trkpt><trkpt lat="42.07854358661565" lon="12.20612853683977"><ele>247.0</ele><time>2026-03-27T10:34:16Z</time></trkpt><trkpt lat="42.078677586464536" lon="12.205937986854291"><ele>247.0</ele><time>2026-03-27T10:34:17Z</time></trkpt><trkpt lat="42.078812183461714" lon="12.205715971812237"><ele>247.0</ele><time>2026-03-27T10:34:18Z</time></trkpt><trkpt lat="42.078935570457226" lon="12.20547905023098"><ele>247.0</ele><time>2026-03-27T10:34:19Z</time></trkpt><trkpt lat="42.07905011717826" lon="12.2052364133182"><ele>247.0</ele><time>2026-03-27T10:34:20Z</time></trkpt><trkpt lat="42.07914960467897" lon="12.205006270396032"><ele>247.0</ele><time>2026-03-27T10:34:21Z</time></trkpt><trkpt lat="42.079244185226536" lon="12.204795557163754"><ele>247.0</ele><time>2026-03-27T10:34:22Z</time></trkpt><trkpt lat="42.079328524625595" lon="12.204600139205576"><ele>247.0</ele><time>2026-03-27T10:34:23Z</time></trkpt><trkpt lat="42.079402616257795" lon="12.204415355231324"><ele>247.0</ele><time>2026-03-27T10:34:24Z</time></trkpt><trkpt lat="42.07946569066369" lon="12.20423171248939"><ele>247.0</ele><time>2026-03-27T10:34:25Z</time></trkpt><trkpt lat="42.07954252848801" lon="12.204025895358152"><ele>247.0</ele><time>2026-03-27T10:34:26Z</time></trkpt><trkpt lat="42.07961346893474" lon="12.203814606138822"><ele>247.0</ele><time>2026-03-27T10:34:27Z</time></trkpt><trkpt lat="42.07969162967242" lon="12.20362224956093"><ele>247.0</ele><time>2026-03-27T10:34:28Z</time></trkpt><trkpt lat="42.07976969033388" lon="12.20340579474632"><ele>247.0</ele><time>2026-03-27T10:34:29Z</time></trkpt><trkpt lat="42.07986786633617" lon="12.203123036052768"><ele>247.0</ele><time>2026-03-27T10:34:30Z</time></trkpt><trkpt lat="42.079985673399804" lon="12.202800722113716"><ele>247.5</ele><time>2026-03-27T10:34:31Z</time></trkpt><trkpt lat="42.08011162694144" lon="12.202509763432051"><ele>248.0</ele><time>2026-03-27T10:34:32Z</time></trkpt><trkpt lat="42.08022693698656" lon="12.202268906637762"><ele>248.0</ele><time>2026-03-27T10:34:33Z</time></trkpt><trkpt lat="42.08033925617307" lon="12.202040808140781"><ele>248.0</ele><time>2026-03-27T10:34:34Z</time></trkpt><trkpt lat="42.080456979514665" lon="12.201814342730746"><ele>248.0</ele><time>2026-03-27T10:34:35Z</time></trkpt><trkpt lat="42.08058603184582" lon="12.201576984934762"><ele>247.0</ele><time>2026-03-27T10:34:36Z</time></trkpt><trkpt lat="42.08071680142598" lon="12.20134109148805"><ele>246.0</ele><time>2026-03-27T10:34:37Z</time></trkpt><trkpt lat="42.08084672469712" lon="12.201103266991666"><ele>245.0</ele><time>2026-03-27T10:34:38Z</time></trkpt><trkpt lat="42.08097565292141" lon="12.200852193743122"><ele>246.5</ele><time>2026-03-27T10:34:39Z</time></trkpt><trkpt lat="42.081104912039876" lon="12.20060794070542"><ele>248.0</ele><time>2026-03-27T10:34:40Z</time></trkpt><trkpt lat="42.08124470597994" lon="12.200365199877867"><ele>248.0</ele><time>2026-03-27T10:34:41Z</time></trkpt><trkpt lat="42.08136943730049" lon="12.200133357849115"><ele>248.0</ele><time>2026-03-27T10:34:42Z</time></trkpt><trkpt lat="42.0814884079405" lon="12.199904129412856"><ele>248.0</ele><time>2026-03-27T10:34:43Z</time></trkpt><trkpt lat="42.081616151584534" lon="12.199681101725753"><ele>248.33333333333334</ele><time>2026-03-27T10:34:44Z</time></trkpt><trkpt lat="42.08174562634554" lon="12.19947693147472"><ele>248.66666666666669</ele><time>2026-03-27T10:34:45Z</time></trkpt><trkpt lat="42.08188260094519" lon="12.199291479305716"><ele>249.0</ele><time>2026-03-27T10:34:46Z</time></trkpt><trkpt lat="42.08204568073226" lon="12.199110143950621"><ele>248.66666666666669</ele><time>2026-03-27T10:34:47Z</time></trkpt><trkpt lat="42.0822132648483" lon="12.198942798939715"><ele>248.33333333333334</ele><time>2026-03-27T10:34:48Z</time></trkpt><trkpt lat="42.08236830854251" lon="12.19878283637424"><ele>248.0</ele><time>2026-03-27T10:34:49Z</time></trkpt><trkpt lat="42.08251564541992" lon="12.198608557131863"><ele>247.33333333333334</ele><time>2026-03-27T10:34:50Z</time></trkpt><trkpt lat="42.08264606156988" lon="12.198438317925277"><ele>246.66666666666669</ele><time>2026-03-27T10:34:51Z</time></trkpt><trkpt lat="42.08276940382211" lon="12.198257665362618"><ele>246.0</ele><time>2026-03-27T10:34:52Z</time></trkpt><trkpt lat="42.08289695171734" lon="12.198068213898738"><ele>245.66666666666669</ele><time>2026-03-27T10:34:53Z</time></trkpt><trkpt lat="42.0830157462675" lon="12.197893995774518"><ele>245.33333333333334</ele><time>2026-03-27T10:34:54Z</time></trkpt><trkpt lat="42.08312412685136" lon="12.197727210872348"><ele>245.0</ele><time>2026-03-27T10:34:55Z</time></trkpt><trkpt lat="42.0832265011697" lon="12.197550125275436"><ele>245.0</ele><time>2026-03-27T10:34:56Z</time></trkpt><trkpt lat="42.08332121926615" lon="12.197365090695337"><ele>245.0</ele><time>2026-03-27T10:34:57Z</time></trkpt><trkpt lat="42.08341874901855" lon="12.197139484684923"><ele>245.0</ele><time>2026-03-27T10:34:58Z</time></trkpt><trkpt lat="42.08350682954776" lon="12.196875733277222"><ele>245.0</ele><time>2026-03-27T10:34:59Z</time></trkpt><trkpt lat="42.08357109076043" lon="12.196622132411846"><ele>245.0</ele><time>2026-03-27T10:35:00Z</time></trkpt><trkpt lat="42.08362879564802" lon="12.196381893873493"><ele>245.0</ele><time>2026-03-27T10:35:01Z</time></trkpt><trkpt lat="42.083682500138536" lon="12.196156342821983"><ele>243.66666666666669</ele><time>2026-03-27T10:35:02Z</time></trkpt><trkpt lat="42.08373573979377" lon="12.195940532947937"><ele>242.33333333333331</ele><time>2026-03-27T10:35:03Z</time></trkpt><trkpt lat="42.08377791581772" lon="12.195750974322861"><ele>241.0</ele><time>2026-03-27T10:35:04Z</time></trkpt><trkpt lat="42.08382643245781" lon="12.195552234866089"><ele>240.33333333333331</ele><time>2026-03-27T10:35:05Z</time></trkpt><trkpt lat="42.08387960409189" lon="12.195355395773023"><ele>239.66666666666669</ele><time>2026-03-27T10:35:06Z</time></trkpt><trkpt lat="42.08392910859187" lon="12.195148570905257"><ele>239.0</ele><time>2026-03-27T10:35:07Z</time></trkpt><trkpt lat="42.083982170358134" lon="12.194939024203645"><ele>239.0</ele><time>2026-03-27T10:35:08Z</time></trkpt><trkpt lat="42.0840298727486" lon="12.194721005048194"><ele>239.0</ele><time>2026-03-27T10:35:09Z</time></trkpt><trkpt lat="42.08408559254217" lon="12.194504350666316"><ele>239.0</ele><time>2026-03-27T10:35:10Z</time></trkpt><trkpt lat="42.08412843848412" lon="12.194305484375334"><ele>238.66666666666669</ele><time>2026-03-27T10:35:11Z</time></trkpt><trkpt lat="42.08417758884289" lon="12.194119754181669"><ele>238.33333333333331</ele><time>2026-03-27T10:35:12Z</time></trkpt><trkpt lat="42.084222834945905" lon="12.193911853818562"><ele>238.0</ele><time>2026-03-27T10:35:13Z</time></trkpt><trkpt lat="42.08427881127544" lon="12.193674386805952"><ele>238.0</ele><time>2026-03-27T10:35:14Z</time></trkpt><trkpt lat="42.08434054294778" lon="12.193433196298551"><ele>238.0</ele><time>2026-03-27T10:35:15Z</time></trkpt><trkpt lat="42.08439761799636" lon="12.193185369392426"><ele>238.0</ele><time>2026-03-27T10:35:16Z</time></trkpt><trkpt lat="42.08444344668134" lon="12.192959553869114"><ele>238.0</ele><time>2026-03-27T10:35:17Z</time></trkpt><trkpt lat="42.08448951634731" lon="12.192702867764968"><ele>238.0</ele><time>2026-03-27T10:35:18Z</time></trkpt><trkpt lat="42.084521433189614" lon="12.192466941944213"><ele>238.0</ele><time>2026-03-27T10:35:19Z</time></trkpt><trkpt lat="42.084543279487924" lon="12.19225588242535"><ele>238.0</ele><time>2026-03-27T10:35:20Z</time></trkpt><trkpt lat="42.08456184017064" lon="12.192058530675906"><ele>238.0</ele><time>2026-03-27T10:35:21Z</time></trkpt><trkpt lat="42.08457929945652" lon="12.191880282452477"><ele>238.0</ele><time>2026-03-27T10:35:22Z</time></trkpt><trkpt lat="42.08461060034463" lon="12.191703479127606"><ele>238.0</ele><time>2026-03-27T10:35:23Z</time></trkpt><trkpt lat="42.084656535313655" lon="12.191525066929296"><ele>239.0</ele><time>2026-03-27T10:35:24Z</time></trkpt><trkpt lat="42.0847033665894" lon="12.191378588516585"><ele>240.0</ele><time>2026-03-27T10:35:25Z</time></trkpt><trkpt lat="42.08474627171189" lon="12.191265546742954"><ele>241.0</ele><time>2026-03-27T10:35:26Z</time></trkpt><trkpt lat="42.08480168423353" lon="12.191178392425352"><ele>242.0</ele><time>2026-03-27T10:35:27Z</time></trkpt><trkpt lat="42.08484268483975" lon="12.19106471754171"><ele>243.0</ele><time>2026-03-27T10:35:28Z</time></trkpt><trkpt lat="42.08489277294524" lon="12.190925290547153"><ele>242.25</ele><time>2026-03-27T10:35:29Z</time></trkpt><trkpt lat="42.084951447206016" lon="12.190758793760812"><ele>241.5</ele><time>2026-03-27T10:35:30Z</time></trkpt><trkpt lat="42.08500276925511" lon="12.190613159959744"><ele>240.75</ele><time>2026-03-27T10:35:31Z</time></trkpt><trkpt lat="42.085049825580604" lon="12.19047963077506"><ele>240.0</ele><time>2026-03-27T10:35:32Z</time></trkpt><trkpt lat="42.08509607025856" lon="12.190348404630804"><ele>240.0</ele><time>2026-03-27T10:35:33Z</time></trkpt><trkpt lat="42.085122516926944" lon="12.190188784156973"><ele>240.0</ele><time>2026-03-27T10:35:34Z</time></trkpt><trkpt lat="42.08517699350832" lon="12.190026508051982"><ele>240.0</ele><time>2026-03-27T10:35:35Z</time></trkpt><trkpt lat="42.08522913943516" lon="12.18986699011765"><ele>240.0</ele><time>2026-03-27T10:35:36Z</time></trkpt><trkpt lat="42.08527753502887" lon="12.189720472629988"><ele>240.75</ele><time>2026-03-27T10:35:37Z</time></trkpt><trkpt lat="42.08534821830465" lon="12.189564710450336"><ele>241.5</ele><time>2026-03-27T10:35:38Z</time></trkpt><trkpt lat="42.08540264300284" lon="12.189388344037843"><ele>242.25</ele><time>2026-03-27T10:35:39Z</time></trkpt><trkpt lat="42.08545096946075" lon="12.18923088472681"><ele>243.0</ele><time>2026-03-27T10:35:40Z</time></trkpt><trkpt lat="42.08549532857068" lon="12.189084887897923"><ele>244.0</ele><time>2026-03-27T10:35:41Z</time></trkpt><trkpt lat="42.08553620305905" lon="12.188947058394152"><ele>245.0</ele><time>2026-03-27T10:35:42Z</time></trkpt><trkpt lat="42.085573596116554" lon="12.188818721126646"><ele>246.0</ele><time>2026-03-27T10:35:43Z</time></trkpt><trkpt lat="42.08561340096066" lon="12.188680571561273"><ele>247.0</ele><time>2026-03-27T10:35:44Z</time></trkpt><trkpt lat="42.08566141435421" lon="12.188508121773586"><ele>247.0</ele><time>2026-03-27T10:35:45Z</time></trkpt><trkpt lat="42.085702965229956" lon="12.188349298411788"><ele>247.0</ele><time>2026-03-27T10:35:46Z</time></trkpt><trkpt lat="42.08574009222761" lon="12.188200761271505"><ele>247.0</ele><time>2026-03-27T10:35:47Z</time></trkpt><trkpt lat="42.0857787585425" lon="12.188046065666617"><ele>247.0</ele><time>2026-03-27T10:35:48Z</time></trkpt><trkpt lat="42.08581920214317" lon="12.187884471956123"><ele>246.25</ele><time>2026-03-27T10:35:49Z</time></trkpt><trkpt lat="42.08585662943699" lon="12.18773698875142"><ele>245.5</ele><time>2026-03-27T10:35:50Z</time></trkpt><trkpt lat="42.08589469970468" lon="12.187586788455274"><ele>244.75</ele><time>2026-03-27T10:35:51Z</time></trkpt><trkpt lat="42.08593938896702" lon="12.187415258572736"><ele>244.0</ele><time>2026-03-27T10:35:52Z</time></trkpt><trkpt lat="42.085983291125594" lon="12.187252215829531"><ele>244.0</ele><time>2026-03-27T10:35:53Z</time></trkpt><trkpt lat="42.08602573907619" lon="12.18710060470063"><ele>244.0</ele><time>2026-03-27T10:35:54Z</time></trkpt><trkpt lat="42.08607003613318" lon="12.186952462869732"><ele>244.0</ele><time>2026-03-27T10:35:55Z</time></trkpt><trkpt lat="42.08611835989805" lon="12.18680946102881"><ele>244.0</ele><time>2026-03-27T10:35:56Z</time></trkpt><trkpt lat="42.086167161920805" lon="12.18668456027163"><ele>244.0</ele><time>2026-03-27T10:35:57Z</time></trkpt><trkpt lat="42.08621920948929" lon="12.186563968083345"><ele>243.99999999999997</ele><time>2026-03-27T10:35:58Z</time></trkpt><trkpt lat="42.086269039846314" lon="12.18646000510711"><ele>243.99999999999997</ele><time>2026-03-27T10:35:59Z</time></trkpt><trkpt lat="42.086308984630634" lon="12.186346720133074"><ele>244.0</ele><time>2026-03-27T10:36:00Z</time></trkpt><trkpt lat="42.0863700764001" lon="12.186241755200315"><ele>244.0</ele><time>2026-03-27T10:36:01Z</time></trkpt><trkpt lat="42.08642180547972" lon="12.186156204009167"><ele>243.99999999999997</ele><time>2026-03-27T10:36:02Z</time></trkpt><trkpt lat="42.086463442348105" lon="12.186082951073729"><ele>244.0</ele><time>2026-03-27T10:36:03Z</time></trkpt><trkpt lat="42.08650973733429" lon="12.186005597123758"><ele>244.0</ele><time>2026-03-27T10:36:04Z</time></trkpt><trkpt lat="42.08657423807311" lon="12.185913222273104"><ele>244.0</ele><time>2026-03-27T10:36:05Z</time></trkpt><trkpt lat="42.08663960849329" lon="12.185811022631302"><ele>243.99999999999997</ele><time>2026-03-27T10:36:06Z</time></trkpt><trkpt lat="42.086717911776056" lon="12.185701689755483"><ele>244.0</ele><time>2026-03-27T10:36:07Z</time></trkpt><trkpt lat="42.08678318171782" lon="12.185600968806039"><ele>243.6</ele><time>2026-03-27T10:36:08Z</time></trkpt><trkpt lat="42.086848874433365" lon="12.185511650107838"><ele>243.2</ele><time>2026-03-27T10:36:09Z</time></trkpt><trkpt lat="42.086920228642484" lon="12.185403784824643"><ele>242.79999999999998</ele><time>2026-03-27T10:36:10Z</time></trkpt><trkpt lat="42.08700237636183" lon="12.185301818819081"><ele>242.39999999999998</ele><time>2026-03-27T10:36:11Z</time></trkpt><trkpt lat="42.08708325270706" lon="12.185193358577445"><ele>242.0</ele><time>2026-03-27T10:36:12Z</time></trkpt><trkpt lat="42.087156750974835" lon="12.185100982136417"><ele>242.00000000000003</ele><time>2026-03-27T10:36:13Z</time></trkpt><trkpt lat="42.08721570065868" lon="12.185018289130815"><ele>242.0</ele><time>2026-03-27T10:36:14Z</time></trkpt><trkpt lat="42.087272128552094" lon="12.184938411716619"><ele>242.0</ele><time>2026-03-27T10:36:15Z</time></trkpt><trkpt lat="42.08732631039883" lon="12.184863241450085"><ele>242.0</ele><time>2026-03-27T10:36:16Z</time></trkpt><trkpt lat="42.08737168420217" lon="12.18479831150012"><ele>242.00000000000003</ele><time>2026-03-27T10:36:17Z</time></trkpt><trkpt lat="42.08745790664353" lon="12.1847184982441"><ele>242.0</ele><time>2026-03-27T10:36:19Z</time></trkpt><trkpt lat="42.08751484485631" lon="12.18465805175681"><ele>241.8</ele><time>2026-03-27T10:36:20Z</time></trkpt><trkpt lat="42.08756467151471" lon="12.184602336959298"><ele>241.6</ele><time>2026-03-27T10:36:21Z</time></trkpt><trkpt lat="42.08764338490392" lon="12.184562804890056"><ele>241.40000000000003</ele><time>2026-03-27T10:36:23Z</time></trkpt><trkpt lat="42.0877329117352" lon="12.184548638183488"><ele>241.20000000000002</ele><time>2026-03-27T10:36:27Z</time></trkpt><trkpt lat="42.08785130386242" lon="12.184538307491165"><ele>241.0</ele><time>2026-03-27T10:36:29Z</time></trkpt><trkpt lat="42.0879483993909" lon="12.184492152216734"><ele>240.99999999999997</ele><time>2026-03-27T10:36:30Z</time></trkpt><trkpt lat="42.08799562920802" lon="12.184376188720082"><ele>241.0</ele><time>2026-03-27T10:36:31Z</time></trkpt><trkpt lat="42.08806290763773" lon="12.184291697739845"><ele>241.0</ele><time>2026-03-27T10:36:32Z</time></trkpt><trkpt lat="42.08810724427773" lon="12.184218818128855"><ele>241.0</ele><time>2026-03-27T10:36:33Z</time></trkpt><trkpt lat="42.08819169527977" lon="12.184116177246693"><ele>240.99999999999997</ele><time>2026-03-27T10:36:35Z</time></trkpt><trkpt lat="42.088209915026525" lon="12.184020899896238"><ele>241.0</ele><time>2026-03-27T10:36:36Z</time></trkpt><trkpt lat="42.08821278326665" lon="12.18390637717565"><ele>241.60000000000002</ele><time>2026-03-27T10:36:37Z</time></trkpt><trkpt lat="42.08824241943481" lon="12.183823746629864"><ele>242.20000000000002</ele><time>2026-03-27T10:36:38Z</time></trkpt><trkpt lat="42.08829930593509" lon="12.183752672067564"><ele>242.79999999999998</ele><time>2026-03-27T10:36:39Z</time></trkpt><trkpt lat="42.088384874920905" lon="12.183711103769316"><ele>243.39999999999998</ele><time>2026-03-27T10:36:40Z</time></trkpt><trkpt lat="42.08847928732245" lon="12.183635331886585"><ele>244.0</ele><time>2026-03-27T10:36:41Z</time></trkpt><trkpt lat="42.08859822632929" lon="12.183539875902007"><ele>244.33333333333331</ele><time>2026-03-27T10:36:42Z</time></trkpt><trkpt lat="42.08873912443867" lon="12.183426796345667"><ele>244.66666666666669</ele><time>2026-03-27T10:36:43Z</time></trkpt><trkpt lat="42.08890616119079" lon="12.183253480783415"><ele>245.0</ele><time>2026-03-27T10:36:44Z</time></trkpt><trkpt lat="42.0890634013022" lon="12.183133338613795"><ele>245.75</ele><time>2026-03-27T10:36:45Z</time></trkpt><trkpt lat="42.089213168826646" lon="12.183020817886158"><ele>246.5</ele><time>2026-03-27T10:36:46Z</time></trkpt><trkpt lat="42.08934462843701" lon="12.182920388199364"><ele>247.25</ele><time>2026-03-27T10:36:47Z</time></trkpt><trkpt lat="42.08944769885401" lon="12.182837486907626"><ele>248.0</ele><time>2026-03-27T10:36:48Z</time></trkpt><trkpt lat="42.08952683062732" lon="12.182774365348262"><ele>248.00000000000003</ele><time>2026-03-27T10:36:49Z</time></trkpt><trkpt lat="42.08959966646248" lon="12.182721654855332"><ele>248.0</ele><time>2026-03-27T10:36:50Z</time></trkpt><trkpt lat="42.08966432548533" lon="12.182660339017016"><ele>248.0</ele><time>2026-03-27T10:36:51Z</time></trkpt><trkpt lat="42.08974143616804" lon="12.182580186757637"><ele>248.0</ele><time>2026-03-27T10:36:52Z</time></trkpt><trkpt lat="42.08981778791874" lon="12.182490137145956"><ele>248.00000000000003</ele><time>2026-03-27T10:36:53Z</time></trkpt><trkpt lat="42.08987393355613" lon="12.182397597313145"><ele>248.0</ele><time>2026-03-27T10:36:54Z</time></trkpt><trkpt lat="42.08991598847208" lon="12.182307483736324"><ele>249.8</ele><time>2026-03-27T10:36:55Z</time></trkpt><trkpt lat="42.08997336979163" lon="12.182229465635574"><ele>251.60000000000002</ele><time>2026-03-27T10:36:56Z</time></trkpt><trkpt lat="42.09002290886478" lon="12.182117841604617"><ele>253.39999999999998</ele><time>2026-03-27T10:36:57Z</time></trkpt><trkpt lat="42.09007797948576" lon="12.181969931324218"><ele>255.2</ele><time>2026-03-27T10:36:58Z</time></trkpt><trkpt lat="42.09013697698407" lon="12.181808737768879"><ele>257.0</ele><time>2026-03-27T10:36:59Z</time></trkpt><trkpt lat="42.0901703260036" lon="12.181667501297586"><ele>257.0</ele><time>2026-03-27T10:37:00Z</time></trkpt><trkpt lat="42.09021404611563" lon="12.18155119851678"><ele>257.0</ele><time>2026-03-27T10:37:01Z</time></trkpt><trkpt lat="42.09026295398392" lon="12.181452802126257"><ele>257.0</ele><time>2026-03-27T10:37:02Z</time></trkpt><trkpt lat="42.09030709908387" lon="12.181332616144989"><ele>257.0</ele><time>2026-03-27T10:37:03Z</time></trkpt><trkpt lat="42.090382477482635" lon="12.18121347754919"><ele>257.0</ele><time>2026-03-27T10:37:04Z</time></trkpt><trkpt lat="42.090450132030576" lon="12.18110149015239"><ele>257.25</ele><time>2026-03-27T10:37:05Z</time></trkpt><trkpt lat="42.090523033893156" lon="12.181006101518658"><ele>257.5</ele><time>2026-03-27T10:37:06Z</time></trkpt><trkpt lat="42.090601134889525" lon="12.180901517294265"><ele>257.75</ele><time>2026-03-27T10:37:07Z</time></trkpt><trkpt lat="42.090704582939" lon="12.180826176640467"><ele>258.0</ele><time>2026-03-27T10:37:08Z</time></trkpt><trkpt lat="42.09083604549851" lon="12.180771785483753"><ele>259.5</ele><time>2026-03-27T10:37:09Z</time></trkpt><trkpt lat="42.090952440745156" lon="12.180692378408695"><ele>261.0</ele><time>2026-03-27T10:37:10Z</time></trkpt><trkpt lat="42.0910514981446" lon="12.180643671148035"><ele>262.5</ele><time>2026-03-27T10:37:11Z</time></trkpt><trkpt lat="42.09115112664172" lon="12.180579261464477"><ele>264.0</ele><time>2026-03-27T10:37:12Z</time></trkpt><trkpt lat="42.09124730706933" lon="12.18050160635392"><ele>264.0</ele><time>2026-03-27T10:37:13Z</time></trkpt><trkpt lat="42.09134517169734" lon="12.180400622005374"><ele>264.0</ele><time>2026-03-27T10:37:14Z</time></trkpt><trkpt lat="42.0914430200298" lon="12.180270591843948"><ele>264.0</ele><time>2026-03-27T10:37:15Z</time></trkpt><trkpt lat="42.09154285978767" lon="12.180153745731227"><ele>264.0</ele><time>2026-03-27T10:37:16Z</time></trkpt><trkpt lat="42.09161679676197" lon="12.180035994188293"><ele>265.8</ele><time>2026-03-27T10:37:17Z</time></trkpt><trkpt lat="42.091683909898876" lon="12.17992672677317"><ele>267.59999999999997</ele><time>2026-03-27T10:37:18Z</time></trkpt><trkpt lat="42.091751019141356" lon="12.179815988934724"><ele>269.4</ele><time>2026-03-27T10:37:19Z</time></trkpt><trkpt lat="42.091796244399355" lon="12.179700693218482"><ele>271.2</ele><time>2026-03-27T10:37:20Z</time></trkpt><trkpt lat="42.09185372968472" lon="12.179601354017297"><ele>273.0</ele><time>2026-03-27T10:37:21Z</time></trkpt><trkpt lat="42.09192653875974" lon="12.179461378513182"><ele>273.0</ele><time>2026-03-27T10:37:22Z</time></trkpt><trkpt lat="42.09201032485329" lon="12.179326215452521"><ele>273.0</ele><time>2026-03-27T10:37:23Z</time></trkpt><trkpt lat="42.0920728368808" lon="12.179225484396689"><ele>273.0</ele><time>2026-03-27T10:37:24Z</time></trkpt><trkpt lat="42.09211863091563" lon="12.179150947297238"><ele>273.0</ele><time>2026-03-27T10:37:25Z</time></trkpt><trkpt lat="42.09216057311518" lon="12.179086297720787"><ele>273.0</ele><time>2026-03-27T10:37:26Z</time></trkpt><trkpt lat="42.09223757579449" lon="12.178960975835848"><ele>273.0</ele><time>2026-03-27T10:37:28Z</time></trkpt><trkpt lat="42.09232417374466" lon="12.1788676372726"><ele>273.0</ele><time>2026-03-27T10:37:29Z</time></trkpt><trkpt lat="42.092394732325396" lon="12.178751934587"><ele>273.0</ele><time>2026-03-27T10:37:30Z</time></trkpt><trkpt lat="42.09248245819088" lon="12.178608080712102"><ele>273.0</ele><time>2026-03-27T10:37:31Z</time></trkpt><trkpt lat="42.09259751314065" lon="12.178417220736899"><ele>276.3333333333333</ele><time>2026-03-27T10:37:32Z</time></trkpt><trkpt lat="42.09270902481376" lon="12.178233665789513"><ele>279.66666666666663</ele><time>2026-03-27T10:37:33Z</time></trkpt><trkpt lat="42.0928013514209" lon="12.178053365257933"><ele>283.0</ele><time>2026-03-27T10:37:34Z</time></trkpt><trkpt lat="42.09290797683792" lon="12.177880738064399"><ele>283.66666666666663</ele><time>2026-03-27T10:37:35Z</time></trkpt><trkpt lat="42.09300918013099" lon="12.177705738787502"><ele>284.3333333333333</ele><time>2026-03-27T10:37:36Z</time></trkpt><trkpt lat="42.09311480958014" lon="12.177531423813498"><ele>285.0</ele><time>2026-03-27T10:37:37Z</time></trkpt><trkpt lat="42.09324200645346" lon="12.177323097071765"><ele>289.3333333333333</ele><time>2026-03-27T10:37:38Z</time></trkpt><trkpt lat="42.09336118489821" lon="12.177127880352364"><ele>293.66666666666663</ele><time>2026-03-27T10:37:39Z</time></trkpt><trkpt lat="42.09345463440733" lon="12.176968492157055"><ele>298.0</ele><time>2026-03-27T10:37:40Z</time></trkpt><trkpt lat="42.09354568411592" lon="12.176818450268067"><ele>298.0</ele><time>2026-03-27T10:37:41Z</time></trkpt><trkpt lat="42.09365284198" lon="12.17664426646076"><ele>298.0</ele><time>2026-03-27T10:37:42Z</time></trkpt><trkpt lat="42.093760101335064" lon="12.176463990676925"><ele>298.0</ele><time>2026-03-27T10:37:43Z</time></trkpt><trkpt lat="42.09385061350227" lon="12.176309858096806"><ele>298.5</ele><time>2026-03-27T10:37:44Z</time></trkpt><trkpt lat="42.0939339669782" lon="12.176178839236067"><ele>299.0</ele><time>2026-03-27T10:37:45Z</time></trkpt><trkpt lat="42.094020962898725" lon="12.176038757648461"><ele>299.5</ele><time>2026-03-27T10:37:46Z</time></trkpt><trkpt lat="42.094107267172724" lon="12.175889419672249"><ele>300.0</ele><time>2026-03-27T10:37:47Z</time></trkpt><trkpt lat="42.094201124869066" lon="12.17574061079825"><ele>301.5</ele><time>2026-03-27T10:37:48Z</time></trkpt><trkpt lat="42.094291591368325" lon="12.175589350514711"><ele>303.0</ele><time>2026-03-27T10:37:49Z</time></trkpt><trkpt lat="42.094378296883086" lon="12.1754426734362"><ele>304.5</ele><time>2026-03-27T10:37:50Z</time></trkpt><trkpt lat="42.094461844708704" lon="12.17529845184167"><ele>306.0</ele><time>2026-03-27T10:37:51Z</time></trkpt><trkpt lat="42.094536929924466" lon="12.17513923842352"><ele>306.0</ele><time>2026-03-27T10:37:52Z</time></trkpt><trkpt lat="42.09460217323438" lon="12.174977458098756"><ele>306.0</ele><time>2026-03-27T10:37:53Z</time></trkpt><trkpt lat="42.09465451023121" lon="12.174805042692256"><ele>306.0</ele><time>2026-03-27T10:37:54Z</time></trkpt><trkpt lat="42.094725289834415" lon="12.174650786577299"><ele>306.0</ele><time>2026-03-27T10:37:55Z</time></trkpt><trkpt lat="42.09477551287609" lon="12.174501593566978"><ele>306.25</ele><time>2026-03-27T10:37:56Z</time></trkpt><trkpt lat="42.094815982023476" lon="12.17434247260645"><ele>306.5</ele><time>2026-03-27T10:37:57Z</time></trkpt><trkpt lat="42.09487059907183" lon="12.174181605187936"><ele>306.75</ele><time>2026-03-27T10:37:58Z</time></trkpt><trkpt lat="42.09492043547802" lon="12.174023448483782"><ele>307.0</ele><time>2026-03-27T10:37:59Z</time></trkpt><trkpt lat="42.09497591274839" lon="12.173868152507413"><ele>309.5</ele><time>2026-03-27T10:38:00Z</time></trkpt><trkpt lat="42.095029435918455" lon="12.173713861792919"><ele>312.0</ele><time>2026-03-27T10:38:01Z</time></trkpt><trkpt lat="42.095080850492565" lon="12.173561769483614"><ele>314.5</ele><time>2026-03-27T10:38:02Z</time></trkpt><trkpt lat="42.095127213357706" lon="12.173420840465386"><ele>317.0</ele><time>2026-03-27T10:38:03Z</time></trkpt><trkpt lat="42.09517029567519" lon="12.173287893354514"><ele>317.2</ele><time>2026-03-27T10:38:04Z</time></trkpt><trkpt lat="42.095211822152265" lon="12.173167984945405"><ele>317.4</ele><time>2026-03-27T10:38:05Z</time></trkpt><trkpt lat="42.095255394178615" lon="12.173042939645208"><ele>317.6</ele><time>2026-03-27T10:38:06Z</time></trkpt><trkpt lat="42.09529980583402" lon="12.17290925576128"><ele>317.8</ele><time>2026-03-27T10:38:07Z</time></trkpt><trkpt lat="42.09534592714406" lon="12.172774634870434"><ele>318.0</ele><time>2026-03-27T10:38:08Z</time></trkpt><trkpt lat="42.0953888423875" lon="12.172643331692758"><ele>318.0</ele><time>2026-03-27T10:38:09Z</time></trkpt><trkpt lat="42.095434804698684" lon="12.172515339921924"><ele>318.0</ele><time>2026-03-27T10:38:10Z</time></trkpt><trkpt lat="42.09546880657181" lon="12.172410563513239"><ele>318.0</ele><time>2026-03-27T10:38:11Z</time></trkpt><trkpt lat="42.09549239619993" lon="12.172327626349826"><ele>318.0</ele><time>2026-03-27T10:38:12Z</time></trkpt><trkpt lat="42.09553292299903" lon="12.172202434161738"><ele>318.0</ele><time>2026-03-27T10:38:14Z</time></trkpt><trkpt lat="42.095581918063374" lon="12.172057616358437"><ele>317.6666666666667</ele><time>2026-03-27T10:38:16Z</time></trkpt><trkpt lat="42.09563716090461" lon="12.171915076091533"><ele>317.3333333333333</ele><time>2026-03-27T10:38:18Z</time></trkpt><trkpt lat="42.09566909262197" lon="12.171841134352562"><ele>317.0</ele><time>2026-03-27T10:38:19Z</time></trkpt><trkpt lat="42.0957134005889" lon="12.171740108346"><ele>316.66666666666663</ele><time>2026-03-27T10:38:20Z</time></trkpt><trkpt lat="42.0957632110063" lon="12.171629835800927"><ele>316.3333333333333</ele><time>2026-03-27T10:38:21Z</time></trkpt><trkpt lat="42.09581496466225" lon="12.17154339857515"><ele>316.0</ele><time>2026-03-27T10:38:22Z</time></trkpt><trkpt lat="42.095870344389276" lon="12.171454799430194"><ele>315.0</ele><time>2026-03-27T10:38:23Z</time></trkpt><trkpt lat="42.095922127288425" lon="12.171362158715606"><ele>314.0</ele><time>2026-03-27T10:38:24Z</time></trkpt><trkpt lat="42.09598043625475" lon="12.17129214999783"><ele>313.0</ele><time>2026-03-27T10:38:25Z</time></trkpt><trkpt lat="42.09601593202643" lon="12.171203927229877"><ele>312.0</ele><time>2026-03-27T10:38:26Z</time></trkpt><trkpt lat="42.09607641446981" lon="12.171142594344872"><ele>311.0</ele><time>2026-03-27T10:38:28Z</time></trkpt><trkpt lat="42.096123894979385" lon="12.171026831554565"><ele>310.0</ele><time>2026-03-27T10:38:36Z</time></trkpt><trkpt lat="42.0961688421686" lon="12.170960334173799"><ele>310.0</ele><time>2026-03-27T10:38:37Z</time></trkpt><trkpt lat="42.09623037146966" lon="12.170878324671317"><ele>310.0</ele><time>2026-03-27T10:38:38Z</time></trkpt><trkpt lat="42.09629093314784" lon="12.170789794422273"><ele>310.0</ele><time>2026-03-27T10:38:39Z</time></trkpt><trkpt lat="42.09634248972012" lon="12.170705610973483"><ele>310.0</ele><time>2026-03-27T10:38:40Z</time></trkpt><trkpt lat="42.096408307805106" lon="12.170605530565126"><ele>310.0</ele><time>2026-03-27T10:38:41Z</time></trkpt><trkpt lat="42.09648981589666" lon="12.170478251667232"><ele>310.0</ele><time>2026-03-27T10:38:42Z</time></trkpt><trkpt lat="42.096572929366644" lon="12.170358889220111"><ele>310.0</ele><time>2026-03-27T10:38:43Z</time></trkpt><trkpt lat="42.09664552624863" lon="12.170250622932436"><ele>310.0</ele><time>2026-03-27T10:38:44Z</time></trkpt><trkpt lat="42.09672698701655" lon="12.170150836610603"><ele>310.0</ele><time>2026-03-27T10:38:45Z</time></trkpt><trkpt lat="42.09681573444848" lon="12.170050053607161"><ele>310.0</ele><time>2026-03-27T10:38:46Z</time></trkpt><trkpt lat="42.09692279649141" lon="12.16994113960901"><ele>310.0</ele><time>2026-03-27T10:38:47Z</time></trkpt><trkpt lat="42.09704889333823" lon="12.16981028495258"><ele>310.0</ele><time>2026-03-27T10:38:48Z</time></trkpt><trkpt lat="42.097162038429595" lon="12.169688303513936"><ele>310.0</ele><time>2026-03-27T10:38:49Z</time></trkpt><trkpt lat="42.09728489108048" lon="12.169571372904631"><ele>312.0</ele><time>2026-03-27T10:38:50Z</time></trkpt><trkpt lat="42.097408625953896" lon="12.16944835883566"><ele>314.0</ele><time>2026-03-27T10:38:51Z</time></trkpt><trkpt lat="42.097541412663375" lon="12.169309806094747"><ele>316.0</ele><time>2026-03-27T10:38:52Z</time></trkpt><trkpt lat="42.09766545550222" lon="12.169176679685966"><ele>317.0</ele><time>2026-03-27T10:38:53Z</time></trkpt><trkpt lat="42.09777170200823" lon="12.169061158826011"><ele>318.0</ele><time>2026-03-27T10:38:54Z</time></trkpt><trkpt lat="42.097873838444045" lon="12.16895372917531"><ele>319.0</ele><time>2026-03-27T10:38:55Z</time></trkpt><trkpt lat="42.09798119084276" lon="12.168842370727319"><ele>320.0</ele><time>2026-03-27T10:38:56Z</time></trkpt><trkpt lat="42.09809597975078" lon="12.168727083549392"><ele>319.75</ele><time>2026-03-27T10:38:57Z</time></trkpt><trkpt lat="42.098226808389136" lon="12.16859266386026"><ele>319.5</ele><time>2026-03-27T10:38:58Z</time></trkpt><trkpt lat="42.09833958078087" lon="12.168474905240274"><ele>319.25</ele><time>2026-03-27T10:38:59Z</time></trkpt><trkpt lat="42.09843792862823" lon="12.168378529658034"><ele>319.0</ele><time>2026-03-27T10:39:00Z</time></trkpt><trkpt lat="42.098543480836064" lon="12.168291873237267"><ele>319.0</ele><time>2026-03-27T10:39:01Z</time></trkpt><trkpt lat="42.098657264668084" lon="12.168209083255753"><ele>319.0</ele><time>2026-03-27T10:39:02Z</time></trkpt><trkpt lat="42.09876509691563" lon="12.16810353677812"><ele>319.0</ele><time>2026-03-27T10:39:03Z</time></trkpt><trkpt lat="42.09887001085749" lon="12.167968624532222"><ele>319.0</ele><time>2026-03-27T10:39:04Z</time></trkpt><trkpt lat="42.09899248625547" lon="12.167824108435642"><ele>319.0</ele><time>2026-03-27T10:39:05Z</time></trkpt><trkpt lat="42.099113741710255" lon="12.167700778774508"><ele>319.0</ele><time>2026-03-27T10:39:06Z</time></trkpt><trkpt lat="42.099219071186724" lon="12.167593761411503"><ele>319.0</ele><time>2026-03-27T10:39:07Z</time></trkpt><trkpt lat="42.09931603160565" lon="12.167496628999965"><ele>319.0</ele><time>2026-03-27T10:39:08Z</time></trkpt><trkpt lat="42.09940590486393" lon="12.167404827071215"><ele>319.4</ele><time>2026-03-27T10:39:09Z</time></trkpt><trkpt lat="42.09948012755432" lon="12.167331142021645"><ele>319.79999999999995</ele><time>2026-03-27T10:39:10Z</time></trkpt><trkpt lat="42.0995400871724" lon="12.167273920442794"><ele>320.20000000000005</ele><time>2026-03-27T10:39:11Z</time></trkpt><trkpt lat="42.09959277973354" lon="12.167226344920879"><ele>320.6</ele><time>2026-03-27T10:39:12Z</time></trkpt><trkpt lat="42.09968685411043" lon="12.16713805547305"><ele>321.0</ele><time>2026-03-27T10:39:14Z</time></trkpt><trkpt lat="42.09979536957229" lon="12.16705654242317"><ele>321.0</ele><time>2026-03-27T10:39:16Z</time></trkpt><trkpt lat="42.09985393151222" lon="12.16700205498476"><ele>321.0</ele><time>2026-03-27T10:39:17Z</time></trkpt><trkpt lat="42.09992500452996" lon="12.166890124440881"><ele>321.0</ele><time>2026-03-27T10:39:18Z</time></trkpt><trkpt lat="42.09999990678045" lon="12.166797736779618"><ele>321.0</ele><time>2026-03-27T10:39:19Z</time></trkpt><trkpt lat="42.10010892289259" lon="12.166672008531254"><ele>321.0</ele><time>2026-03-27T10:39:20Z</time></trkpt><trkpt lat="42.10028750134375" lon="12.166537231939852"><ele>319.6666666666667</ele><time>2026-03-27T10:39:21Z</time></trkpt><trkpt lat="42.10043578609123" lon="12.166384271588832"><ele>318.33333333333337</ele><time>2026-03-27T10:39:22Z</time></trkpt><trkpt lat="42.100616907499244" lon="12.166198187291144"><ele>317.0</ele><time>2026-03-27T10:39:23Z</time></trkpt><trkpt lat="42.100793020095146" lon="12.166019836324205"><ele>315.6666666666667</ele><time>2026-03-27T10:39:24Z</time></trkpt><trkpt lat="42.10091587297392" lon="12.16588352567077"><ele>314.3333333333333</ele><time>2026-03-27T10:39:25Z</time></trkpt><trkpt lat="42.10106609791157" lon="12.165727615761893"><ele>313.0</ele><time>2026-03-27T10:39:26Z</time></trkpt><trkpt lat="42.101235548526645" lon="12.165557215335534"><ele>313.0</ele><time>2026-03-27T10:39:27Z</time></trkpt><trkpt lat="42.101379009500626" lon="12.16540804513187"><ele>313.0</ele><time>2026-03-27T10:39:28Z</time></trkpt><trkpt lat="42.10151402150559" lon="12.16527056626377"><ele>313.0</ele><time>2026-03-27T10:39:29Z</time></trkpt><trkpt lat="42.101648796723545" lon="12.165141373375127"><ele>311.75</ele><time>2026-03-27T10:39:30Z</time></trkpt><trkpt lat="42.101772551203226" lon="12.165015788712374"><ele>310.5</ele><time>2026-03-27T10:39:31Z</time></trkpt><trkpt lat="42.10188479752059" lon="12.164898816409007"><ele>309.25</ele><time>2026-03-27T10:39:32Z</time></trkpt><trkpt lat="42.10200197864583" lon="12.16477970497582"><ele>308.0</ele><time>2026-03-27T10:39:33Z</time></trkpt><trkpt lat="42.10212949793877" lon="12.16464811954327"><ele>307.6666666666667</ele><time>2026-03-27T10:39:34Z</time></trkpt><trkpt lat="42.1022548489452" lon="12.16452005820126"><ele>307.3333333333333</ele><time>2026-03-27T10:39:35Z</time></trkpt><trkpt lat="42.102376371103645" lon="12.164395674705634"><ele>307.0</ele><time>2026-03-27T10:39:36Z</time></trkpt><trkpt lat="42.10249689750395" lon="12.16427544343672"><ele>306.5</ele><time>2026-03-27T10:39:37Z</time></trkpt><trkpt lat="42.102615583236286" lon="12.164165161342018"><ele>306.0</ele><time>2026-03-27T10:39:38Z</time></trkpt><trkpt lat="42.10273109684557" lon="12.164046159639566"><ele>305.5</ele><time>2026-03-27T10:39:39Z</time></trkpt><trkpt lat="42.10284573716912" lon="12.1639255659562"><ele>305.0</ele><time>2026-03-27T10:39:40Z</time></trkpt><trkpt lat="42.102952027767884" lon="12.163809159468695"><ele>304.75</ele><time>2026-03-27T10:39:41Z</time></trkpt><trkpt lat="42.10305408087367" lon="12.163712963172605"><ele>304.5</ele><time>2026-03-27T10:39:42Z</time></trkpt><trkpt lat="42.103158576139364" lon="12.16360723133791"><ele>304.25</ele><time>2026-03-27T10:39:43Z</time></trkpt><trkpt lat="42.10326492334005" lon="12.16349112498452"><ele>304.0</ele><time>2026-03-27T10:39:44Z</time></trkpt><trkpt lat="42.10337819530664" lon="12.163378754632017"><ele>304.0</ele><time>2026-03-27T10:39:45Z</time></trkpt><trkpt lat="42.10349248525562" lon="12.163265060110064"><ele>304.0</ele><time>2026-03-27T10:39:46Z</time></trkpt><trkpt lat="42.10361371522445" lon="12.163147474480045"><ele>304.0</ele><time>2026-03-27T10:39:47Z</time></trkpt><trkpt lat="42.10371812996927" lon="12.163037635013188"><ele>304.0</ele><time>2026-03-27T10:39:48Z</time></trkpt><trkpt lat="42.103825655868164" lon="12.162926428196592"><ele>304.0</ele><time>2026-03-27T10:39:49Z</time></trkpt><trkpt lat="42.103933265391895" lon="12.162820734949117"><ele>304.0</ele><time>2026-03-27T10:39:50Z</time></trkpt><trkpt lat="42.10402923931515" lon="12.162717003872027"><ele>304.0</ele><time>2026-03-27T10:39:51Z</time></trkpt><trkpt lat="42.10411730932449" lon="12.162623486418"><ele>304.0</ele><time>2026-03-27T10:39:52Z</time></trkpt><trkpt lat="42.104193708811025" lon="12.162525884904001"><ele>303.8</ele><time>2026-03-27T10:39:53Z</time></trkpt><trkpt lat="42.10425608923667" lon="12.16240844068568"><ele>303.59999999999997</ele><time>2026-03-27T10:39:54Z</time></trkpt><trkpt lat="42.104284617880275" lon="12.16227408910862"><ele>303.4</ele><time>2026-03-27T10:39:55Z</time></trkpt><trkpt lat="42.10428238920092" lon="12.162117991599143"><ele>303.2</ele><time>2026-03-27T10:39:56Z</time></trkpt><trkpt lat="42.10427228208334" lon="12.161956828757988"><ele>303.0</ele><time>2026-03-27T10:39:57Z</time></trkpt><trkpt lat="42.10427513365474" lon="12.161792072753261"><ele>303.0</ele><time>2026-03-27T10:39:58Z</time></trkpt><trkpt lat="42.1042714338976" lon="12.161625923055187"><ele>303.0</ele><time>2026-03-27T10:39:59Z</time></trkpt><trkpt lat="42.10426752013852" lon="12.161450162946918"><ele>303.0</ele><time>2026-03-27T10:40:00Z</time></trkpt><trkpt lat="42.10426372038699" lon="12.161264663269483"><ele>303.0</ele><time>2026-03-27T10:40:01Z</time></trkpt><trkpt lat="42.1042603975386" lon="12.161092234393097"><ele>302.6</ele><time>2026-03-27T10:40:02Z</time></trkpt><trkpt lat="42.10425739096735" lon="12.16093621771632"><ele>302.20000000000005</ele><time>2026-03-27T10:40:03Z</time></trkpt><trkpt lat="42.104254580596645" lon="12.160790382248333"><ele>301.8</ele><time>2026-03-27T10:40:04Z</time></trkpt><trkpt lat="42.104251884475254" lon="12.160650475393156"><ele>301.40000000000003</ele><time>2026-03-27T10:40:05Z</time></trkpt><trkpt lat="42.10423446752106" lon="12.160518496115742"><ele>301.0</ele><time>2026-03-27T10:40:06Z</time></trkpt><trkpt lat="42.104234395582004" lon="12.160403894232575"><ele>301.0</ele><time>2026-03-27T10:40:07Z</time></trkpt><trkpt lat="42.10423274586131" lon="12.160265918129339"><ele>301.0</ele><time>2026-03-27T10:40:09Z</time></trkpt><trkpt lat="42.10422889999999" lon="12.160175672647588"><ele>301.0</ele><time>2026-03-27T10:40:16Z</time></trkpt><trkpt lat="42.10423750852339" lon="12.160038106077998"><ele>301.0</ele><time>2026-03-27T10:40:19Z</time></trkpt><trkpt lat="42.10422638066673" lon="12.159952727890545"><ele>301.0</ele><time>2026-03-27T10:40:20Z</time></trkpt><trkpt lat="42.104236185615115" lon="12.159838646836162"><ele>301.0</ele><time>2026-03-27T10:40:21Z</time></trkpt><trkpt lat="42.104233302885675" lon="12.159691212891055"><ele>301.0</ele><time>2026-03-27T10:40:22Z</time></trkpt><trkpt lat="42.104230405769464" lon="12.159543043110887"><ele>301.0</ele><time>2026-03-27T10:40:23Z</time></trkpt><trkpt lat="42.104227315783916" lon="12.159385009257454"><ele>301.0</ele><time>2026-03-27T10:40:24Z</time></trkpt><trkpt lat="42.104223311398094" lon="12.159177835310222"><ele>301.0</ele><time>2026-03-27T10:40:25Z</time></trkpt><trkpt lat="42.10419894629751" lon="12.158971152010285"><ele>300.25</ele><time>2026-03-27T10:40:26Z</time></trkpt><trkpt lat="42.10419783184774" lon="12.158792693373217"><ele>299.5</ele><time>2026-03-27T10:40:27Z</time></trkpt><trkpt lat="42.10419519908639" lon="12.158598865287095"><ele>298.75</ele><time>2026-03-27T10:40:28Z</time></trkpt><trkpt lat="42.104187726271945" lon="12.158377297190283"><ele>298.0</ele><time>2026-03-27T10:40:29Z</time></trkpt><trkpt lat="42.10418284828765" lon="12.158173386256168"><ele>297.5</ele><time>2026-03-27T10:40:30Z</time></trkpt><trkpt lat="42.10418397682887" lon="12.15797649073854"><ele>297.0</ele><time>2026-03-27T10:40:31Z</time></trkpt><trkpt lat="42.10417875680433" lon="12.15778986336485"><ele>296.5</ele><time>2026-03-27T10:40:32Z</time></trkpt><trkpt lat="42.104177325283985" lon="12.15760655089062"><ele>296.0</ele><time>2026-03-27T10:40:33Z</time></trkpt><trkpt lat="42.104168261005626" lon="12.157427754727756"><ele>296.0</ele><time>2026-03-27T10:40:34Z</time></trkpt><trkpt lat="42.104185652670026" lon="12.157253348973411"><ele>296.0</ele><time>2026-03-27T10:40:35Z</time></trkpt><trkpt lat="42.1041833415642" lon="12.157074553442598"><ele>296.0</ele><time>2026-03-27T10:40:36Z</time></trkpt><trkpt lat="42.10418047473943" lon="12.156852765312877"><ele>296.0</ele><time>2026-03-27T10:40:37Z</time></trkpt><trkpt lat="42.10417733217367" lon="12.156615727411715"><ele>296.6666666666667</ele><time>2026-03-27T10:40:38Z</time></trkpt><trkpt lat="42.104161991719906" lon="12.156399517715665"><ele>297.3333333333333</ele><time>2026-03-27T10:40:39Z</time></trkpt><trkpt lat="42.10416221966525" lon="12.156195696431636"><ele>298.0</ele><time>2026-03-27T10:40:40Z</time></trkpt><trkpt lat="42.10417313198433" lon="12.155986619105839"><ele>298.0</ele><time>2026-03-27T10:40:41Z</time></trkpt><trkpt lat="42.104190982427326" lon="12.155771278542687"><ele>298.0</ele><time>2026-03-27T10:40:42Z</time></trkpt><trkpt lat="42.10423165571541" lon="12.155546592192296"><ele>298.0</ele><time>2026-03-27T10:40:43Z</time></trkpt><trkpt lat="42.10428692398235" lon="12.155306431649942"><ele>298.66666666666663</ele><time>2026-03-27T10:40:44Z</time></trkpt><trkpt lat="42.10435816077697" lon="12.155037095686497"><ele>299.3333333333333</ele><time>2026-03-27T10:40:45Z</time></trkpt><trkpt lat="42.104425530782066" lon="12.154788669257986"><ele>300.0</ele><time>2026-03-27T10:40:46Z</time></trkpt><trkpt lat="42.104496002580106" lon="12.154517850248196"><ele>300.0</ele><time>2026-03-27T10:40:47Z</time></trkpt><trkpt lat="42.10456327055882" lon="12.154251458973587"><ele>300.0</ele><time>2026-03-27T10:40:48Z</time></trkpt><trkpt lat="42.10462317476139" lon="12.154016802478594"><ele>300.0</ele><time>2026-03-27T10:40:49Z</time></trkpt><trkpt lat="42.10468217909839" lon="12.153790859237667"><ele>301.0</ele><time>2026-03-27T10:40:50Z</time></trkpt><trkpt lat="42.10474334208352" lon="12.153557201223544"><ele>302.0</ele><time>2026-03-27T10:40:51Z</time></trkpt><trkpt lat="42.104801490299295" lon="12.153335505451352"><ele>303.0</ele><time>2026-03-27T10:40:52Z</time></trkpt><trkpt lat="42.10486645094165" lon="12.15309007251759"><ele>304.0</ele><time>2026-03-27T10:40:53Z</time></trkpt><trkpt lat="42.104933626385794" lon="12.152836758589546"><ele>305.0</ele><time>2026-03-27T10:40:54Z</time></trkpt><trkpt lat="42.10499583220719" lon="12.152590832014178"><ele>306.0</ele><time>2026-03-27T10:40:55Z</time></trkpt><trkpt lat="42.10506196192316" lon="12.152376243071739"><ele>307.6666666666667</ele><time>2026-03-27T10:40:56Z</time></trkpt><trkpt lat="42.10514257545684" lon="12.152156960840868"><ele>309.33333333333337</ele><time>2026-03-27T10:40:57Z</time></trkpt><trkpt lat="42.105228893438095" lon="12.151943436375252"><ele>311.0</ele><time>2026-03-27T10:40:58Z</time></trkpt><trkpt lat="42.105324578768716" lon="12.151739906649407"><ele>311.0</ele><time>2026-03-27T10:40:59Z</time></trkpt><trkpt lat="42.10542671626663" lon="12.151557291153784"><ele>311.0</ele><time>2026-03-27T10:41:00Z</time></trkpt><trkpt lat="42.10555694912138" lon="12.151408687200622"><ele>311.0</ele><time>2026-03-27T10:41:01Z</time></trkpt><trkpt lat="42.105697008557705" lon="12.151290596236002"><ele>312.33333333333337</ele><time>2026-03-27T10:41:02Z</time></trkpt><trkpt lat="42.10584938234052" lon="12.151191164800299"><ele>313.6666666666667</ele><time>2026-03-27T10:41:03Z</time></trkpt><trkpt lat="42.10600820222117" lon="12.151088937922134"><ele>315.0</ele><time>2026-03-27T10:41:04Z</time></trkpt><trkpt lat="42.10615815033795" lon="12.151000233432617"><ele>315.0</ele><time>2026-03-27T10:41:05Z</time></trkpt><trkpt lat="42.106287963767016" lon="12.150874788226886"><ele>315.0</ele><time>2026-03-27T10:41:06Z</time></trkpt><trkpt lat="42.106393399004425" lon="12.150704466495263"><ele>315.0</ele><time>2026-03-27T10:41:07Z</time></trkpt><trkpt lat="42.10647867445696" lon="12.150496585419196"><ele>316.6666666666667</ele><time>2026-03-27T10:41:08Z</time></trkpt><trkpt lat="42.10655565796137" lon="12.150272185832767"><ele>318.33333333333337</ele><time>2026-03-27T10:41:09Z</time></trkpt><trkpt lat="42.106622945801604" lon="12.150064263279297"><ele>320.0</ele><time>2026-03-27T10:41:10Z</time></trkpt><trkpt lat="42.10668587117294" lon="12.149874571905976"><ele>321.0</ele><time>2026-03-27T10:41:11Z</time></trkpt><trkpt lat="42.10677927714763" lon="12.14965223596916"><ele>322.0</ele><time>2026-03-27T10:41:12Z</time></trkpt><trkpt lat="42.10682644450861" lon="12.149443949538783"><ele>323.0</ele><time>2026-03-27T10:41:13Z</time></trkpt><trkpt lat="42.10689341147924" lon="12.149268602711812"><ele>323.0</ele><time>2026-03-27T10:41:14Z</time></trkpt><trkpt lat="42.10694919020832" lon="12.149111709177019"><ele>323.0</ele><time>2026-03-27T10:41:15Z</time></trkpt><trkpt lat="42.10700389545765" lon="12.148948778339667"><ele>323.0</ele><time>2026-03-27T10:41:16Z</time></trkpt><trkpt lat="42.107066588855766" lon="12.14875589342838"><ele>323.0</ele><time>2026-03-27T10:41:17Z</time></trkpt><trkpt lat="42.10712481200368" lon="12.14857039507979"><ele>323.0</ele><time>2026-03-27T10:41:18Z</time></trkpt><trkpt lat="42.107175167848055" lon="12.14839572272849"><ele>323.0</ele><time>2026-03-27T10:41:19Z</time></trkpt><trkpt lat="42.10722424355336" lon="12.148202187099336"><ele>323.0</ele><time>2026-03-27T10:41:20Z</time></trkpt><trkpt lat="42.10726737138418" lon="12.147970775045772"><ele>324.5</ele><time>2026-03-27T10:41:21Z</time></trkpt><trkpt lat="42.10730144557452" lon="12.147684313233217"><ele>326.0</ele><time>2026-03-27T10:41:22Z</time></trkpt><trkpt lat="42.10733918766871" lon="12.147357756517541"><ele>326.6666666666667</ele><time>2026-03-27T10:41:23Z</time></trkpt><trkpt lat="42.107374027275554" lon="12.147087000742415"><ele>327.3333333333333</ele><time>2026-03-27T10:41:24Z</time></trkpt><trkpt lat="42.107400416979395" lon="12.14686922377598"><ele>328.0</ele><time>2026-03-27T10:41:25Z</time></trkpt><trkpt lat="42.10742324250164" lon="12.146669133573473"><ele>330.25</ele><time>2026-03-27T10:41:26Z</time></trkpt><trkpt lat="42.10744743815691" lon="12.14647741382477"><ele>332.5</ele><time>2026-03-27T10:41:27Z</time></trkpt><trkpt lat="42.10746643155943" lon="12.146301225515547"><ele>334.75</ele><time>2026-03-27T10:41:28Z</time></trkpt><trkpt lat="42.10748334819194" lon="12.146131720453344"><ele>337.0</ele><time>2026-03-27T10:41:29Z</time></trkpt><trkpt lat="42.10750546166076" lon="12.145938262672326"><ele>337.0</ele><time>2026-03-27T10:41:30Z</time></trkpt><trkpt lat="42.10752927722642" lon="12.145744692534448"><ele>337.0</ele><time>2026-03-27T10:41:31Z</time></trkpt><trkpt lat="42.107575876478656" lon="12.145579828636114"><ele>337.0</ele><time>2026-03-27T10:41:32Z</time></trkpt><trkpt lat="42.107600898666746" lon="12.145403493926437"><ele>337.0</ele><time>2026-03-27T10:41:33Z</time></trkpt><trkpt lat="42.10763348443335" lon="12.145215264580889"><ele>338.0</ele><time>2026-03-27T10:41:34Z</time></trkpt><trkpt lat="42.10767712968923" lon="12.145020337948333"><ele>339.0</ele><time>2026-03-27T10:41:35Z</time></trkpt><trkpt lat="42.10772119554384" lon="12.144844737778117"><ele>340.0</ele><time>2026-03-27T10:41:36Z</time></trkpt><trkpt lat="42.107767795431286" lon="12.144673645855969"><ele>341.0</ele><time>2026-03-27T10:41:37Z</time></trkpt><trkpt lat="42.107813264397805" lon="12.144505577071532"><ele>341.0</ele><time>2026-03-27T10:41:38Z</time></trkpt><trkpt lat="42.10785862737183" lon="12.144332045239155"><ele>341.0</ele><time>2026-03-27T10:41:39Z</time></trkpt><trkpt lat="42.10790049006586" lon="12.144156053809908"><ele>341.0</ele><time>2026-03-27T10:41:40Z</time></trkpt><trkpt lat="42.10793715868603" lon="12.143984388968855"><ele>341.0</ele><time>2026-03-27T10:41:41Z</time></trkpt><trkpt lat="42.107967501540436" lon="12.143803627001562"><ele>341.5</ele><time>2026-03-27T10:41:42Z</time></trkpt><trkpt lat="42.107974606644234" lon="12.143615120716014"><ele>342.0</ele><time>2026-03-27T10:41:43Z</time></trkpt><trkpt lat="42.108002960786216" lon="12.143429153382142"><ele>342.5</ele><time>2026-03-27T10:41:44Z</time></trkpt><trkpt lat="42.10800635445114" lon="12.143241372017892"><ele>343.0</ele><time>2026-03-27T10:41:45Z</time></trkpt><trkpt lat="42.10800454024558" lon="12.14304936660836"><ele>344.5</ele><time>2026-03-27T10:41:46Z</time></trkpt><trkpt lat="42.10799934234445" lon="12.142864647019811"><ele>346.0</ele><time>2026-03-27T10:41:47Z</time></trkpt><trkpt lat="42.10797149887631" lon="12.142677794754311"><ele>347.5</ele><time>2026-03-27T10:41:48Z</time></trkpt><trkpt lat="42.10796322816132" lon="12.14245389095904"><ele>349.0</ele><time>2026-03-27T10:41:49Z</time></trkpt><trkpt lat="42.10795691602785" lon="12.142249115693032"><ele>349.5</ele><time>2026-03-27T10:41:50Z</time></trkpt><trkpt lat="42.10795036032064" lon="12.142053295372781"><ele>350.0</ele><time>2026-03-27T10:41:51Z</time></trkpt><trkpt lat="42.10793816645035" lon="12.141860487154535"><ele>350.5</ele><time>2026-03-27T10:41:52Z</time></trkpt><trkpt lat="42.10792610388151" lon="12.141673094787652"><ele>351.0</ele><time>2026-03-27T10:41:53Z</time></trkpt><trkpt lat="42.107903144766055" lon="12.141485292528793"><ele>351.0</ele><time>2026-03-27T10:41:54Z</time></trkpt><trkpt lat="42.10787848765492" lon="12.141310018623793"><ele>351.0</ele><time>2026-03-27T10:41:55Z</time></trkpt><trkpt lat="42.1078491076525" lon="12.141134583397143"><ele>351.0</ele><time>2026-03-27T10:41:56Z</time></trkpt><trkpt lat="42.10780769553677" lon="12.140954804102162"><ele>351.0</ele><time>2026-03-27T10:41:57Z</time></trkpt><trkpt lat="42.107781557035196" lon="12.140770828601475"><ele>351.5</ele><time>2026-03-27T10:41:58Z</time></trkpt><trkpt lat="42.10773613503757" lon="12.140605768612902"><ele>352.0</ele><time>2026-03-27T10:41:59Z</time></trkpt><trkpt lat="42.10770143342551" lon="12.140420019134204"><ele>352.5</ele><time>2026-03-27T10:42:00Z</time></trkpt><trkpt lat="42.10768460391683" lon="12.14025066329168"><ele>353.0</ele><time>2026-03-27T10:42:01Z</time></trkpt><trkpt lat="42.107667809069824" lon="12.140072008527113"><ele>354.0</ele><time>2026-03-27T10:42:02Z</time></trkpt><trkpt lat="42.107663490557755" lon="12.139872790708855"><ele>355.0</ele><time>2026-03-27T10:42:03Z</time></trkpt><trkpt lat="42.10767383973366" lon="12.139672025241998"><ele>356.0</ele><time>2026-03-27T10:42:04Z</time></trkpt><trkpt lat="42.10769977931933" lon="12.139467808107131"><ele>356.0</ele><time>2026-03-27T10:42:05Z</time></trkpt><trkpt lat="42.107738755253024" lon="12.139259629942465"><ele>356.0</ele><time>2026-03-27T10:42:06Z</time></trkpt><trkpt lat="42.10779673652416" lon="12.13907969034137"><ele>356.0</ele><time>2026-03-27T10:42:07Z</time></trkpt><trkpt lat="42.10784163671136" lon="12.13890702939977"><ele>356.0</ele><time>2026-03-27T10:42:08Z</time></trkpt><trkpt lat="42.10788673497908" lon="12.138739256566103"><ele>356.25</ele><time>2026-03-27T10:42:09Z</time></trkpt><trkpt lat="42.107934153418405" lon="12.138562926752718"><ele>356.5</ele><time>2026-03-27T10:42:10Z</time></trkpt><trkpt lat="42.1079820314312" lon="12.138389943178819"><ele>356.75</ele><time>2026-03-27T10:42:11Z</time></trkpt><trkpt lat="42.10802858608423" lon="12.138233420329321"><ele>357.0</ele><time>2026-03-27T10:42:12Z</time></trkpt><trkpt lat="42.108076556729024" lon="12.138075349060381"><ele>357.3333333333333</ele><time>2026-03-27T10:42:13Z</time></trkpt><trkpt lat="42.10812878387132" lon="12.137886166860063"><ele>357.66666666666663</ele><time>2026-03-27T10:42:14Z</time></trkpt><trkpt lat="42.108170981616" lon="12.13770117463876"><ele>358.0</ele><time>2026-03-27T10:42:15Z</time></trkpt><trkpt lat="42.108204836101095" lon="12.137485627361594"><ele>356.3333333333333</ele><time>2026-03-27T10:42:16Z</time></trkpt><trkpt lat="42.10822847548624" lon="12.137221540517862"><ele>354.6666666666667</ele><time>2026-03-27T10:42:17Z</time></trkpt><trkpt lat="42.10824387725765" lon="12.136898814219945"><ele>353.0</ele><time>2026-03-27T10:42:18Z</time></trkpt><trkpt lat="42.108256535784065" lon="12.136553224094273"><ele>349.5</ele><time>2026-03-27T10:42:19Z</time></trkpt><trkpt lat="42.10827035427676" lon="12.136175966028876"><ele>346.0</ele><time>2026-03-27T10:42:20Z</time></trkpt><trkpt lat="42.108281782922504" lon="12.135837192832403"><ele>345.0</ele><time>2026-03-27T10:42:21Z</time></trkpt><trkpt lat="42.108294412979" lon="12.135507864570496"><ele>344.0</ele><time>2026-03-27T10:42:22Z</time></trkpt><trkpt lat="42.108311055632626" lon="12.135200529848682"><ele>344.0</ele><time>2026-03-27T10:42:23Z</time></trkpt><trkpt lat="42.108341510495826" lon="12.134917002122757"><ele>344.0</ele><time>2026-03-27T10:42:24Z</time></trkpt><trkpt lat="42.108397312557685" lon="12.13463239870391"><ele>344.0</ele><time>2026-03-27T10:42:25Z</time></trkpt><trkpt lat="42.10848559321944" lon="12.134351108059056"><ele>344.0</ele><time>2026-03-27T10:42:26Z</time></trkpt><trkpt lat="42.10858529298839" lon="12.134068923834247"><ele>344.0</ele><time>2026-03-27T10:42:27Z</time></trkpt><trkpt lat="42.108664730334475" lon="12.133804383123625"><ele>344.0</ele><time>2026-03-27T10:42:28Z</time></trkpt><trkpt lat="42.10875093473894" lon="12.133560577989414"><ele>345.6666666666667</ele><time>2026-03-27T10:42:29Z</time></trkpt><trkpt lat="42.1088279922694" lon="12.133298770268585"><ele>347.3333333333333</ele><time>2026-03-27T10:42:30Z</time></trkpt><trkpt lat="42.10889625277341" lon="12.133025298022739"><ele>349.0</ele><time>2026-03-27T10:42:31Z</time></trkpt><trkpt lat="42.1089485563677" lon="12.132740505526613"><ele>351.5</ele><time>2026-03-27T10:42:32Z</time></trkpt><trkpt lat="42.108980484020925" lon="12.132443523569895"><ele>354.0</ele><time>2026-03-27T10:42:33Z</time></trkpt><trkpt lat="42.10899845005321" lon="12.132132078944396"><ele>354.0</ele><time>2026-03-27T10:42:34Z</time></trkpt><trkpt lat="42.109006830043846" lon="12.131817501144443"><ele>354.0</ele><time>2026-03-27T10:42:35Z</time></trkpt><trkpt lat="42.1090077719918" lon="12.131500150415759"><ele>352.6666666666667</ele><time>2026-03-27T10:42:36Z</time></trkpt><trkpt lat="42.109005890656086" lon="12.131209568924582"><ele>351.33333333333337</ele><time>2026-03-27T10:42:37Z</time></trkpt><trkpt lat="42.109011955163616" lon="12.130943245202516"><ele>350.0</ele><time>2026-03-27T10:42:38Z</time></trkpt><trkpt lat="42.10903049045621" lon="12.130666698121034"><ele>349.6666666666667</ele><time>2026-03-27T10:42:39Z</time></trkpt><trkpt lat="42.10906988988385" lon="12.130369698473254"><ele>349.3333333333333</ele><time>2026-03-27T10:42:40Z</time></trkpt><trkpt lat="42.109119034825014" lon="12.130086555664437"><ele>349.0</ele><time>2026-03-27T10:42:41Z</time></trkpt><trkpt lat="42.10917196248762" lon="12.129830476122505"><ele>350.3333333333333</ele><time>2026-03-27T10:42:42Z</time></trkpt><trkpt lat="42.10924084734874" lon="12.1295666384592"><ele>351.6666666666667</ele><time>2026-03-27T10:42:43Z</time></trkpt><trkpt lat="42.10932467992074" lon="12.129299185345824"><ele>353.0</ele><time>2026-03-27T10:42:44Z</time></trkpt><trkpt lat="42.109418372901835" lon="12.12905280260742"><ele>353.0</ele><time>2026-03-27T10:42:45Z</time></trkpt><trkpt lat="42.10951827263334" lon="12.128826629735212"><ele>353.0</ele><time>2026-03-27T10:42:46Z</time></trkpt><trkpt lat="42.10962420682153" lon="12.12859579324769"><ele>353.0</ele><time>2026-03-27T10:42:47Z</time></trkpt><trkpt lat="42.10973514161104" lon="12.12837648904354"><ele>352.0</ele><time>2026-03-27T10:42:48Z</time></trkpt><trkpt lat="42.10987624996071" lon="12.12817391362029"><ele>351.0</ele><time>2026-03-27T10:42:49Z</time></trkpt><trkpt lat="42.11001274431572" lon="12.127944745618972"><ele>350.0</ele><time>2026-03-27T10:42:50Z</time></trkpt><trkpt lat="42.11017718746259" lon="12.127733696673088"><ele>349.33333333333337</ele><time>2026-03-27T10:42:51Z</time></trkpt><trkpt lat="42.11035676457185" lon="12.127556978032334"><ele>348.6666666666667</ele><time>2026-03-27T10:42:52Z</time></trkpt><trkpt lat="42.110526972325566" lon="12.12736270732442"><ele>348.0</ele><time>2026-03-27T10:42:53Z</time></trkpt><trkpt lat="42.11071391562038" lon="12.127196588266727"><ele>347.3333333333333</ele><time>2026-03-27T10:42:54Z</time></trkpt><trkpt lat="42.110900306992846" lon="12.127034980193944"><ele>346.66666666666663</ele><time>2026-03-27T10:42:55Z</time></trkpt><trkpt lat="42.11107987932792" lon="12.126880092027886"><ele>346.0</ele><time>2026-03-27T10:42:56Z</time></trkpt><trkpt lat="42.11124507571147" lon="12.126728755905669"><ele>346.0</ele><time>2026-03-27T10:42:57Z</time></trkpt><trkpt lat="42.1113959041276" lon="12.126593246480004"><ele>346.0</ele><time>2026-03-27T10:42:58Z</time></trkpt><trkpt lat="42.11154480078083" lon="12.126464050234771"><ele>346.0</ele><time>2026-03-27T10:42:59Z</time></trkpt><trkpt lat="42.11169251048202" lon="12.12633826194683"><ele>349.0</ele><time>2026-03-27T10:43:00Z</time></trkpt><trkpt lat="42.11184587366751" lon="12.126204083822204"><ele>352.0</ele><time>2026-03-27T10:43:01Z</time></trkpt><trkpt lat="42.11199737306839" lon="12.126074120275565"><ele>355.0</ele><time>2026-03-27T10:43:02Z</time></trkpt><trkpt lat="42.11215113152932" lon="12.125936636309426"><ele>355.0</ele><time>2026-03-27T10:43:03Z</time></trkpt><trkpt lat="42.11229836183183" lon="12.125805803844212"><ele>355.0</ele><time>2026-03-27T10:43:04Z</time></trkpt><trkpt lat="42.11244298115756" lon="12.12567475676469"><ele>355.0</ele><time>2026-03-27T10:43:05Z</time></trkpt><trkpt lat="42.11259474998074" lon="12.125548985646587"><ele>351.3333333333333</ele><time>2026-03-27T10:43:06Z</time></trkpt><trkpt lat="42.11273692431468" lon="12.125431928545614"><ele>347.6666666666667</ele><time>2026-03-27T10:43:07Z</time></trkpt><trkpt lat="42.11286801383368" lon="12.125316582900215"><ele>344.0</ele><time>2026-03-27T10:43:08Z</time></trkpt><trkpt lat="42.113002260471866" lon="12.125196601984939"><ele>344.0</ele><time>2026-03-27T10:43:09Z</time></trkpt><trkpt lat="42.11312787073039" lon="12.125083065636701"><ele>344.0</ele><time>2026-03-27T10:43:10Z</time></trkpt><trkpt lat="42.113258588830085" lon="12.124968447926042"><ele>344.0</ele><time>2026-03-27T10:43:11Z</time></trkpt><trkpt lat="42.11339469768809" lon="12.124854799340907"><ele>340.0</ele><time>2026-03-27T10:43:12Z</time></trkpt><trkpt lat="42.11354031142719" lon="12.124746216271857"><ele>336.0</ele><time>2026-03-27T10:43:13Z</time></trkpt><trkpt lat="42.11369781502995" lon="12.12465358113523"><ele>332.0</ele><time>2026-03-27T10:43:14Z</time></trkpt><trkpt lat="42.11387637010117" lon="12.12459359225615"><ele>332.0</ele><time>2026-03-27T10:43:15Z</time></trkpt><trkpt lat="42.11405266430051" lon="12.124545539376678"><ele>332.0</ele><time>2026-03-27T10:43:16Z</time></trkpt><trkpt lat="42.11424083456442" lon="12.124509327394316"><ele>332.0</ele><time>2026-03-27T10:43:17Z</time></trkpt><trkpt lat="42.11444493957865" lon="12.12450379069826"><ele>332.33333333333337</ele><time>2026-03-27T10:43:18Z</time></trkpt><trkpt lat="42.114654235411685" lon="12.124528720345312"><ele>332.6666666666667</ele><time>2026-03-27T10:43:19Z</time></trkpt><trkpt lat="42.11487749617251" lon="12.12456854999517"><ele>333.0</ele><time>2026-03-27T10:43:20Z</time></trkpt><trkpt lat="42.115104929915425" lon="12.124624269099673"><ele>332.0</ele><time>2026-03-27T10:43:21Z</time></trkpt><trkpt lat="42.11532784113528" lon="12.124695520634582"><ele>331.0</ele><time>2026-03-27T10:43:22Z</time></trkpt><trkpt lat="42.115522195356554" lon="12.124754362810597"><ele>330.0</ele><time>2026-03-27T10:43:23Z</time></trkpt><trkpt lat="42.11569868899913" lon="12.124802663622644"><ele>330.6666666666667</ele><time>2026-03-27T10:43:24Z</time></trkpt><trkpt lat="42.11586301604589" lon="12.12484589684141"><ele>331.33333333333337</ele><time>2026-03-27T10:43:25Z</time></trkpt><trkpt lat="42.11602586177135" lon="12.12489963550172"><ele>332.0</ele><time>2026-03-27T10:43:26Z</time></trkpt><trkpt lat="42.116187846712165" lon="12.124946218305457"><ele>332.6666666666667</ele><time>2026-03-27T10:43:27Z</time></trkpt><trkpt lat="42.11634618069114" lon="12.12498625322723"><ele>333.3333333333333</ele><time>2026-03-27T10:43:28Z</time></trkpt><trkpt lat="42.11650214869188" lon="12.125030729458798"><ele>334.0</ele><time>2026-03-27T10:43:29Z</time></trkpt><trkpt lat="42.11665754899659" lon="12.125075021578365"><ele>335.0</ele><time>2026-03-27T10:43:30Z</time></trkpt><trkpt lat="42.116800417555964" lon="12.125110249056092"><ele>336.0</ele><time>2026-03-27T10:43:31Z</time></trkpt><trkpt lat="42.116928593661015" lon="12.125144678022268"><ele>337.0</ele><time>2026-03-27T10:43:32Z</time></trkpt><trkpt lat="42.11706061866986" lon="12.125182232886651"><ele>338.0</ele><time>2026-03-27T10:43:33Z</time></trkpt><trkpt lat="42.11719492486041" lon="12.125224039404724"><ele>338.0</ele><time>2026-03-27T10:43:34Z</time></trkpt><trkpt lat="42.117336423835155" lon="12.125264292767502"><ele>338.0</ele><time>2026-03-27T10:43:35Z</time></trkpt><trkpt lat="42.117471486080944" lon="12.125304163435018"><ele>338.0</ele><time>2026-03-27T10:43:36Z</time></trkpt><trkpt lat="42.117594844368" lon="12.125338987516965"><ele>338.0</ele><time>2026-03-27T10:43:37Z</time></trkpt><trkpt lat="42.117704475182876" lon="12.12536844820099"><ele>340.5</ele><time>2026-03-27T10:43:38Z</time></trkpt><trkpt lat="42.117814362617864" lon="12.12540071792962"><ele>343.0</ele><time>2026-03-27T10:43:39Z</time></trkpt><trkpt lat="42.117929585819155" lon="12.12543299720129"><ele>345.5</ele><time>2026-03-27T10:43:40Z</time></trkpt><trkpt lat="42.11804980790362" lon="12.125465702929144"><ele>348.0</ele><time>2026-03-27T10:43:41Z</time></trkpt><trkpt lat="42.118167380279274" lon="12.125497056787587"><ele>349.25</ele><time>2026-03-27T10:43:42Z</time></trkpt><trkpt lat="42.118278665221624" lon="12.125527037999762"><ele>350.5</ele><time>2026-03-27T10:43:43Z</time></trkpt><trkpt lat="42.11839801607569" lon="12.125563162399855"><ele>351.75</ele><time>2026-03-27T10:43:44Z</time></trkpt><trkpt lat="42.11851166417855" lon="12.125596919997681"><ele>353.0</ele><time>2026-03-27T10:43:45Z</time></trkpt><trkpt lat="42.11861003879688" lon="12.125619649164461"><ele>353.0</ele><time>2026-03-27T10:43:46Z</time></trkpt><trkpt lat="42.1187119212522" lon="12.125642723571943"><ele>353.0</ele><time>2026-03-27T10:43:47Z</time></trkpt><trkpt lat="42.11880001184699" lon="12.125667850322456"><ele>353.0</ele><time>2026-03-27T10:43:48Z</time></trkpt><trkpt lat="42.118879426537056" lon="12.125693501162925"><ele>353.0</ele><time>2026-03-27T10:43:49Z</time></trkpt><trkpt lat="42.1189725068943" lon="12.125721032611777"><ele>353.0</ele><time>2026-03-27T10:43:50Z</time></trkpt><trkpt lat="42.119087541442134" lon="12.12575348889914"><ele>352.0</ele><time>2026-03-27T10:43:51Z</time></trkpt><trkpt lat="42.11920353041999" lon="12.125789264885501"><ele>351.0</ele><time>2026-03-27T10:43:52Z</time></trkpt><trkpt lat="42.11932591300886" lon="12.125819868443616"><ele>350.0</ele><time>2026-03-27T10:43:53Z</time></trkpt><trkpt lat="42.119447592635645" lon="12.125852616375536"><ele>349.0</ele><time>2026-03-27T10:43:54Z</time></trkpt><trkpt lat="42.11956177187869" lon="12.12588567825318"><ele>349.0</ele><time>2026-03-27T10:43:55Z</time></trkpt><trkpt lat="42.11967619974094" lon="12.125916658226581"><ele>349.0</ele><time>2026-03-27T10:43:56Z</time></trkpt><trkpt lat="42.119782795339376" lon="12.125946502238381"><ele>349.0</ele><time>2026-03-27T10:43:57Z</time></trkpt><trkpt lat="42.11988701906841" lon="12.125971920887405"><ele>349.0</ele><time>2026-03-27T10:43:58Z</time></trkpt><trkpt lat="42.11999051604366" lon="12.126002632992153"><ele>349.0</ele><time>2026-03-27T10:43:59Z</time></trkpt><trkpt lat="42.1200978588743" lon="12.126017166406585"><ele>349.8333333333333</ele><time>2026-03-27T10:44:00Z</time></trkpt><trkpt lat="42.12019740413922" lon="12.126026663112544"><ele>350.66666666666663</ele><time>2026-03-27T10:44:01Z</time></trkpt><trkpt lat="42.1202846868838" lon="12.12603557301053"><ele>351.5</ele><time>2026-03-27T10:44:02Z</time></trkpt><trkpt lat="42.120354765296206" lon="12.126038766582958"><ele>352.3333333333333</ele><time>2026-03-27T10:44:03Z</time></trkpt><trkpt lat="42.120421064738096" lon="12.126047732283567"><ele>353.1666666666667</ele><time>2026-03-27T10:44:04Z</time></trkpt><trkpt lat="42.1204929823567" lon="12.12606067089304"><ele>354.0</ele><time>2026-03-27T10:44:05Z</time></trkpt><trkpt lat="42.120571181948876" lon="12.126081667420122"><ele>354.0</ele><time>2026-03-27T10:44:06Z</time></trkpt><trkpt lat="42.120634811340295" lon="12.126116281669956"><ele>354.0</ele><time>2026-03-27T10:44:07Z</time></trkpt><trkpt lat="42.120697943163435" lon="12.126149010520189"><ele>354.0</ele><time>2026-03-27T10:44:08Z</time></trkpt><trkpt lat="42.12078154910704" lon="12.126177938646448"><ele>354.0</ele><time>2026-03-27T10:44:09Z</time></trkpt><trkpt lat="42.120866256186765" lon="12.126208910823449"><ele>354.0</ele><time>2026-03-27T10:44:10Z</time></trkpt><trkpt lat="42.120957954986416" lon="12.126253464379461"><ele>354.0</ele><time>2026-03-27T10:44:11Z</time></trkpt><trkpt lat="42.12103140692365" lon="12.126291586286671"><ele>354.3333333333333</ele><time>2026-03-27T10:44:12Z</time></trkpt><trkpt lat="42.12111969761618" lon="12.126327916660273"><ele>354.6666666666667</ele><time>2026-03-27T10:44:13Z</time></trkpt><trkpt lat="42.12121493230933" lon="12.126349922251228"><ele>355.0</ele><time>2026-03-27T10:44:14Z</time></trkpt><trkpt lat="42.12130190659683" lon="12.126369021477554"><ele>355.33333333333337</ele><time>2026-03-27T10:44:15Z</time></trkpt><trkpt lat="42.12137871654079" lon="12.126392892552609"><ele>355.6666666666667</ele><time>2026-03-27T10:44:16Z</time></trkpt><trkpt lat="42.121456021914064" lon="12.12641100956555"><ele>356.0</ele><time>2026-03-27T10:44:17Z</time></trkpt><trkpt lat="42.121535772811036" lon="12.126431139155699"><ele>355.1666666666667</ele><time>2026-03-27T10:44:18Z</time></trkpt><trkpt lat="42.12161427554161" lon="12.1264513679804"><ele>354.33333333333337</ele><time>2026-03-27T10:44:19Z</time></trkpt><trkpt lat="42.1216790546776" lon="12.126471755565836"><ele>353.5</ele><time>2026-03-27T10:44:20Z</time></trkpt><trkpt lat="42.12177313821268" lon="12.12650250251083"><ele>352.6666666666667</ele><time>2026-03-27T10:44:22Z</time></trkpt><trkpt lat="42.121849035431474" lon="12.126522748454757"><ele>351.8333333333333</ele><time>2026-03-27T10:44:24Z</time></trkpt><trkpt lat="42.12191404053409" lon="12.126530555863875"><ele>351.0</ele><time>2026-03-27T10:44:26Z</time></trkpt><trkpt lat="42.12199384670562" lon="12.126401325834536"><ele>351.0</ele><time>2026-03-27T10:44:31Z</time></trkpt><trkpt lat="42.121961856576476" lon="12.126480640701073"><ele>351.0</ele><time>2026-03-27T10:44:45Z</time></trkpt><trkpt lat="42.12187610433272" lon="12.126287291550998"><ele>351.0</ele><time>2026-03-27T10:44:49Z</time></trkpt><trkpt lat="42.121539537848264" lon="12.126315769099426"><ele>352.0</ele><time>2026-03-27T10:44:51Z</time></trkpt><trkpt lat="42.12147081622625" lon="12.126349740669058"><ele>353.0</ele><time>2026-03-27T10:44:52Z</time></trkpt><trkpt lat="42.12139994910404" lon="12.126384772837225"><ele>354.0</ele><time>2026-03-27T10:44:53Z</time></trkpt><trkpt lat="42.121307695115924" lon="12.126427497463744"><ele>355.0</ele><time>2026-03-27T10:44:54Z</time></trkpt><trkpt lat="42.12117439904981" lon="12.126305247627167"><ele>356.0</ele><time>2026-03-27T10:44:55Z</time></trkpt><trkpt lat="42.12107764736334" lon="12.126281640010806"><ele>356.0</ele><time>2026-03-27T10:44:56Z</time></trkpt><trkpt lat="42.120985382953066" lon="12.126251586642205"><ele>356.0</ele><time>2026-03-27T10:44:57Z</time></trkpt><trkpt lat="42.12092165364416" lon="12.126177632470963"><ele>356.0</ele><time>2026-03-27T10:44:58Z</time></trkpt><trkpt lat="42.12083930979271" lon="12.126120736567072"><ele>356.0</ele><time>2026-03-27T10:45:00Z</time></trkpt><trkpt lat="42.120811063330834" lon="12.12601983065525"><ele>356.0</ele><time>2026-03-27T10:45:04Z</time></trkpt><trkpt lat="42.120852265594706" lon="12.125869420702537"><ele>356.0</ele><time>2026-03-27T10:45:06Z</time></trkpt><trkpt lat="42.12091550918438" lon="12.12579345499648"><ele>356.0</ele><time>2026-03-27T10:45:07Z</time></trkpt><trkpt lat="42.12101937992566" lon="12.125710329631671"><ele>356.0</ele><time>2026-03-27T10:45:08Z</time></trkpt><trkpt lat="42.12109654146988" lon="12.125600827194626"><ele>356.0</ele><time>2026-03-27T10:45:09Z</time></trkpt><trkpt lat="42.12119749778614" lon="12.125516094403897"><ele>356.0</ele><time>2026-03-27T10:45:10Z</time></trkpt><trkpt lat="42.12127965462779" lon="12.125387621142432"><ele>355.25</ele><time>2026-03-27T10:45:11Z</time></trkpt><trkpt lat="42.121387660353726" lon="12.125257729040573"><ele>354.5</ele><time>2026-03-27T10:45:12Z</time></trkpt><trkpt lat="42.121499320982764" lon="12.125105973301444"><ele>353.75</ele><time>2026-03-27T10:45:13Z</time></trkpt><trkpt lat="42.12158571248384" lon="12.124982579812764"><ele>353.0</ele><time>2026-03-27T10:45:14Z</time></trkpt><trkpt lat="42.1216830901632" lon="12.124860968415422"><ele>358.0</ele><time>2026-03-27T10:45:15Z</time></trkpt><trkpt lat="42.12178743722791" lon="12.12472162381944"><ele>363.0</ele><time>2026-03-27T10:45:16Z</time></trkpt><trkpt lat="42.121910764646444" lon="12.124543835042948"><ele>368.0</ele><time>2026-03-27T10:45:17Z</time></trkpt><trkpt lat="42.122071382083654" lon="12.124323666574229"><ele>368.0</ele><time>2026-03-27T10:45:18Z</time></trkpt><trkpt lat="42.12225071462615" lon="12.124080694461744"><ele>368.0</ele><time>2026-03-27T10:45:19Z</time></trkpt><trkpt lat="42.12241583897463" lon="12.123871446831034"><ele>368.6666666666667</ele><time>2026-03-27T10:45:20Z</time></trkpt><trkpt lat="42.12256993122988" lon="12.123691012509157"><ele>369.3333333333333</ele><time>2026-03-27T10:45:21Z</time></trkpt><trkpt lat="42.122703059401026" lon="12.123530804566578"><ele>370.0</ele><time>2026-03-27T10:45:22Z</time></trkpt><trkpt lat="42.122838455032316" lon="12.123378519974544"><ele>370.0</ele><time>2026-03-27T10:45:23Z</time></trkpt><trkpt lat="42.12299597804268" lon="12.123249974973238"><ele>370.0</ele><time>2026-03-27T10:45:24Z</time></trkpt><trkpt lat="42.12315767310147" lon="12.123139472994804"><ele>370.0</ele><time>2026-03-27T10:45:25Z</time></trkpt><trkpt lat="42.123320637998454" lon="12.123052607589992"><ele>369.3333333333333</ele><time>2026-03-27T10:45:26Z</time></trkpt><trkpt lat="42.12349208326812" lon="12.122994546037454"><ele>368.6666666666667</ele><time>2026-03-27T10:45:27Z</time></trkpt><trkpt lat="42.12365439693032" lon="12.122962902599973"><ele>368.0</ele><time>2026-03-27T10:45:28Z</time></trkpt><trkpt lat="42.123810741583995" lon="12.122948213851663"><ele>368.0</ele><time>2026-03-27T10:45:29Z</time></trkpt><trkpt lat="42.12398052053947" lon="12.122926384717703"><ele>368.0</ele><time>2026-03-27T10:45:30Z</time></trkpt><trkpt lat="42.124152357014914" lon="12.122950338452863"><ele>368.0</ele><time>2026-03-27T10:45:31Z</time></trkpt><trkpt lat="42.124311465385354" lon="12.123018971445978"><ele>365.33333333333337</ele><time>2026-03-27T10:45:32Z</time></trkpt><trkpt lat="42.12445348544177" lon="12.123075547277985"><ele>362.6666666666667</ele><time>2026-03-27T10:45:33Z</time></trkpt><trkpt lat="42.12460245074895" lon="12.123122602590295"><ele>360.0</ele><time>2026-03-27T10:45:34Z</time></trkpt><trkpt lat="42.1247502344611" lon="12.123206571759013"><ele>359.5</ele><time>2026-03-27T10:45:35Z</time></trkpt><trkpt lat="42.12488809811388" lon="12.123306104417207"><ele>359.0</ele><time>2026-03-27T10:45:36Z</time></trkpt><trkpt lat="42.12500938638973" lon="12.123396760184336"><ele>358.5</ele><time>2026-03-27T10:45:37Z</time></trkpt><trkpt lat="42.12512837150199" lon="12.12347731431727"><ele>358.0</ele><time>2026-03-27T10:45:38Z</time></trkpt><trkpt lat="42.12524039078116" lon="12.123550458205594"><ele>357.4</ele><time>2026-03-27T10:45:39Z</time></trkpt><trkpt lat="42.125345629213506" lon="12.123612982833153"><ele>356.79999999999995</ele><time>2026-03-27T10:45:40Z</time></trkpt><trkpt lat="42.12542871813111" lon="12.123669058524419"><ele>356.2</ele><time>2026-03-27T10:45:41Z</time></trkpt><trkpt lat="42.12551236557155" lon="12.123730016016784"><ele>355.6</ele><time>2026-03-27T10:45:42Z</time></trkpt><trkpt lat="42.12560264984736" lon="12.12379564628424"><ele>355.0</ele><time>2026-03-27T10:45:43Z</time></trkpt><trkpt lat="42.12567737540921" lon="12.123856578755621"><ele>355.0</ele><time>2026-03-27T10:45:44Z</time></trkpt><trkpt lat="42.12573676237848" lon="12.123904025175921"><ele>355.0</ele><time>2026-03-27T10:45:45Z</time></trkpt><trkpt lat="42.12580177395831" lon="12.123963308085221"><ele>355.0</ele><time>2026-03-27T10:45:47Z</time></trkpt><trkpt lat="42.12588323780254" lon="12.124040058939162"><ele>355.0</ele><time>2026-03-27T10:45:50Z</time></trkpt><trkpt lat="42.125937116745604" lon="12.124089593219864"><ele>355.0</ele><time>2026-03-27T10:45:51Z</time></trkpt><trkpt lat="42.126049920043236" lon="12.124030854418594"><ele>355.0</ele><time>2026-03-27T10:45:53Z</time></trkpt><trkpt lat="42.12608954441579" lon="12.123934361149233"><ele>354.5</ele><time>2026-03-27T10:45:54Z</time></trkpt><trkpt lat="42.12612073771536" lon="12.123822095883783"><ele>354.0</ele><time>2026-03-27T10:45:55Z</time></trkpt><trkpt lat="42.1261478599913" lon="12.1237171906545"><ele>353.5</ele><time>2026-03-27T10:45:56Z</time></trkpt><trkpt lat="42.12619862760094" lon="12.123622495037665"><ele>353.0</ele><time>2026-03-27T10:45:57Z</time></trkpt><trkpt lat="42.126231201567016" lon="12.123502965566542"><ele>352.5</ele><time>2026-03-27T10:45:58Z</time></trkpt><trkpt lat="42.126239121179886" lon="12.123383049151084"><ele>352.0</ele><time>2026-03-27T10:45:59Z</time></trkpt><trkpt lat="42.12624552936929" lon="12.123260469631488"><ele>351.20000000000005</ele><time>2026-03-27T10:46:00Z</time></trkpt><trkpt lat="42.126260643534785" lon="12.123122891570453"><ele>350.4</ele><time>2026-03-27T10:46:01Z</time></trkpt><trkpt lat="42.126251418454" lon="12.12298714386923"><ele>349.6</ele><time>2026-03-27T10:46:02Z</time></trkpt><trkpt lat="42.12621652507755" lon="12.122849881148502"><ele>348.79999999999995</ele><time>2026-03-27T10:46:03Z</time></trkpt><trkpt lat="42.12616788682312" lon="12.122734260579996"><ele>348.0</ele><time>2026-03-27T10:46:04Z</time></trkpt><trkpt lat="42.12612598523941" lon="12.122629128938971"><ele>348.0</ele><time>2026-03-27T10:46:05Z</time></trkpt><trkpt lat="42.126072561896834" lon="12.12254569276612"><ele>348.0</ele><time>2026-03-27T10:46:06Z</time></trkpt><trkpt lat="42.12603109874591" lon="12.122453788009278"><ele>348.0</ele><time>2026-03-27T10:46:07Z</time></trkpt><trkpt lat="42.125986508478434" lon="12.122391669548666"><ele>348.0</ele><time>2026-03-27T10:46:08Z</time></trkpt><trkpt lat="42.12591523953445" lon="12.12232064594362"><ele>348.0</ele><time>2026-03-27T10:46:10Z</time></trkpt><trkpt lat="42.12588597938258" lon="12.122236394270999"><ele>348.0</ele><time>2026-03-27T10:46:13Z</time></trkpt><trkpt lat="42.12596618365866" lon="12.12216040683981"><ele>348.79999999999995</ele><time>2026-03-27T10:46:16Z</time></trkpt><trkpt lat="42.126023932213336" lon="12.122120081248054"><ele>349.6</ele><time>2026-03-27T10:46:17Z</time></trkpt><trkpt lat="42.12611204000723" lon="12.12210336911028"><ele>350.4</ele><time>2026-03-27T10:46:18Z</time></trkpt><trkpt lat="42.12622835036135" lon="12.122069284309873"><ele>351.20000000000005</ele><time>2026-03-27T10:46:19Z</time></trkpt><trkpt lat="42.12633134787327" lon="12.122033460479"><ele>352.0</ele><time>2026-03-27T10:46:20Z</time></trkpt><trkpt lat="42.126446987156996" lon="12.121985330397356"><ele>352.0</ele><time>2026-03-27T10:46:21Z</time></trkpt><trkpt lat="42.12654804784107" lon="12.121941797378373"><ele>352.0</ele><time>2026-03-27T10:46:22Z</time></trkpt><trkpt lat="42.12663989202851" lon="12.121904969487135"><ele>352.0</ele><time>2026-03-27T10:46:23Z</time></trkpt><trkpt lat="42.12671414018368" lon="12.121881323031456"><ele>352.0</ele><time>2026-03-27T10:46:24Z</time></trkpt><trkpt lat="42.12679423461531" lon="12.121854556190737"><ele>352.0</ele><time>2026-03-27T10:46:25Z</time></trkpt><trkpt lat="42.12686004010051" lon="12.12183562345775"><ele>352.0</ele><time>2026-03-27T10:46:26Z</time></trkpt><trkpt lat="42.12692227549688" lon="12.121805788708516"><ele>350.25</ele><time>2026-03-27T10:46:27Z</time></trkpt><trkpt lat="42.12699850385486" lon="12.121768085591546"><ele>348.5</ele><time>2026-03-27T10:46:28Z</time></trkpt><trkpt lat="42.12707865816083" lon="12.121703055649892"><ele>346.75</ele><time>2026-03-27T10:46:29Z</time></trkpt><trkpt lat="42.12718588845946" lon="12.121592593107579"><ele>345.0</ele><time>2026-03-27T10:46:30Z</time></trkpt><trkpt lat="42.12732980692175" lon="12.121494693911362"><ele>345.25</ele><time>2026-03-27T10:46:31Z</time></trkpt><trkpt lat="42.12744699920539" lon="12.121393432695857"><ele>345.5</ele><time>2026-03-27T10:46:32Z</time></trkpt><trkpt lat="42.12755971857199" lon="12.121328561040057"><ele>345.75</ele><time>2026-03-27T10:46:33Z</time></trkpt><trkpt lat="42.127661443685824" lon="12.121270481863545"><ele>346.0</ele><time>2026-03-27T10:46:34Z</time></trkpt><trkpt lat="42.127762229596875" lon="12.12122922793205"><ele>346.0</ele><time>2026-03-27T10:46:35Z</time></trkpt><trkpt lat="42.12787190415708" lon="12.12119570745241"><ele>346.0</ele><time>2026-03-27T10:46:36Z</time></trkpt><trkpt lat="42.12798319684172" lon="12.121194960016014"><ele>346.0</ele><time>2026-03-27T10:46:37Z</time></trkpt><trkpt lat="42.128124099802186" lon="12.12121418999617"><ele>346.0</ele><time>2026-03-27T10:46:38Z</time></trkpt><trkpt lat="42.128269311918444" lon="12.121235699243282"><ele>347.5</ele><time>2026-03-27T10:46:39Z</time></trkpt><trkpt lat="42.12840142052232" lon="12.121250256693115"><ele>349.0</ele><time>2026-03-27T10:46:40Z</time></trkpt><trkpt lat="42.12853922956638" lon="12.121262170677024"><ele>350.5</ele><time>2026-03-27T10:46:41Z</time></trkpt><trkpt lat="42.128685530644155" lon="12.121268424269516"><ele>352.0</ele><time>2026-03-27T10:46:42Z</time></trkpt><trkpt lat="42.12882014858835" lon="12.121264720546517"><ele>352.0</ele><time>2026-03-27T10:46:43Z</time></trkpt><trkpt lat="42.12894448373449" lon="12.121257970228537"><ele>352.0</ele><time>2026-03-27T10:46:44Z</time></trkpt><trkpt lat="42.12907446678232" lon="12.121239374453188"><ele>352.0</ele><time>2026-03-27T10:46:45Z</time></trkpt><trkpt lat="42.12919304430232" lon="12.121202099965663"><ele>352.0</ele><time>2026-03-27T10:46:46Z</time></trkpt><trkpt lat="42.12931238113379" lon="12.121161533710834"><ele>353.5</ele><time>2026-03-27T10:46:47Z</time></trkpt><trkpt lat="42.129433998856705" lon="12.121123816849199"><ele>355.0</ele><time>2026-03-27T10:46:48Z</time></trkpt><trkpt lat="42.129559924603804" lon="12.121097352894166"><ele>356.5</ele><time>2026-03-27T10:46:49Z</time></trkpt><trkpt lat="42.12969454329258" lon="12.121096130719714"><ele>358.0</ele><time>2026-03-27T10:46:50Z</time></trkpt><trkpt lat="42.12980191616344" lon="12.121101254768513"><ele>358.25</ele><time>2026-03-27T10:46:51Z</time></trkpt><trkpt lat="42.129899339535406" lon="12.121103453889845"><ele>358.5</ele><time>2026-03-27T10:46:52Z</time></trkpt><trkpt lat="42.13001349758322" lon="12.121107388225832"><ele>358.75</ele><time>2026-03-27T10:46:53Z</time></trkpt><trkpt lat="42.13015751234579" lon="12.121099696052484"><ele>359.0</ele><time>2026-03-27T10:46:54Z</time></trkpt><trkpt lat="42.13033205035422" lon="12.121090146679947"><ele>359.0</ele><time>2026-03-27T10:46:55Z</time></trkpt><trkpt lat="42.13050001253384" lon="12.121103056527973"><ele>359.0</ele><time>2026-03-27T10:46:56Z</time></trkpt><trkpt lat="42.13065713741949" lon="12.121109870320018"><ele>359.0</ele><time>2026-03-27T10:46:57Z</time></trkpt><trkpt lat="42.13081466609531" lon="12.121116125583303"><ele>360.25</ele><time>2026-03-27T10:46:58Z</time></trkpt><trkpt lat="42.130951430549516" lon="12.121117780034263"><ele>361.5</ele><time>2026-03-27T10:46:59Z</time></trkpt><trkpt lat="42.131109077110615" lon="12.121121628747531"><ele>362.75</ele><time>2026-03-27T10:47:00Z</time></trkpt><trkpt lat="42.131251089588005" lon="12.121130125139258"><ele>364.0</ele><time>2026-03-27T10:47:01Z</time></trkpt><trkpt lat="42.1313677079429" lon="12.12113850004684"><ele>364.0</ele><time>2026-03-27T10:47:02Z</time></trkpt><trkpt lat="42.13146989866107" lon="12.121148980531652"><ele>364.0</ele><time>2026-03-27T10:47:03Z</time></trkpt><trkpt lat="42.131541494247905" lon="12.121162342697534"><ele>364.0</ele><time>2026-03-27T10:47:04Z</time></trkpt><trkpt lat="42.13163071688216" lon="12.121190191015357"><ele>364.0</ele><time>2026-03-27T10:47:06Z</time></trkpt><trkpt lat="42.13169439333779" lon="12.12120640449003"><ele>364.0</ele><time>2026-03-27T10:47:10Z</time></trkpt><trkpt lat="42.13172583395994" lon="12.121003984675278"><ele>365.79999999999995</ele><time>2026-03-27T10:47:12Z</time></trkpt><trkpt lat="42.13171339678418" lon="12.120869929590869"><ele>367.59999999999997</ele><time>2026-03-27T10:47:13Z</time></trkpt><trkpt lat="42.13173232982482" lon="12.12071556227162"><ele>369.4</ele><time>2026-03-27T10:47:14Z</time></trkpt><trkpt lat="42.131741688807494" lon="12.120587614429244"><ele>371.2</ele><time>2026-03-27T10:47:15Z</time></trkpt><trkpt lat="42.1317515470596" lon="12.120440236242759"><ele>373.0</ele><time>2026-03-27T10:47:16Z</time></trkpt><trkpt lat="42.13176284868581" lon="12.12027128005444"><ele>373.0</ele><time>2026-03-27T10:47:17Z</time></trkpt><trkpt lat="42.13177605982363" lon="12.120088721704215"><ele>373.0</ele><time>2026-03-27T10:47:18Z</time></trkpt><trkpt lat="42.13179043206608" lon="12.119921572563838"><ele>373.0</ele><time>2026-03-27T10:47:19Z</time></trkpt><trkpt lat="42.13180766772627" lon="12.119759690348419"><ele>373.0</ele><time>2026-03-27T10:47:20Z</time></trkpt><trkpt lat="42.13181797586123" lon="12.119547111945037"><ele>373.0</ele><time>2026-03-27T10:47:21Z</time></trkpt><trkpt lat="42.131853398717865" lon="12.119310144145379"><ele>373.0</ele><time>2026-03-27T10:47:22Z</time></trkpt><trkpt lat="42.131918812135225" lon="12.119136719696428"><ele>373.0</ele><time>2026-03-27T10:47:23Z</time></trkpt><trkpt lat="42.13195897696734" lon="12.118937309392619"><ele>371.5</ele><time>2026-03-27T10:47:24Z</time></trkpt><trkpt lat="42.13201240760666" lon="12.118738299474504"><ele>370.0</ele><time>2026-03-27T10:47:25Z</time></trkpt><trkpt lat="42.13207519912691" lon="12.118558842086447"><ele>368.5</ele><time>2026-03-27T10:47:26Z</time></trkpt><trkpt lat="42.13212471684497" lon="12.118376148621703"><ele>367.0</ele><time>2026-03-27T10:47:27Z</time></trkpt><trkpt lat="42.132173326391744" lon="12.118196806428562"><ele>365.5</ele><time>2026-03-27T10:47:28Z</time></trkpt><trkpt lat="42.132221017029046" lon="12.118026016361283"><ele>364.0</ele><time>2026-03-27T10:47:29Z</time></trkpt><trkpt lat="42.13226540461691" lon="12.117861606909822"><ele>362.5</ele><time>2026-03-27T10:47:30Z</time></trkpt><trkpt lat="42.1323155180372" lon="12.117666662835235"><ele>361.0</ele><time>2026-03-27T10:47:31Z</time></trkpt><trkpt lat="42.13236243270181" lon="12.11746458087983"><ele>361.0</ele><time>2026-03-27T10:47:32Z</time></trkpt><trkpt lat="42.13238201634671" lon="12.117268670418621"><ele>361.0</ele><time>2026-03-27T10:47:33Z</time></trkpt><trkpt lat="42.1323843792271" lon="12.11708438440899"><ele>361.0</ele><time>2026-03-27T10:47:34Z</time></trkpt><trkpt lat="42.13238230791188" lon="12.116911723453075"><ele>361.0</ele><time>2026-03-27T10:47:35Z</time></trkpt><trkpt lat="42.132350150846435" lon="12.116740823425353"><ele>361.0</ele><time>2026-03-27T10:47:36Z</time></trkpt><trkpt lat="42.13232616128317" lon="12.116570469954326"><ele>361.0</ele><time>2026-03-27T10:47:37Z</time></trkpt><trkpt lat="42.13226724093273" lon="12.116416534595507"><ele>361.0</ele><time>2026-03-27T10:47:38Z</time></trkpt><trkpt lat="42.13217414552531" lon="12.11629763712191"><ele>361.0</ele><time>2026-03-27T10:47:39Z</time></trkpt><trkpt lat="42.13205657913314" lon="12.116233087749823"><ele>365.0</ele><time>2026-03-27T10:47:40Z</time></trkpt><trkpt lat="42.13192161578163" lon="12.116185560865155"><ele>369.0</ele><time>2026-03-27T10:47:41Z</time></trkpt><trkpt lat="42.13176625901044" lon="12.116062069117177"><ele>373.0</ele><time>2026-03-27T10:47:42Z</time></trkpt><trkpt lat="42.13158939514097" lon="12.115936191905176"><ele>372.0</ele><time>2026-03-27T10:47:43Z</time></trkpt><trkpt lat="42.13144495012112" lon="12.115810167516086"><ele>371.0</ele><time>2026-03-27T10:47:44Z</time></trkpt><trkpt lat="42.13133731568277" lon="12.115677329380253"><ele>370.0</ele><time>2026-03-27T10:47:45Z</time></trkpt><trkpt lat="42.13124859318705" lon="12.115517448950191"><ele>370.0</ele><time>2026-03-27T10:47:46Z</time></trkpt><trkpt lat="42.13115406942885" lon="12.115326756484402"><ele>370.0</ele><time>2026-03-27T10:47:47Z</time></trkpt><trkpt lat="42.131045509406086" lon="12.11508006008809"><ele>370.0</ele><time>2026-03-27T10:47:48Z</time></trkpt><trkpt lat="42.130927410515376" lon="12.114816251000377"><ele>370.3333333333333</ele><time>2026-03-27T10:47:49Z</time></trkpt><trkpt lat="42.130809350845276" lon="12.114554406763068"><ele>370.6666666666667</ele><time>2026-03-27T10:47:50Z</time></trkpt><trkpt lat="42.13070432075152" lon="12.114325452288135"><ele>371.0</ele><time>2026-03-27T10:47:51Z</time></trkpt><trkpt lat="42.130595185898116" lon="12.114139462469618"><ele>368.0</ele><time>2026-03-27T10:47:52Z</time></trkpt><trkpt lat="42.13048799441892" lon="12.113949874396143"><ele>365.0</ele><time>2026-03-27T10:47:53Z</time></trkpt><trkpt lat="42.130387375176" lon="12.11377680232105"><ele>362.0</ele><time>2026-03-27T10:47:54Z</time></trkpt><trkpt lat="42.13029675530402" lon="12.113613124833208"><ele>362.0</ele><time>2026-03-27T10:47:55Z</time></trkpt><trkpt lat="42.13021594752523" lon="12.113469782773741"><ele>362.0</ele><time>2026-03-27T10:47:56Z</time></trkpt><trkpt lat="42.13018057268214" lon="12.113339502274307"><ele>362.0</ele><time>2026-03-27T10:47:57Z</time></trkpt><trkpt lat="42.13015106983911" lon="12.113223568022198"><ele>362.0</ele><time>2026-03-27T10:47:58Z</time></trkpt><trkpt lat="42.13013928239308" lon="12.113098649523392"><ele>362.0</ele><time>2026-03-27T10:47:59Z</time></trkpt><trkpt lat="42.13020936170962" lon="12.112991365143712"><ele>360.25</ele><time>2026-03-27T10:48:00Z</time></trkpt><trkpt lat="42.13027362710551" lon="12.112878673350615"><ele>358.5</ele><time>2026-03-27T10:48:01Z</time></trkpt><trkpt lat="42.130383043917924" lon="12.112756285752674"><ele>356.75</ele><time>2026-03-27T10:48:02Z</time></trkpt><trkpt lat="42.130493338878374" lon="12.112607712386028"><ele>355.0</ele><time>2026-03-27T10:48:03Z</time></trkpt><trkpt lat="42.13058512701861" lon="12.112472775996663"><ele>354.25</ele><time>2026-03-27T10:48:04Z</time></trkpt><trkpt lat="42.13066029859618" lon="12.112315455243499"><ele>353.5</ele><time>2026-03-27T10:48:05Z</time></trkpt><trkpt lat="42.130712944230424" lon="12.112134118876721"><ele>352.75</ele><time>2026-03-27T10:48:06Z</time></trkpt><trkpt lat="42.13073294818285" lon="12.11193659329469"><ele>352.0</ele><time>2026-03-27T10:48:07Z</time></trkpt><trkpt lat="42.13072473168377" lon="12.111740822878353"><ele>349.3333333333333</ele><time>2026-03-27T10:48:08Z</time></trkpt><trkpt lat="42.130686191023905" lon="12.111542522574638"><ele>346.6666666666667</ele><time>2026-03-27T10:48:09Z</time></trkpt><trkpt lat="42.13065431402082" lon="12.111335721189485"><ele>344.0</ele><time>2026-03-27T10:48:10Z</time></trkpt><trkpt lat="42.13061115257425" lon="12.111117383443831"><ele>344.0</ele><time>2026-03-27T10:48:11Z</time></trkpt><trkpt lat="42.13056484598702" lon="12.110904580449558"><ele>344.0</ele><time>2026-03-27T10:48:12Z</time></trkpt><trkpt lat="42.130499824392615" lon="12.110720952042902"><ele>344.0</ele><time>2026-03-27T10:48:13Z</time></trkpt><trkpt lat="42.13044301718229" lon="12.110546750383131"><ele>346.0</ele><time>2026-03-27T10:48:14Z</time></trkpt><trkpt lat="42.13034662228205" lon="12.110399054987898"><ele>348.0</ele><time>2026-03-27T10:48:15Z</time></trkpt><trkpt lat="42.13021778114022" lon="12.110272646563484"><ele>350.0</ele><time>2026-03-27T10:48:16Z</time></trkpt><trkpt lat="42.130056537321565" lon="12.11014834655782"><ele>349.6666666666667</ele><time>2026-03-27T10:48:17Z</time></trkpt><trkpt lat="42.129888646235116" lon="12.109970217814341"><ele>349.3333333333333</ele><time>2026-03-27T10:48:18Z</time></trkpt><trkpt lat="42.12972329239861" lon="12.10982041227872"><ele>349.0</ele><time>2026-03-27T10:48:19Z</time></trkpt><trkpt lat="42.12955726415091" lon="12.109666852974042"><ele>349.0</ele><time>2026-03-27T10:48:20Z</time></trkpt><trkpt lat="42.12938615532097" lon="12.109496040569088"><ele>349.0</ele><time>2026-03-27T10:48:21Z</time></trkpt><trkpt lat="42.12923259742297" lon="12.109303226916344"><ele>349.0</ele><time>2026-03-27T10:48:22Z</time></trkpt><trkpt lat="42.12909137427367" lon="12.109118351837004"><ele>349.0</ele><time>2026-03-27T10:48:23Z</time></trkpt><trkpt lat="42.1289478826756" lon="12.10897681069297"><ele>349.0</ele><time>2026-03-27T10:48:24Z</time></trkpt><trkpt lat="42.12882444773015" lon="12.108838612278358"><ele>349.0</ele><time>2026-03-27T10:48:25Z</time></trkpt><trkpt lat="42.12870182735133" lon="12.108700680152982"><ele>349.0</ele><time>2026-03-27T10:48:26Z</time></trkpt><trkpt lat="42.12859465187659" lon="12.108567722014838"><ele>349.0</ele><time>2026-03-27T10:48:27Z</time></trkpt><trkpt lat="42.12851652916358" lon="12.108429067942296"><ele>349.0</ele><time>2026-03-27T10:48:28Z</time></trkpt><trkpt lat="42.12846881952972" lon="12.108256473640857"><ele>349.0</ele><time>2026-03-27T10:48:29Z</time></trkpt><trkpt lat="42.128498354384796" lon="12.10806805600148"><ele>347.3333333333333</ele><time>2026-03-27T10:48:30Z</time></trkpt><trkpt lat="42.12852150143107" lon="12.10788154508145"><ele>345.6666666666667</ele><time>2026-03-27T10:48:31Z</time></trkpt><trkpt lat="42.128553564831115" lon="12.107669928488928"><ele>344.0</ele><time>2026-03-27T10:48:32Z</time></trkpt><trkpt lat="42.128628019310014" lon="12.107478552505313"><ele>343.0</ele><time>2026-03-27T10:48:33Z</time></trkpt><trkpt lat="42.12869614589678" lon="12.10733564072293"><ele>342.0</ele><time>2026-03-27T10:48:34Z</time></trkpt><trkpt lat="42.12877330779517" lon="12.10719185348251"><ele>341.0</ele><time>2026-03-27T10:48:35Z</time></trkpt><trkpt lat="42.12885890790616" lon="12.107057663638605"><ele>340.0</ele><time>2026-03-27T10:48:36Z</time></trkpt><trkpt lat="42.128948343997905" lon="12.106922824969665"><ele>340.0</ele><time>2026-03-27T10:48:37Z</time></trkpt><trkpt lat="42.12903779054688" lon="12.106781851212293"><ele>340.0</ele><time>2026-03-27T10:48:38Z</time></trkpt><trkpt lat="42.12912742681148" lon="12.106637579346168"><ele>340.0</ele><time>2026-03-27T10:48:39Z</time></trkpt><trkpt lat="42.129229966544976" lon="12.10651773109837"><ele>340.0</ele><time>2026-03-27T10:48:40Z</time></trkpt><trkpt lat="42.12931073809334" lon="12.10639608534311"><ele>340.5</ele><time>2026-03-27T10:48:41Z</time></trkpt><trkpt lat="42.1293843638047" lon="12.106281004930949"><ele>341.0</ele><time>2026-03-27T10:48:42Z</time></trkpt><trkpt lat="42.12944137862479" lon="12.10615436061545"><ele>341.5</ele><time>2026-03-27T10:48:43Z</time></trkpt><trkpt lat="42.12951038368896" lon="12.106034496470484"><ele>342.0</ele><time>2026-03-27T10:48:44Z</time></trkpt><trkpt lat="42.12959359010462" lon="12.105922586672119"><ele>342.0</ele><time>2026-03-27T10:48:45Z</time></trkpt><trkpt lat="42.1296585037875" lon="12.105794085441262"><ele>342.0</ele><time>2026-03-27T10:48:46Z</time></trkpt><trkpt lat="42.12971556254278" lon="12.105654558280044"><ele>342.0</ele><time>2026-03-27T10:48:47Z</time></trkpt><trkpt lat="42.129760799913434" lon="12.105506144410004"><ele>342.0</ele><time>2026-03-27T10:48:48Z</time></trkpt><trkpt lat="42.12975650250501" lon="12.105340753897169"><ele>341.0</ele><time>2026-03-27T10:48:49Z</time></trkpt><trkpt lat="42.1297393662595" lon="12.105190349712123"><ele>340.0</ele><time>2026-03-27T10:48:50Z</time></trkpt><trkpt lat="42.129681080953006" lon="12.105035709800497"><ele>339.0</ele><time>2026-03-27T10:48:51Z</time></trkpt><trkpt lat="42.129595435378526" lon="12.104880572014714"><ele>338.0</ele><time>2026-03-27T10:48:52Z</time></trkpt><trkpt lat="42.12950881596601" lon="12.10467769314372"><ele>337.33333333333337</ele><time>2026-03-27T10:48:53Z</time></trkpt><trkpt lat="42.129389695196636" lon="12.10445471394286"><ele>336.6666666666667</ele><time>2026-03-27T10:48:54Z</time></trkpt><trkpt lat="42.129258024650674" lon="12.104209413169695"><ele>336.0</ele><time>2026-03-27T10:48:55Z</time></trkpt><trkpt lat="42.12912895963455" lon="12.103965844225062"><ele>334.3333333333333</ele><time>2026-03-27T10:48:56Z</time></trkpt><trkpt lat="42.12900487634292" lon="12.103716813717604"><ele>332.66666666666663</ele><time>2026-03-27T10:48:57Z</time></trkpt><trkpt lat="42.12888503661542" lon="12.1034595155713"><ele>331.0</ele><time>2026-03-27T10:48:58Z</time></trkpt><trkpt lat="42.12877607513998" lon="12.103203721763832"><ele>331.0</ele><time>2026-03-27T10:48:59Z</time></trkpt><trkpt lat="42.128657306987776" lon="12.10291798372998"><ele>331.0</ele><time>2026-03-27T10:49:00Z</time></trkpt><trkpt lat="42.12854588214272" lon="12.10264770151166"><ele>330.0</ele><time>2026-03-27T10:49:01Z</time></trkpt><trkpt lat="42.12843421176856" lon="12.102374116623526"><ele>329.0</ele><time>2026-03-27T10:49:02Z</time></trkpt><trkpt lat="42.12832847953596" lon="12.102130529407034"><ele>328.0</ele><time>2026-03-27T10:49:03Z</time></trkpt><trkpt lat="42.12822416470891" lon="12.101903499141121"><ele>328.0</ele><time>2026-03-27T10:49:04Z</time></trkpt><trkpt lat="42.12811126525578" lon="12.101666610041535"><ele>328.0</ele><time>2026-03-27T10:49:05Z</time></trkpt><trkpt lat="42.12800235087096" lon="12.101440555508608"><ele>328.0</ele><time>2026-03-27T10:49:06Z</time></trkpt><trkpt lat="42.12790281561449" lon="12.101230985844731"><ele>327.66666666666663</ele><time>2026-03-27T10:49:07Z</time></trkpt><trkpt lat="42.12780286111409" lon="12.101015720995056"><ele>327.3333333333333</ele><time>2026-03-27T10:49:08Z</time></trkpt><trkpt lat="42.12767907671526" lon="12.100780607128122"><ele>327.0</ele><time>2026-03-27T10:49:09Z</time></trkpt><trkpt lat="42.127580788126835" lon="12.100496065042327"><ele>327.0</ele><time>2026-03-27T10:49:10Z</time></trkpt><trkpt lat="42.12746991866243" lon="12.10026942203868"><ele>327.0</ele><time>2026-03-27T10:49:11Z</time></trkpt><trkpt lat="42.12738773229123" lon="12.100032953604565"><ele>327.0</ele><time>2026-03-27T10:49:12Z</time></trkpt><trkpt lat="42.12730515398298" lon="12.099768736364584"><ele>326.5</ele><time>2026-03-27T10:49:13Z</time></trkpt><trkpt lat="42.127226703324915" lon="12.099490877159372"><ele>326.0</ele><time>2026-03-27T10:49:14Z</time></trkpt><trkpt lat="42.12715108761338" lon="12.099157330861589"><ele>326.5</ele><time>2026-03-27T10:49:15Z</time></trkpt><trkpt lat="42.12708521589832" lon="12.098849821921059"><ele>327.0</ele><time>2026-03-27T10:49:16Z</time></trkpt><trkpt lat="42.12704277444658" lon="12.098557921415166"><ele>327.0</ele><time>2026-03-27T10:49:17Z</time></trkpt><trkpt lat="42.12699115999554" lon="12.098300669934764"><ele>327.0</ele><time>2026-03-27T10:49:18Z</time></trkpt><trkpt lat="42.126932796951564" lon="12.09806076743726"><ele>327.0</ele><time>2026-03-27T10:49:19Z</time></trkpt><trkpt lat="42.126897069072655" lon="12.097825442707308"><ele>327.0</ele><time>2026-03-27T10:49:20Z</time></trkpt><trkpt lat="42.12686641333816" lon="12.097574962502655"><ele>327.0</ele><time>2026-03-27T10:49:21Z</time></trkpt><trkpt lat="42.126854955366696" lon="12.097318168910219"><ele>327.0</ele><time>2026-03-27T10:49:22Z</time></trkpt><trkpt lat="42.12685176165979" lon="12.09706008512543"><ele>326.0</ele><time>2026-03-27T10:49:23Z</time></trkpt><trkpt lat="42.12684766198921" lon="12.096823430775322"><ele>325.0</ele><time>2026-03-27T10:49:24Z</time></trkpt><trkpt lat="42.1268386442732" lon="12.096573107192599"><ele>324.0</ele><time>2026-03-27T10:49:25Z</time></trkpt><trkpt lat="42.126848350556344" lon="12.096301318911804"><ele>323.3333333333333</ele><time>2026-03-27T10:49:26Z</time></trkpt><trkpt lat="42.12683948707859" lon="12.096015686621804"><ele>322.66666666666663</ele><time>2026-03-27T10:49:27Z</time></trkpt><trkpt lat="42.126803849328816" lon="12.095709579984963"><ele>322.0</ele><time>2026-03-27T10:49:28Z</time></trkpt><trkpt lat="42.12676946226716" lon="12.095363960575668"><ele>320.0</ele><time>2026-03-27T10:49:29Z</time></trkpt><trkpt lat="42.12671790111894" lon="12.094969789746603"><ele>318.0</ele><time>2026-03-27T10:49:30Z</time></trkpt><trkpt lat="42.12666273079548" lon="12.094555986028125"><ele>317.0</ele><time>2026-03-27T10:49:31Z</time></trkpt><trkpt lat="42.12660695673997" lon="12.094146405825084"><ele>316.0</ele><time>2026-03-27T10:49:32Z</time></trkpt><trkpt lat="42.12657463857085" lon="12.093778274383668"><ele>315.5</ele><time>2026-03-27T10:49:33Z</time></trkpt><trkpt lat="42.126513147270714" lon="12.09343627702932"><ele>315.0</ele><time>2026-03-27T10:49:34Z</time></trkpt><trkpt lat="42.126467467880445" lon="12.09311654192738"><ele>313.3333333333333</ele><time>2026-03-27T10:49:35Z</time></trkpt><trkpt lat="42.12642354489253" lon="12.092820475561076"><ele>311.66666666666663</ele><time>2026-03-27T10:49:36Z</time></trkpt><trkpt lat="42.12638625758713" lon="12.09254618324013"><ele>310.0</ele><time>2026-03-27T10:49:37Z</time></trkpt><trkpt lat="42.12635384514335" lon="12.092287229972142"><ele>309.66666666666663</ele><time>2026-03-27T10:49:38Z</time></trkpt><trkpt lat="42.126323441438466" lon="12.092039267380263"><ele>309.3333333333333</ele><time>2026-03-27T10:49:39Z</time></trkpt><trkpt lat="42.126298015213145" lon="12.091776827830982"><ele>309.0</ele><time>2026-03-27T10:49:40Z</time></trkpt><trkpt lat="42.12629043476488" lon="12.091492138768576"><ele>309.0</ele><time>2026-03-27T10:49:41Z</time></trkpt><trkpt lat="42.12630810731081" lon="12.091214319634474"><ele>309.0</ele><time>2026-03-27T10:49:42Z</time></trkpt><trkpt lat="42.1263207819398" lon="12.090912643401749"><ele>309.0</ele><time>2026-03-27T10:49:43Z</time></trkpt><trkpt lat="42.126327717251456" lon="12.09063878619576"><ele>309.0</ele><time>2026-03-27T10:49:44Z</time></trkpt><trkpt lat="42.12633639413727" lon="12.0903857735719"><ele>309.0</ele><time>2026-03-27T10:49:45Z</time></trkpt><trkpt lat="42.12634358630276" lon="12.09013064815387"><ele>309.0</ele><time>2026-03-27T10:49:46Z</time></trkpt><trkpt lat="42.126349080582756" lon="12.08984853846803"><ele>309.0</ele><time>2026-03-27T10:49:47Z</time></trkpt><trkpt lat="42.12635795832461" lon="12.089524115034541"><ele>309.0</ele><time>2026-03-27T10:49:48Z</time></trkpt><trkpt lat="42.12636885104484" lon="12.089184044570102"><ele>309.0</ele><time>2026-03-27T10:49:49Z</time></trkpt><trkpt lat="42.12637870953759" lon="12.088888953603933"><ele>309.0</ele><time>2026-03-27T10:49:50Z</time></trkpt><trkpt lat="42.126388413777356" lon="12.088604296251555"><ele>309.0</ele><time>2026-03-27T10:49:51Z</time></trkpt><trkpt lat="42.126397145992314" lon="12.088306263321211"><ele>308.3333333333333</ele><time>2026-03-27T10:49:52Z</time></trkpt><trkpt lat="42.12640244910799" lon="12.087990793911151"><ele>307.66666666666663</ele><time>2026-03-27T10:49:53Z</time></trkpt><trkpt lat="42.12641215233262" lon="12.087703230798652"><ele>307.0</ele><time>2026-03-27T10:49:54Z</time></trkpt><trkpt lat="42.12642293109571" lon="12.087428122986568"><ele>307.0</ele><time>2026-03-27T10:49:55Z</time></trkpt><trkpt lat="42.12643261190979" lon="12.087152234132564"><ele>307.0</ele><time>2026-03-27T10:49:56Z</time></trkpt><trkpt lat="42.12644784871404" lon="12.086885004832327"><ele>307.0</ele><time>2026-03-27T10:49:57Z</time></trkpt><trkpt lat="42.126486196603686" lon="12.086605028200061"><ele>306.0</ele><time>2026-03-27T10:49:58Z</time></trkpt><trkpt lat="42.126548604508635" lon="12.086320460639014"><ele>305.0</ele><time>2026-03-27T10:49:59Z</time></trkpt><trkpt lat="42.126628534459954" lon="12.086008922792866"><ele>303.5</ele><time>2026-03-27T10:50:00Z</time></trkpt><trkpt lat="42.126703046217095" lon="12.085698452109256"><ele>302.0</ele><time>2026-03-27T10:50:01Z</time></trkpt><trkpt lat="42.126770977787565" lon="12.085414314538765"><ele>302.0</ele><time>2026-03-27T10:50:02Z</time></trkpt><trkpt lat="42.12684603495588" lon="12.085103831871846"><ele>302.0</ele><time>2026-03-27T10:50:03Z</time></trkpt><trkpt lat="42.12691308261356" lon="12.084817925185497"><ele>301.33333333333337</ele><time>2026-03-27T10:50:04Z</time></trkpt><trkpt lat="42.126974818896336" lon="12.084552084580116"><ele>300.6666666666667</ele><time>2026-03-27T10:50:05Z</time></trkpt><trkpt lat="42.127039528022834" lon="12.08428157740897"><ele>300.0</ele><time>2026-03-27T10:50:06Z</time></trkpt><trkpt lat="42.12710266956145" lon="12.08400324646347"><ele>299.3333333333333</ele><time>2026-03-27T10:50:07Z</time></trkpt><trkpt lat="42.12716105859883" lon="12.083751112745773"><ele>298.66666666666663</ele><time>2026-03-27T10:50:08Z</time></trkpt><trkpt lat="42.1272237995479" lon="12.083482104851399"><ele>298.0</ele><time>2026-03-27T10:50:09Z</time></trkpt><trkpt lat="42.12728606981764" lon="12.083223168361268"><ele>297.3333333333333</ele><time>2026-03-27T10:50:10Z</time></trkpt><trkpt lat="42.127350795593784" lon="12.082966789505845"><ele>296.6666666666667</ele><time>2026-03-27T10:50:11Z</time></trkpt><trkpt lat="42.1274203448095" lon="12.082702966049279"><ele>296.0</ele><time>2026-03-27T10:50:12Z</time></trkpt><trkpt lat="42.12750418004231" lon="12.082400415489234"><ele>293.0</ele><time>2026-03-27T10:50:13Z</time></trkpt><trkpt lat="42.12760208897452" lon="12.082086825392103"><ele>290.0</ele><time>2026-03-27T10:50:14Z</time></trkpt><trkpt lat="42.127700089439436" lon="12.081815079600645"><ele>287.5</ele><time>2026-03-27T10:50:15Z</time></trkpt><trkpt lat="42.127805238807845" lon="12.081521664650275"><ele>285.0</ele><time>2026-03-27T10:50:16Z</time></trkpt><trkpt lat="42.1278995442372" lon="12.08125025234106"><ele>285.0</ele><time>2026-03-27T10:50:17Z</time></trkpt><trkpt lat="42.127988364594884" lon="12.080999267335992"><ele>285.0</ele><time>2026-03-27T10:50:18Z</time></trkpt><trkpt lat="42.12807743260944" lon="12.080738904541864"><ele>285.0</ele><time>2026-03-27T10:50:19Z</time></trkpt><trkpt lat="42.12816319762909" lon="12.08047091870079"><ele>284.6666666666667</ele><time>2026-03-27T10:50:20Z</time></trkpt><trkpt lat="42.12822737348027" lon="12.080192102746302"><ele>284.33333333333337</ele><time>2026-03-27T10:50:21Z</time></trkpt><trkpt lat="42.1282509415225" lon="12.079892046486261"><ele>284.0</ele><time>2026-03-27T10:50:22Z</time></trkpt><trkpt lat="42.12825633721181" lon="12.079559012476606"><ele>283.0</ele><time>2026-03-27T10:50:23Z</time></trkpt><trkpt lat="42.12825318042541" lon="12.079219976117459"><ele>282.0</ele><time>2026-03-27T10:50:24Z</time></trkpt><trkpt lat="42.12824187787111" lon="12.078915255340561"><ele>281.0</ele><time>2026-03-27T10:50:25Z</time></trkpt><trkpt lat="42.12821341606956" lon="12.078639077238112"><ele>280.0</ele><time>2026-03-27T10:50:26Z</time></trkpt><trkpt lat="42.128159731088886" lon="12.078383654195397"><ele>279.0</ele><time>2026-03-27T10:50:27Z</time></trkpt><trkpt lat="42.12807122411147" lon="12.078129864102277"><ele>282.5</ele><time>2026-03-27T10:50:28Z</time></trkpt><trkpt lat="42.12795619509743" lon="12.077852509498388"><ele>286.0</ele><time>2026-03-27T10:50:29Z</time></trkpt><trkpt lat="42.12783426964367" lon="12.077522863371918"><ele>286.0</ele><time>2026-03-27T10:50:30Z</time></trkpt><trkpt lat="42.12771231430225" lon="12.07717866777094"><ele>286.0</ele><time>2026-03-27T10:50:31Z</time></trkpt><trkpt lat="42.12760023566742" lon="12.076852505824982"><ele>285.5</ele><time>2026-03-27T10:50:32Z</time></trkpt><trkpt lat="42.12749630261026" lon="12.07655493046436"><ele>285.0</ele><time>2026-03-27T10:50:33Z</time></trkpt><trkpt lat="42.1273737294427" lon="12.076219488902021"><ele>285.0</ele><time>2026-03-27T10:50:34Z</time></trkpt><trkpt lat="42.12726227190285" lon="12.075899068358183"><ele>285.0</ele><time>2026-03-27T10:50:35Z</time></trkpt><trkpt lat="42.127150587137244" lon="12.075595741860024"><ele>284.5</ele><time>2026-03-27T10:50:36Z</time></trkpt><trkpt lat="42.127038252667845" lon="12.075276329735495"><ele>284.0</ele><time>2026-03-27T10:50:37Z</time></trkpt><trkpt lat="42.126932153794215" lon="12.074967828021883"><ele>283.0</ele><time>2026-03-27T10:50:38Z</time></trkpt><trkpt lat="42.126827775383816" lon="12.07468966923219"><ele>282.0</ele><time>2026-03-27T10:50:39Z</time></trkpt><trkpt lat="42.126749126920664" lon="12.074396622397641"><ele>282.0</ele><time>2026-03-27T10:50:40Z</time></trkpt><trkpt lat="42.12665385398965" lon="12.074135169442124"><ele>282.0</ele><time>2026-03-27T10:50:41Z</time></trkpt><trkpt lat="42.12656505935395" lon="12.073890820481948"><ele>282.0</ele><time>2026-03-27T10:50:42Z</time></trkpt><trkpt lat="42.1264843409905" lon="12.073664448410518"><ele>281.6666666666667</ele><time>2026-03-27T10:50:43Z</time></trkpt><trkpt lat="42.126400057034736" lon="12.073442162346891"><ele>281.33333333333337</ele><time>2026-03-27T10:50:44Z</time></trkpt><trkpt lat="42.126295068465794" lon="12.07324628952991"><ele>281.0</ele><time>2026-03-27T10:50:45Z</time></trkpt><trkpt lat="42.12617924317363" lon="12.073063462996247"><ele>280.0</ele><time>2026-03-27T10:50:46Z</time></trkpt><trkpt lat="42.12601987923436" lon="12.07290733546852"><ele>279.0</ele><time>2026-03-27T10:50:47Z</time></trkpt><trkpt lat="42.12584610627502" lon="12.07268678890838"><ele>278.0</ele><time>2026-03-27T10:50:48Z</time></trkpt><trkpt lat="42.12568391001085" lon="12.072501921528605"><ele>276.33333333333337</ele><time>2026-03-27T10:50:49Z</time></trkpt><trkpt lat="42.12554269708713" lon="12.072340970520617"><ele>274.6666666666667</ele><time>2026-03-27T10:50:50Z</time></trkpt><trkpt lat="42.12542211021359" lon="12.072199017278262"><ele>273.0</ele><time>2026-03-27T10:50:51Z</time></trkpt><trkpt lat="42.12532067720191" lon="12.072050056229378"><ele>273.0</ele><time>2026-03-27T10:50:52Z</time></trkpt><trkpt lat="42.12525793372243" lon="12.071874307447237"><ele>273.0</ele><time>2026-03-27T10:50:53Z</time></trkpt><trkpt lat="42.12522809090115" lon="12.071690800618024"><ele>273.0</ele><time>2026-03-27T10:50:54Z</time></trkpt><trkpt lat="42.125230547579044" lon="12.07148728169015"><ele>273.0</ele><time>2026-03-27T10:50:55Z</time></trkpt><trkpt lat="42.12524115728565" lon="12.0712690283978"><ele>273.3333333333333</ele><time>2026-03-27T10:50:56Z</time></trkpt><trkpt lat="42.12525785458672" lon="12.071002760332352"><ele>273.66666666666663</ele><time>2026-03-27T10:50:57Z</time></trkpt><trkpt lat="42.12527682152515" lon="12.07070645764254"><ele>274.0</ele><time>2026-03-27T10:50:58Z</time></trkpt><trkpt lat="42.12529277214" lon="12.07044917390966"><ele>276.3333333333333</ele><time>2026-03-27T10:50:59Z</time></trkpt><trkpt lat="42.125307551461525" lon="12.070219707369823"><ele>278.6666666666667</ele><time>2026-03-27T10:51:00Z</time></trkpt><trkpt lat="42.12530247863708" lon="12.070022361322676"><ele>281.0</ele><time>2026-03-27T10:51:01Z</time></trkpt><trkpt lat="42.1252885033718" lon="12.069831934329942"><ele>281.0</ele><time>2026-03-27T10:51:02Z</time></trkpt><trkpt lat="42.12522893389176" lon="12.069669391293559"><ele>281.0</ele><time>2026-03-27T10:51:03Z</time></trkpt><trkpt lat="42.12513124150665" lon="12.069558384541374"><ele>281.0</ele><time>2026-03-27T10:51:04Z</time></trkpt><trkpt lat="42.125001382907975" lon="12.069482545164593"><ele>281.0</ele><time>2026-03-27T10:51:05Z</time></trkpt><trkpt lat="42.12482638510786" lon="12.06939919950076"><ele>280.33333333333337</ele><time>2026-03-27T10:51:06Z</time></trkpt><trkpt lat="42.124624730546856" lon="12.069271977484453"><ele>279.6666666666667</ele><time>2026-03-27T10:51:07Z</time></trkpt><trkpt lat="42.12442813797264" lon="12.069173164218551"><ele>279.0</ele><time>2026-03-27T10:51:08Z</time></trkpt><trkpt lat="42.124275366529496" lon="12.069081113403149"><ele>277.6666666666667</ele><time>2026-03-27T10:51:09Z</time></trkpt><trkpt lat="42.12413500799213" lon="12.068976479597918"><ele>276.33333333333337</ele><time>2026-03-27T10:51:10Z</time></trkpt><trkpt lat="42.12401913467897" lon="12.06883897859337"><ele>275.0</ele><time>2026-03-27T10:51:11Z</time></trkpt><trkpt lat="42.12390983543562" lon="12.068685745103426"><ele>275.6666666666667</ele><time>2026-03-27T10:51:12Z</time></trkpt><trkpt lat="42.1237854628071" lon="12.068486646720086"><ele>276.3333333333333</ele><time>2026-03-27T10:51:13Z</time></trkpt><trkpt lat="42.123685734402294" lon="12.068244111752724"><ele>277.0</ele><time>2026-03-27T10:51:14Z</time></trkpt><trkpt lat="42.12356619899595" lon="12.067959286504463"><ele>277.0</ele><time>2026-03-27T10:51:15Z</time></trkpt><trkpt lat="42.12345105629131" lon="12.067667634706302"><ele>277.0</ele><time>2026-03-27T10:51:16Z</time></trkpt><trkpt lat="42.123338073097045" lon="12.067345852843554"><ele>275.0</ele><time>2026-03-27T10:51:17Z</time></trkpt><trkpt lat="42.12323174620828" lon="12.067015512855114"><ele>273.0</ele><time>2026-03-27T10:51:18Z</time></trkpt><trkpt lat="42.12314666388123" lon="12.06670604853516"><ele>276.5</ele><time>2026-03-27T10:51:19Z</time></trkpt><trkpt lat="42.123066588493934" lon="12.0663559095344"><ele>280.0</ele><time>2026-03-27T10:51:20Z</time></trkpt><trkpt lat="42.12299811128671" lon="12.066024783693091"><ele>281.66666666666663</ele><time>2026-03-27T10:51:21Z</time></trkpt><trkpt lat="42.12293808813949" lon="12.065751020349014"><ele>283.3333333333333</ele><time>2026-03-27T10:51:22Z</time></trkpt><trkpt lat="42.12287364765818" lon="12.065499610853118"><ele>285.0</ele><time>2026-03-27T10:51:23Z</time></trkpt><trkpt lat="42.122801879585126" lon="12.06527662534318"><ele>285.0</ele><time>2026-03-27T10:51:24Z</time></trkpt><trkpt lat="42.12273668634999" lon="12.065076592812089"><ele>285.0</ele><time>2026-03-27T10:51:25Z</time></trkpt><trkpt lat="42.12270471523215" lon="12.064873404190513"><ele>285.0</ele><time>2026-03-27T10:51:26Z</time></trkpt><trkpt lat="42.12270574204519" lon="12.064702182366206"><ele>285.0</ele><time>2026-03-27T10:51:27Z</time></trkpt><trkpt lat="42.12273481683337" lon="12.064554436974394"><ele>283.6666666666667</ele><time>2026-03-27T10:51:28Z</time></trkpt><trkpt lat="42.122793969218165" lon="12.064387909798448"><ele>282.33333333333337</ele><time>2026-03-27T10:51:29Z</time></trkpt><trkpt lat="42.12288064049699" lon="12.064180539274606"><ele>281.0</ele><time>2026-03-27T10:51:30Z</time></trkpt><trkpt lat="42.122997274209105" lon="12.063944891433566"><ele>281.0</ele><time>2026-03-27T10:51:31Z</time></trkpt><trkpt lat="42.12311875872344" lon="12.063689687968235"><ele>281.0</ele><time>2026-03-27T10:51:32Z</time></trkpt><trkpt lat="42.12325115187172" lon="12.063430751515632"><ele>277.6666666666667</ele><time>2026-03-27T10:51:33Z</time></trkpt><trkpt lat="42.12337837566076" lon="12.063214776183917"><ele>274.3333333333333</ele><time>2026-03-27T10:51:34Z</time></trkpt><trkpt lat="42.12349206505803" lon="12.062996525619987"><ele>271.0</ele><time>2026-03-27T10:51:35Z</time></trkpt><trkpt lat="42.12360062504237" lon="12.062788954816009"><ele>271.0</ele><time>2026-03-27T10:51:36Z</time></trkpt><trkpt lat="42.123699635782714" lon="12.062596796844323"><ele>271.0</ele><time>2026-03-27T10:51:37Z</time></trkpt><trkpt lat="42.12380413215614" lon="12.062400694586499"><ele>271.0</ele><time>2026-03-27T10:51:38Z</time></trkpt><trkpt lat="42.12393702270343" lon="12.062160553721291"><ele>271.0</ele><time>2026-03-27T10:51:39Z</time></trkpt><trkpt lat="42.124082195915506" lon="12.061932001023738"><ele>271.0</ele><time>2026-03-27T10:51:40Z</time></trkpt><trkpt lat="42.124216669008035" lon="12.061740439014114"><ele>271.0</ele><time>2026-03-27T10:51:41Z</time></trkpt><trkpt lat="42.124339531806065" lon="12.061564778060234"><ele>268.66666666666663</ele><time>2026-03-27T10:51:42Z</time></trkpt><trkpt lat="42.124461821186294" lon="12.061356521598375"><ele>266.3333333333333</ele><time>2026-03-27T10:51:43Z</time></trkpt><trkpt lat="42.12458438950061" lon="12.061168367163049"><ele>264.0</ele><time>2026-03-27T10:51:44Z</time></trkpt><trkpt lat="42.12470076614895" lon="12.061001507809001"><ele>264.0</ele><time>2026-03-27T10:51:45Z</time></trkpt><trkpt lat="42.12476619081276" lon="12.060809783133196"><ele>264.0</ele><time>2026-03-27T10:51:46Z</time></trkpt><trkpt lat="42.12481614580081" lon="12.060626308426517"><ele>264.0</ele><time>2026-03-27T10:51:47Z</time></trkpt><trkpt lat="42.12483220425848" lon="12.060431580246384"><ele>264.0</ele><time>2026-03-27T10:51:48Z</time></trkpt><trkpt lat="42.12480845362991" lon="12.060243585429614"><ele>264.0</ele><time>2026-03-27T10:51:49Z</time></trkpt><trkpt lat="42.124751356369345" lon="12.060062016871155"><ele>264.0</ele><time>2026-03-27T10:51:50Z</time></trkpt><trkpt lat="42.12466121395628" lon="12.059898191090985"><ele>264.0</ele><time>2026-03-27T10:51:51Z</time></trkpt><trkpt lat="42.12454909176387" lon="12.059757522779552"><ele>267.6666666666667</ele><time>2026-03-27T10:51:52Z</time></trkpt><trkpt lat="42.12441139959227" lon="12.059662462219087"><ele>271.33333333333337</ele><time>2026-03-27T10:51:53Z</time></trkpt><trkpt lat="42.124259075212606" lon="12.05962256816901"><ele>275.0</ele><time>2026-03-27T10:51:54Z</time></trkpt><trkpt lat="42.124096885908806" lon="12.059609594174994"><ele>276.33333333333337</ele><time>2026-03-27T10:51:55Z</time></trkpt><trkpt lat="42.12393002579896" lon="12.059618609072961"><ele>277.6666666666667</ele><time>2026-03-27T10:51:56Z</time></trkpt><trkpt lat="42.12374942634859" lon="12.059618946888772"><ele>279.0</ele><time>2026-03-27T10:51:57Z</time></trkpt><trkpt lat="42.123603320493345" lon="12.05961674315419"><ele>279.0</ele><time>2026-03-27T10:51:58Z</time></trkpt><trkpt lat="42.123443300946164" lon="12.059620690685094"><ele>279.0</ele><time>2026-03-27T10:51:59Z</time></trkpt><trkpt lat="42.12329671778327" lon="12.059619895838116"><ele>279.0</ele><time>2026-03-27T10:52:00Z</time></trkpt><trkpt lat="42.12315821389574" lon="12.059624330510598"><ele>279.0</ele><time>2026-03-27T10:52:01Z</time></trkpt><trkpt lat="42.12301705775714" lon="12.0596137427983"><ele>278.6666666666667</ele><time>2026-03-27T10:52:02Z</time></trkpt><trkpt lat="42.12287221749125" lon="12.059549300931769"><ele>278.33333333333337</ele><time>2026-03-27T10:52:03Z</time></trkpt><trkpt lat="42.12272944420494" lon="12.059498962722207"><ele>278.0</ele><time>2026-03-27T10:52:04Z</time></trkpt><trkpt lat="42.12255171826703" lon="12.05947011411285"><ele>277.0</ele><time>2026-03-27T10:52:05Z</time></trkpt><trkpt lat="42.12237933332521" lon="12.059450406949015"><ele>276.0</ele><time>2026-03-27T10:52:05.999Z</time></trkpt><trkpt lat="42.12223045873912" lon="12.059416219578317"><ele>275.0</ele><time>2026-03-27T10:52:06.999Z</time></trkpt><trkpt lat="42.12208546237747" lon="12.059401143645289"><ele>275.0</ele><time>2026-03-27T10:52:07.999Z</time></trkpt><trkpt lat="42.121935028921726" lon="12.059407890093674"><ele>275.0</ele><time>2026-03-27T10:52:08.999Z</time></trkpt><trkpt lat="42.121802664938336" lon="12.059370061709325"><ele>275.0</ele><time>2026-03-27T10:52:09.999Z</time></trkpt><trkpt lat="42.1216782817756" lon="12.059344170473478"><ele>275.0</ele><time>2026-03-27T10:52:10.999Z</time></trkpt><trkpt lat="42.12155967158619" lon="12.059301985834145"><ele>273.25</ele><time>2026-03-27T10:52:11.999Z</time></trkpt><trkpt lat="42.12144979864893" lon="12.059217836247685"><ele>271.5</ele><time>2026-03-27T10:52:12.999Z</time></trkpt><trkpt lat="42.12134917167914" lon="12.059104865469815"><ele>269.75</ele><time>2026-03-27T10:52:13.999Z</time></trkpt><trkpt lat="42.12126366035655" lon="12.058956727380489"><ele>268.0</ele><time>2026-03-27T10:52:14.999Z</time></trkpt><trkpt lat="42.121181808446366" lon="12.058779202913549"><ele>268.0</ele><time>2026-03-27T10:52:15.999Z</time></trkpt><trkpt lat="42.12110488753044" lon="12.05860807078389"><ele>268.0</ele><time>2026-03-27T10:52:16.999Z</time></trkpt><trkpt lat="42.12102087786722" lon="12.058406860312889"><ele>268.0</ele><time>2026-03-27T10:52:17.998Z</time></trkpt><trkpt lat="42.1209397409364" lon="12.058200129515795"><ele>269.3333333333333</ele><time>2026-03-27T10:52:18.998Z</time></trkpt><trkpt lat="42.120861921416115" lon="12.058007176683095"><ele>270.6666666666667</ele><time>2026-03-27T10:52:19.998Z</time></trkpt><trkpt lat="42.12078355648866" lon="12.057812871437875"><ele>272.0</ele><time>2026-03-27T10:52:20.998Z</time></trkpt><trkpt lat="42.120698439801615" lon="12.057612212839937"><ele>270.0</ele><time>2026-03-27T10:52:21.998Z</time></trkpt><trkpt lat="42.12060077672728" lon="12.057411906959354"><ele>268.0</ele><time>2026-03-27T10:52:22.998Z</time></trkpt><trkpt lat="42.12045336322101" lon="12.057217231051686"><ele>266.0</ele><time>2026-03-27T10:52:23.998Z</time></trkpt><trkpt lat="42.12031546412543" lon="12.057003419546977"><ele>266.0</ele><time>2026-03-27T10:52:24.998Z</time></trkpt><trkpt lat="42.1201699796907" lon="12.056803164842183"><ele>266.0</ele><time>2026-03-27T10:52:25.998Z</time></trkpt><trkpt lat="42.120046090289804" lon="12.056634951839838"><ele>266.0</ele><time>2026-03-27T10:52:26.998Z</time></trkpt><trkpt lat="42.11992732256317" lon="12.056474611789705"><ele>262.6666666666667</ele><time>2026-03-27T10:52:27.998Z</time></trkpt><trkpt lat="42.11981526348214" lon="12.056324281361817"><ele>259.3333333333333</ele><time>2026-03-27T10:52:28.998Z</time></trkpt><trkpt lat="42.11970830135211" lon="12.056176415361646"><ele>256.0</ele><time>2026-03-27T10:52:29.998Z</time></trkpt><trkpt lat="42.1195958591153" lon="12.056015909321884"><ele>256.0</ele><time>2026-03-27T10:52:30.998Z</time></trkpt><trkpt lat="42.11950014001039" lon="12.055857205151057"><ele>256.0</ele><time>2026-03-27T10:52:31.998Z</time></trkpt><trkpt lat="42.11942276681211" lon="12.055689436019689"><ele>256.0</ele><time>2026-03-27T10:52:32.998Z</time></trkpt><trkpt lat="42.119353963456724" lon="12.055495586090341"><ele>257.66666666666663</ele><time>2026-03-27T10:52:33.998Z</time></trkpt><trkpt lat="42.11928953197597" lon="12.055272455034315"><ele>259.3333333333333</ele><time>2026-03-27T10:52:34.998Z</time></trkpt><trkpt lat="42.11923178114477" lon="12.055067763496677"><ele>261.0</ele><time>2026-03-27T10:52:35.998Z</time></trkpt><trkpt lat="42.11917907801499" lon="12.054880963176945"><ele>261.25</ele><time>2026-03-27T10:52:36.998Z</time></trkpt><trkpt lat="42.11912941779022" lon="12.054704948091137"><ele>261.5</ele><time>2026-03-27T10:52:37.998Z</time></trkpt><trkpt lat="42.11908014866133" lon="12.054533724378306"><ele>261.75</ele><time>2026-03-27T10:52:38.998Z</time></trkpt><trkpt lat="42.11903311126857" lon="12.054370819595583"><ele>262.0</ele><time>2026-03-27T10:52:39.998Z</time></trkpt><trkpt lat="42.11899021337776" lon="12.05421404295806"><ele>260.8</ele><time>2026-03-27T10:52:40.998Z</time></trkpt><trkpt lat="42.118949044096524" lon="12.054067299560204"><ele>259.6</ele><time>2026-03-27T10:52:41.998Z</time></trkpt><trkpt lat="42.11891086948352" lon="12.053930747753585"><ele>258.40000000000003</ele><time>2026-03-27T10:52:42.998Z</time></trkpt><trkpt lat="42.11887796558981" lon="12.05380326226289"><ele>257.2</ele><time>2026-03-27T10:52:43.998Z</time></trkpt><trkpt lat="42.11885480354074" lon="12.053688113565974"><ele>256.0</ele><time>2026-03-27T10:52:44.998Z</time></trkpt><trkpt lat="42.11882702402405" lon="12.053525389528284"><ele>256.0</ele><time>2026-03-27T10:52:46.998Z</time></trkpt><trkpt lat="42.11881053458632" lon="12.053388494952557"><ele>256.0</ele><time>2026-03-27T10:52:48.998Z</time></trkpt><trkpt lat="42.1187437985412" lon="12.053200503944538"><ele>256.0</ele><time>2026-03-27T10:52:51.998Z</time></trkpt><trkpt lat="42.11869971732468" lon="12.053109339118928"><ele>256.0</ele><time>2026-03-27T10:52:53.998Z</time></trkpt><trkpt lat="42.11866291691426" lon="12.053024815883877"><ele>256.0</ele><time>2026-03-27T10:53:14.998Z</time></trkpt><trkpt lat="42.118626384610366" lon="12.052915575502182"><ele>256.0</ele><time>2026-03-27T10:53:17.998Z</time></trkpt><trkpt lat="42.11860619884457" lon="12.052828248529549"><ele>256.0</ele><time>2026-03-27T10:53:18.998Z</time></trkpt><trkpt lat="42.11857498760333" lon="12.05271319657367"><ele>256.0</ele><time>2026-03-27T10:53:19.998Z</time></trkpt><trkpt lat="42.118543503769985" lon="12.052598878651434"><ele>256.0</ele><time>2026-03-27T10:53:20.998Z</time></trkpt><trkpt lat="42.11850809525762" lon="12.052470310167518"><ele>256.0</ele><time>2026-03-27T10:53:21.998Z</time></trkpt><trkpt lat="42.11847096649193" lon="12.052328923722666"><ele>255.60000000000002</ele><time>2026-03-27T10:53:22.998Z</time></trkpt><trkpt lat="42.11843614050693" lon="12.052188639413883"><ele>255.20000000000002</ele><time>2026-03-27T10:53:23.998Z</time></trkpt><trkpt lat="42.118395432250345" lon="12.052029530584614"><ele>254.79999999999998</ele><time>2026-03-27T10:53:24.998Z</time></trkpt><trkpt lat="42.11834418247559" lon="12.051902389706962"><ele>254.39999999999998</ele><time>2026-03-27T10:53:25.998Z</time></trkpt><trkpt lat="42.118307736660974" lon="12.051783751234469"><ele>254.0</ele><time>2026-03-27T10:53:26.998Z</time></trkpt><trkpt lat="42.11828928903739" lon="12.051653081708391"><ele>254.00000000000003</ele><time>2026-03-27T10:53:27.998Z</time></trkpt><trkpt lat="42.11825169224997" lon="12.05150884678663"><ele>254.0</ele><time>2026-03-27T10:53:28.998Z</time></trkpt><trkpt lat="42.1182071066805" lon="12.051399813461574"><ele>254.0</ele><time>2026-03-27T10:53:29.998Z</time></trkpt><trkpt lat="42.11820082681756" lon="12.05129666755277"><ele>254.0</ele><time>2026-03-27T10:53:30.998Z</time></trkpt><trkpt lat="42.11816633216022" lon="12.051225616797419"><ele>254.00000000000003</ele><time>2026-03-27T10:53:31.998Z</time></trkpt><trkpt lat="42.1181246899808" lon="12.051114340272376"><ele>254.0</ele><time>2026-03-27T10:53:33.998Z</time></trkpt><trkpt lat="42.11806274676716" lon="12.051018059558347"><ele>254.0</ele><time>2026-03-27T10:53:35.998Z</time></trkpt><trkpt lat="42.117988517056375" lon="12.050939748251208"><ele>253.99999999999997</ele><time>2026-03-27T10:53:37.998Z</time></trkpt><trkpt lat="42.11790739124705" lon="12.050880837843327"><ele>253.99999999999997</ele><time>2026-03-27T10:53:39.998Z</time></trkpt><trkpt lat="42.11783751408948" lon="12.050804545360164"><ele>254.0</ele><time>2026-03-27T10:53:41.998Z</time></trkpt><trkpt lat="42.117953832884524" lon="12.05091824024534"><ele>254.0</ele><time>2026-03-27T10:54:05.999Z</time></trkpt><trkpt lat="42.11801616180543" lon="12.050976914529782"><ele>254.00000000000003</ele><time>2026-03-27T10:54:06.999Z</time></trkpt><trkpt lat="42.11807015007437" lon="12.051042968769858"><ele>254.0</ele><time>2026-03-27T10:54:07.999Z</time></trkpt><trkpt lat="42.118110855059214" lon="12.05111257156447"><ele>254.0</ele><time>2026-03-27T10:54:08.999Z</time></trkpt><trkpt lat="42.118153757532276" lon="12.051202775649715"><ele>254.0</ele><time>2026-03-27T10:54:09.999Z</time></trkpt><trkpt lat="42.11817926258462" lon="12.051291706023932"><ele>254.00000000000003</ele><time>2026-03-27T10:54:10.999Z</time></trkpt><trkpt lat="42.11820161182576" lon="12.051384386547934"><ele>254.0</ele><time>2026-03-27T10:54:11.999Z</time></trkpt><trkpt lat="42.11821740121297" lon="12.051512686145207"><ele>254.0</ele><time>2026-03-27T10:54:12.999Z</time></trkpt><trkpt lat="42.118254219372055" lon="12.051653934002884"><ele>254.0</ele><time>2026-03-27T10:54:14Z</time></trkpt><trkpt lat="42.1183114889508" lon="12.051813992671955"><ele>254.0</ele><time>2026-03-27T10:54:15Z</time></trkpt><trkpt lat="42.11836989749536" lon="12.052000476886342"><ele>254.0</ele><time>2026-03-27T10:54:16Z</time></trkpt><trkpt lat="42.11841832789955" lon="12.052189969982159"><ele>254.0</ele><time>2026-03-27T10:54:17Z</time></trkpt><trkpt lat="42.118458437147076" lon="12.052358454890243"><ele>254.0</ele><time>2026-03-27T10:54:18Z</time></trkpt><trkpt lat="42.11850574829365" lon="12.052531428781656"><ele>254.0</ele><time>2026-03-27T10:54:19Z</time></trkpt><trkpt lat="42.11854976164749" lon="12.052689524581655"><ele>254.0</ele><time>2026-03-27T10:54:20Z</time></trkpt><trkpt lat="42.118579841716205" lon="12.052820541491462"><ele>254.39999999999998</ele><time>2026-03-27T10:54:21Z</time></trkpt><trkpt lat="42.118610351214464" lon="12.05292528901926"><ele>254.79999999999998</ele><time>2026-03-27T10:54:22Z</time></trkpt><trkpt lat="42.118622625704084" lon="12.053016005895767"><ele>255.20000000000002</ele><time>2026-03-27T10:54:23Z</time></trkpt><trkpt lat="42.11866375705944" lon="12.053113099824108"><ele>255.60000000000002</ele><time>2026-03-27T10:54:25Z</time></trkpt><trkpt lat="42.11870536579881" lon="12.053180149342209"><ele>256.0</ele><time>2026-03-27T10:55:05Z</time></trkpt><trkpt lat="42.118865902712024" lon="12.05311574088949"><ele>256.0</ele><time>2026-03-27T10:55:06Z</time></trkpt><trkpt lat="42.11892100008778" lon="12.053020801002992"><ele>256.0</ele><time>2026-03-27T10:55:07Z</time></trkpt><trkpt lat="42.119030168853925" lon="12.05293769707127"><ele>256.0</ele><time>2026-03-27T10:55:08Z</time></trkpt><trkpt lat="42.11915219795904" lon="12.052837096548021"><ele>256.0</ele><time>2026-03-27T10:55:09Z</time></trkpt><trkpt lat="42.11930371318873" lon="12.052731336636471"><ele>254.66666666666666</ele><time>2026-03-27T10:55:10Z</time></trkpt><trkpt lat="42.119493231909686" lon="12.052597074047041"><ele>253.33333333333331</ele><time>2026-03-27T10:55:11Z</time></trkpt><trkpt lat="42.11966379758905" lon="12.052477771163794"><ele>252.0</ele><time>2026-03-27T10:55:12Z</time></trkpt><trkpt lat="42.11981677119059" lon="12.052354648374253"><ele>248.33333333333331</ele><time>2026-03-27T10:55:13Z</time></trkpt><trkpt lat="42.11994893652859" lon="12.052258614737989"><ele>244.66666666666666</ele><time>2026-03-27T10:55:14Z</time></trkpt><trkpt lat="42.120090554337395" lon="12.052148977389997"><ele>241.0</ele><time>2026-03-27T10:55:15Z</time></trkpt><trkpt lat="42.12022295003446" lon="12.052036058001622"><ele>241.0</ele><time>2026-03-27T10:55:16Z</time></trkpt><trkpt lat="42.1203506713945" lon="12.051875401447935"><ele>241.0</ele><time>2026-03-27T10:55:17Z</time></trkpt><trkpt lat="42.12047369969187" lon="12.051691585657228"><ele>241.0</ele><time>2026-03-27T10:55:18Z</time></trkpt><trkpt lat="42.12060398870447" lon="12.051529455196864"><ele>240.5</ele><time>2026-03-27T10:55:19Z</time></trkpt><trkpt lat="42.12073537831721" lon="12.051403715066446"><ele>240.0</ele><time>2026-03-27T10:55:20Z</time></trkpt><trkpt lat="42.120864399357835" lon="12.051311095012856"><ele>239.5</ele><time>2026-03-27T10:55:21Z</time></trkpt><trkpt lat="42.120988339617206" lon="12.051247729357689"><ele>239.0</ele><time>2026-03-27T10:55:22Z</time></trkpt><trkpt lat="42.12109914421216" lon="12.051186924396731"><ele>239.0</ele><time>2026-03-27T10:55:23Z</time></trkpt><trkpt lat="42.121186044035866" lon="12.051088750288649"><ele>239.0</ele><time>2026-03-27T10:55:24Z</time></trkpt><trkpt lat="42.12123566521448" lon="12.050943033933189"><ele>239.0</ele><time>2026-03-27T10:55:25Z</time></trkpt><trkpt lat="42.12125356924371" lon="12.05075678014768"><ele>239.0</ele><time>2026-03-27T10:55:26Z</time></trkpt><trkpt lat="42.12125650985559" lon="12.050539871050677"><ele>236.33333333333334</ele><time>2026-03-27T10:55:27Z</time></trkpt><trkpt lat="42.12128997164673" lon="12.050335544190016"><ele>233.66666666666669</ele><time>2026-03-27T10:55:28Z</time></trkpt><trkpt lat="42.12131349303931" lon="12.050140651307098"><ele>231.0</ele><time>2026-03-27T10:55:29Z</time></trkpt><trkpt lat="42.12139933030211" lon="12.049972518859656"><ele>230.66666666666669</ele><time>2026-03-27T10:55:30Z</time></trkpt><trkpt lat="42.12149553722078" lon="12.049819170742026"><ele>230.33333333333334</ele><time>2026-03-27T10:55:31Z</time></trkpt><trkpt lat="42.121595546400364" lon="12.049663967980713"><ele>230.0</ele><time>2026-03-27T10:55:32Z</time></trkpt><trkpt lat="42.12171442489808" lon="12.049544705135952"><ele>230.0</ele><time>2026-03-27T10:55:33Z</time></trkpt><trkpt lat="42.121826184343476" lon="12.049437860680454"><ele>230.0</ele><time>2026-03-27T10:55:34Z</time></trkpt><trkpt lat="42.12192543628956" lon="12.049340279600804"><ele>230.0</ele><time>2026-03-27T10:55:35Z</time></trkpt><trkpt lat="42.122001860695676" lon="12.04921796868014"><ele>230.0</ele><time>2026-03-27T10:55:36Z</time></trkpt><trkpt lat="42.1220382765781" lon="12.04907040678116"><ele>227.66666666666669</ele><time>2026-03-27T10:55:37Z</time></trkpt><trkpt lat="42.12204587365865" lon="12.048898166133105"><ele>225.33333333333331</ele><time>2026-03-27T10:55:38Z</time></trkpt><trkpt lat="42.122015407420925" lon="12.048695224923494"><ele>223.0</ele><time>2026-03-27T10:55:39Z</time></trkpt><trkpt lat="42.121973393272164" lon="12.048467663964585"><ele>222.0</ele><time>2026-03-27T10:55:40Z</time></trkpt><trkpt lat="42.121933434289545" lon="12.048211264796105"><ele>221.0</ele><time>2026-03-27T10:55:41Z</time></trkpt><trkpt lat="42.121885703709275" lon="12.04794092635449"><ele>220.0</ele><time>2026-03-27T10:55:42Z</time></trkpt><trkpt lat="42.12183179682407" lon="12.047673235146044"><ele>219.5</ele><time>2026-03-27T10:55:43Z</time></trkpt><trkpt lat="42.12178723841321" lon="12.047360715339712"><ele>219.0</ele><time>2026-03-27T10:55:44Z</time></trkpt><trkpt lat="42.121730740216385" lon="12.047073367313336"><ele>219.0</ele><time>2026-03-27T10:55:45Z</time></trkpt><trkpt lat="42.12167608441907" lon="12.046793575214329"><ele>219.0</ele><time>2026-03-27T10:55:46Z</time></trkpt><trkpt lat="42.12161321680494" lon="12.046471745495534"><ele>219.0</ele><time>2026-03-27T10:55:47Z</time></trkpt><trkpt lat="42.12155401392042" lon="12.046168676094151"><ele>219.0</ele><time>2026-03-27T10:55:48Z</time></trkpt><trkpt lat="42.12148674582323" lon="12.045900434172886"><ele>219.0</ele><time>2026-03-27T10:55:49Z</time></trkpt><trkpt lat="42.121438808285546" lon="12.045648528629401"><ele>219.0</ele><time>2026-03-27T10:55:50Z</time></trkpt><trkpt lat="42.12139363244216" lon="12.04539445974957"><ele>219.0</ele><time>2026-03-27T10:55:51Z</time></trkpt><trkpt lat="42.12134418551697" lon="12.045158159273582"><ele>219.0</ele><time>2026-03-27T10:55:52Z</time></trkpt><trkpt lat="42.121300691689804" lon="12.044941509787163"><ele>219.75</ele><time>2026-03-27T10:55:53Z</time></trkpt><trkpt lat="42.121258950388324" lon="12.044723037260432"><ele>220.5</ele><time>2026-03-27T10:55:54Z</time></trkpt><trkpt lat="42.12123459728451" lon="12.044535207468495"><ele>221.25</ele><time>2026-03-27T10:55:55Z</time></trkpt><trkpt lat="42.121261862422976" lon="12.044362159417064"><ele>222.0</ele><time>2026-03-27T10:55:56.001Z</time></trkpt><trkpt lat="42.12131902960711" lon="12.044215934194142"><ele>222.0</ele><time>2026-03-27T10:55:57.001Z</time></trkpt><trkpt lat="42.1213930758804" lon="12.044048579444919"><ele>222.0</ele><time>2026-03-27T10:55:58.001Z</time></trkpt><trkpt lat="42.12151541881885" lon="12.043897989793146"><ele>222.0</ele><time>2026-03-27T10:55:59Z</time></trkpt><trkpt lat="42.121655556107896" lon="12.043754139456277"><ele>222.0</ele><time>2026-03-27T10:56:00Z</time></trkpt><trkpt lat="42.12181270330887" lon="12.043659529911226"><ele>222.0</ele><time>2026-03-27T10:56:01Z</time></trkpt><trkpt lat="42.12198474104276" lon="12.043570848027116"><ele>222.0</ele><time>2026-03-27T10:56:02Z</time></trkpt><trkpt lat="42.12219314908955" lon="12.043526683868764"><ele>222.0</ele><time>2026-03-27T10:56:03Z</time></trkpt><trkpt lat="42.12239520466583" lon="12.043521985316904"><ele>222.0</ele><time>2026-03-27T10:56:04Z</time></trkpt><trkpt lat="42.1225755745315" lon="12.04351594308583"><ele>222.0</ele><time>2026-03-27T10:56:05Z</time></trkpt><trkpt lat="42.12273713510655" lon="12.043508856808561"><ele>222.0</ele><time>2026-03-27T10:56:06Z</time></trkpt><trkpt lat="42.12287700502851" lon="12.043477471200262"><ele>222.0</ele><time>2026-03-27T10:56:07Z</time></trkpt><trkpt lat="42.12299864573396" lon="12.043405225716677"><ele>222.0</ele><time>2026-03-27T10:56:08Z</time></trkpt><trkpt lat="42.123102479386574" lon="12.043289891554156"><ele>222.0</ele><time>2026-03-27T10:56:09Z</time></trkpt><trkpt lat="42.12318718348486" lon="12.043140224127793"><ele>221.0</ele><time>2026-03-27T10:56:10Z</time></trkpt><trkpt lat="42.12325328667002" lon="12.042952281062988"><ele>220.0</ele><time>2026-03-27T10:56:11Z</time></trkpt><trkpt lat="42.123304451446856" lon="12.042736485768469"><ele>219.0</ele><time>2026-03-27T10:56:12Z</time></trkpt><trkpt lat="42.123356851629595" lon="12.042471144115007"><ele>217.5</ele><time>2026-03-27T10:56:13Z</time></trkpt><trkpt lat="42.123416508806734" lon="12.04216284664422"><ele>216.0</ele><time>2026-03-27T10:56:14Z</time></trkpt><trkpt lat="42.123459571749436" lon="12.041858527610277"><ele>215.0</ele><time>2026-03-27T10:56:15Z</time></trkpt><trkpt lat="42.12353266831053" lon="12.041493805010347"><ele>214.0</ele><time>2026-03-27T10:56:16Z</time></trkpt><trkpt lat="42.12360745825765" lon="12.041117167586481"><ele>212.0</ele><time>2026-03-27T10:56:17Z</time></trkpt><trkpt lat="42.12368888880974" lon="12.040701978676221"><ele>210.0</ele><time>2026-03-27T10:56:18Z</time></trkpt><trkpt lat="42.123769750680324" lon="12.04026790299315"><ele>209.0</ele><time>2026-03-27T10:56:19Z</time></trkpt><trkpt lat="42.12384214399877" lon="12.03988571090637"><ele>208.0</ele><time>2026-03-27T10:56:20Z</time></trkpt><trkpt lat="42.12390988838282" lon="12.039536944442586"><ele>208.0</ele><time>2026-03-27T10:56:21Z</time></trkpt><trkpt lat="42.12397808791599" lon="12.039180502992023"><ele>208.0</ele><time>2026-03-27T10:56:22Z</time></trkpt><trkpt lat="42.12404849059433" lon="12.038816886991485"><ele>209.0</ele><time>2026-03-27T10:56:23Z</time></trkpt><trkpt lat="42.12411689828552" lon="12.03847097762007"><ele>210.0</ele><time>2026-03-27T10:56:24Z</time></trkpt><trkpt lat="42.12418811234378" lon="12.038099186242805"><ele>210.0</ele><time>2026-03-27T10:56:25Z</time></trkpt><trkpt lat="42.124250409137204" lon="12.037759733320225"><ele>210.0</ele><time>2026-03-27T10:56:26Z</time></trkpt><trkpt lat="42.1243085871703" lon="12.03744670715893"><ele>210.33333333333331</ele><time>2026-03-27T10:56:27Z</time></trkpt><trkpt lat="42.124363343407076" lon="12.037166799860739"><ele>210.66666666666666</ele><time>2026-03-27T10:56:28Z</time></trkpt><trkpt lat="42.12441954935435" lon="12.03689978797222"><ele>211.0</ele><time>2026-03-27T10:56:29Z</time></trkpt><trkpt lat="42.124467676404244" lon="12.036645181235771"><ele>212.33333333333331</ele><time>2026-03-27T10:56:30Z</time></trkpt><trkpt lat="42.12451023638684" lon="12.036415966613168"><ele>213.66666666666669</ele><time>2026-03-27T10:56:31Z</time></trkpt><trkpt lat="42.12458028686643" lon="12.03620051522281"><ele>215.0</ele><time>2026-03-27T10:56:32Z</time></trkpt><trkpt lat="42.12465589308518" lon="12.035960326248833"><ele>213.33333333333334</ele><time>2026-03-27T10:56:33Z</time></trkpt><trkpt lat="42.124773650716605" lon="12.03572020023615"><ele>211.66666666666669</ele><time>2026-03-27T10:56:34Z</time></trkpt><trkpt lat="42.124895186876245" lon="12.035497435083691"><ele>210.0</ele><time>2026-03-27T10:56:35Z</time></trkpt><trkpt lat="42.12500158350702" lon="12.03530000349197"><ele>210.0</ele><time>2026-03-27T10:56:36Z</time></trkpt><trkpt lat="42.12511058647204" lon="12.03514099170851"><ele>210.0</ele><time>2026-03-27T10:56:37Z</time></trkpt><trkpt lat="42.12523292752439" lon="12.035022804235819"><ele>210.0</ele><time>2026-03-27T10:56:38Z</time></trkpt><trkpt lat="42.125388273290895" lon="12.034941228896727"><ele>209.0</ele><time>2026-03-27T10:56:39Z</time></trkpt><trkpt lat="42.12556313287235" lon="12.034891881099133"><ele>208.0</ele><time>2026-03-27T10:56:40Z</time></trkpt><trkpt lat="42.12577825577582" lon="12.034827523570467"><ele>207.0</ele><time>2026-03-27T10:56:41Z</time></trkpt><trkpt lat="42.12601184521082" lon="12.03473887693859"><ele>206.5</ele><time>2026-03-27T10:56:42Z</time></trkpt><trkpt lat="42.12625479277859" lon="12.034640367592079"><ele>206.0</ele><time>2026-03-27T10:56:43Z</time></trkpt><trkpt lat="42.12650556768247" lon="12.034551751560981"><ele>203.5</ele><time>2026-03-27T10:56:44Z</time></trkpt><trkpt lat="42.126730217855155" lon="12.034478851639157"><ele>201.0</ele><time>2026-03-27T10:56:45Z</time></trkpt><trkpt lat="42.12694931727329" lon="12.034402082152715"><ele>201.0</ele><time>2026-03-27T10:56:46Z</time></trkpt><trkpt lat="42.12718461357854" lon="12.034318638651923"><ele>201.0</ele><time>2026-03-27T10:56:47Z</time></trkpt><trkpt lat="42.12743572353622" lon="12.034224313626178"><ele>200.5</ele><time>2026-03-27T10:56:48Z</time></trkpt><trkpt lat="42.12767139393457" lon="12.034139044218296"><ele>200.0</ele><time>2026-03-27T10:56:49Z</time></trkpt><trkpt lat="42.12788199660813" lon="12.034068156185224"><ele>200.0</ele><time>2026-03-27T10:56:50Z</time></trkpt><trkpt lat="42.12807734127877" lon="12.03400276234311"><ele>200.0</ele><time>2026-03-27T10:56:51Z</time></trkpt><trkpt lat="42.12825900829274" lon="12.033944714141809"><ele>200.0</ele><time>2026-03-27T10:56:52Z</time></trkpt><trkpt lat="42.12841500516515" lon="12.033892179052907"><ele>198.5</ele><time>2026-03-27T10:56:53Z</time></trkpt><trkpt lat="42.12855224544311" lon="12.033836118172738"><ele>197.0</ele><time>2026-03-27T10:56:54Z</time></trkpt><trkpt lat="42.128669096823955" lon="12.033755656613197"><ele>195.5</ele><time>2026-03-27T10:56:55Z</time></trkpt><trkpt lat="42.12873391994516" lon="12.033598486305623"><ele>194.0</ele><time>2026-03-27T10:56:56Z</time></trkpt><trkpt lat="42.12876872650519" lon="12.033420688566013"><ele>194.66666666666669</ele><time>2026-03-27T10:56:57Z</time></trkpt><trkpt lat="42.128797867112176" lon="12.033218751552747"><ele>195.33333333333331</ele><time>2026-03-27T10:56:58Z</time></trkpt><trkpt lat="42.12885151892919" lon="12.033041798866165"><ele>196.0</ele><time>2026-03-27T10:56:59Z</time></trkpt><trkpt lat="42.128973223578186" lon="12.032900315209396"><ele>191.33333333333331</ele><time>2026-03-27T10:57:00Z</time></trkpt><trkpt lat="42.12909820267139" lon="12.03271787099772"><ele>186.66666666666666</ele><time>2026-03-27T10:57:01Z</time></trkpt><trkpt lat="42.1292399224893" lon="12.032562084942892"><ele>182.0</ele><time>2026-03-27T10:57:02Z</time></trkpt><trkpt lat="42.12934927988907" lon="12.032435542187743"><ele>181.75</ele><time>2026-03-27T10:57:03Z</time></trkpt><trkpt lat="42.12945310531788" lon="12.032345608592804"><ele>181.5</ele><time>2026-03-27T10:57:04Z</time></trkpt><trkpt lat="42.129565765492366" lon="12.032281880489421"><ele>181.25</ele><time>2026-03-27T10:57:05Z</time></trkpt><trkpt lat="42.12969869181323" lon="12.03227129698839"><ele>181.0</ele><time>2026-03-27T10:57:06Z</time></trkpt><trkpt lat="42.129866885228495" lon="12.032267590346535"><ele>179.0</ele><time>2026-03-27T10:57:07Z</time></trkpt><trkpt lat="42.130056494565984" lon="12.032295480139313"><ele>177.0</ele><time>2026-03-27T10:57:08Z</time></trkpt><trkpt lat="42.13025279994251" lon="12.032312795425893"><ele>175.0</ele><time>2026-03-27T10:57:09Z</time></trkpt><trkpt lat="42.13042944585333" lon="12.032329230841494"><ele>175.0</ele><time>2026-03-27T10:57:10Z</time></trkpt><trkpt lat="42.130601231862755" lon="12.032348028853603"><ele>175.0</ele><time>2026-03-27T10:57:11Z</time></trkpt><trkpt lat="42.130758102775715" lon="12.032367345815796"><ele>175.0</ele><time>2026-03-27T10:57:12Z</time></trkpt><trkpt lat="42.13090973963876" lon="12.032368663285094"><ele>173.0</ele><time>2026-03-27T10:57:13Z</time></trkpt><trkpt lat="42.13103856383275" lon="12.03231620622175"><ele>171.0</ele><time>2026-03-27T10:57:14Z</time></trkpt><trkpt lat="42.13114895676801" lon="12.032209734929955"><ele>169.0</ele><time>2026-03-27T10:57:15Z</time></trkpt><trkpt lat="42.13124300279895" lon="12.032047394821792"><ele>167.0</ele><time>2026-03-27T10:57:16Z</time></trkpt><trkpt lat="42.13134209966463" lon="12.031834568337999"><ele>165.33333333333331</ele><time>2026-03-27T10:57:17Z</time></trkpt><trkpt lat="42.13143696598477" lon="12.031630393813519"><ele>163.66666666666666</ele><time>2026-03-27T10:57:18Z</time></trkpt><trkpt lat="42.13153685520144" lon="12.031463519601498"><ele>162.0</ele><time>2026-03-27T10:57:19Z</time></trkpt><trkpt lat="42.13164040773817" lon="12.031342196373988"><ele>162.0</ele><time>2026-03-27T10:57:20Z</time></trkpt><trkpt lat="42.131759606712045" lon="12.031265790605472"><ele>162.0</ele><time>2026-03-27T10:57:21Z</time></trkpt><trkpt lat="42.13189176592842" lon="12.031238619865722"><ele>162.0</ele><time>2026-03-27T10:57:22Z</time></trkpt><trkpt lat="42.13203185934555" lon="12.031237319606849"><ele>162.0</ele><time>2026-03-27T10:57:23Z</time></trkpt><trkpt lat="42.13216134265836" lon="12.031303838947784"><ele>162.0</ele><time>2026-03-27T10:57:24Z</time></trkpt><trkpt lat="42.132269671632244" lon="12.031425197528673"><ele>162.0</ele><time>2026-03-27T10:57:25Z</time></trkpt><trkpt lat="42.13236618823801" lon="12.031614054384107"><ele>162.0</ele><time>2026-03-27T10:57:26Z</time></trkpt><trkpt lat="42.132517989769916" lon="12.031802638493257"><ele>157.33333333333334</ele><time>2026-03-27T10:57:27Z</time></trkpt><trkpt lat="42.132685851639586" lon="12.032019479635338"><ele>152.66666666666669</ele><time>2026-03-27T10:57:28Z</time></trkpt><trkpt lat="42.13283148758223" lon="12.03222351720109"><ele>148.0</ele><time>2026-03-27T10:57:29Z</time></trkpt><trkpt lat="42.13297429988671" lon="12.032421598301061"><ele>146.66666666666669</ele><time>2026-03-27T10:57:30Z</time></trkpt><trkpt lat="42.13309019588962" lon="12.032545089159408"><ele>145.33333333333334</ele><time>2026-03-27T10:57:31Z</time></trkpt><trkpt lat="42.13321809485764" lon="12.03268479667939"><ele>144.0</ele><time>2026-03-27T10:57:32Z</time></trkpt><trkpt lat="42.13337712584024" lon="12.032787234459347"><ele>144.0</ele><time>2026-03-27T10:57:33Z</time></trkpt><trkpt lat="42.13356092894459" lon="12.032844808856689"><ele>144.0</ele><time>2026-03-27T10:57:34Z</time></trkpt><trkpt lat="42.133772010364396" lon="12.032869886748989"><ele>144.0</ele><time>2026-03-27T10:57:35Z</time></trkpt><trkpt lat="42.13399391777696" lon="12.03288727894429"><ele>144.66666666666666</ele><time>2026-03-27T10:57:36Z</time></trkpt><trkpt lat="42.13418015384573" lon="12.032913492773329"><ele>145.33333333333331</ele><time>2026-03-27T10:57:37Z</time></trkpt><trkpt lat="42.134341524447606" lon="12.032948946108247"><ele>146.0</ele><time>2026-03-27T10:57:38Z</time></trkpt><trkpt lat="42.1344918904367" lon="12.033016407403597"><ele>146.0</ele><time>2026-03-27T10:57:39Z</time></trkpt><trkpt lat="42.1346337816063" lon="12.033141657186324"><ele>146.0</ele><time>2026-03-27T10:57:40Z</time></trkpt><trkpt lat="42.134758980196395" lon="12.03326994595931"><ele>146.0</ele><time>2026-03-27T10:57:41Z</time></trkpt><trkpt lat="42.13489835627174" lon="12.033357257828085"><ele>147.66666666666666</ele><time>2026-03-27T10:57:42Z</time></trkpt><trkpt lat="42.13505899815798" lon="12.033380509637738"><ele>149.33333333333334</ele><time>2026-03-27T10:57:43Z</time></trkpt><trkpt lat="42.135224383281454" lon="12.03333393739473"><ele>151.0</ele><time>2026-03-27T10:57:44Z</time></trkpt><trkpt lat="42.135396064433856" lon="12.03326425443654"><ele>151.0</ele><time>2026-03-27T10:57:45Z</time></trkpt><trkpt lat="42.13557570115055" lon="12.033258049309365"><ele>151.0</ele><time>2026-03-27T10:57:46Z</time></trkpt><trkpt lat="42.13575440402268" lon="12.033321953046862"><ele>151.0</ele><time>2026-03-27T10:57:47Z</time></trkpt><trkpt lat="42.135932403136756" lon="12.03344681612287"><ele>146.66666666666669</ele><time>2026-03-27T10:57:48Z</time></trkpt><trkpt lat="42.13609999947882" lon="12.033570410460985"><ele>142.33333333333334</ele><time>2026-03-27T10:57:49Z</time></trkpt><trkpt lat="42.136248774358144" lon="12.033666111839986"><ele>138.0</ele><time>2026-03-27T10:57:50Z</time></trkpt><trkpt lat="42.13639066653043" lon="12.033729205815936"><ele>138.0</ele><time>2026-03-27T10:57:51Z</time></trkpt><trkpt lat="42.13653555170073" lon="12.033762061699619"><ele>138.0</ele><time>2026-03-27T10:57:52Z</time></trkpt><trkpt lat="42.13667544489434" lon="12.033777899399212"><ele>138.0</ele><time>2026-03-27T10:57:53Z</time></trkpt><trkpt lat="42.136809510828044" lon="12.03380750414227"><ele>138.0</ele><time>2026-03-27T10:57:54Z</time></trkpt><trkpt lat="42.13695244450844" lon="12.033810707095299"><ele>138.66666666666666</ele><time>2026-03-27T10:57:55Z</time></trkpt><trkpt lat="42.13711882713711" lon="12.03377625363638"><ele>139.33333333333331</ele><time>2026-03-27T10:57:56Z</time></trkpt><trkpt lat="42.137314722897145" lon="12.033702652018139"><ele>140.0</ele><time>2026-03-27T10:57:57Z</time></trkpt><trkpt lat="42.1375219148804" lon="12.03363255358604"><ele>137.66666666666666</ele><time>2026-03-27T10:57:58Z</time></trkpt><trkpt lat="42.13768081890498" lon="12.03357142414691"><ele>135.33333333333334</ele><time>2026-03-27T10:57:59Z</time></trkpt><trkpt lat="42.137832183302926" lon="12.033509726738568"><ele>133.0</ele><time>2026-03-27T10:58:00Z</time></trkpt><trkpt lat="42.137976227923836" lon="12.033424034382172"><ele>132.66666666666669</ele><time>2026-03-27T10:58:01Z</time></trkpt><trkpt lat="42.13812047631979" lon="12.033280168376002"><ele>132.33333333333334</ele><time>2026-03-27T10:58:02Z</time></trkpt><trkpt lat="42.13825161251734" lon="12.033089016499751"><ele>132.0</ele><time>2026-03-27T10:58:03Z</time></trkpt><trkpt lat="42.1383818521482" lon="12.032855522288978"><ele>132.0</ele><time>2026-03-27T10:58:04Z</time></trkpt><trkpt lat="42.1385614280438" lon="12.032582459616496"><ele>132.0</ele><time>2026-03-27T10:58:05Z</time></trkpt><trkpt lat="42.13874414322241" lon="12.032323375963474"><ele>131.5</ele><time>2026-03-27T10:58:06Z</time></trkpt><trkpt lat="42.13892374270354" lon="12.032052576793172"><ele>131.0</ele><time>2026-03-27T10:58:07Z</time></trkpt><trkpt lat="42.13908433533597" lon="12.031795153904872"><ele>132.33333333333331</ele><time>2026-03-27T10:58:08Z</time></trkpt><trkpt lat="42.139221741724306" lon="12.031586934460632"><ele>133.66666666666666</ele><time>2026-03-27T10:58:09Z</time></trkpt><trkpt lat="42.13934949886447" lon="12.031385620689464"><ele>135.0</ele><time>2026-03-27T10:58:10Z</time></trkpt><trkpt lat="42.13946177107619" lon="12.031142420258139"><ele>135.0</ele><time>2026-03-27T10:58:11Z</time></trkpt><trkpt lat="42.13955253553891" lon="12.030852883653465"><ele>135.0</ele><time>2026-03-27T10:58:12Z</time></trkpt><trkpt lat="42.139647083867196" lon="12.030542306076283"><ele>137.0</ele><time>2026-03-27T10:58:13Z</time></trkpt><trkpt lat="42.13973628565039" lon="12.030273575822665"><ele>139.0</ele><time>2026-03-27T10:58:14Z</time></trkpt><trkpt lat="42.13981780638613" lon="12.030022843137822"><ele>141.0</ele><time>2026-03-27T10:58:15Z</time></trkpt><trkpt lat="42.139881934420934" lon="12.029759996128789"><ele>136.0</ele><time>2026-03-27T10:58:16Z</time></trkpt><trkpt lat="42.13992366918681" lon="12.02950225686416"><ele>131.0</ele><time>2026-03-27T10:58:17Z</time></trkpt><trkpt lat="42.139949435998766" lon="12.029246072758273"><ele>126.0</ele><time>2026-03-27T10:58:18Z</time></trkpt><trkpt lat="42.1399673716832" lon="12.028977466217004"><ele>126.0</ele><time>2026-03-27T10:58:19Z</time></trkpt><trkpt lat="42.13998382387483" lon="12.028652916010092"><ele>126.0</ele><time>2026-03-27T10:58:20Z</time></trkpt><trkpt lat="42.14000032940007" lon="12.028353438921107"><ele>126.33333333333334</ele><time>2026-03-27T10:58:21Z</time></trkpt><trkpt lat="42.14001226288976" lon="12.028094954624247"><ele>126.66666666666667</ele><time>2026-03-27T10:58:22Z</time></trkpt><trkpt lat="42.14002536927055" lon="12.027859616270053"><ele>127.0</ele><time>2026-03-27T10:58:23Z</time></trkpt><trkpt lat="42.140036611486806" lon="12.02764591695019"><ele>125.33333333333334</ele><time>2026-03-27T10:58:24Z</time></trkpt><trkpt lat="42.140034298706546" lon="12.027447645312973"><ele>123.66666666666666</ele><time>2026-03-27T10:58:25Z</time></trkpt><trkpt lat="42.13999896387904" lon="12.027244277520277"><ele>122.0</ele><time>2026-03-27T10:58:26Z</time></trkpt><trkpt lat="42.13991185481114" lon="12.02702002166149"><ele>122.5</ele><time>2026-03-27T10:58:27Z</time></trkpt><trkpt lat="42.13978926043998" lon="12.026779928591097"><ele>123.0</ele><time>2026-03-27T10:58:28Z</time></trkpt><trkpt lat="42.139667588339826" lon="12.026507768875685"><ele>123.0</ele><time>2026-03-27T10:58:29Z</time></trkpt><trkpt lat="42.139563343187845" lon="12.026218966318842"><ele>123.0</ele><time>2026-03-27T10:58:30Z</time></trkpt><trkpt lat="42.1394406940753" lon="12.02591691764018"><ele>122.5</ele><time>2026-03-27T10:58:31Z</time></trkpt><trkpt lat="42.13930022986918" lon="12.025592409923357"><ele>122.0</ele><time>2026-03-27T10:58:32Z</time></trkpt><trkpt lat="42.13917921684708" lon="12.025287770158748"><ele>122.0</ele><time>2026-03-27T10:58:33Z</time></trkpt><trkpt lat="42.139051248878474" lon="12.024997730745223"><ele>122.0</ele><time>2026-03-27T10:58:34Z</time></trkpt><trkpt lat="42.138949800634634" lon="12.024746174682905"><ele>123.5</ele><time>2026-03-27T10:58:35Z</time></trkpt><trkpt lat="42.138836625236586" lon="12.0244727731705"><ele>125.0</ele><time>2026-03-27T10:58:36Z</time></trkpt><trkpt lat="42.138723799835944" lon="12.024201577477921"><ele>124.33333333333333</ele><time>2026-03-27T10:58:37Z</time></trkpt><trkpt lat="42.13863046890709" lon="12.02395930197969"><ele>123.66666666666666</ele><time>2026-03-27T10:58:38Z</time></trkpt><trkpt lat="42.138561921617274" lon="12.02373125295001"><ele>123.0</ele><time>2026-03-27T10:58:39Z</time></trkpt><trkpt lat="42.13851703691972" lon="12.02350982112677"><ele>122.66666666666666</ele><time>2026-03-27T10:58:40Z</time></trkpt><trkpt lat="42.13850698457818" lon="12.023304813079946"><ele>122.33333333333333</ele><time>2026-03-27T10:58:41Z</time></trkpt><trkpt lat="42.13853687194812" lon="12.023087307378434"><ele>122.0</ele><time>2026-03-27T10:58:42Z</time></trkpt><trkpt lat="42.13858298530392" lon="12.022809641139053"><ele>122.0</ele><time>2026-03-27T10:58:43Z</time></trkpt><trkpt lat="42.13863180829665" lon="12.022541605794535"><ele>122.0</ele><time>2026-03-27T10:58:44Z</time></trkpt><trkpt lat="42.138667313406096" lon="12.0223020875646"><ele>122.0</ele><time>2026-03-27T10:58:45Z</time></trkpt><trkpt lat="42.13869584099183" lon="12.022089686527169"><ele>123.0</ele><time>2026-03-27T10:58:46Z</time></trkpt><trkpt lat="42.13873008626203" lon="12.021894725903831"><ele>124.0</ele><time>2026-03-27T10:58:47Z</time></trkpt><trkpt lat="42.138767733450415" lon="12.021721091858666"><ele>125.0</ele><time>2026-03-27T10:58:48Z</time></trkpt><trkpt lat="42.138822591297725" lon="12.021560543411015"><ele>126.0</ele><time>2026-03-27T10:58:49Z</time></trkpt><trkpt lat="42.13892198755341" lon="12.0214119825473"><ele>127.33333333333334</ele><time>2026-03-27T10:58:50Z</time></trkpt><trkpt lat="42.139054404872375" lon="12.021289208160681"><ele>128.66666666666669</ele><time>2026-03-27T10:58:51Z</time></trkpt><trkpt lat="42.139218006920146" lon="12.021162366060409"><ele>130.0</ele><time>2026-03-27T10:58:52Z</time></trkpt><trkpt lat="42.13937841137419" lon="12.021038520440644"><ele>130.0</ele><time>2026-03-27T10:58:53Z</time></trkpt><trkpt lat="42.13952138088605" lon="12.02092691049386"><ele>130.0</ele><time>2026-03-27T10:58:54Z</time></trkpt><trkpt lat="42.139659065813326" lon="12.020827829123288"><ele>130.0</ele><time>2026-03-27T10:58:55Z</time></trkpt><trkpt lat="42.139796678470056" lon="12.02073614602717"><ele>133.0</ele><time>2026-03-27T10:58:56Z</time></trkpt><trkpt lat="42.13995996346523" lon="12.020679354827669"><ele>136.0</ele><time>2026-03-27T10:58:57Z</time></trkpt><trkpt lat="42.14014614168695" lon="12.020671155303294"><ele>139.0</ele><time>2026-03-27T10:58:58Z</time></trkpt><trkpt lat="42.14036506665394" lon="12.020672237708563"><ele>139.0</ele><time>2026-03-27T10:58:59Z</time></trkpt><trkpt lat="42.14055233189031" lon="12.020669627929324"><ele>139.0</ele><time>2026-03-27T10:59:00Z</time></trkpt><trkpt lat="42.140720464008524" lon="12.020652882778046"><ele>139.0</ele><time>2026-03-27T10:59:01Z</time></trkpt><trkpt lat="42.14089390578462" lon="12.020597615645713"><ele>136.66666666666669</ele><time>2026-03-27T10:59:02Z</time></trkpt><trkpt lat="42.14106685076599" lon="12.020498319073587"><ele>134.33333333333334</ele><time>2026-03-27T10:59:03Z</time></trkpt><trkpt lat="42.14122980923013" lon="12.020394770003083"><ele>132.0</ele><time>2026-03-27T10:59:04Z</time></trkpt><trkpt lat="42.14136335593546" lon="12.020280807740834"><ele>132.0</ele><time>2026-03-27T10:59:05Z</time></trkpt><trkpt lat="42.14147007075205" lon="12.020134621114725"><ele>132.0</ele><time>2026-03-27T10:59:06Z</time></trkpt><trkpt lat="42.14153891301194" lon="12.019957373561843"><ele>132.0</ele><time>2026-03-27T10:59:07Z</time></trkpt><trkpt lat="42.141597304134685" lon="12.019733197202248"><ele>128.33333333333334</ele><time>2026-03-27T10:59:08Z</time></trkpt><trkpt lat="42.14164762738476" lon="12.019464201031521"><ele>124.66666666666667</ele><time>2026-03-27T10:59:09Z</time></trkpt><trkpt lat="42.14172858228417" lon="12.01915411159437"><ele>121.0</ele><time>2026-03-27T10:59:10Z</time></trkpt><trkpt lat="42.14180350186099" lon="12.018815282741816"><ele>119.66666666666667</ele><time>2026-03-27T10:59:11Z</time></trkpt><trkpt lat="42.14186309280909" lon="12.01854257206466"><ele>118.33333333333334</ele><time>2026-03-27T10:59:12Z</time></trkpt><trkpt lat="42.1419185371564" lon="12.018292319301308"><ele>117.0</ele><time>2026-03-27T10:59:13Z</time></trkpt><trkpt lat="42.14196612406441" lon="12.018075955567237"><ele>116.66666666666666</ele><time>2026-03-27T10:59:14Z</time></trkpt><trkpt lat="42.14201436109672" lon="12.017863514791939"><ele>116.33333333333333</ele><time>2026-03-27T10:59:15Z</time></trkpt><trkpt lat="42.14207190246812" lon="12.017667632529585"><ele>116.0</ele><time>2026-03-27T10:59:16Z</time></trkpt><trkpt lat="42.14215637708133" lon="12.017516839002518"><ele>118.33333333333333</ele><time>2026-03-27T10:59:17Z</time></trkpt><trkpt lat="42.14225619217311" lon="12.01738211290724"><ele>120.66666666666666</ele><time>2026-03-27T10:59:18Z</time></trkpt><trkpt lat="42.142402831584256" lon="12.017328327870958"><ele>123.0</ele><time>2026-03-27T10:59:19Z</time></trkpt><trkpt lat="42.142569078084875" lon="12.017258236690926"><ele>123.66666666666666</ele><time>2026-03-27T10:59:20Z</time></trkpt><trkpt lat="42.142744436188316" lon="12.017210957862545"><ele>124.33333333333333</ele><time>2026-03-27T10:59:21Z</time></trkpt><trkpt lat="42.142973280437104" lon="12.01713537446272"><ele>125.0</ele><time>2026-03-27T10:59:22Z</time></trkpt><trkpt lat="42.14319274932101" lon="12.017034644641923"><ele>122.5</ele><time>2026-03-27T10:59:23Z</time></trkpt><trkpt lat="42.14341542508791" lon="12.016908449962203"><ele>120.0</ele><time>2026-03-27T10:59:24Z</time></trkpt><trkpt lat="42.14366257598859" lon="12.016752597267581"><ele>123.0</ele><time>2026-03-27T10:59:25Z</time></trkpt><trkpt lat="42.14391384760942" lon="12.016579539887623"><ele>126.0</ele><time>2026-03-27T10:59:26Z</time></trkpt><trkpt lat="42.144165487721516" lon="12.016426687295104"><ele>126.0</ele><time>2026-03-27T10:59:27Z</time></trkpt><trkpt lat="42.14439390230787" lon="12.016287930045735"><ele>126.0</ele><time>2026-03-27T10:59:28Z</time></trkpt><trkpt lat="42.144607936342446" lon="12.016151333439936"><ele>126.0</ele><time>2026-03-27T10:59:29Z</time></trkpt><trkpt lat="42.144814388011525" lon="12.016013917479548"><ele>126.0</ele><time>2026-03-27T10:59:30Z</time></trkpt><trkpt lat="42.145022542488874" lon="12.015877888584075"><ele>128.33333333333334</ele><time>2026-03-27T10:59:31Z</time></trkpt><trkpt lat="42.14522328416716" lon="12.015751572260916"><ele>130.66666666666669</ele><time>2026-03-27T10:59:32Z</time></trkpt><trkpt lat="42.145416368010956" lon="12.015601842439477"><ele>133.0</ele><time>2026-03-27T10:59:33Z</time></trkpt><trkpt lat="42.1455927293496" lon="12.015414390127397"><ele>126.5</ele><time>2026-03-27T10:59:34Z</time></trkpt><trkpt lat="42.145762888730296" lon="12.015182841249231"><ele>120.0</ele><time>2026-03-27T10:59:35Z</time></trkpt><trkpt lat="42.14592221570887" lon="12.01492874144268"><ele>120.0</ele><time>2026-03-27T10:59:36Z</time></trkpt><trkpt lat="42.146070136840784" lon="12.014724523557273"><ele>120.0</ele><time>2026-03-27T10:59:37Z</time></trkpt><trkpt lat="42.14620334447072" lon="12.014546391696161"><ele>120.0</ele><time>2026-03-27T10:59:38Z</time></trkpt><trkpt lat="42.14632218776595" lon="12.01438764203769"><ele>120.0</ele><time>2026-03-27T10:59:39Z</time></trkpt><trkpt lat="42.14644163706329" lon="12.014244204795897"><ele>120.0</ele><time>2026-03-27T10:59:40Z</time></trkpt><trkpt lat="42.146576494252045" lon="12.01410978299898"><ele>120.0</ele><time>2026-03-27T10:59:41Z</time></trkpt><trkpt lat="42.146699059125034" lon="12.014009247449515"><ele>121.75</ele><time>2026-03-27T10:59:42Z</time></trkpt><trkpt lat="42.14681728971059" lon="12.013942933922248"><ele>123.5</ele><time>2026-03-27T10:59:43Z</time></trkpt><trkpt lat="42.146933078220805" lon="12.013868332373006"><ele>125.25</ele><time>2026-03-27T10:59:44Z</time></trkpt><trkpt lat="42.14706034060483" lon="12.013805959949437"><ele>127.0</ele><time>2026-03-27T10:59:45Z</time></trkpt><trkpt lat="42.14718941802349" lon="12.013745483698083"><ele>127.0</ele><time>2026-03-27T10:59:46Z</time></trkpt><trkpt lat="42.147321451621" lon="12.013683622811651"><ele>127.0</ele><time>2026-03-27T10:59:47Z</time></trkpt><trkpt lat="42.14744030838802" lon="12.013627935583418"><ele>127.0</ele><time>2026-03-27T10:59:48Z</time></trkpt><trkpt lat="42.14753996403917" lon="12.013505212041796"><ele>127.0</ele><time>2026-03-27T10:59:49Z</time></trkpt><trkpt lat="42.147655744344945" lon="12.013493067574377"><ele>126.5</ele><time>2026-03-27T10:59:50Z</time></trkpt><trkpt lat="42.14778829043057" lon="12.013460540171288"><ele>126.0</ele><time>2026-03-27T10:59:51Z</time></trkpt><trkpt lat="42.14792498448155" lon="12.013395795974436"><ele>125.5</ele><time>2026-03-27T10:59:52Z</time></trkpt><trkpt lat="42.148063265943165" lon="12.013325384289494"><ele>125.0</ele><time>2026-03-27T10:59:53Z</time></trkpt><trkpt lat="42.14822405747923" lon="12.013246026696512"><ele>125.0</ele><time>2026-03-27T10:59:54Z</time></trkpt><trkpt lat="42.14838756925883" lon="12.013163859638478"><ele>125.0</ele><time>2026-03-27T10:59:55Z</time></trkpt><trkpt lat="42.14852336353315" lon="12.01309397336477"><ele>125.0</ele><time>2026-03-27T10:59:56Z</time></trkpt><trkpt lat="42.14865897801719" lon="12.013025375389866"><ele>125.0</ele><time>2026-03-27T10:59:57Z</time></trkpt><trkpt lat="42.14879315403735" lon="12.012961701207455"><ele>125.0</ele><time>2026-03-27T10:59:58Z</time></trkpt><trkpt lat="42.148925443368235" lon="12.012890227590075"><ele>125.0</ele><time>2026-03-27T10:59:59Z</time></trkpt><trkpt lat="42.1490484084643" lon="12.012816851995083"><ele>125.0</ele><time>2026-03-27T11:00:00Z</time></trkpt><trkpt lat="42.14916719755142" lon="12.012757348779356"><ele>125.5</ele><time>2026-03-27T11:00:01Z</time></trkpt><trkpt lat="42.14929568641388" lon="12.012709382147756"><ele>126.0</ele><time>2026-03-27T11:00:02Z</time></trkpt><trkpt lat="42.14943154385074" lon="12.012682786346383"><ele>126.5</ele><time>2026-03-27T11:00:03Z</time></trkpt><trkpt lat="42.14957728667392" lon="12.012676740023345"><ele>127.0</ele><time>2026-03-27T11:00:04Z</time></trkpt><trkpt lat="42.14972750674287" lon="12.01271046524925"><ele>129.0</ele><time>2026-03-27T11:00:05Z</time></trkpt><trkpt lat="42.149891751315494" lon="12.012781758810434"><ele>131.0</ele><time>2026-03-27T11:00:06Z</time></trkpt><trkpt lat="42.15004690487865" lon="12.012888567450569"><ele>133.0</ele><time>2026-03-27T11:00:07Z</time></trkpt><trkpt lat="42.15018827163051" lon="12.012982018785417"><ele>133.0</ele><time>2026-03-27T11:00:08Z</time></trkpt><trkpt lat="42.15033925848804" lon="12.013036718237245"><ele>133.0</ele><time>2026-03-27T11:00:09Z</time></trkpt><trkpt lat="42.15049498395474" lon="12.013065471268296"><ele>133.0</ele><time>2026-03-27T11:00:10Z</time></trkpt><trkpt lat="42.15064346184253" lon="12.013081025437478"><ele>132.0</ele><time>2026-03-27T11:00:11Z</time></trkpt><trkpt lat="42.15077579573222" lon="12.013081687593044"><ele>131.0</ele><time>2026-03-27T11:00:12Z</time></trkpt><trkpt lat="42.15090472906286" lon="12.013056509082059"><ele>130.0</ele><time>2026-03-27T11:00:13Z</time></trkpt><trkpt lat="42.15104037660367" lon="12.012971993310241"><ele>129.0</ele><time>2026-03-27T11:00:14Z</time></trkpt><trkpt lat="42.15117531999369" lon="12.012838862069989"><ele>129.0</ele><time>2026-03-27T11:00:15Z</time></trkpt><trkpt lat="42.151301392306294" lon="12.012663624929688"><ele>129.0</ele><time>2026-03-27T11:00:16Z</time></trkpt><trkpt lat="42.15144483172085" lon="12.012456452639313"><ele>129.0</ele><time>2026-03-27T11:00:17Z</time></trkpt><trkpt lat="42.15159620949106" lon="12.01225975574632"><ele>126.33333333333334</ele><time>2026-03-27T11:00:18Z</time></trkpt><trkpt lat="42.15172552539081" lon="12.01209014735703"><ele>123.66666666666667</ele><time>2026-03-27T11:00:19Z</time></trkpt><trkpt lat="42.15184916490227" lon="12.011925271778985"><ele>121.0</ele><time>2026-03-27T11:00:20Z</time></trkpt><trkpt lat="42.15196159018951" lon="12.011768250693832"><ele>124.0</ele><time>2026-03-27T11:00:21Z</time></trkpt><trkpt lat="42.152065290988226" lon="12.01160182334173"><ele>127.0</ele><time>2026-03-27T11:00:22Z</time></trkpt><trkpt lat="42.152141143410056" lon="12.011400658447254"><ele>130.0</ele><time>2026-03-27T11:00:23Z</time></trkpt><trkpt lat="42.152195903095" lon="12.011171228644722"><ele>130.0</ele><time>2026-03-27T11:00:24Z</time></trkpt><trkpt lat="42.152253000468264" lon="12.010907088786585"><ele>130.0</ele><time>2026-03-27T11:00:25Z</time></trkpt><trkpt lat="42.152305936630235" lon="12.010643085579204"><ele>130.0</ele><time>2026-03-27T11:00:26Z</time></trkpt><trkpt lat="42.152356155760465" lon="12.010388420346127"><ele>125.66666666666667</ele><time>2026-03-27T11:00:27Z</time></trkpt><trkpt lat="42.15240307273641" lon="12.010146883459246"><ele>121.33333333333334</ele><time>2026-03-27T11:00:28Z</time></trkpt><trkpt lat="42.152451808130145" lon="12.009910291474467"><ele>117.0</ele><time>2026-03-27T11:00:29Z</time></trkpt><trkpt lat="42.15249859755986" lon="12.009682654310955"><ele>117.0</ele><time>2026-03-27T11:00:30Z</time></trkpt><trkpt lat="42.15254721172319" lon="12.009460169001015"><ele>117.0</ele><time>2026-03-27T11:00:31Z</time></trkpt><trkpt lat="42.152596400942095" lon="12.009222985654604"><ele>117.0</ele><time>2026-03-27T11:00:32Z</time></trkpt><trkpt lat="42.15264946725627" lon="12.00897386264007"><ele>116.0</ele><time>2026-03-27T11:00:33Z</time></trkpt><trkpt lat="42.15269046717797" lon="12.00874995680342"><ele>115.0</ele><time>2026-03-27T11:00:34Z</time></trkpt><trkpt lat="42.15273066209671" lon="12.008543799541007"><ele>114.0</ele><time>2026-03-27T11:00:35Z</time></trkpt><trkpt lat="42.15277084827741" lon="12.008345775579107"><ele>114.25</ele><time>2026-03-27T11:00:36Z</time></trkpt><trkpt lat="42.15279137020403" lon="12.00815835117446"><ele>114.5</ele><time>2026-03-27T11:00:37Z</time></trkpt><trkpt lat="42.15278093407585" lon="12.007965910431993"><ele>114.75</ele><time>2026-03-27T11:00:38Z</time></trkpt><trkpt lat="42.15273510142451" lon="12.007783015581678"><ele>115.0</ele><time>2026-03-27T11:00:39Z</time></trkpt><trkpt lat="42.152655377164066" lon="12.00760363127619"><ele>115.33333333333334</ele><time>2026-03-27T11:00:40Z</time></trkpt><trkpt lat="42.152550555309325" lon="12.007423394438637"><ele>115.66666666666666</ele><time>2026-03-27T11:00:41Z</time></trkpt><trkpt lat="42.15243761280617" lon="12.00718052067078"><ele>116.0</ele><time>2026-03-27T11:00:42Z</time></trkpt><trkpt lat="42.15234109701548" lon="12.00691114024264"><ele>116.33333333333333</ele><time>2026-03-27T11:00:43Z</time></trkpt><trkpt lat="42.15226790126376" lon="12.006635357584765"><ele>116.66666666666666</ele><time>2026-03-27T11:00:44Z</time></trkpt><trkpt lat="42.15221890091755" lon="12.006392784508671"><ele>117.0</ele><time>2026-03-27T11:00:45Z</time></trkpt><trkpt lat="42.1521570562683" lon="12.006167726628714"><ele>117.0</ele><time>2026-03-27T11:00:46Z</time></trkpt><trkpt lat="42.15208058046467" lon="12.005961653587756"><ele>117.0</ele><time>2026-03-27T11:00:47Z</time></trkpt><trkpt lat="42.15203162991335" lon="12.005762789140135"><ele>117.0</ele><time>2026-03-27T11:00:48Z</time></trkpt><trkpt lat="42.15201556982727" lon="12.005556131879498"><ele>117.33333333333334</ele><time>2026-03-27T11:00:49Z</time></trkpt><trkpt lat="42.15202974814477" lon="12.005344253661145"><ele>117.66666666666667</ele><time>2026-03-27T11:00:50Z</time></trkpt><trkpt lat="42.15208995221512" lon="12.005127708585869"><ele>118.0</ele><time>2026-03-27T11:00:51Z</time></trkpt><trkpt lat="42.152115118057345" lon="12.004910658054122"><ele>117.33333333333334</ele><time>2026-03-27T11:00:52Z</time></trkpt><trkpt lat="42.152143996730885" lon="12.004712641511377"><ele>116.66666666666666</ele><time>2026-03-27T11:00:53Z</time></trkpt><trkpt lat="42.15213146490859" lon="12.004484444536411"><ele>116.0</ele><time>2026-03-27T11:00:54Z</time></trkpt><trkpt lat="42.15207839178574" lon="12.004236901696688"><ele>116.0</ele><time>2026-03-27T11:00:55Z</time></trkpt><trkpt lat="42.15200452825583" lon="12.003965856421686"><ele>116.0</ele><time>2026-03-27T11:00:56Z</time></trkpt><trkpt lat="42.15192880559915" lon="12.003699054113028"><ele>116.0</ele><time>2026-03-27T11:00:57Z</time></trkpt><trkpt lat="42.151866129311145" lon="12.003394374533421"><ele>117.0</ele><time>2026-03-27T11:00:58Z</time></trkpt><trkpt lat="42.15177321099386" lon="12.003094374978525"><ele>118.0</ele><time>2026-03-27T11:00:59Z</time></trkpt><trkpt lat="42.151711752597706" lon="12.002834275354282"><ele>119.0</ele><time>2026-03-27T11:01:00Z</time></trkpt><trkpt lat="42.151676264736" lon="12.002596438310789"><ele>120.0</ele><time>2026-03-27T11:01:01Z</time></trkpt><trkpt lat="42.15164205323696" lon="12.002358894605448"><ele>121.0</ele><time>2026-03-27T11:01:02Z</time></trkpt><trkpt lat="42.151603788994095" lon="12.002102128900875"><ele>122.0</ele><time>2026-03-27T11:01:03Z</time></trkpt><trkpt lat="42.15154790344814" lon="12.001885937791059"><ele>120.33333333333333</ele><time>2026-03-27T11:01:04Z</time></trkpt><trkpt lat="42.15149878260976" lon="12.00167459545303"><ele>118.66666666666666</ele><time>2026-03-27T11:01:05Z</time></trkpt><trkpt lat="42.1514183060048" lon="12.001434688082737"><ele>117.0</ele><time>2026-03-27T11:01:06Z</time></trkpt><trkpt lat="42.15130140650859" lon="12.001178871881168"><ele>116.5</ele><time>2026-03-27T11:01:07Z</time></trkpt><trkpt lat="42.15115956556022" lon="12.0009106664511"><ele>116.0</ele><time>2026-03-27T11:01:08Z</time></trkpt><trkpt lat="42.151033764107005" lon="12.000620391581851"><ele>117.66666666666666</ele><time>2026-03-27T11:01:09Z</time></trkpt><trkpt lat="42.1509153514513" lon="12.000379816756428"><ele>119.33333333333334</ele><time>2026-03-27T11:01:10Z</time></trkpt><trkpt lat="42.15079730037106" lon="12.000172612110216"><ele>121.0</ele><time>2026-03-27T11:01:11Z</time></trkpt><trkpt lat="42.15071393434712" lon="11.999978325040605"><ele>120.66666666666667</ele><time>2026-03-27T11:01:12Z</time></trkpt><trkpt lat="42.15065678058658" lon="11.999745264130985"><ele>120.33333333333334</ele><time>2026-03-27T11:01:13Z</time></trkpt><trkpt lat="42.15060392716509" lon="11.999497781395151"><ele>120.0</ele><time>2026-03-27T11:01:14Z</time></trkpt><trkpt lat="42.150547797715845" lon="11.999235095087666"><ele>120.0</ele><time>2026-03-27T11:01:15Z</time></trkpt><trkpt lat="42.150507166842424" lon="11.998931126568673"><ele>120.0</ele><time>2026-03-27T11:01:16Z</time></trkpt><trkpt lat="42.150457283605114" lon="11.998586124899884"><ele>121.5</ele><time>2026-03-27T11:01:17Z</time></trkpt><trkpt lat="42.150412248169026" lon="11.998250156451784"><ele>123.0</ele><time>2026-03-27T11:01:18Z</time></trkpt><trkpt lat="42.15037828199968" lon="11.997942098701815"><ele>123.0</ele><time>2026-03-27T11:01:19Z</time></trkpt><trkpt lat="42.1502884547609" lon="11.99764310860884"><ele>123.0</ele><time>2026-03-27T11:01:20Z</time></trkpt><trkpt lat="42.150193344624206" lon="11.997313322781427"><ele>122.5</ele><time>2026-03-27T11:01:21Z</time></trkpt><trkpt lat="42.150125588647676" lon="11.996995881538158"><ele>122.0</ele><time>2026-03-27T11:01:22Z</time></trkpt><trkpt lat="42.15005221883745" lon="11.996718544988072"><ele>121.5</ele><time>2026-03-27T11:01:23Z</time></trkpt><trkpt lat="42.14996701105215" lon="11.996396461127144"><ele>121.0</ele><time>2026-03-27T11:01:24Z</time></trkpt><trkpt lat="42.149873880137115" lon="11.996120484523553"><ele>120.0</ele><time>2026-03-27T11:01:25Z</time></trkpt><trkpt lat="42.14979813311872" lon="11.995875048860844"><ele>119.0</ele><time>2026-03-27T11:01:26Z</time></trkpt><trkpt lat="42.14972311378517" lon="11.995654992073076"><ele>118.0</ele><time>2026-03-27T11:01:27Z</time></trkpt><trkpt lat="42.14962887921787" lon="11.995439935067278"><ele>118.0</ele><time>2026-03-27T11:01:28Z</time></trkpt><trkpt lat="42.14950357661186" lon="11.995219820722195"><ele>118.0</ele><time>2026-03-27T11:01:29Z</time></trkpt><trkpt lat="42.14937784682071" lon="11.99503677086064"><ele>118.0</ele><time>2026-03-27T11:01:30Z</time></trkpt><trkpt lat="42.14926244158777" lon="11.99488465454924"><ele>119.25</ele><time>2026-03-27T11:01:31Z</time></trkpt><trkpt lat="42.14916975578208" lon="11.994751687670195"><ele>120.5</ele><time>2026-03-27T11:01:32Z</time></trkpt><trkpt lat="42.149130821594994" lon="11.9945709581331"><ele>121.75</ele><time>2026-03-27T11:01:33Z</time></trkpt><trkpt lat="42.14909530432402" lon="11.994404557826773"><ele>123.0</ele><time>2026-03-27T11:01:34Z</time></trkpt><trkpt lat="42.14913439561259" lon="11.994228112178275"><ele>124.0</ele><time>2026-03-27T11:01:35Z</time></trkpt><trkpt lat="42.149184313505124" lon="11.994052010723145"><ele>125.0</ele><time>2026-03-27T11:01:36Z</time></trkpt><trkpt lat="42.14924461220049" lon="11.99382882791587"><ele>126.0</ele><time>2026-03-27T11:01:37Z</time></trkpt><trkpt lat="42.14933138583475" lon="11.993574046707323"><ele>126.0</ele><time>2026-03-27T11:01:38Z</time></trkpt><trkpt lat="42.149418955201554" lon="11.993312911605177"><ele>126.0</ele><time>2026-03-27T11:01:39Z</time></trkpt><trkpt lat="42.14950086606232" lon="11.99305450009167"><ele>126.0</ele><time>2026-03-27T11:01:40Z</time></trkpt><trkpt lat="42.149571704958184" lon="11.992814528642022"><ele>126.0</ele><time>2026-03-27T11:01:41Z</time></trkpt><trkpt lat="42.149633708737305" lon="11.992522831818638"><ele>126.0</ele><time>2026-03-27T11:01:42Z</time></trkpt><trkpt lat="42.14967651349906" lon="11.992207922394309"><ele>125.66666666666666</ele><time>2026-03-27T11:01:43Z</time></trkpt><trkpt lat="42.149730326543576" lon="11.991929236556828"><ele>125.33333333333333</ele><time>2026-03-27T11:01:44Z</time></trkpt><trkpt lat="42.14975496770065" lon="11.991668406640986"><ele>125.0</ele><time>2026-03-27T11:01:45Z</time></trkpt><trkpt lat="42.14979495551662" lon="11.991420380250185"><ele>124.66666666666666</ele><time>2026-03-27T11:01:46Z</time></trkpt><trkpt lat="42.149844545566545" lon="11.991204111126816"><ele>124.33333333333334</ele><time>2026-03-27T11:01:47Z</time></trkpt><trkpt lat="42.14987255563749" lon="11.99099814039022"><ele>124.0</ele><time>2026-03-27T11:01:48Z</time></trkpt><trkpt lat="42.149871205282075" lon="11.990814164869375"><ele>124.0</ele><time>2026-03-27T11:01:49Z</time></trkpt><trkpt lat="42.14984776938037" lon="11.99064826878288"><ele>124.0</ele><time>2026-03-27T11:01:50Z</time></trkpt><trkpt lat="42.14978031366942" lon="11.990499708393363"><ele>124.0</ele><time>2026-03-27T11:01:51Z</time></trkpt><trkpt lat="42.149678126375676" lon="11.990378440851094"><ele>124.0</ele><time>2026-03-27T11:01:52Z</time></trkpt><trkpt lat="42.14954671042413" lon="11.990264386924373"><ele>124.0</ele><time>2026-03-27T11:01:53Z</time></trkpt><trkpt lat="42.149383143353376" lon="11.990130800156994"><ele>124.0</ele><time>2026-03-27T11:01:54Z</time></trkpt><trkpt lat="42.149206158217346" lon="11.989945297483747"><ele>124.0</ele><time>2026-03-27T11:01:55Z</time></trkpt><trkpt lat="42.149023847820956" lon="11.989779492167884"><ele>124.0</ele><time>2026-03-27T11:01:56Z</time></trkpt><trkpt lat="42.14882424371396" lon="11.98962305534654"><ele>124.0</ele><time>2026-03-27T11:01:57Z</time></trkpt><trkpt lat="42.14862622319729" lon="11.989431553667663"><ele>124.0</ele><time>2026-03-27T11:01:58Z</time></trkpt><trkpt lat="42.1484694296784" lon="11.989264745062977"><ele>124.0</ele><time>2026-03-27T11:01:59Z</time></trkpt><trkpt lat="42.14833415113817" lon="11.989114247345768"><ele>124.0</ele><time>2026-03-27T11:02:00Z</time></trkpt><trkpt lat="42.14822532935008" lon="11.988943182226294"><ele>126.0</ele><time>2026-03-27T11:02:01Z</time></trkpt><trkpt lat="42.14811930614956" lon="11.988725325877796"><ele>128.0</ele><time>2026-03-27T11:02:02Z</time></trkpt><trkpt lat="42.14799323156034" lon="11.988457638267052"><ele>130.0</ele><time>2026-03-27T11:02:03Z</time></trkpt><trkpt lat="42.147857089158826" lon="11.988163026785895"><ele>130.0</ele><time>2026-03-27T11:02:04Z</time></trkpt><trkpt lat="42.14773913680666" lon="11.987904092371078"><ele>130.0</ele><time>2026-03-27T11:02:05Z</time></trkpt><trkpt lat="42.14762955340814" lon="11.987662724989372"><ele>130.0</ele><time>2026-03-27T11:02:06Z</time></trkpt><trkpt lat="42.147525501365614" lon="11.98743265305111"><ele>131.66666666666669</ele><time>2026-03-27T11:02:07Z</time></trkpt><trkpt lat="42.14743171846002" lon="11.9872310532111"><ele>133.33333333333334</ele><time>2026-03-27T11:02:08Z</time></trkpt><trkpt lat="42.14731241792005" lon="11.987049922555604"><ele>135.0</ele><time>2026-03-27T11:02:09Z</time></trkpt><trkpt lat="42.147181975508495" lon="11.986892007648223"><ele>135.0</ele><time>2026-03-27T11:02:10Z</time></trkpt><trkpt lat="42.1470197247234" lon="11.986768872500884"><ele>135.0</ele><time>2026-03-27T11:02:11Z</time></trkpt><trkpt lat="42.14690150496083" lon="11.986620956403481"><ele>135.0</ele><time>2026-03-27T11:02:12Z</time></trkpt><trkpt lat="42.146811743985474" lon="11.986484312388948"><ele>136.0</ele><time>2026-03-27T11:02:13Z</time></trkpt><trkpt lat="42.146772840066276" lon="11.986318439122169"><ele>137.0</ele><time>2026-03-27T11:02:14Z</time></trkpt><trkpt lat="42.146739188712594" lon="11.98610833197205"><ele>138.0</ele><time>2026-03-27T11:02:15Z</time></trkpt><trkpt lat="42.146704516251646" lon="11.985881991841852"><ele>138.75</ele><time>2026-03-27T11:02:16Z</time></trkpt><trkpt lat="42.14664669838842" lon="11.985684675109521"><ele>139.5</ele><time>2026-03-27T11:02:17Z</time></trkpt><trkpt lat="42.1465784166447" lon="11.985514647518498"><ele>140.25</ele><time>2026-03-27T11:02:18Z</time></trkpt><trkpt lat="42.14648390963071" lon="11.985361552007246"><ele>141.0</ele><time>2026-03-27T11:02:19Z</time></trkpt><trkpt lat="42.14635864838043" lon="11.985246095898582"><ele>138.66666666666666</ele><time>2026-03-27T11:02:20Z</time></trkpt><trkpt lat="42.14621195233574" lon="11.985138721603757"><ele>136.33333333333331</ele><time>2026-03-27T11:02:21Z</time></trkpt><trkpt lat="42.14606194962498" lon="11.98501478047543"><ele>134.0</ele><time>2026-03-27T11:02:22Z</time></trkpt><trkpt lat="42.145928131739154" lon="11.984866773725434"><ele>134.0</ele><time>2026-03-27T11:02:23Z</time></trkpt><trkpt lat="42.14579259408746" lon="11.984699912711838"><ele>134.0</ele><time>2026-03-27T11:02:24Z</time></trkpt><trkpt lat="42.1456437938424" lon="11.984507382080873"><ele>134.0</ele><time>2026-03-27T11:02:25Z</time></trkpt><trkpt lat="42.145478626529496" lon="11.984285840075042"><ele>133.0</ele><time>2026-03-27T11:02:26Z</time></trkpt><trkpt lat="42.145340059366035" lon="11.984093696943212"><ele>132.0</ele><time>2026-03-27T11:02:27Z</time></trkpt><trkpt lat="42.14523061489918" lon="11.983929317980365"><ele>131.0</ele><time>2026-03-27T11:02:28Z</time></trkpt><trkpt lat="42.14513939777141" lon="11.983744562084631"><ele>131.0</ele><time>2026-03-27T11:02:29Z</time></trkpt><trkpt lat="42.14508222199224" lon="11.983559181143354"><ele>131.0</ele><time>2026-03-27T11:02:30Z</time></trkpt><trkpt lat="42.14505414110454" lon="11.983337283076668"><ele>131.0</ele><time>2026-03-27T11:02:31Z</time></trkpt><trkpt lat="42.14502173254554" lon="11.983068182354248"><ele>131.66666666666666</ele><time>2026-03-27T11:02:32Z</time></trkpt><trkpt lat="42.14499257335813" lon="11.98282515227787"><ele>132.33333333333334</ele><time>2026-03-27T11:02:33Z</time></trkpt><trkpt lat="42.144965371393326" lon="11.982592900915146"><ele>133.0</ele><time>2026-03-27T11:02:34Z</time></trkpt><trkpt lat="42.1449443717258" lon="11.98238690829237"><ele>133.66666666666669</ele><time>2026-03-27T11:02:35Z</time></trkpt><trkpt lat="42.14493435488141" lon="11.982187010773691"><ele>134.33333333333334</ele><time>2026-03-27T11:02:36Z</time></trkpt><trkpt lat="42.14495865977912" lon="11.98197943248789"><ele>135.0</ele><time>2026-03-27T11:02:37Z</time></trkpt><trkpt lat="42.14502560540214" lon="11.981765716068914"><ele>135.0</ele><time>2026-03-27T11:02:38Z</time></trkpt><trkpt lat="42.14510462848759" lon="11.981534502731066"><ele>135.0</ele><time>2026-03-27T11:02:39Z</time></trkpt><trkpt lat="42.145198639585274" lon="11.981269323078195"><ele>135.0</ele><time>2026-03-27T11:02:40Z</time></trkpt><trkpt lat="42.14529805671158" lon="11.980990654109206"><ele>135.0</ele><time>2026-03-27T11:02:41Z</time></trkpt><trkpt lat="42.14541159894447" lon="11.980662243836823"><ele>135.0</ele><time>2026-03-27T11:02:42Z</time></trkpt><trkpt lat="42.14551502763304" lon="11.980314122977914"><ele>135.0</ele><time>2026-03-27T11:02:43Z</time></trkpt><trkpt lat="42.14562292533571" lon="11.980047420839316"><ele>135.0</ele><time>2026-03-27T11:02:44Z</time></trkpt><trkpt lat="42.14572170072454" lon="11.979759318876486"><ele>137.0</ele><time>2026-03-27T11:02:45Z</time></trkpt><trkpt lat="42.14580230485207" lon="11.979456405556666"><ele>139.0</ele><time>2026-03-27T11:02:46Z</time></trkpt><trkpt lat="42.14587967296871" lon="11.979188923527639"><ele>138.5</ele><time>2026-03-27T11:02:47Z</time></trkpt><trkpt lat="42.14594567019552" lon="11.978909141351535"><ele>138.0</ele><time>2026-03-27T11:02:48Z</time></trkpt><trkpt lat="42.14601632168009" lon="11.97857703353517"><ele>138.0</ele><time>2026-03-27T11:02:49Z</time></trkpt><trkpt lat="42.14609507460997" lon="11.978202275827663"><ele>138.0</ele><time>2026-03-27T11:02:50Z</time></trkpt><trkpt lat="42.146171464576014" lon="11.977833230228782"><ele>139.0</ele><time>2026-03-27T11:02:51Z</time></trkpt><trkpt lat="42.14623944674038" lon="11.977491842132572"><ele>140.0</ele><time>2026-03-27T11:02:52Z</time></trkpt><trkpt lat="42.14632568901473" lon="11.977144083317237"><ele>140.0</ele><time>2026-03-27T11:02:53Z</time></trkpt><trkpt lat="42.14639063415587" lon="11.976817038927795"><ele>140.0</ele><time>2026-03-27T11:02:54Z</time></trkpt><trkpt lat="42.146433714192916" lon="11.976505207046685"><ele>140.66666666666666</ele><time>2026-03-27T11:02:55Z</time></trkpt><trkpt lat="42.14649530781941" lon="11.97621761095167"><ele>141.33333333333334</ele><time>2026-03-27T11:02:56Z</time></trkpt><trkpt lat="42.146547894667535" lon="11.975965259362518"><ele>142.0</ele><time>2026-03-27T11:02:57Z</time></trkpt><trkpt lat="42.146596630696116" lon="11.975709147664793"><ele>143.33333333333334</ele><time>2026-03-27T11:02:58Z</time></trkpt><trkpt lat="42.146670083945445" lon="11.975430371510889"><ele>144.66666666666666</ele><time>2026-03-27T11:02:59Z</time></trkpt><trkpt lat="42.146748716083785" lon="11.975154843749433"><ele>146.0</ele><time>2026-03-27T11:03:00Z</time></trkpt><trkpt lat="42.146829246316415" lon="11.974904574832093"><ele>146.0</ele><time>2026-03-27T11:03:01Z</time></trkpt><trkpt lat="42.14690792663875" lon="11.97467156386287"><ele>146.0</ele><time>2026-03-27T11:03:02Z</time></trkpt><trkpt lat="42.146991812839424" lon="11.974437296345963"><ele>146.0</ele><time>2026-03-27T11:03:03Z</time></trkpt><trkpt lat="42.14711531461933" lon="11.974211922909523"><ele>145.5</ele><time>2026-03-27T11:03:04Z</time></trkpt><trkpt lat="42.147244027440316" lon="11.973947759934653"><ele>145.0</ele><time>2026-03-27T11:03:05Z</time></trkpt><trkpt lat="42.147409383837626" lon="11.973664002781"><ele>147.5</ele><time>2026-03-27T11:03:06Z</time></trkpt><trkpt lat="42.147589263004804" lon="11.973350986125729"><ele>150.0</ele><time>2026-03-27T11:03:07Z</time></trkpt><trkpt lat="42.14776615628866" lon="11.973055109776185"><ele>150.0</ele><time>2026-03-27T11:03:08Z</time></trkpt><trkpt lat="42.14795232590976" lon="11.972755104897724"><ele>150.0</ele><time>2026-03-27T11:03:09Z</time></trkpt><trkpt lat="42.14812364599911" lon="11.972482871984411"><ele>154.0</ele><time>2026-03-27T11:03:10Z</time></trkpt><trkpt lat="42.148304440956636" lon="11.972183455656683"><ele>158.0</ele><time>2026-03-27T11:03:11Z</time></trkpt><trkpt lat="42.14849657947802" lon="11.971861820879573"><ele>158.0</ele><time>2026-03-27T11:03:12Z</time></trkpt><trkpt lat="42.14869647962885" lon="11.971535504375636"><ele>158.0</ele><time>2026-03-27T11:03:13Z</time></trkpt><trkpt lat="42.148911136268154" lon="11.971190423569904"><ele>163.5</ele><time>2026-03-27T11:03:14Z</time></trkpt><trkpt lat="42.14912533948215" lon="11.97083786801716"><ele>169.0</ele><time>2026-03-27T11:03:15Z</time></trkpt><trkpt lat="42.14930210553043" lon="11.970551883014696"><ele>169.0</ele><time>2026-03-27T11:03:16Z</time></trkpt><trkpt lat="42.14946523517724" lon="11.970287327761616"><ele>169.0</ele><time>2026-03-27T11:03:17Z</time></trkpt><trkpt lat="42.14960073695509" lon="11.970040586666924"><ele>168.0</ele><time>2026-03-27T11:03:18Z</time></trkpt><trkpt lat="42.149747838843616" lon="11.969806467718499"><ele>167.0</ele><time>2026-03-27T11:03:19Z</time></trkpt><trkpt lat="42.149878871651936" lon="11.969594537192044"><ele>166.0</ele><time>2026-03-27T11:03:20Z</time></trkpt><trkpt lat="42.150016390599774" lon="11.969402836185001"><ele>168.66666666666669</ele><time>2026-03-27T11:03:21Z</time></trkpt><trkpt lat="42.150174950998036" lon="11.969236445327045"><ele>171.33333333333334</ele><time>2026-03-27T11:03:22Z</time></trkpt><trkpt lat="42.150383505361056" lon="11.96906250030615"><ele>174.0</ele><time>2026-03-27T11:03:23Z</time></trkpt><trkpt lat="42.15059997391493" lon="11.968891706441632"><ele>181.0</ele><time>2026-03-27T11:03:24Z</time></trkpt><trkpt lat="42.150840593364855" lon="11.968693918108329"><ele>188.0</ele><time>2026-03-27T11:03:25Z</time></trkpt><trkpt lat="42.15108148974166" lon="11.968506549528417"><ele>185.0</ele><time>2026-03-27T11:03:26Z</time></trkpt><trkpt lat="42.15132903511205" lon="11.968311120175631"><ele>182.0</ele><time>2026-03-27T11:03:27Z</time></trkpt><trkpt lat="42.15157433379003" lon="11.968110504903004"><ele>188.5</ele><time>2026-03-27T11:03:28Z</time></trkpt><trkpt lat="42.15181152614665" lon="11.967925976194527"><ele>195.0</ele><time>2026-03-27T11:03:29Z</time></trkpt><trkpt lat="42.15204264700417" lon="11.967742780800474"><ele>195.0</ele><time>2026-03-27T11:03:30Z</time></trkpt><trkpt lat="42.152253750769496" lon="11.967561363487249"><ele>195.0</ele><time>2026-03-27T11:03:31Z</time></trkpt><trkpt lat="42.152473737215495" lon="11.967383735033595"><ele>199.0</ele><time>2026-03-27T11:03:32Z</time></trkpt><trkpt lat="42.15268834196452" lon="11.967225427755055"><ele>203.0</ele><time>2026-03-27T11:03:33Z</time></trkpt><trkpt lat="42.152876916005766" lon="11.967086215234044"><ele>203.0</ele><time>2026-03-27T11:03:34Z</time></trkpt><trkpt lat="42.153050264453775" lon="11.96693649452119"><ele>203.0</ele><time>2026-03-27T11:03:35Z</time></trkpt><trkpt lat="42.15322538736002" lon="11.966800743740409"><ele>203.0</ele><time>2026-03-27T11:03:36Z</time></trkpt><trkpt lat="42.1534150107665" lon="11.966638834653446"><ele>205.33333333333334</ele><time>2026-03-27T11:03:37Z</time></trkpt><trkpt lat="42.15361221330419" lon="11.966504586843376"><ele>207.66666666666669</ele><time>2026-03-27T11:03:38Z</time></trkpt><trkpt lat="42.153772403040534" lon="11.966368587672"><ele>210.0</ele><time>2026-03-27T11:03:39Z</time></trkpt><trkpt lat="42.15384633124623" lon="11.966060230794668"><ele>211.0</ele><time>2026-03-27T11:03:40Z</time></trkpt><trkpt lat="42.15395751220169" lon="11.965802290153214"><ele>212.0</ele><time>2026-03-27T11:03:41Z</time></trkpt><trkpt lat="42.15406569427496" lon="11.965513364185401"><ele>212.0</ele><time>2026-03-27T11:03:42Z</time></trkpt><trkpt lat="42.15419389867417" lon="11.965206153945287"><ele>212.0</ele><time>2026-03-27T11:03:43Z</time></trkpt><trkpt lat="42.15434574774022" lon="11.964897878339226"><ele>216.0</ele><time>2026-03-27T11:03:44Z</time></trkpt><trkpt lat="42.1545036774279" lon="11.964609729167872"><ele>220.0</ele><time>2026-03-27T11:03:45Z</time></trkpt><trkpt lat="42.1546672393955" lon="11.964331072477652"><ele>221.0</ele><time>2026-03-27T11:03:46Z</time></trkpt><trkpt lat="42.15485034509851" lon="11.964060920915072"><ele>222.0</ele><time>2026-03-27T11:03:47Z</time></trkpt><trkpt lat="42.15506229282221" lon="11.963785698569318"><ele>222.0</ele><time>2026-03-27T11:03:48Z</time></trkpt><trkpt lat="42.15525669635321" lon="11.963534359824742"><ele>222.0</ele><time>2026-03-27T11:03:49Z</time></trkpt><trkpt lat="42.15543094362902" lon="11.963303295031357"><ele>225.5</ele><time>2026-03-27T11:03:50Z</time></trkpt><trkpt lat="42.1556180962001" lon="11.96305328009192"><ele>229.0</ele><time>2026-03-27T11:03:51Z</time></trkpt><trkpt lat="42.15581529733779" lon="11.962790608261887"><ele>232.5</ele><time>2026-03-27T11:03:52Z</time></trkpt><trkpt lat="42.155986364995734" lon="11.962562049088298"><ele>236.0</ele><time>2026-03-27T11:03:53Z</time></trkpt><trkpt lat="42.156157885854526" lon="11.962325269568321"><ele>236.0</ele><time>2026-03-27T11:03:54Z</time></trkpt><trkpt lat="42.15633227615864" lon="11.962084100430374"><ele>236.0</ele><time>2026-03-27T11:03:55Z</time></trkpt><trkpt lat="42.15648412058598" lon="11.961881035083902"><ele>238.66666666666669</ele><time>2026-03-27T11:03:56Z</time></trkpt><trkpt lat="42.156619169961616" lon="11.961673853666504"><ele>241.33333333333331</ele><time>2026-03-27T11:03:57Z</time></trkpt><trkpt lat="42.156729777155476" lon="11.961435161917466"><ele>244.0</ele><time>2026-03-27T11:03:58Z</time></trkpt><trkpt lat="42.15680127051218" lon="11.961165610469038"><ele>244.0</ele><time>2026-03-27T11:03:59Z</time></trkpt><trkpt lat="42.15684848816305" lon="11.960898859132001"><ele>244.0</ele><time>2026-03-27T11:04:00Z</time></trkpt><trkpt lat="42.15689990513468" lon="11.960667558478212"><ele>244.0</ele><time>2026-03-27T11:04:01Z</time></trkpt><trkpt lat="42.156966350685" lon="11.960428618253834"><ele>245.0</ele><time>2026-03-27T11:04:02Z</time></trkpt><trkpt lat="42.15704293275547" lon="11.960153840412808"><ele>246.0</ele><time>2026-03-27T11:04:03Z</time></trkpt><trkpt lat="42.1571252905788" lon="11.95986083783691"><ele>247.0</ele><time>2026-03-27T11:04:04Z</time></trkpt><trkpt lat="42.157203028086414" lon="11.959556299492082"><ele>248.0</ele><time>2026-03-27T11:04:05Z</time></trkpt><trkpt lat="42.15729002733209" lon="11.95923707202476"><ele>250.5</ele><time>2026-03-27T11:04:06Z</time></trkpt><trkpt lat="42.15737933548669" lon="11.95890899511405"><ele>253.0</ele><time>2026-03-27T11:04:07Z</time></trkpt><trkpt lat="42.1574668429777" lon="11.958577915828297"><ele>257.5</ele><time>2026-03-27T11:04:08Z</time></trkpt><trkpt lat="42.15756081023112" lon="11.958207771270512"><ele>262.0</ele><time>2026-03-27T11:04:09Z</time></trkpt><trkpt lat="42.15766048834896" lon="11.957820764971595"><ele>265.5</ele><time>2026-03-27T11:04:10Z</time></trkpt><trkpt lat="42.157751465271" lon="11.957479601471327"><ele>269.0</ele><time>2026-03-27T11:04:11Z</time></trkpt><trkpt lat="42.15782687281044" lon="11.957187150955804"><ele>269.0</ele><time>2026-03-27T11:04:12Z</time></trkpt><trkpt lat="42.15788405967432" lon="11.956916555651908"><ele>269.0</ele><time>2026-03-27T11:04:13Z</time></trkpt><trkpt lat="42.15792381275601" lon="11.956660191228707"><ele>269.0</ele><time>2026-03-27T11:04:14Z</time></trkpt><trkpt lat="42.15793727499458" lon="11.956425370566938"><ele>273.33333333333337</ele><time>2026-03-27T11:04:15Z</time></trkpt><trkpt lat="42.15792019284923" lon="11.95618219671956"><ele>277.6666666666667</ele><time>2026-03-27T11:04:16Z</time></trkpt><trkpt lat="42.157872369635065" lon="11.955909826001347"><ele>282.0</ele><time>2026-03-27T11:04:17Z</time></trkpt><trkpt lat="42.15782218080086" lon="11.955589519493655"><ele>285.5</ele><time>2026-03-27T11:04:18Z</time></trkpt><trkpt lat="42.15777396663699" lon="11.955259796941093"><ele>289.0</ele><time>2026-03-27T11:04:19Z</time></trkpt><trkpt lat="42.1577272868029" lon="11.954981811237088"><ele>289.66666666666663</ele><time>2026-03-27T11:04:20Z</time></trkpt><trkpt lat="42.15768919381508" lon="11.9547398764807"><ele>290.3333333333333</ele><time>2026-03-27T11:04:21Z</time></trkpt><trkpt lat="42.1576635597114" lon="11.954514590060555"><ele>291.0</ele><time>2026-03-27T11:04:22Z</time></trkpt><trkpt lat="42.1576642672254" lon="11.954274983634763"><ele>290.0</ele><time>2026-03-27T11:04:23Z</time></trkpt><trkpt lat="42.15770522165" lon="11.954031717734354"><ele>289.0</ele><time>2026-03-27T11:04:24Z</time></trkpt><trkpt lat="42.15777760362906" lon="11.95374891533202"><ele>288.0</ele><time>2026-03-27T11:04:25Z</time></trkpt><trkpt lat="42.157847874290134" lon="11.953453752220465"><ele>285.5</ele><time>2026-03-27T11:04:26Z</time></trkpt><trkpt lat="42.15792544210966" lon="11.953109195781758"><ele>283.0</ele><time>2026-03-27T11:04:27Z</time></trkpt><trkpt lat="42.15799181715412" lon="11.952793968170479"><ele>283.0</ele><time>2026-03-27T11:04:28Z</time></trkpt><trkpt lat="42.15804499198574" lon="11.952488680226846"><ele>283.0</ele><time>2026-03-27T11:04:29Z</time></trkpt><trkpt lat="42.15811308602991" lon="11.952135985578643"><ele>283.0</ele><time>2026-03-27T11:04:30Z</time></trkpt><trkpt lat="42.158161645471836" lon="11.951806367911397"><ele>283.0</ele><time>2026-03-27T11:04:31Z</time></trkpt><trkpt lat="42.1581783601195" lon="11.951528058647547"><ele>284.0</ele><time>2026-03-27T11:04:32Z</time></trkpt><trkpt lat="42.15818742774314" lon="11.951269056681394"><ele>285.0</ele><time>2026-03-27T11:04:33Z</time></trkpt><trkpt lat="42.1582028653977" lon="11.951050168904128"><ele>286.0</ele><time>2026-03-27T11:04:34Z</time></trkpt><trkpt lat="42.15822783873923" lon="11.950852050835108"><ele>287.8</ele><time>2026-03-27T11:04:35Z</time></trkpt><trkpt lat="42.158249721473865" lon="11.95069700750598"><ele>289.6</ele><time>2026-03-27T11:04:36Z</time></trkpt><trkpt lat="42.15827551707226" lon="11.950569455859958"><ele>291.4</ele><time>2026-03-27T11:04:37Z</time></trkpt><trkpt lat="42.158315639970326" lon="11.950468721902787"><ele>293.2</ele><time>2026-03-27T11:04:38Z</time></trkpt><trkpt lat="42.15837281047838" lon="11.95035975984628"><ele>295.0</ele><time>2026-03-27T11:04:39Z</time></trkpt><trkpt lat="42.158457249411974" lon="11.950240706720347"><ele>295.0</ele><time>2026-03-27T11:04:40Z</time></trkpt><trkpt lat="42.1585655958064" lon="11.950101114761669"><ele>295.0</ele><time>2026-03-27T11:04:41Z</time></trkpt><trkpt lat="42.158672131954965" lon="11.94993807123032"><ele>295.0</ele><time>2026-03-27T11:04:42Z</time></trkpt><trkpt lat="42.15875369360227" lon="11.949794112997315"><ele>295.0</ele><time>2026-03-27T11:04:43Z</time></trkpt><trkpt lat="42.15882490623146" lon="11.94964379491039"><ele>296.5</ele><time>2026-03-27T11:04:44Z</time></trkpt><trkpt lat="42.15888682893682" lon="11.949478745310053"><ele>298.0</ele><time>2026-03-27T11:04:45Z</time></trkpt><trkpt lat="42.15893767914671" lon="11.949304857832995"><ele>299.5</ele><time>2026-03-27T11:04:46Z</time></trkpt><trkpt lat="42.158972809805746" lon="11.949113422444759"><ele>301.0</ele><time>2026-03-27T11:04:47Z</time></trkpt><trkpt lat="42.15899027630113" lon="11.948917473438593"><ele>302.66666666666663</ele><time>2026-03-27T11:04:48Z</time></trkpt><trkpt lat="42.15899172982164" lon="11.948713052392142"><ele>304.3333333333333</ele><time>2026-03-27T11:04:49Z</time></trkpt><trkpt lat="42.15897917546417" lon="11.948466595388071"><ele>306.0</ele><time>2026-03-27T11:04:50Z</time></trkpt><trkpt lat="42.1589515948121" lon="11.948195395227307"><ele>311.5</ele><time>2026-03-27T11:04:51Z</time></trkpt><trkpt lat="42.158921598137" lon="11.947896377360365"><ele>317.0</ele><time>2026-03-27T11:04:52Z</time></trkpt><trkpt lat="42.1588890084473" lon="11.947591581286794"><ele>320.0</ele><time>2026-03-27T11:04:53Z</time></trkpt><trkpt lat="42.158876243753504" lon="11.9473007290234"><ele>323.0</ele><time>2026-03-27T11:04:54Z</time></trkpt><trkpt lat="42.158850590917126" lon="11.947039235516977"><ele>326.0</ele><time>2026-03-27T11:04:55Z</time></trkpt><trkpt lat="42.15882772490351" lon="11.946800046160275"><ele>328.75</ele><time>2026-03-27T11:04:56Z</time></trkpt><trkpt lat="42.158811463049766" lon="11.946587480305459"><ele>331.5</ele><time>2026-03-27T11:04:57Z</time></trkpt><trkpt lat="42.15880751583014" lon="11.94638392556308"><ele>334.25</ele><time>2026-03-27T11:04:58Z</time></trkpt><trkpt lat="42.15883685699272" lon="11.946201962481787"><ele>337.0</ele><time>2026-03-27T11:04:59Z</time></trkpt><trkpt lat="42.158903656490146" lon="11.94603613488832"><ele>336.0</ele><time>2026-03-27T11:05:00Z</time></trkpt><trkpt lat="42.158981033690836" lon="11.945838747451223"><ele>335.0</ele><time>2026-03-27T11:05:01Z</time></trkpt><trkpt lat="42.159085932749285" lon="11.945651593926288"><ele>334.0</ele><time>2026-03-27T11:05:02Z</time></trkpt><trkpt lat="42.1591995769532" lon="11.945458307849663"><ele>334.0</ele><time>2026-03-27T11:05:03Z</time></trkpt><trkpt lat="42.159352377021975" lon="11.945231978185259"><ele>334.0</ele><time>2026-03-27T11:05:04Z</time></trkpt><trkpt lat="42.1595274464364" lon="11.944986428835728"><ele>341.5</ele><time>2026-03-27T11:05:05Z</time></trkpt><trkpt lat="42.15969281476583" lon="11.94475765919444"><ele>349.0</ele><time>2026-03-27T11:05:06Z</time></trkpt><trkpt lat="42.15986502017877" lon="11.944542899344976"><ele>350.3333333333333</ele><time>2026-03-27T11:05:07Z</time></trkpt><trkpt lat="42.16005078168769" lon="11.944334163283946"><ele>351.6666666666667</ele><time>2026-03-27T11:05:08Z</time></trkpt><trkpt lat="42.16020750052712" lon="11.944167896679767"><ele>353.0</ele><time>2026-03-27T11:05:09Z</time></trkpt><trkpt lat="42.16034737207631" lon="11.944014753885373"><ele>353.0</ele><time>2026-03-27T11:05:10Z</time></trkpt><trkpt lat="42.16047545390017" lon="11.943885834132212"><ele>353.0</ele><time>2026-03-27T11:05:11Z</time></trkpt><trkpt lat="42.16059826372607" lon="11.943792043704489"><ele>353.0</ele><time>2026-03-27T11:05:12Z</time></trkpt><trkpt lat="42.160731752813376" lon="11.94376789208795"><ele>353.0</ele><time>2026-03-27T11:05:13Z</time></trkpt><trkpt lat="42.16086230760067" lon="11.943789860020374"><ele>350.6666666666667</ele><time>2026-03-27T11:05:14Z</time></trkpt><trkpt lat="42.161027552936204" lon="11.943796302829952"><ele>348.3333333333333</ele><time>2026-03-27T11:05:15Z</time></trkpt><trkpt lat="42.16119774051447" lon="11.943766330959065"><ele>346.0</ele><time>2026-03-27T11:05:16Z</time></trkpt><trkpt lat="42.161379065967395" lon="11.94371609972782"><ele>344.3333333333333</ele><time>2026-03-27T11:05:17Z</time></trkpt><trkpt lat="42.1615355289511" lon="11.943651243365707"><ele>342.6666666666667</ele><time>2026-03-27T11:05:18Z</time></trkpt><trkpt lat="42.16168556934898" lon="11.943560369570111"><ele>341.0</ele><time>2026-03-27T11:05:19Z</time></trkpt><trkpt lat="42.16181316231833" lon="11.943445652167334"><ele>346.0</ele><time>2026-03-27T11:05:20Z</time></trkpt><trkpt lat="42.16193496917326" lon="11.94329045913762"><ele>351.0</ele><time>2026-03-27T11:05:21Z</time></trkpt><trkpt lat="42.162056974274776" lon="11.943094621039778"><ele>356.0</ele><time>2026-03-27T11:05:22Z</time></trkpt><trkpt lat="42.162185596664834" lon="11.942905318357642"><ele>356.0</ele><time>2026-03-27T11:05:23Z</time></trkpt><trkpt lat="42.16227891360622" lon="11.942755356316448"><ele>356.0</ele><time>2026-03-27T11:05:24Z</time></trkpt><trkpt lat="42.16235797599494" lon="11.94260416029693"><ele>356.0</ele><time>2026-03-27T11:05:25Z</time></trkpt><trkpt lat="42.162408792258304" lon="11.942426614065829"><ele>356.0</ele><time>2026-03-27T11:05:26Z</time></trkpt><trkpt lat="42.162422856331744" lon="11.942232135887723"><ele>358.6666666666667</ele><time>2026-03-27T11:05:27Z</time></trkpt><trkpt lat="42.16242643480425" lon="11.942040392732645"><ele>361.3333333333333</ele><time>2026-03-27T11:05:28Z</time></trkpt><trkpt lat="42.16237156319301" lon="11.941839748587503"><ele>364.0</ele><time>2026-03-27T11:05:29Z</time></trkpt><trkpt lat="42.16231370385052" lon="11.941631656886749"><ele>372.3333333333333</ele><time>2026-03-27T11:05:30Z</time></trkpt><trkpt lat="42.16223644504" lon="11.94142393285107"><ele>380.66666666666663</ele><time>2026-03-27T11:05:31Z</time></trkpt><trkpt lat="42.16214478368443" lon="11.941229649296849"><ele>389.0</ele><time>2026-03-27T11:05:32Z</time></trkpt><trkpt lat="42.16204563906187" lon="11.941040747855386"><ele>390.3333333333333</ele><time>2026-03-27T11:05:33Z</time></trkpt><trkpt lat="42.16197207785285" lon="11.94086708661701"><ele>391.66666666666663</ele><time>2026-03-27T11:05:34Z</time></trkpt><trkpt lat="42.16187703030122" lon="11.940670869985304"><ele>393.0</ele><time>2026-03-27T11:05:35Z</time></trkpt><trkpt lat="42.16178967037182" lon="11.9404633535241"><ele>393.0</ele><time>2026-03-27T11:05:36Z</time></trkpt><trkpt lat="42.161712200798725" lon="11.9402601999899"><ele>393.0</ele><time>2026-03-27T11:05:37Z</time></trkpt><trkpt lat="42.16163931182272" lon="11.940100322342461"><ele>393.0</ele><time>2026-03-27T11:05:38Z</time></trkpt><trkpt lat="42.1615579540351" lon="11.939976285791571"><ele>393.0</ele><time>2026-03-27T11:05:39Z</time></trkpt><trkpt lat="42.1614473171007" lon="11.939908705557956"><ele>390.25</ele><time>2026-03-27T11:05:40Z</time></trkpt><trkpt lat="42.161316910477694" lon="11.939896496160832"><ele>387.5</ele><time>2026-03-27T11:05:41Z</time></trkpt><trkpt lat="42.16116719673249" lon="11.939923038292026"><ele>384.75</ele><time>2026-03-27T11:05:42Z</time></trkpt><trkpt lat="42.1610091654567" lon="11.939967389148388"><ele>382.0</ele><time>2026-03-27T11:05:43Z</time></trkpt><trkpt lat="42.16083402510946" lon="11.940009910848849"><ele>381.25</ele><time>2026-03-27T11:05:44Z</time></trkpt><trkpt lat="42.160671671132306" lon="11.940046636803253"><ele>380.5</ele><time>2026-03-27T11:05:45Z</time></trkpt><trkpt lat="42.160539437322534" lon="11.940090519735783"><ele>379.75</ele><time>2026-03-27T11:05:46Z</time></trkpt><trkpt lat="42.16042682617394" lon="11.94017382290291"><ele>379.0</ele><time>2026-03-27T11:05:47Z</time></trkpt><trkpt lat="42.160345540650944" lon="11.940308466202888"><ele>381.79999999999995</ele><time>2026-03-27T11:05:48Z</time></trkpt><trkpt lat="42.16029185416361" lon="11.940458237786448"><ele>384.59999999999997</ele><time>2026-03-27T11:05:49Z</time></trkpt><trkpt lat="42.160260030515666" lon="11.94058583955927"><ele>387.4</ele><time>2026-03-27T11:05:50Z</time></trkpt><trkpt lat="42.16023832735938" lon="11.94070403842459"><ele>390.2</ele><time>2026-03-27T11:05:51Z</time></trkpt><trkpt lat="42.16020824758777" lon="11.94085756257367"><ele>393.0</ele><time>2026-03-27T11:05:52Z</time></trkpt><trkpt lat="42.16016272541252" lon="11.941084189609999"><ele>394.0</ele><time>2026-03-27T11:05:53Z</time></trkpt><trkpt lat="42.16010872541578" lon="11.94131103994364"><ele>395.0</ele><time>2026-03-27T11:05:54Z</time></trkpt><trkpt lat="42.16004682658138" lon="11.941488501013165"><ele>396.0</ele><time>2026-03-27T11:05:55Z</time></trkpt><trkpt lat="42.15996207898189" lon="11.941651413617057"><ele>396.66666666666663</ele><time>2026-03-27T11:05:56Z</time></trkpt><trkpt lat="42.15983976503051" lon="11.941823494666439"><ele>397.3333333333333</ele><time>2026-03-27T11:05:57Z</time></trkpt><trkpt lat="42.1596729353301" lon="11.941990822725026"><ele>398.0</ele><time>2026-03-27T11:05:58Z</time></trkpt><trkpt lat="42.159506551415056" lon="11.942151975379122"><ele>398.0</ele><time>2026-03-27T11:05:59.001Z</time></trkpt><trkpt lat="42.15936526205502" lon="11.942255776358543"><ele>398.0</ele><time>2026-03-27T11:06:00.001Z</time></trkpt><trkpt lat="42.15924008565362" lon="11.942303691878482"><ele>398.0</ele><time>2026-03-27T11:06:01.001Z</time></trkpt><trkpt lat="42.15913321296282" lon="11.942286367319321"><ele>398.0</ele><time>2026-03-27T11:06:02.001Z</time></trkpt><trkpt lat="42.15902097006197" lon="11.942258095524519"><ele>398.75</ele><time>2026-03-27T11:06:03.001Z</time></trkpt><trkpt lat="42.15892642801651" lon="11.942133708997407"><ele>399.5</ele><time>2026-03-27T11:06:04.001Z</time></trkpt><trkpt lat="42.15882701668156" lon="11.941995636929494"><ele>400.25</ele><time>2026-03-27T11:06:05.001Z</time></trkpt><trkpt lat="42.158705322320614" lon="11.94184831676093"><ele>401.0</ele><time>2026-03-27T11:06:06.001Z</time></trkpt><trkpt lat="42.158569762231856" lon="11.941732335924186"><ele>405.25</ele><time>2026-03-27T11:06:07.001Z</time></trkpt><trkpt lat="42.15844377660602" lon="11.941668816201519"><ele>409.5</ele><time>2026-03-27T11:06:08.001Z</time></trkpt><trkpt lat="42.15831259312995" lon="11.941664510339987"><ele>413.75</ele><time>2026-03-27T11:06:09.001Z</time></trkpt><trkpt lat="42.15817948320465" lon="11.941698031127046"><ele>418.0</ele><time>2026-03-27T11:06:10.001Z</time></trkpt><trkpt lat="42.158027542854114" lon="11.94177543499303"><ele>420.6666666666667</ele><time>2026-03-27T11:06:11.001Z</time></trkpt><trkpt lat="42.157864288158784" lon="11.941844704465968"><ele>423.33333333333337</ele><time>2026-03-27T11:06:12.001Z</time></trkpt><trkpt lat="42.1576816556979" lon="11.941933265896818"><ele>426.0</ele><time>2026-03-27T11:06:13.001Z</time></trkpt><trkpt lat="42.15753358492573" lon="11.942026967990744"><ele>426.0</ele><time>2026-03-27T11:06:14.001Z</time></trkpt><trkpt lat="42.15740633026866" lon="11.942110057560242"><ele>426.0</ele><time>2026-03-27T11:06:15.001Z</time></trkpt><trkpt lat="42.157313616793445" lon="11.942253811257778"><ele>426.0</ele><time>2026-03-27T11:06:16.001Z</time></trkpt><trkpt lat="42.157210631096035" lon="11.942433232821584"><ele>422.66666666666663</ele><time>2026-03-27T11:06:17.001Z</time></trkpt><trkpt lat="42.157111304269726" lon="11.942607398799563"><ele>419.3333333333333</ele><time>2026-03-27T11:06:18.001Z</time></trkpt><trkpt lat="42.15699204234949" lon="11.942741692590706"><ele>416.0</ele><time>2026-03-27T11:06:19.001Z</time></trkpt><trkpt lat="42.156863696619446" lon="11.942834285244958"><ele>416.0</ele><time>2026-03-27T11:06:20.001Z</time></trkpt><trkpt lat="42.1567250757486" lon="11.942906511955265"><ele>416.0</ele><time>2026-03-27T11:06:21.001Z</time></trkpt><trkpt lat="42.156585497290415" lon="11.942944753401708"><ele>416.0</ele><time>2026-03-27T11:06:22.001Z</time></trkpt><trkpt lat="42.15646023557826" lon="11.942941517587649"><ele>416.0</ele><time>2026-03-27T11:06:23.001Z</time></trkpt><trkpt lat="42.15632234229479" lon="11.942901254712543"><ele>413.0</ele><time>2026-03-27T11:06:24.001Z</time></trkpt><trkpt lat="42.15619545569091" lon="11.942810211306757"><ele>410.0</ele><time>2026-03-27T11:06:25.001Z</time></trkpt><trkpt lat="42.156085106105856" lon="11.942693590765893"><ele>407.0</ele><time>2026-03-27T11:06:26.001Z</time></trkpt><trkpt lat="42.155988130605756" lon="11.942548660432333"><ele>404.0</ele><time>2026-03-27T11:06:27.001Z</time></trkpt><trkpt lat="42.155906674645735" lon="11.942403038178774"><ele>409.5</ele><time>2026-03-27T11:06:28Z</time></trkpt><trkpt lat="42.15585211318762" lon="11.942244095394214"><ele>415.0</ele><time>2026-03-27T11:06:29Z</time></trkpt><trkpt lat="42.155755729989345" lon="11.942119007487843"><ele>420.5</ele><time>2026-03-27T11:06:30Z</time></trkpt><trkpt lat="42.15563360002959" lon="11.941961652290724"><ele>426.0</ele><time>2026-03-27T11:06:31Z</time></trkpt><trkpt lat="42.15550184118892" lon="11.941814434711782"><ele>428.0</ele><time>2026-03-27T11:06:32Z</time></trkpt><trkpt lat="42.15538510906112" lon="11.941696123871838"><ele>430.0</ele><time>2026-03-27T11:06:33Z</time></trkpt><trkpt lat="42.15529284164326" lon="11.941568357074958"><ele>432.0</ele><time>2026-03-27T11:06:34Z</time></trkpt><trkpt lat="42.155225459588195" lon="11.941436691270026"><ele>434.0</ele><time>2026-03-27T11:06:35Z</time></trkpt><trkpt lat="42.15514601922775" lon="11.941313664113055"><ele>434.0</ele><time>2026-03-27T11:06:36Z</time></trkpt><trkpt lat="42.15506407285176" lon="11.941184801873753"><ele>434.0</ele><time>2026-03-27T11:06:37Z</time></trkpt><trkpt lat="42.15497656568206" lon="11.941044337554361"><ele>434.0</ele><time>2026-03-27T11:06:38Z</time></trkpt><trkpt lat="42.15488893602376" lon="11.940922554178302"><ele>434.0</ele><time>2026-03-27T11:06:39Z</time></trkpt><trkpt lat="42.15482328518307" lon="11.940778282540846"><ele>436.5</ele><time>2026-03-27T11:06:40Z</time></trkpt><trkpt lat="42.15476523466892" lon="11.940630972454374"><ele>439.0</ele><time>2026-03-27T11:06:41Z</time></trkpt><trkpt lat="42.15472186641911" lon="11.940473801496083"><ele>441.5</ele><time>2026-03-27T11:06:42Z</time></trkpt><trkpt lat="42.15467051584565" lon="11.940331594311353"><ele>444.0</ele><time>2026-03-27T11:06:43Z</time></trkpt><trkpt lat="42.15464536608223" lon="11.940188012243528"><ele>445.5</ele><time>2026-03-27T11:06:44Z</time></trkpt><trkpt lat="42.15462804806579" lon="11.940043862207993"><ele>447.0</ele><time>2026-03-27T11:06:45Z</time></trkpt><trkpt lat="42.15461165432106" lon="11.939880505316655"><ele>448.5</ele><time>2026-03-27T11:06:46Z</time></trkpt><trkpt lat="42.154584588665315" lon="11.939722665418941"><ele>450.0</ele><time>2026-03-27T11:06:47Z</time></trkpt><trkpt lat="42.1545533433405" lon="11.939595649766447"><ele>450.0</ele><time>2026-03-27T11:06:48Z</time></trkpt><trkpt lat="42.15450845179491" lon="11.93949429457365"><ele>450.0</ele><time>2026-03-27T11:06:49Z</time></trkpt><trkpt lat="42.154436546530874" lon="11.939410160692892"><ele>450.0</ele><time>2026-03-27T11:06:50Z</time></trkpt><trkpt lat="42.15435132404161" lon="11.93934966942957"><ele>450.0</ele><time>2026-03-27T11:06:51Z</time></trkpt><trkpt lat="42.15426118096613" lon="11.939328589686696"><ele>450.0</ele><time>2026-03-27T11:06:52Z</time></trkpt><trkpt lat="42.15415026116818" lon="11.93934029593374"><ele>456.33333333333337</ele><time>2026-03-27T11:06:53Z</time></trkpt><trkpt lat="42.153994281984566" lon="11.939363472144095"><ele>462.6666666666667</ele><time>2026-03-27T11:06:54Z</time></trkpt><trkpt lat="42.15382413127523" lon="11.939377793703565"><ele>469.0</ele><time>2026-03-27T11:06:55Z</time></trkpt><trkpt lat="42.153690255292396" lon="11.93938420946692"><ele>469.0</ele><time>2026-03-27T11:06:56Z</time></trkpt><trkpt lat="42.15357976318875" lon="11.939395291946047"><ele>469.0</ele><time>2026-03-27T11:06:57Z</time></trkpt><trkpt lat="42.15348424155302" lon="11.939439392188142"><ele>469.0</ele><time>2026-03-27T11:06:58Z</time></trkpt><trkpt lat="42.15340330013089" lon="11.939513081905575"><ele>469.0</ele><time>2026-03-27T11:06:59Z</time></trkpt><trkpt lat="42.15335186176942" lon="11.939621576720633"><ele>469.0</ele><time>2026-03-27T11:07:00Z</time></trkpt><trkpt lat="42.15333544245242" lon="11.939750809578443"><ele>469.0</ele><time>2026-03-27T11:07:01Z</time></trkpt><trkpt lat="42.15335226991193" lon="11.9398761248425"><ele>469.0</ele><time>2026-03-27T11:07:02Z</time></trkpt><trkpt lat="42.153398475948705" lon="11.940028024404045"><ele>469.0</ele><time>2026-03-27T11:07:03Z</time></trkpt><trkpt lat="42.15344604759462" lon="11.940238551463755"><ele>469.0</ele><time>2026-03-27T11:07:04Z</time></trkpt><trkpt lat="42.15349939557018" lon="11.940426135983472"><ele>469.4</ele><time>2026-03-27T11:07:05Z</time></trkpt><trkpt lat="42.15351338271259" lon="11.940568260180408"><ele>469.79999999999995</ele><time>2026-03-27T11:07:06Z</time></trkpt><trkpt lat="42.153532456270554" lon="11.940674851898622"><ele>470.20000000000005</ele><time>2026-03-27T11:07:07Z</time></trkpt><trkpt lat="42.15355086461375" lon="11.940774752040351"><ele>470.6</ele><time>2026-03-27T11:07:08Z</time></trkpt><trkpt lat="42.15353105751233" lon="11.940881979369038"><ele>471.0</ele><time>2026-03-27T11:07:09Z</time></trkpt><trkpt lat="42.15346480149651" lon="11.941012885359642"><ele>471.1666666666667</ele><time>2026-03-27T11:07:11Z</time></trkpt><trkpt lat="42.15339827390634" lon="11.941093314123512"><ele>471.33333333333337</ele><time>2026-03-27T11:07:12Z</time></trkpt><trkpt lat="42.1533326994235" lon="11.941152261551677"><ele>471.5</ele><time>2026-03-27T11:07:13Z</time></trkpt><trkpt lat="42.15326026086208" lon="11.94121981849578"><ele>471.6666666666667</ele><time>2026-03-27T11:07:14Z</time></trkpt><trkpt lat="42.15321065512958" lon="11.941273962312177"><ele>471.83333333333337</ele><time>2026-03-27T11:07:15Z</time></trkpt><trkpt lat="42.15311534482529" lon="11.94136738126819"><ele>472.0</ele><time>2026-03-27T11:07:17Z</time></trkpt><trkpt lat="42.15303534818067" lon="11.941372057986124"><ele>473.50000000000006</ele><time>2026-03-27T11:07:19Z</time></trkpt><trkpt lat="42.15292359060692" lon="11.941296551942038"><ele>475.0</ele><time>2026-03-27T11:07:21Z</time></trkpt><trkpt lat="42.15282213813156" lon="11.941269852054061"><ele>476.5</ele><time>2026-03-27T11:07:23Z</time></trkpt><trkpt lat="42.15276794486897" lon="11.941225701405479"><ele>478.0</ele><time>2026-03-27T11:07:25Z</time></trkpt><trkpt lat="42.152700542790356" lon="11.941237223357652"><ele>479.50000000000006</ele><time>2026-03-27T11:07:38Z</time></trkpt><trkpt lat="42.15267132616163" lon="11.941325217001038"><ele>481.0</ele><time>2026-03-27T11:08:16.001Z</time></trkpt><trkpt lat="42.15271454087563" lon="11.941184437686642"><ele>481.0</ele><time>2026-03-27T11:08:27.001Z</time></trkpt><trkpt lat="42.15267006371605" lon="11.941323391514706"><ele>481.0</ele><time>2026-03-27T11:08:36Z</time></trkpt><trkpt lat="42.1527073913974" lon="11.94118426851057"><ele>481.0</ele><time>2026-03-27T11:08:51Z</time></trkpt><trkpt lat="42.15266879047635" lon="11.941305015289611"><ele>481.0</ele><time>2026-03-27T11:09:03Z</time></trkpt><trkpt lat="42.1527084829063" lon="11.941180935593119"><ele>481.0</ele><time>2026-03-27T11:09:10Z</time></trkpt><trkpt lat="42.15266867733748" lon="11.941292735446599"><ele>481.0</ele><time>2026-03-27T11:09:30Z</time></trkpt><trkpt lat="42.15270025507221" lon="11.941176179100296"><ele>481.0</ele><time>2026-03-27T11:10:03Z</time></trkpt><trkpt lat="42.15265706229025" lon="11.941288496694138"><ele>481.0</ele><time>2026-03-27T11:10:12.001Z</time></trkpt><trkpt lat="42.15270303240982" lon="11.941363398438085"><ele>481.0</ele><time>2026-03-27T11:10:31.001Z</time></trkpt><trkpt lat="42.152716651724376" lon="11.941040691689645"><ele>481.00000000000006</ele><time>2026-03-27T11:17:25.017Z</time></trkpt><trkpt lat="42.152656266465726" lon="11.941067216962043"><ele>481.0</ele><time>2026-03-27T11:17:32Z</time></trkpt><trkpt lat="42.15263274810464" lon="11.941149253332563"><ele>481.0</ele><time>2026-03-27T11:17:39Z</time></trkpt><trkpt lat="42.15263883966629" lon="11.941243212133523"><ele>481.0</ele><time>2026-03-27T11:18:57.001Z</time></trkpt><trkpt lat="42.15257485952623" lon="11.94113797156775"><ele>481.00000000000006</ele><time>2026-03-27T11:22:08.013Z</time></trkpt><trkpt lat="42.152659409268864" lon="11.94119429044091"><ele>481.0</ele><time>2026-03-27T11:22:39Z</time></trkpt><trkpt lat="42.15261263211498" lon="11.94102945743282"><ele>481.0</ele><time>2026-03-27T11:24:06.001Z</time></trkpt><trkpt lat="42.15264990565199" lon="11.941115252174505"><ele>481.0</ele><time>2026-03-27T11:25:00.001Z</time></trkpt><trkpt lat="42.1526572855758" lon="11.941213706008217"><ele>481.0</ele><time>2026-03-27T11:25:35.001Z</time></trkpt><trkpt lat="42.15267348453393" lon="11.941319138430835"><ele>481.0</ele><time>2026-03-27T11:34:46.001Z</time></trkpt><trkpt lat="42.15266131688522" lon="11.941187894606834"><ele>481.0</ele><time>2026-03-27T11:40:27Z</time></trkpt></trkseg></trk></gpx>